<?xml version="1.0" encoding="UTF-8" standalone="no" ?>
<gpx xmlns="http://www.topografix.com/GPX/1/1" xmlns:xsi="http://www.w3.org/2001/XMLSchema-instance" xsi:schemaLocation="http://www.topografix.com/GPX/1/1 http://www.topografix.com/GPX/1/1/gpx.xsd" version="1.1" creator="VisuGPX - https://www.visugpx.com">
  <metadata>
    <name>reco. Raid des lycées 2016</name>
    <desc><![CDATA[Reco raid: départ du site de cordata.]]></desc>
  </metadata>
  <trk>
    <name><![CDATA[RECO RAID2]]></name>
    <trkseg>
      <trkpt lat="43.99445" lon="5.13888">
        <ele>247.2</ele>
        <time>2016-01-10T09:41:27Z</time>
      </trkpt>
      <trkpt lat="43.99444" lon="5.13889">
        <ele>251.04</ele>
        <time>2016-01-10T09:41:33Z</time>
      </trkpt>
      <trkpt lat="43.99443" lon="5.13889">
        <ele>247.68</ele>
        <time>2016-01-10T09:41:35Z</time>
      </trkpt>
      <trkpt lat="43.99443" lon="5.13889">
        <ele>252.96</ele>
        <time>2016-01-10T09:41:37Z</time>
      </trkpt>
      <trkpt lat="43.99443" lon="5.13889">
        <ele>248.64</ele>
        <time>2016-01-10T09:41:38Z</time>
      </trkpt>
      <trkpt lat="43.99444" lon="5.1389">
        <ele>248.64</ele>
        <time>2016-01-10T09:41:50Z</time>
      </trkpt>
      <trkpt lat="43.99446" lon="5.1389">
        <ele>248.64</ele>
        <time>2016-01-10T09:42:02Z</time>
      </trkpt>
      <trkpt lat="43.99442" lon="5.13891">
        <ele>248.64</ele>
        <time>2016-01-10T09:42:17Z</time>
      </trkpt>
      <trkpt lat="43.99442" lon="5.1389">
        <ele>245.75</ele>
        <time>2016-01-10T09:42:18Z</time>
      </trkpt>
      <trkpt lat="43.99441" lon="5.1389">
        <ele>250.56</ele>
        <time>2016-01-10T09:42:19Z</time>
      </trkpt>
      <trkpt lat="43.99442" lon="5.13889">
        <ele>246.23</ele>
        <time>2016-01-10T09:42:26Z</time>
      </trkpt>
      <trkpt lat="43.99442" lon="5.13889">
        <ele>250.08</ele>
        <time>2016-01-10T09:42:27Z</time>
      </trkpt>
      <trkpt lat="43.99445" lon="5.13891">
        <ele>248.16</ele>
        <time>2016-01-10T09:42:40Z</time>
      </trkpt>
      <trkpt lat="43.99444" lon="5.13889">
        <ele>248.16</ele>
        <time>2016-01-10T09:42:48Z</time>
      </trkpt>
      <trkpt lat="43.99442" lon="5.13889">
        <ele>246.23</ele>
        <time>2016-01-10T09:42:53Z</time>
      </trkpt>
      <trkpt lat="43.99439" lon="5.13887">
        <ele>245.27</ele>
        <time>2016-01-10T09:42:56Z</time>
      </trkpt>
      <trkpt lat="43.99434" lon="5.13883">
        <ele>244.79</ele>
        <time>2016-01-10T09:43:01Z</time>
      </trkpt>
      <trkpt lat="43.99429" lon="5.13879">
        <ele>243.35</ele>
        <time>2016-01-10T09:43:07Z</time>
      </trkpt>
      <trkpt lat="43.99428" lon="5.13878">
        <ele>242.87</ele>
        <time>2016-01-10T09:43:10Z</time>
      </trkpt>
      <trkpt lat="43.99424" lon="5.13874">
        <ele>241.43</ele>
        <time>2016-01-10T09:43:14Z</time>
      </trkpt>
      <trkpt lat="43.99419" lon="5.1387">
        <ele>241.43</ele>
        <time>2016-01-10T09:43:19Z</time>
      </trkpt>
      <trkpt lat="43.99415" lon="5.13868">
        <ele>241.43</ele>
        <time>2016-01-10T09:43:24Z</time>
      </trkpt>
      <trkpt lat="43.99412" lon="5.13863">
        <ele>240.47</ele>
        <time>2016-01-10T09:43:31Z</time>
      </trkpt>
      <trkpt lat="43.99412" lon="5.13862">
        <ele>239.51</ele>
        <time>2016-01-10T09:43:42Z</time>
      </trkpt>
      <trkpt lat="43.99412" lon="5.13864">
        <ele>240.47</ele>
        <time>2016-01-10T09:43:54Z</time>
      </trkpt>
      <trkpt lat="43.99415" lon="5.13858">
        <ele>240.47</ele>
        <time>2016-01-10T09:44:11Z</time>
      </trkpt>
      <trkpt lat="43.99414" lon="5.13859">
        <ele>239.99</ele>
        <time>2016-01-10T09:44:18Z</time>
      </trkpt>
      <trkpt lat="43.99412" lon="5.13864">
        <ele>240.47</ele>
        <time>2016-01-10T09:44:25Z</time>
      </trkpt>
      <trkpt lat="43.99407" lon="5.13877">
        <ele>240.47</ele>
        <time>2016-01-10T09:44:35Z</time>
      </trkpt>
      <trkpt lat="43.99398" lon="5.13884">
        <ele>240.47</ele>
        <time>2016-01-10T09:44:43Z</time>
      </trkpt>
      <trkpt lat="43.99391" lon="5.13887">
        <ele>241.43</ele>
        <time>2016-01-10T09:44:52Z</time>
      </trkpt>
      <trkpt lat="43.99392" lon="5.13887">
        <ele>241.43</ele>
        <time>2016-01-10T09:45:04Z</time>
      </trkpt>
      <trkpt lat="43.99393" lon="5.13885">
        <ele>241.43</ele>
        <time>2016-01-10T09:45:17Z</time>
      </trkpt>
      <trkpt lat="43.99393" lon="5.13885">
        <ele>241.43</ele>
        <time>2016-01-10T09:45:32Z</time>
      </trkpt>
      <trkpt lat="43.99393" lon="5.13882">
        <ele>241.43</ele>
        <time>2016-01-10T09:45:48Z</time>
      </trkpt>
      <trkpt lat="43.99391" lon="5.13882">
        <ele>241.43</ele>
        <time>2016-01-10T09:45:56Z</time>
      </trkpt>
      <trkpt lat="43.99395" lon="5.13859">
        <ele>239.99</ele>
        <time>2016-01-10T09:46:05Z</time>
      </trkpt>
      <trkpt lat="43.99396" lon="5.13852">
        <ele>238.54</ele>
        <time>2016-01-10T09:46:10Z</time>
      </trkpt>
      <trkpt lat="43.99396" lon="5.13851">
        <ele>237.58</ele>
        <time>2016-01-10T09:46:15Z</time>
      </trkpt>
      <trkpt lat="43.99396" lon="5.13856">
        <ele>237.1</ele>
        <time>2016-01-10T09:46:19Z</time>
      </trkpt>
      <trkpt lat="43.994" lon="5.13857">
        <ele>239.99</ele>
        <time>2016-01-10T09:46:25Z</time>
      </trkpt>
      <trkpt lat="43.99401" lon="5.13858">
        <ele>240.95</ele>
        <time>2016-01-10T09:46:27Z</time>
      </trkpt>
      <trkpt lat="43.99396" lon="5.13861">
        <ele>241.43</ele>
        <time>2016-01-10T09:46:40Z</time>
      </trkpt>
      <trkpt lat="43.99394" lon="5.13862">
        <ele>241.43</ele>
        <time>2016-01-10T09:46:49Z</time>
      </trkpt>
      <trkpt lat="43.99394" lon="5.13861">
        <ele>241.43</ele>
        <time>2016-01-10T09:46:57Z</time>
      </trkpt>
      <trkpt lat="43.99394" lon="5.13862">
        <ele>241.43</ele>
        <time>2016-01-10T09:47:09Z</time>
      </trkpt>
      <trkpt lat="43.99393" lon="5.13862">
        <ele>241.43</ele>
        <time>2016-01-10T09:47:20Z</time>
      </trkpt>
      <trkpt lat="43.99393" lon="5.13862">
        <ele>241.43</ele>
        <time>2016-01-10T09:47:33Z</time>
      </trkpt>
      <trkpt lat="43.99393" lon="5.13862">
        <ele>241.91</ele>
        <time>2016-01-10T09:47:52Z</time>
      </trkpt>
      <trkpt lat="43.99393" lon="5.13862">
        <ele>241.43</ele>
        <time>2016-01-10T09:48:01Z</time>
      </trkpt>
      <trkpt lat="43.99393" lon="5.13862">
        <ele>241.43</ele>
        <time>2016-01-10T09:48:10Z</time>
      </trkpt>
      <trkpt lat="43.99393" lon="5.13863">
        <ele>241.91</ele>
        <time>2016-01-10T09:48:18Z</time>
      </trkpt>
      <trkpt lat="43.99393" lon="5.13862">
        <ele>241.43</ele>
        <time>2016-01-10T09:48:29Z</time>
      </trkpt>
      <trkpt lat="43.99393" lon="5.13862">
        <ele>241.43</ele>
        <time>2016-01-10T09:48:44Z</time>
      </trkpt>
      <trkpt lat="43.99393" lon="5.13863">
        <ele>241.43</ele>
        <time>2016-01-10T09:48:57Z</time>
      </trkpt>
      <trkpt lat="43.99391" lon="5.13862">
        <ele>241.91</ele>
        <time>2016-01-10T09:49:00Z</time>
      </trkpt>
      <trkpt lat="43.99389" lon="5.13859">
        <ele>243.35</ele>
        <time>2016-01-10T09:49:07Z</time>
      </trkpt>
      <trkpt lat="43.99389" lon="5.13858">
        <ele>243.83</ele>
        <time>2016-01-10T09:49:11Z</time>
      </trkpt>
      <trkpt lat="43.99388" lon="5.13857">
        <ele>242.39</ele>
        <time>2016-01-10T09:49:15Z</time>
      </trkpt>
      <trkpt lat="43.99389" lon="5.13857">
        <ele>241.91</ele>
        <time>2016-01-10T09:49:28Z</time>
      </trkpt>
      <trkpt lat="43.99389" lon="5.13857">
        <ele>242.39</ele>
        <time>2016-01-10T09:49:43Z</time>
      </trkpt>
      <trkpt lat="43.99389" lon="5.13858">
        <ele>242.87</ele>
        <time>2016-01-10T09:49:46Z</time>
      </trkpt>
      <trkpt lat="43.99389" lon="5.13856">
        <ele>243.35</ele>
        <time>2016-01-10T09:49:48Z</time>
      </trkpt>
      <trkpt lat="43.99387" lon="5.13852">
        <ele>244.31</ele>
        <time>2016-01-10T09:49:52Z</time>
      </trkpt>
      <trkpt lat="43.9939" lon="5.13846">
        <ele>245.75</ele>
        <time>2016-01-10T09:49:58Z</time>
      </trkpt>
      <trkpt lat="43.99389" lon="5.13841">
        <ele>247.68</ele>
        <time>2016-01-10T09:50:05Z</time>
      </trkpt>
      <trkpt lat="43.99388" lon="5.13841">
        <ele>247.2</ele>
        <time>2016-01-10T09:50:14Z</time>
      </trkpt>
      <trkpt lat="43.99388" lon="5.13841">
        <ele>246.72</ele>
        <time>2016-01-10T09:50:27Z</time>
      </trkpt>
      <trkpt lat="43.99387" lon="5.13838">
        <ele>247.2</ele>
        <time>2016-01-10T09:50:39Z</time>
      </trkpt>
      <trkpt lat="43.99383" lon="5.13829">
        <ele>249.12</ele>
        <time>2016-01-10T09:50:48Z</time>
      </trkpt>
      <trkpt lat="43.99383" lon="5.13826">
        <ele>250.08</ele>
        <time>2016-01-10T09:50:58Z</time>
      </trkpt>
      <trkpt lat="43.99382" lon="5.13825">
        <ele>252</ele>
        <time>2016-01-10T09:51:06Z</time>
      </trkpt>
      <trkpt lat="43.99384" lon="5.13818">
        <ele>254.41</ele>
        <time>2016-01-10T09:51:13Z</time>
      </trkpt>
      <trkpt lat="43.99391" lon="5.13816">
        <ele>256.81</ele>
        <time>2016-01-10T09:51:25Z</time>
      </trkpt>
      <trkpt lat="43.99395" lon="5.13816">
        <ele>257.77</ele>
        <time>2016-01-10T09:51:34Z</time>
      </trkpt>
      <trkpt lat="43.99396" lon="5.13817">
        <ele>259.21</ele>
        <time>2016-01-10T09:51:41Z</time>
      </trkpt>
      <trkpt lat="43.99396" lon="5.13819">
        <ele>259.69</ele>
        <time>2016-01-10T09:51:51Z</time>
      </trkpt>
      <trkpt lat="43.99398" lon="5.13818">
        <ele>260.17</ele>
        <time>2016-01-10T09:51:57Z</time>
      </trkpt>
      <trkpt lat="43.99397" lon="5.13817">
        <ele>261.14</ele>
        <time>2016-01-10T09:52:04Z</time>
      </trkpt>
      <trkpt lat="43.99395" lon="5.13815">
        <ele>262.58</ele>
        <time>2016-01-10T09:52:09Z</time>
      </trkpt>
      <trkpt lat="43.99396" lon="5.13812">
        <ele>263.54</ele>
        <time>2016-01-10T09:52:15Z</time>
      </trkpt>
      <trkpt lat="43.99396" lon="5.13811">
        <ele>264.5</ele>
        <time>2016-01-10T09:52:22Z</time>
      </trkpt>
      <trkpt lat="43.99398" lon="5.13807">
        <ele>265.94</ele>
        <time>2016-01-10T09:52:25Z</time>
      </trkpt>
      <trkpt lat="43.99403" lon="5.13795">
        <ele>266.9</ele>
        <time>2016-01-10T09:52:33Z</time>
      </trkpt>
      <trkpt lat="43.99405" lon="5.1379">
        <ele>268.35</ele>
        <time>2016-01-10T09:52:38Z</time>
      </trkpt>
      <trkpt lat="43.99404" lon="5.1378">
        <ele>269.79</ele>
        <time>2016-01-10T09:52:45Z</time>
      </trkpt>
      <trkpt lat="43.99404" lon="5.13778">
        <ele>270.27</ele>
        <time>2016-01-10T09:52:52Z</time>
      </trkpt>
      <trkpt lat="43.99405" lon="5.13778">
        <ele>270.27</ele>
        <time>2016-01-10T09:52:54Z</time>
      </trkpt>
      <trkpt lat="43.99403" lon="5.13774">
        <ele>270.27</ele>
        <time>2016-01-10T09:52:57Z</time>
      </trkpt>
      <trkpt lat="43.99401" lon="5.13767">
        <ele>271.23</ele>
        <time>2016-01-10T09:53:02Z</time>
      </trkpt>
      <trkpt lat="43.99402" lon="5.13761">
        <ele>272.67</ele>
        <time>2016-01-10T09:53:08Z</time>
      </trkpt>
      <trkpt lat="43.99403" lon="5.1376">
        <ele>273.63</ele>
        <time>2016-01-10T09:53:11Z</time>
      </trkpt>
      <trkpt lat="43.99406" lon="5.13757">
        <ele>273.63</ele>
        <time>2016-01-10T09:53:14Z</time>
      </trkpt>
      <trkpt lat="43.99408" lon="5.13753">
        <ele>275.07</ele>
        <time>2016-01-10T09:53:18Z</time>
      </trkpt>
      <trkpt lat="43.99406" lon="5.13743">
        <ele>276.04</ele>
        <time>2016-01-10T09:53:26Z</time>
      </trkpt>
      <trkpt lat="43.99406" lon="5.13738">
        <ele>277</ele>
        <time>2016-01-10T09:53:29Z</time>
      </trkpt>
      <trkpt lat="43.99405" lon="5.13729">
        <ele>277.96</ele>
        <time>2016-01-10T09:53:34Z</time>
      </trkpt>
      <trkpt lat="43.99406" lon="5.1372">
        <ele>280.36</ele>
        <time>2016-01-10T09:53:40Z</time>
      </trkpt>
      <trkpt lat="43.99406" lon="5.13712">
        <ele>282.77</ele>
        <time>2016-01-10T09:53:48Z</time>
      </trkpt>
      <trkpt lat="43.99405" lon="5.13711">
        <ele>283.25</ele>
        <time>2016-01-10T09:53:50Z</time>
      </trkpt>
      <trkpt lat="43.99404" lon="5.13706">
        <ele>284.21</ele>
        <time>2016-01-10T09:53:53Z</time>
      </trkpt>
      <trkpt lat="43.994" lon="5.13704">
        <ele>284.21</ele>
        <time>2016-01-10T09:53:57Z</time>
      </trkpt>
      <trkpt lat="43.99397" lon="5.13699">
        <ele>284.21</ele>
        <time>2016-01-10T09:54:04Z</time>
      </trkpt>
      <trkpt lat="43.99396" lon="5.13693">
        <ele>284.69</ele>
        <time>2016-01-10T09:54:08Z</time>
      </trkpt>
      <trkpt lat="43.99397" lon="5.13688">
        <ele>285.17</ele>
        <time>2016-01-10T09:54:11Z</time>
      </trkpt>
      <trkpt lat="43.99397" lon="5.13685">
        <ele>286.13</ele>
        <time>2016-01-10T09:54:13Z</time>
      </trkpt>
      <trkpt lat="43.99396" lon="5.13678">
        <ele>286.13</ele>
        <time>2016-01-10T09:54:17Z</time>
      </trkpt>
      <trkpt lat="43.99395" lon="5.13675">
        <ele>286.61</ele>
        <time>2016-01-10T09:54:19Z</time>
      </trkpt>
      <trkpt lat="43.99399" lon="5.13668">
        <ele>286.61</ele>
        <time>2016-01-10T09:54:25Z</time>
      </trkpt>
      <trkpt lat="43.99398" lon="5.13668">
        <ele>286.61</ele>
        <time>2016-01-10T09:54:28Z</time>
      </trkpt>
      <trkpt lat="43.99401" lon="5.13668">
        <ele>286.61</ele>
        <time>2016-01-10T09:54:32Z</time>
      </trkpt>
      <trkpt lat="43.99408" lon="5.13675">
        <ele>286.61</ele>
        <time>2016-01-10T09:54:39Z</time>
      </trkpt>
      <trkpt lat="43.99418" lon="5.13682">
        <ele>286.13</ele>
        <time>2016-01-10T09:54:47Z</time>
      </trkpt>
      <trkpt lat="43.99419" lon="5.13683">
        <ele>286.13</ele>
        <time>2016-01-10T09:54:48Z</time>
      </trkpt>
      <trkpt lat="43.99432" lon="5.13688">
        <ele>286.13</ele>
        <time>2016-01-10T09:54:57Z</time>
      </trkpt>
      <trkpt lat="43.99441" lon="5.13689">
        <ele>285.65</ele>
        <time>2016-01-10T09:55:03Z</time>
      </trkpt>
      <trkpt lat="43.99452" lon="5.13694">
        <ele>285.65</ele>
        <time>2016-01-10T09:55:12Z</time>
      </trkpt>
      <trkpt lat="43.99461" lon="5.13698">
        <ele>285.65</ele>
        <time>2016-01-10T09:55:20Z</time>
      </trkpt>
      <trkpt lat="43.99472" lon="5.13704">
        <ele>285.17</ele>
        <time>2016-01-10T09:55:28Z</time>
      </trkpt>
      <trkpt lat="43.99482" lon="5.13709">
        <ele>284.69</ele>
        <time>2016-01-10T09:55:36Z</time>
      </trkpt>
      <trkpt lat="43.99489" lon="5.13713">
        <ele>284.69</ele>
        <time>2016-01-10T09:55:40Z</time>
      </trkpt>
      <trkpt lat="43.99495" lon="5.13718">
        <ele>284.69</ele>
        <time>2016-01-10T09:55:45Z</time>
      </trkpt>
      <trkpt lat="43.99498" lon="5.1372">
        <ele>284.69</ele>
        <time>2016-01-10T09:55:47Z</time>
      </trkpt>
      <trkpt lat="43.99503" lon="5.13731">
        <ele>284.69</ele>
        <time>2016-01-10T09:55:54Z</time>
      </trkpt>
      <trkpt lat="43.99502" lon="5.13734">
        <ele>284.69</ele>
        <time>2016-01-10T09:55:56Z</time>
      </trkpt>
      <trkpt lat="43.99499" lon="5.13747">
        <ele>284.69</ele>
        <time>2016-01-10T09:56:04Z</time>
      </trkpt>
      <trkpt lat="43.99498" lon="5.13751">
        <ele>284.69</ele>
        <time>2016-01-10T09:56:07Z</time>
      </trkpt>
      <trkpt lat="43.99495" lon="5.1376">
        <ele>284.69</ele>
        <time>2016-01-10T09:56:12Z</time>
      </trkpt>
      <trkpt lat="43.99489" lon="5.13773">
        <ele>283.73</ele>
        <time>2016-01-10T09:56:21Z</time>
      </trkpt>
      <trkpt lat="43.99489" lon="5.13775">
        <ele>283.25</ele>
        <time>2016-01-10T09:56:23Z</time>
      </trkpt>
      <trkpt lat="43.99492" lon="5.13782">
        <ele>283.25</ele>
        <time>2016-01-10T09:56:28Z</time>
      </trkpt>
      <trkpt lat="43.99488" lon="5.13792">
        <ele>282.28</ele>
        <time>2016-01-10T09:56:36Z</time>
      </trkpt>
      <trkpt lat="43.99486" lon="5.13799">
        <ele>281.32</ele>
        <time>2016-01-10T09:56:43Z</time>
      </trkpt>
      <trkpt lat="43.99486" lon="5.138">
        <ele>280.84</ele>
        <time>2016-01-10T09:56:44Z</time>
      </trkpt>
      <trkpt lat="43.99482" lon="5.13805">
        <ele>280.36</ele>
        <time>2016-01-10T09:56:49Z</time>
      </trkpt>
      <trkpt lat="43.99482" lon="5.13812">
        <ele>277.96</ele>
        <time>2016-01-10T09:56:56Z</time>
      </trkpt>
      <trkpt lat="43.99478" lon="5.13818">
        <ele>277</ele>
        <time>2016-01-10T09:57:00Z</time>
      </trkpt>
      <trkpt lat="43.99479" lon="5.13828">
        <ele>275.07</ele>
        <time>2016-01-10T09:57:09Z</time>
      </trkpt>
      <trkpt lat="43.99479" lon="5.13829">
        <ele>275.07</ele>
        <time>2016-01-10T09:57:10Z</time>
      </trkpt>
      <trkpt lat="43.99484" lon="5.1383">
        <ele>275.07</ele>
        <time>2016-01-10T09:57:15Z</time>
      </trkpt>
      <trkpt lat="43.99491" lon="5.13839">
        <ele>273.63</ele>
        <time>2016-01-10T09:57:22Z</time>
      </trkpt>
      <trkpt lat="43.99492" lon="5.1384">
        <ele>273.15</ele>
        <time>2016-01-10T09:57:23Z</time>
      </trkpt>
      <trkpt lat="43.99494" lon="5.1384">
        <ele>273.15</ele>
        <time>2016-01-10T09:57:25Z</time>
      </trkpt>
      <trkpt lat="43.99498" lon="5.1384">
        <ele>272.19</ele>
        <time>2016-01-10T09:57:30Z</time>
      </trkpt>
      <trkpt lat="43.995" lon="5.13843">
        <ele>271.71</ele>
        <time>2016-01-10T09:57:33Z</time>
      </trkpt>
      <trkpt lat="43.99503" lon="5.13844">
        <ele>270.75</ele>
        <time>2016-01-10T09:57:35Z</time>
      </trkpt>
      <trkpt lat="43.99503" lon="5.13848">
        <ele>270.27</ele>
        <time>2016-01-10T09:57:41Z</time>
      </trkpt>
      <trkpt lat="43.99502" lon="5.13852">
        <ele>268.35</ele>
        <time>2016-01-10T09:57:48Z</time>
      </trkpt>
      <trkpt lat="43.99502" lon="5.13853">
        <ele>271.23</ele>
        <time>2016-01-10T09:57:49Z</time>
      </trkpt>
      <trkpt lat="43.99498" lon="5.13854">
        <ele>270.27</ele>
        <time>2016-01-10T09:57:57Z</time>
      </trkpt>
      <trkpt lat="43.99493" lon="5.13857">
        <ele>270.27</ele>
        <time>2016-01-10T09:58:06Z</time>
      </trkpt>
      <trkpt lat="43.99493" lon="5.13857">
        <ele>269.79</ele>
        <time>2016-01-10T09:58:22Z</time>
      </trkpt>
      <trkpt lat="43.99493" lon="5.13857">
        <ele>269.79</ele>
        <time>2016-01-10T09:58:36Z</time>
      </trkpt>
      <trkpt lat="43.99491" lon="5.13858">
        <ele>269.79</ele>
        <time>2016-01-10T09:58:47Z</time>
      </trkpt>
      <trkpt lat="43.99491" lon="5.13857">
        <ele>269.79</ele>
        <time>2016-01-10T09:58:57Z</time>
      </trkpt>
      <trkpt lat="43.99491" lon="5.13857">
        <ele>268.83</ele>
        <time>2016-01-10T09:59:07Z</time>
      </trkpt>
      <trkpt lat="43.99492" lon="5.13856">
        <ele>268.35</ele>
        <time>2016-01-10T09:59:22Z</time>
      </trkpt>
      <trkpt lat="43.99492" lon="5.13856">
        <ele>268.35</ele>
        <time>2016-01-10T09:59:33Z</time>
      </trkpt>
      <trkpt lat="43.99492" lon="5.13856">
        <ele>268.35</ele>
        <time>2016-01-10T09:59:44Z</time>
      </trkpt>
      <trkpt lat="43.99493" lon="5.13857">
        <ele>269.31</ele>
        <time>2016-01-10T09:59:51Z</time>
      </trkpt>
      <trkpt lat="43.99493" lon="5.13856">
        <ele>268.83</ele>
        <time>2016-01-10T10:00:05Z</time>
      </trkpt>
      <trkpt lat="43.99492" lon="5.13857">
        <ele>268.83</ele>
        <time>2016-01-10T10:00:20Z</time>
      </trkpt>
      <trkpt lat="43.99492" lon="5.13858">
        <ele>269.31</ele>
        <time>2016-01-10T10:00:26Z</time>
      </trkpt>
      <trkpt lat="43.99492" lon="5.13857">
        <ele>268.83</ele>
        <time>2016-01-10T10:00:31Z</time>
      </trkpt>
      <trkpt lat="43.99493" lon="5.13856">
        <ele>268.83</ele>
        <time>2016-01-10T10:00:43Z</time>
      </trkpt>
      <trkpt lat="43.99492" lon="5.13856">
        <ele>268.83</ele>
        <time>2016-01-10T10:00:45Z</time>
      </trkpt>
      <trkpt lat="43.99492" lon="5.13854">
        <ele>269.79</ele>
        <time>2016-01-10T10:00:50Z</time>
      </trkpt>
      <trkpt lat="43.99499" lon="5.1385">
        <ele>268.83</ele>
        <time>2016-01-10T10:00:57Z</time>
      </trkpt>
      <trkpt lat="43.99501" lon="5.13848">
        <ele>268.83</ele>
        <time>2016-01-10T10:00:59Z</time>
      </trkpt>
      <trkpt lat="43.99501" lon="5.13845">
        <ele>269.31</ele>
        <time>2016-01-10T10:01:03Z</time>
      </trkpt>
      <trkpt lat="43.99498" lon="5.13844">
        <ele>270.27</ele>
        <time>2016-01-10T10:01:07Z</time>
      </trkpt>
      <trkpt lat="43.99495" lon="5.13844">
        <ele>271.23</ele>
        <time>2016-01-10T10:01:10Z</time>
      </trkpt>
      <trkpt lat="43.99487" lon="5.13842">
        <ele>271.71</ele>
        <time>2016-01-10T10:01:16Z</time>
      </trkpt>
      <trkpt lat="43.99483" lon="5.13835">
        <ele>273.15</ele>
        <time>2016-01-10T10:01:24Z</time>
      </trkpt>
      <trkpt lat="43.99482" lon="5.13835">
        <ele>273.15</ele>
        <time>2016-01-10T10:01:25Z</time>
      </trkpt>
      <trkpt lat="43.9948" lon="5.13835">
        <ele>273.15</ele>
        <time>2016-01-10T10:01:27Z</time>
      </trkpt>
      <trkpt lat="43.99475" lon="5.13828">
        <ele>273.63</ele>
        <time>2016-01-10T10:01:32Z</time>
      </trkpt>
      <trkpt lat="43.99477" lon="5.13822">
        <ele>274.59</ele>
        <time>2016-01-10T10:01:38Z</time>
      </trkpt>
      <trkpt lat="43.99479" lon="5.13814">
        <ele>276.04</ele>
        <time>2016-01-10T10:01:45Z</time>
      </trkpt>
      <trkpt lat="43.99479" lon="5.13813">
        <ele>276.52</ele>
        <time>2016-01-10T10:01:46Z</time>
      </trkpt>
      <trkpt lat="43.9948" lon="5.13809">
        <ele>277</ele>
        <time>2016-01-10T10:01:49Z</time>
      </trkpt>
      <trkpt lat="43.99481" lon="5.13804">
        <ele>278.44</ele>
        <time>2016-01-10T10:01:54Z</time>
      </trkpt>
      <trkpt lat="43.99484" lon="5.13796">
        <ele>280.36</ele>
        <time>2016-01-10T10:02:01Z</time>
      </trkpt>
      <trkpt lat="43.99485" lon="5.13795">
        <ele>280.36</ele>
        <time>2016-01-10T10:02:02Z</time>
      </trkpt>
      <trkpt lat="43.99489" lon="5.13785">
        <ele>281.32</ele>
        <time>2016-01-10T10:02:10Z</time>
      </trkpt>
      <trkpt lat="43.99489" lon="5.13784">
        <ele>281.32</ele>
        <time>2016-01-10T10:02:11Z</time>
      </trkpt>
      <trkpt lat="43.99488" lon="5.13781">
        <ele>281.8</ele>
        <time>2016-01-10T10:02:13Z</time>
      </trkpt>
      <trkpt lat="43.99487" lon="5.13768">
        <ele>282.28</ele>
        <time>2016-01-10T10:02:19Z</time>
      </trkpt>
      <trkpt lat="43.99493" lon="5.13756">
        <ele>282.77</ele>
        <time>2016-01-10T10:02:25Z</time>
      </trkpt>
      <trkpt lat="43.99494" lon="5.13751">
        <ele>283.25</ele>
        <time>2016-01-10T10:02:27Z</time>
      </trkpt>
      <trkpt lat="43.99499" lon="5.13733">
        <ele>283.25</ele>
        <time>2016-01-10T10:02:34Z</time>
      </trkpt>
      <trkpt lat="43.995" lon="5.13729">
        <ele>283.25</ele>
        <time>2016-01-10T10:02:35Z</time>
      </trkpt>
      <trkpt lat="43.99501" lon="5.13724">
        <ele>282.28</ele>
        <time>2016-01-10T10:02:40Z</time>
      </trkpt>
      <trkpt lat="43.99502" lon="5.13723">
        <ele>283.25</ele>
        <time>2016-01-10T10:02:46Z</time>
      </trkpt>
      <trkpt lat="43.99502" lon="5.13723">
        <ele>282.77</ele>
        <time>2016-01-10T10:02:47Z</time>
      </trkpt>
      <trkpt lat="43.99502" lon="5.13721">
        <ele>282.28</ele>
        <time>2016-01-10T10:02:58Z</time>
      </trkpt>
      <trkpt lat="43.99491" lon="5.13714">
        <ele>282.77</ele>
        <time>2016-01-10T10:03:05Z</time>
      </trkpt>
      <trkpt lat="43.99489" lon="5.13713">
        <ele>282.77</ele>
        <time>2016-01-10T10:03:06Z</time>
      </trkpt>
      <trkpt lat="43.99465" lon="5.13701">
        <ele>283.25</ele>
        <time>2016-01-10T10:03:16Z</time>
      </trkpt>
      <trkpt lat="43.9945" lon="5.13694">
        <ele>283.73</ele>
        <time>2016-01-10T10:03:22Z</time>
      </trkpt>
      <trkpt lat="43.99431" lon="5.13688">
        <ele>284.21</ele>
        <time>2016-01-10T10:03:29Z</time>
      </trkpt>
      <trkpt lat="43.99422" lon="5.13684">
        <ele>284.21</ele>
        <time>2016-01-10T10:03:32Z</time>
      </trkpt>
      <trkpt lat="43.99405" lon="5.13669">
        <ele>284.69</ele>
        <time>2016-01-10T10:03:39Z</time>
      </trkpt>
      <trkpt lat="43.9939" lon="5.1367">
        <ele>284.69</ele>
        <time>2016-01-10T10:03:44Z</time>
      </trkpt>
      <trkpt lat="43.99376" lon="5.13665">
        <ele>284.69</ele>
        <time>2016-01-10T10:03:49Z</time>
      </trkpt>
      <trkpt lat="43.99366" lon="5.13665">
        <ele>285.17</ele>
        <time>2016-01-10T10:03:53Z</time>
      </trkpt>
      <trkpt lat="43.99352" lon="5.13662">
        <ele>285.65</ele>
        <time>2016-01-10T10:03:58Z</time>
      </trkpt>
      <trkpt lat="43.99333" lon="5.13656">
        <ele>286.61</ele>
        <time>2016-01-10T10:04:04Z</time>
      </trkpt>
      <trkpt lat="43.99317" lon="5.13653">
        <ele>287.57</ele>
        <time>2016-01-10T10:04:11Z</time>
      </trkpt>
      <trkpt lat="43.99306" lon="5.1365">
        <ele>288.05</ele>
        <time>2016-01-10T10:04:16Z</time>
      </trkpt>
      <trkpt lat="43.99296" lon="5.1365">
        <ele>288.53</ele>
        <time>2016-01-10T10:04:20Z</time>
      </trkpt>
      <trkpt lat="43.99271" lon="5.13644">
        <ele>289.49</ele>
        <time>2016-01-10T10:04:29Z</time>
      </trkpt>
      <trkpt lat="43.99251" lon="5.13638">
        <ele>290.46</ele>
        <time>2016-01-10T10:04:37Z</time>
      </trkpt>
      <trkpt lat="43.99233" lon="5.13634">
        <ele>290.94</ele>
        <time>2016-01-10T10:04:44Z</time>
      </trkpt>
      <trkpt lat="43.99214" lon="5.13635">
        <ele>290.94</ele>
        <time>2016-01-10T10:04:51Z</time>
      </trkpt>
      <trkpt lat="43.99192" lon="5.13634">
        <ele>291.42</ele>
        <time>2016-01-10T10:04:59Z</time>
      </trkpt>
      <trkpt lat="43.99176" lon="5.13637">
        <ele>291.9</ele>
        <time>2016-01-10T10:05:06Z</time>
      </trkpt>
      <trkpt lat="43.99165" lon="5.1364">
        <ele>292.86</ele>
        <time>2016-01-10T10:05:12Z</time>
      </trkpt>
      <trkpt lat="43.99146" lon="5.13638">
        <ele>293.82</ele>
        <time>2016-01-10T10:05:21Z</time>
      </trkpt>
      <trkpt lat="43.99134" lon="5.13633">
        <ele>294.3</ele>
        <time>2016-01-10T10:05:27Z</time>
      </trkpt>
      <trkpt lat="43.99119" lon="5.1364">
        <ele>294.78</ele>
        <time>2016-01-10T10:05:34Z</time>
      </trkpt>
      <trkpt lat="43.99104" lon="5.13657">
        <ele>295.26</ele>
        <time>2016-01-10T10:05:42Z</time>
      </trkpt>
      <trkpt lat="43.99089" lon="5.13668">
        <ele>295.74</ele>
        <time>2016-01-10T10:05:49Z</time>
      </trkpt>
      <trkpt lat="43.9907" lon="5.13681">
        <ele>297.18</ele>
        <time>2016-01-10T10:05:57Z</time>
      </trkpt>
      <trkpt lat="43.99051" lon="5.13693">
        <ele>298.63</ele>
        <time>2016-01-10T10:06:05Z</time>
      </trkpt>
      <trkpt lat="43.99028" lon="5.13711">
        <ele>300.07</ele>
        <time>2016-01-10T10:06:14Z</time>
      </trkpt>
      <trkpt lat="43.99015" lon="5.13727">
        <ele>300.55</ele>
        <time>2016-01-10T10:06:20Z</time>
      </trkpt>
      <trkpt lat="43.99002" lon="5.13746">
        <ele>301.03</ele>
        <time>2016-01-10T10:06:27Z</time>
      </trkpt>
      <trkpt lat="43.98989" lon="5.13766">
        <ele>301.99</ele>
        <time>2016-01-10T10:06:34Z</time>
      </trkpt>
      <trkpt lat="43.98972" lon="5.13784">
        <ele>303.91</ele>
        <time>2016-01-10T10:06:43Z</time>
      </trkpt>
      <trkpt lat="43.98957" lon="5.13786">
        <ele>305.84</ele>
        <time>2016-01-10T10:06:50Z</time>
      </trkpt>
      <trkpt lat="43.9894" lon="5.13784">
        <ele>306.8</ele>
        <time>2016-01-10T10:06:57Z</time>
      </trkpt>
      <trkpt lat="43.98918" lon="5.13784">
        <ele>307.28</ele>
        <time>2016-01-10T10:07:05Z</time>
      </trkpt>
      <trkpt lat="43.98898" lon="5.13787">
        <ele>308.24</ele>
        <time>2016-01-10T10:07:12Z</time>
      </trkpt>
      <trkpt lat="43.98879" lon="5.13791">
        <ele>308.24</ele>
        <time>2016-01-10T10:07:19Z</time>
      </trkpt>
      <trkpt lat="43.98859" lon="5.13795">
        <ele>309.2</ele>
        <time>2016-01-10T10:07:26Z</time>
      </trkpt>
      <trkpt lat="43.98838" lon="5.13806">
        <ele>309.68</ele>
        <time>2016-01-10T10:07:34Z</time>
      </trkpt>
      <trkpt lat="43.98817" lon="5.13818">
        <ele>310.16</ele>
        <time>2016-01-10T10:07:42Z</time>
      </trkpt>
      <trkpt lat="43.98795" lon="5.13834">
        <ele>311.12</ele>
        <time>2016-01-10T10:07:51Z</time>
      </trkpt>
      <trkpt lat="43.98774" lon="5.13852">
        <ele>312.09</ele>
        <time>2016-01-10T10:08:00Z</time>
      </trkpt>
      <trkpt lat="43.98758" lon="5.13866">
        <ele>313.05</ele>
        <time>2016-01-10T10:08:07Z</time>
      </trkpt>
      <trkpt lat="43.98741" lon="5.13875">
        <ele>313.53</ele>
        <time>2016-01-10T10:08:14Z</time>
      </trkpt>
      <trkpt lat="43.9872" lon="5.13883">
        <ele>314.01</ele>
        <time>2016-01-10T10:08:22Z</time>
      </trkpt>
      <trkpt lat="43.98697" lon="5.13892">
        <ele>314.49</ele>
        <time>2016-01-10T10:08:31Z</time>
      </trkpt>
      <trkpt lat="43.98675" lon="5.13903">
        <ele>314.97</ele>
        <time>2016-01-10T10:08:39Z</time>
      </trkpt>
      <trkpt lat="43.9865" lon="5.13913">
        <ele>315.45</ele>
        <time>2016-01-10T10:08:49Z</time>
      </trkpt>
      <trkpt lat="43.98635" lon="5.13912">
        <ele>315.93</ele>
        <time>2016-01-10T10:08:55Z</time>
      </trkpt>
      <trkpt lat="43.98634" lon="5.13915">
        <ele>315.93</ele>
        <time>2016-01-10T10:09:00Z</time>
      </trkpt>
      <trkpt lat="43.98634" lon="5.13916">
        <ele>316.41</ele>
        <time>2016-01-10T10:09:11Z</time>
      </trkpt>
      <trkpt lat="43.98627" lon="5.13929">
        <ele>314.97</ele>
        <time>2016-01-10T10:09:16Z</time>
      </trkpt>
      <trkpt lat="43.98621" lon="5.1394">
        <ele>313.05</ele>
        <time>2016-01-10T10:09:20Z</time>
      </trkpt>
      <trkpt lat="43.98618" lon="5.13964">
        <ele>309.2</ele>
        <time>2016-01-10T10:09:25Z</time>
      </trkpt>
      <trkpt lat="43.98617" lon="5.1397">
        <ele>308.24</ele>
        <time>2016-01-10T10:09:26Z</time>
      </trkpt>
      <trkpt lat="43.98616" lon="5.13977">
        <ele>307.76</ele>
        <time>2016-01-10T10:09:27Z</time>
      </trkpt>
      <trkpt lat="43.98615" lon="5.13984">
        <ele>307.28</ele>
        <time>2016-01-10T10:09:28Z</time>
      </trkpt>
      <trkpt lat="43.98614" lon="5.13991">
        <ele>306.8</ele>
        <time>2016-01-10T10:09:29Z</time>
      </trkpt>
      <trkpt lat="43.98613" lon="5.13998">
        <ele>305.84</ele>
        <time>2016-01-10T10:09:30Z</time>
      </trkpt>
      <trkpt lat="43.98612" lon="5.14004">
        <ele>305.84</ele>
        <time>2016-01-10T10:09:31Z</time>
      </trkpt>
      <trkpt lat="43.98612" lon="5.1401">
        <ele>305.36</ele>
        <time>2016-01-10T10:09:32Z</time>
      </trkpt>
      <trkpt lat="43.98611" lon="5.14016">
        <ele>304.88</ele>
        <time>2016-01-10T10:09:33Z</time>
      </trkpt>
      <trkpt lat="43.9861" lon="5.14022">
        <ele>303.91</ele>
        <time>2016-01-10T10:09:34Z</time>
      </trkpt>
      <trkpt lat="43.98609" lon="5.14029">
        <ele>303.91</ele>
        <time>2016-01-10T10:09:35Z</time>
      </trkpt>
      <trkpt lat="43.98608" lon="5.14037">
        <ele>303.43</ele>
        <time>2016-01-10T10:09:36Z</time>
      </trkpt>
      <trkpt lat="43.98608" lon="5.14044">
        <ele>302.95</ele>
        <time>2016-01-10T10:09:37Z</time>
      </trkpt>
      <trkpt lat="43.98606" lon="5.14051">
        <ele>302.95</ele>
        <time>2016-01-10T10:09:38Z</time>
      </trkpt>
      <trkpt lat="43.98606" lon="5.14057">
        <ele>301.99</ele>
        <time>2016-01-10T10:09:39Z</time>
      </trkpt>
      <trkpt lat="43.98606" lon="5.14062">
        <ele>301.03</ele>
        <time>2016-01-10T10:09:40Z</time>
      </trkpt>
      <trkpt lat="43.98606" lon="5.14065">
        <ele>300.55</ele>
        <time>2016-01-10T10:09:41Z</time>
      </trkpt>
      <trkpt lat="43.98604" lon="5.14074">
        <ele>298.15</ele>
        <time>2016-01-10T10:09:43Z</time>
      </trkpt>
      <trkpt lat="43.98601" lon="5.14079">
        <ele>297.18</ele>
        <time>2016-01-10T10:09:44Z</time>
      </trkpt>
      <trkpt lat="43.98601" lon="5.14084">
        <ele>296.7</ele>
        <time>2016-01-10T10:09:45Z</time>
      </trkpt>
      <trkpt lat="43.98602" lon="5.14087">
        <ele>296.22</ele>
        <time>2016-01-10T10:09:46Z</time>
      </trkpt>
      <trkpt lat="43.98605" lon="5.14089">
        <ele>295.74</ele>
        <time>2016-01-10T10:09:47Z</time>
      </trkpt>
      <trkpt lat="43.98605" lon="5.1409">
        <ele>295.26</ele>
        <time>2016-01-10T10:09:48Z</time>
      </trkpt>
      <trkpt lat="43.98605" lon="5.14093">
        <ele>294.78</ele>
        <time>2016-01-10T10:09:53Z</time>
      </trkpt>
      <trkpt lat="43.98605" lon="5.14097">
        <ele>294.3</ele>
        <time>2016-01-10T10:09:57Z</time>
      </trkpt>
      <trkpt lat="43.98605" lon="5.14101">
        <ele>293.82</ele>
        <time>2016-01-10T10:09:58Z</time>
      </trkpt>
      <trkpt lat="43.98604" lon="5.14103">
        <ele>293.82</ele>
        <time>2016-01-10T10:10:02Z</time>
      </trkpt>
      <trkpt lat="43.98604" lon="5.14105">
        <ele>293.34</ele>
        <time>2016-01-10T10:10:11Z</time>
      </trkpt>
      <trkpt lat="43.98604" lon="5.14108">
        <ele>293.82</ele>
        <time>2016-01-10T10:10:24Z</time>
      </trkpt>
      <trkpt lat="43.98603" lon="5.14107">
        <ele>293.82</ele>
        <time>2016-01-10T10:10:33Z</time>
      </trkpt>
      <trkpt lat="43.98602" lon="5.14107">
        <ele>293.82</ele>
        <time>2016-01-10T10:10:41Z</time>
      </trkpt>
      <trkpt lat="43.986" lon="5.14107">
        <ele>293.34</ele>
        <time>2016-01-10T10:10:42Z</time>
      </trkpt>
      <trkpt lat="43.98598" lon="5.14108">
        <ele>292.86</ele>
        <time>2016-01-10T10:10:43Z</time>
      </trkpt>
      <trkpt lat="43.98597" lon="5.14109">
        <ele>292.86</ele>
        <time>2016-01-10T10:10:47Z</time>
      </trkpt>
      <trkpt lat="43.98595" lon="5.14114">
        <ele>291.42</ele>
        <time>2016-01-10T10:10:55Z</time>
      </trkpt>
      <trkpt lat="43.98596" lon="5.14115">
        <ele>290.94</ele>
        <time>2016-01-10T10:11:02Z</time>
      </trkpt>
      <trkpt lat="43.98598" lon="5.14116">
        <ele>289.97</ele>
        <time>2016-01-10T10:11:10Z</time>
      </trkpt>
      <trkpt lat="43.98603" lon="5.14118">
        <ele>287.57</ele>
        <time>2016-01-10T10:11:18Z</time>
      </trkpt>
      <trkpt lat="43.98606" lon="5.14122">
        <ele>285.17</ele>
        <time>2016-01-10T10:11:26Z</time>
      </trkpt>
      <trkpt lat="43.9861" lon="5.14124">
        <ele>283.25</ele>
        <time>2016-01-10T10:11:34Z</time>
      </trkpt>
      <trkpt lat="43.98612" lon="5.14124">
        <ele>282.28</ele>
        <time>2016-01-10T10:11:40Z</time>
      </trkpt>
      <trkpt lat="43.98615" lon="5.14126">
        <ele>280.84</ele>
        <time>2016-01-10T10:11:46Z</time>
      </trkpt>
      <trkpt lat="43.98616" lon="5.14127">
        <ele>279.88</ele>
        <time>2016-01-10T10:11:54Z</time>
      </trkpt>
      <trkpt lat="43.98617" lon="5.14127">
        <ele>279.4</ele>
        <time>2016-01-10T10:12:06Z</time>
      </trkpt>
      <trkpt lat="43.98616" lon="5.14127">
        <ele>278.92</ele>
        <time>2016-01-10T10:12:16Z</time>
      </trkpt>
      <trkpt lat="43.98615" lon="5.14127">
        <ele>278.92</ele>
        <time>2016-01-10T10:12:34Z</time>
      </trkpt>
      <trkpt lat="43.98616" lon="5.14127">
        <ele>279.4</ele>
        <time>2016-01-10T10:12:51Z</time>
      </trkpt>
      <trkpt lat="43.98618" lon="5.14124">
        <ele>278.92</ele>
        <time>2016-01-10T10:13:07Z</time>
      </trkpt>
      <trkpt lat="43.98618" lon="5.14124">
        <ele>279.4</ele>
        <time>2016-01-10T10:13:20Z</time>
      </trkpt>
      <trkpt lat="43.98619" lon="5.14123">
        <ele>278.92</ele>
        <time>2016-01-10T10:13:36Z</time>
      </trkpt>
      <trkpt lat="43.98618" lon="5.14123">
        <ele>278.92</ele>
        <time>2016-01-10T10:13:53Z</time>
      </trkpt>
      <trkpt lat="43.98618" lon="5.14123">
        <ele>278.92</ele>
        <time>2016-01-10T10:14:07Z</time>
      </trkpt>
      <trkpt lat="43.98618" lon="5.14123">
        <ele>278.92</ele>
        <time>2016-01-10T10:14:25Z</time>
      </trkpt>
      <trkpt lat="43.98618" lon="5.14123">
        <ele>278.92</ele>
        <time>2016-01-10T10:14:41Z</time>
      </trkpt>
      <trkpt lat="43.98619" lon="5.14122">
        <ele>278.92</ele>
        <time>2016-01-10T10:14:57Z</time>
      </trkpt>
      <trkpt lat="43.9862" lon="5.14122">
        <ele>278.92</ele>
        <time>2016-01-10T10:15:17Z</time>
      </trkpt>
      <trkpt lat="43.9862" lon="5.14122">
        <ele>278.92</ele>
        <time>2016-01-10T10:15:34Z</time>
      </trkpt>
      <trkpt lat="43.9862" lon="5.14121">
        <ele>278.92</ele>
        <time>2016-01-10T10:15:51Z</time>
      </trkpt>
      <trkpt lat="43.9862" lon="5.14121">
        <ele>278.92</ele>
        <time>2016-01-10T10:16:08Z</time>
      </trkpt>
      <trkpt lat="43.98621" lon="5.14121">
        <ele>278.44</ele>
        <time>2016-01-10T10:16:28Z</time>
      </trkpt>
      <trkpt lat="43.98621" lon="5.14121">
        <ele>278.44</ele>
        <time>2016-01-10T10:16:44Z</time>
      </trkpt>
      <trkpt lat="43.98621" lon="5.1412">
        <ele>278.44</ele>
        <time>2016-01-10T10:16:59Z</time>
      </trkpt>
      <trkpt lat="43.98619" lon="5.14125">
        <ele>278.44</ele>
        <time>2016-01-10T10:17:12Z</time>
      </trkpt>
      <trkpt lat="43.98619" lon="5.14126">
        <ele>278.44</ele>
        <time>2016-01-10T10:17:27Z</time>
      </trkpt>
      <trkpt lat="43.98619" lon="5.14125">
        <ele>278.44</ele>
        <time>2016-01-10T10:17:42Z</time>
      </trkpt>
      <trkpt lat="43.9862" lon="5.14124">
        <ele>278.44</ele>
        <time>2016-01-10T10:17:58Z</time>
      </trkpt>
      <trkpt lat="43.9862" lon="5.14123">
        <ele>278.44</ele>
        <time>2016-01-10T10:18:14Z</time>
      </trkpt>
      <trkpt lat="43.9862" lon="5.14122">
        <ele>278.44</ele>
        <time>2016-01-10T10:18:32Z</time>
      </trkpt>
      <trkpt lat="43.9862" lon="5.14121">
        <ele>278.44</ele>
        <time>2016-01-10T10:18:51Z</time>
      </trkpt>
      <trkpt lat="43.9862" lon="5.14121">
        <ele>278.44</ele>
        <time>2016-01-10T10:19:10Z</time>
      </trkpt>
      <trkpt lat="43.9862" lon="5.14121">
        <ele>278.44</ele>
        <time>2016-01-10T10:19:29Z</time>
      </trkpt>
      <trkpt lat="43.9862" lon="5.14121">
        <ele>278.44</ele>
        <time>2016-01-10T10:19:44Z</time>
      </trkpt>
      <trkpt lat="43.98621" lon="5.14121">
        <ele>278.44</ele>
        <time>2016-01-10T10:19:59Z</time>
      </trkpt>
      <trkpt lat="43.98621" lon="5.1412">
        <ele>278.44</ele>
        <time>2016-01-10T10:20:14Z</time>
      </trkpt>
      <trkpt lat="43.98622" lon="5.1412">
        <ele>278.44</ele>
        <time>2016-01-10T10:20:34Z</time>
      </trkpt>
      <trkpt lat="43.98622" lon="5.1412">
        <ele>277.96</ele>
        <time>2016-01-10T10:20:50Z</time>
      </trkpt>
      <trkpt lat="43.9862" lon="5.14122">
        <ele>277.96</ele>
        <time>2016-01-10T10:21:04Z</time>
      </trkpt>
      <trkpt lat="43.98619" lon="5.14124">
        <ele>277.96</ele>
        <time>2016-01-10T10:21:17Z</time>
      </trkpt>
      <trkpt lat="43.98618" lon="5.14124">
        <ele>277.96</ele>
        <time>2016-01-10T10:21:29Z</time>
      </trkpt>
      <trkpt lat="43.98618" lon="5.14126">
        <ele>278.44</ele>
        <time>2016-01-10T10:21:43Z</time>
      </trkpt>
      <trkpt lat="43.98618" lon="5.14126">
        <ele>277.96</ele>
        <time>2016-01-10T10:21:59Z</time>
      </trkpt>
      <trkpt lat="43.98617" lon="5.14127">
        <ele>277.96</ele>
        <time>2016-01-10T10:22:14Z</time>
      </trkpt>
      <trkpt lat="43.98617" lon="5.14127">
        <ele>277.96</ele>
        <time>2016-01-10T10:22:28Z</time>
      </trkpt>
      <trkpt lat="43.9862" lon="5.14119">
        <ele>277.96</ele>
        <time>2016-01-10T10:22:43Z</time>
      </trkpt>
      <trkpt lat="43.98622" lon="5.14118">
        <ele>277.48</ele>
        <time>2016-01-10T10:22:59Z</time>
      </trkpt>
      <trkpt lat="43.98621" lon="5.1412">
        <ele>277.48</ele>
        <time>2016-01-10T10:23:19Z</time>
      </trkpt>
      <trkpt lat="43.98627" lon="5.14113">
        <ele>277.48</ele>
        <time>2016-01-10T10:23:34Z</time>
      </trkpt>
      <trkpt lat="43.98626" lon="5.14114">
        <ele>277</ele>
        <time>2016-01-10T10:23:47Z</time>
      </trkpt>
      <trkpt lat="43.98626" lon="5.14114">
        <ele>277</ele>
        <time>2016-01-10T10:24:04Z</time>
      </trkpt>
      <trkpt lat="43.98626" lon="5.14114">
        <ele>276.52</ele>
        <time>2016-01-10T10:24:18Z</time>
      </trkpt>
      <trkpt lat="43.98625" lon="5.14115">
        <ele>276.52</ele>
        <time>2016-01-10T10:24:33Z</time>
      </trkpt>
      <trkpt lat="43.98623" lon="5.14118">
        <ele>276.04</ele>
        <time>2016-01-10T10:24:48Z</time>
      </trkpt>
      <trkpt lat="43.98623" lon="5.14118">
        <ele>275.56</ele>
        <time>2016-01-10T10:25:03Z</time>
      </trkpt>
      <trkpt lat="43.98623" lon="5.14118">
        <ele>275.56</ele>
        <time>2016-01-10T10:25:17Z</time>
      </trkpt>
      <trkpt lat="43.98622" lon="5.14119">
        <ele>275.56</ele>
        <time>2016-01-10T10:25:36Z</time>
      </trkpt>
      <trkpt lat="43.98622" lon="5.14119">
        <ele>275.07</ele>
        <time>2016-01-10T10:25:54Z</time>
      </trkpt>
      <trkpt lat="43.98622" lon="5.14119">
        <ele>275.07</ele>
        <time>2016-01-10T10:26:10Z</time>
      </trkpt>
      <trkpt lat="43.98622" lon="5.1412">
        <ele>275.07</ele>
        <time>2016-01-10T10:26:28Z</time>
      </trkpt>
      <trkpt lat="43.98621" lon="5.1412">
        <ele>275.07</ele>
        <time>2016-01-10T10:26:47Z</time>
      </trkpt>
      <trkpt lat="43.98621" lon="5.1412">
        <ele>275.56</ele>
        <time>2016-01-10T10:27:05Z</time>
      </trkpt>
      <trkpt lat="43.98624" lon="5.14119">
        <ele>275.56</ele>
        <time>2016-01-10T10:27:19Z</time>
      </trkpt>
      <trkpt lat="43.98622" lon="5.1412">
        <ele>275.56</ele>
        <time>2016-01-10T10:27:36Z</time>
      </trkpt>
      <trkpt lat="43.98621" lon="5.14121">
        <ele>275.56</ele>
        <time>2016-01-10T10:27:53Z</time>
      </trkpt>
      <trkpt lat="43.98621" lon="5.14121">
        <ele>275.56</ele>
        <time>2016-01-10T10:28:09Z</time>
      </trkpt>
      <trkpt lat="43.98622" lon="5.1412">
        <ele>275.56</ele>
        <time>2016-01-10T10:28:23Z</time>
      </trkpt>
      <trkpt lat="43.98622" lon="5.14124">
        <ele>274.59</ele>
        <time>2016-01-10T10:28:31Z</time>
      </trkpt>
      <trkpt lat="43.98621" lon="5.14124">
        <ele>274.59</ele>
        <time>2016-01-10T10:28:42Z</time>
      </trkpt>
      <trkpt lat="43.98621" lon="5.14124">
        <ele>274.11</ele>
        <time>2016-01-10T10:28:51Z</time>
      </trkpt>
      <trkpt lat="43.98625" lon="5.14124">
        <ele>270.75</ele>
        <time>2016-01-10T10:29:03Z</time>
      </trkpt>
      <trkpt lat="43.98642" lon="5.14119">
        <ele>268.83</ele>
        <time>2016-01-10T10:29:13Z</time>
      </trkpt>
      <trkpt lat="43.98646" lon="5.14125">
        <ele>266.9</ele>
        <time>2016-01-10T10:29:22Z</time>
      </trkpt>
      <trkpt lat="43.98643" lon="5.14131">
        <ele>265.94</ele>
        <time>2016-01-10T10:29:30Z</time>
      </trkpt>
      <trkpt lat="43.98643" lon="5.14135">
        <ele>264.5</ele>
        <time>2016-01-10T10:29:38Z</time>
      </trkpt>
      <trkpt lat="43.98646" lon="5.14137">
        <ele>262.58</ele>
        <time>2016-01-10T10:29:46Z</time>
      </trkpt>
      <trkpt lat="43.98649" lon="5.14142">
        <ele>260.65</ele>
        <time>2016-01-10T10:29:53Z</time>
      </trkpt>
      <trkpt lat="43.98649" lon="5.14144">
        <ele>260.65</ele>
        <time>2016-01-10T10:29:59Z</time>
      </trkpt>
      <trkpt lat="43.98648" lon="5.14145">
        <ele>260.17</ele>
        <time>2016-01-10T10:30:05Z</time>
      </trkpt>
      <trkpt lat="43.98648" lon="5.14146">
        <ele>259.21</ele>
        <time>2016-01-10T10:30:11Z</time>
      </trkpt>
      <trkpt lat="43.98647" lon="5.14148">
        <ele>259.21</ele>
        <time>2016-01-10T10:30:19Z</time>
      </trkpt>
      <trkpt lat="43.98647" lon="5.14148">
        <ele>258.73</ele>
        <time>2016-01-10T10:30:26Z</time>
      </trkpt>
      <trkpt lat="43.98644" lon="5.14153">
        <ele>257.29</ele>
        <time>2016-01-10T10:30:31Z</time>
      </trkpt>
      <trkpt lat="43.98642" lon="5.14154">
        <ele>256.81</ele>
        <time>2016-01-10T10:30:37Z</time>
      </trkpt>
      <trkpt lat="43.98642" lon="5.14153">
        <ele>256.81</ele>
        <time>2016-01-10T10:30:48Z</time>
      </trkpt>
      <trkpt lat="43.98642" lon="5.14153">
        <ele>257.77</ele>
        <time>2016-01-10T10:30:56Z</time>
      </trkpt>
      <trkpt lat="43.98641" lon="5.14155">
        <ele>257.29</ele>
        <time>2016-01-10T10:31:05Z</time>
      </trkpt>
      <trkpt lat="43.98639" lon="5.14157">
        <ele>256.33</ele>
        <time>2016-01-10T10:31:10Z</time>
      </trkpt>
      <trkpt lat="43.98637" lon="5.14159">
        <ele>255.85</ele>
        <time>2016-01-10T10:31:20Z</time>
      </trkpt>
      <trkpt lat="43.98636" lon="5.14161">
        <ele>254.89</ele>
        <time>2016-01-10T10:31:27Z</time>
      </trkpt>
      <trkpt lat="43.98635" lon="5.14162">
        <ele>253.93</ele>
        <time>2016-01-10T10:31:32Z</time>
      </trkpt>
      <trkpt lat="43.98634" lon="5.14163">
        <ele>252.96</ele>
        <time>2016-01-10T10:31:39Z</time>
      </trkpt>
      <trkpt lat="43.98635" lon="5.14166">
        <ele>252</ele>
        <time>2016-01-10T10:31:44Z</time>
      </trkpt>
      <trkpt lat="43.98644" lon="5.14175">
        <ele>250.56</ele>
        <time>2016-01-10T10:31:49Z</time>
      </trkpt>
      <trkpt lat="43.98646" lon="5.14174">
        <ele>250.08</ele>
        <time>2016-01-10T10:31:50Z</time>
      </trkpt>
      <trkpt lat="43.9865" lon="5.14174">
        <ele>251.04</ele>
        <time>2016-01-10T10:31:52Z</time>
      </trkpt>
      <trkpt lat="43.9866" lon="5.14176">
        <ele>252</ele>
        <time>2016-01-10T10:31:59Z</time>
      </trkpt>
      <trkpt lat="43.98662" lon="5.14177">
        <ele>252</ele>
        <time>2016-01-10T10:32:00Z</time>
      </trkpt>
      <trkpt lat="43.98664" lon="5.1418">
        <ele>251.52</ele>
        <time>2016-01-10T10:32:02Z</time>
      </trkpt>
      <trkpt lat="43.98666" lon="5.14178">
        <ele>252</ele>
        <time>2016-01-10T10:32:04Z</time>
      </trkpt>
      <trkpt lat="43.98668" lon="5.14175">
        <ele>252</ele>
        <time>2016-01-10T10:32:10Z</time>
      </trkpt>
      <trkpt lat="43.98674" lon="5.14169">
        <ele>252</ele>
        <time>2016-01-10T10:32:18Z</time>
      </trkpt>
      <trkpt lat="43.98666" lon="5.14172">
        <ele>252.48</ele>
        <time>2016-01-10T10:32:24Z</time>
      </trkpt>
      <trkpt lat="43.98651" lon="5.14173">
        <ele>250.56</ele>
        <time>2016-01-10T10:32:29Z</time>
      </trkpt>
      <trkpt lat="43.98644" lon="5.14184">
        <ele>251.04</ele>
        <time>2016-01-10T10:32:34Z</time>
      </trkpt>
      <trkpt lat="43.98643" lon="5.14185">
        <ele>251.04</ele>
        <time>2016-01-10T10:32:40Z</time>
      </trkpt>
      <trkpt lat="43.98639" lon="5.14185">
        <ele>251.04</ele>
        <time>2016-01-10T10:32:54Z</time>
      </trkpt>
      <trkpt lat="43.98636" lon="5.14184">
        <ele>251.04</ele>
        <time>2016-01-10T10:33:10Z</time>
      </trkpt>
      <trkpt lat="43.98636" lon="5.14181">
        <ele>251.04</ele>
        <time>2016-01-10T10:33:23Z</time>
      </trkpt>
      <trkpt lat="43.98635" lon="5.1418">
        <ele>251.52</ele>
        <time>2016-01-10T10:33:37Z</time>
      </trkpt>
      <trkpt lat="43.98635" lon="5.1418">
        <ele>250.08</ele>
        <time>2016-01-10T10:33:42Z</time>
      </trkpt>
      <trkpt lat="43.98642" lon="5.14184">
        <ele>252.48</ele>
        <time>2016-01-10T10:34:10Z</time>
      </trkpt>
      <trkpt lat="43.98644" lon="5.14182">
        <ele>252.48</ele>
        <time>2016-01-10T10:34:11Z</time>
      </trkpt>
      <trkpt lat="43.98648" lon="5.14181">
        <ele>252.48</ele>
        <time>2016-01-10T10:34:27Z</time>
      </trkpt>
      <trkpt lat="43.98646" lon="5.14184">
        <ele>248.64</ele>
        <time>2016-01-10T10:34:37Z</time>
      </trkpt>
      <trkpt lat="43.98646" lon="5.14184">
        <ele>255.37</ele>
        <time>2016-01-10T10:34:38Z</time>
      </trkpt>
      <trkpt lat="43.98644" lon="5.14186">
        <ele>252.48</ele>
        <time>2016-01-10T10:34:41Z</time>
      </trkpt>
      <trkpt lat="43.9864" lon="5.14188">
        <ele>252.96</ele>
        <time>2016-01-10T10:34:55Z</time>
      </trkpt>
      <trkpt lat="43.98639" lon="5.14188">
        <ele>249.12</ele>
        <time>2016-01-10T10:35:07Z</time>
      </trkpt>
      <trkpt lat="43.98639" lon="5.14188">
        <ele>256.33</ele>
        <time>2016-01-10T10:35:08Z</time>
      </trkpt>
      <trkpt lat="43.98639" lon="5.14188">
        <ele>252.96</ele>
        <time>2016-01-10T10:35:09Z</time>
      </trkpt>
      <trkpt lat="43.98639" lon="5.14188">
        <ele>242.87</ele>
        <time>2016-01-10T10:35:11Z</time>
      </trkpt>
      <trkpt lat="43.98639" lon="5.14188">
        <ele>257.77</ele>
        <time>2016-01-10T10:35:12Z</time>
      </trkpt>
      <trkpt lat="43.9864" lon="5.14188">
        <ele>256.33</ele>
        <time>2016-01-10T10:35:13Z</time>
      </trkpt>
      <trkpt lat="43.9864" lon="5.14188">
        <ele>250.56</ele>
        <time>2016-01-10T10:35:14Z</time>
      </trkpt>
      <trkpt lat="43.9864" lon="5.14188">
        <ele>255.85</ele>
        <time>2016-01-10T10:35:15Z</time>
      </trkpt>
      <trkpt lat="43.9864" lon="5.14188">
        <ele>252.48</ele>
        <time>2016-01-10T10:35:18Z</time>
      </trkpt>
      <trkpt lat="43.98641" lon="5.14187">
        <ele>253.44</ele>
        <time>2016-01-10T10:35:35Z</time>
      </trkpt>
      <trkpt lat="43.98641" lon="5.14188">
        <ele>252.96</ele>
        <time>2016-01-10T10:35:48Z</time>
      </trkpt>
      <trkpt lat="43.98641" lon="5.14192">
        <ele>252.96</ele>
        <time>2016-01-10T10:36:06Z</time>
      </trkpt>
      <trkpt lat="43.98641" lon="5.14191">
        <ele>255.85</ele>
        <time>2016-01-10T10:36:08Z</time>
      </trkpt>
      <trkpt lat="43.98642" lon="5.14192">
        <ele>252</ele>
        <time>2016-01-10T10:36:21Z</time>
      </trkpt>
      <trkpt lat="43.98641" lon="5.14193">
        <ele>251.04</ele>
        <time>2016-01-10T10:36:31Z</time>
      </trkpt>
      <trkpt lat="43.98642" lon="5.14193">
        <ele>255.85</ele>
        <time>2016-01-10T10:36:32Z</time>
      </trkpt>
      <trkpt lat="43.98641" lon="5.14193">
        <ele>252.48</ele>
        <time>2016-01-10T10:36:36Z</time>
      </trkpt>
      <trkpt lat="43.9864" lon="5.14194">
        <ele>259.69</ele>
        <time>2016-01-10T10:36:44Z</time>
      </trkpt>
      <trkpt lat="43.9864" lon="5.14194">
        <ele>250.08</ele>
        <time>2016-01-10T10:36:45Z</time>
      </trkpt>
      <trkpt lat="43.9864" lon="5.14194">
        <ele>256.33</ele>
        <time>2016-01-10T10:36:47Z</time>
      </trkpt>
      <trkpt lat="43.9864" lon="5.14194">
        <ele>251.04</ele>
        <time>2016-01-10T10:36:48Z</time>
      </trkpt>
      <trkpt lat="43.9864" lon="5.14194">
        <ele>255.85</ele>
        <time>2016-01-10T10:36:49Z</time>
      </trkpt>
      <trkpt lat="43.9864" lon="5.14194">
        <ele>253.93</ele>
        <time>2016-01-10T10:37:00Z</time>
      </trkpt>
      <trkpt lat="43.98641" lon="5.14193">
        <ele>254.41</ele>
        <time>2016-01-10T10:37:16Z</time>
      </trkpt>
      <trkpt lat="43.98641" lon="5.1419">
        <ele>255.37</ele>
        <time>2016-01-10T10:37:30Z</time>
      </trkpt>
      <trkpt lat="43.98641" lon="5.1419">
        <ele>252</ele>
        <time>2016-01-10T10:37:33Z</time>
      </trkpt>
      <trkpt lat="43.98641" lon="5.1419">
        <ele>256.33</ele>
        <time>2016-01-10T10:37:34Z</time>
      </trkpt>
      <trkpt lat="43.98641" lon="5.1419">
        <ele>250.56</ele>
        <time>2016-01-10T10:37:37Z</time>
      </trkpt>
      <trkpt lat="43.98641" lon="5.1419">
        <ele>259.21</ele>
        <time>2016-01-10T10:37:38Z</time>
      </trkpt>
      <trkpt lat="43.98641" lon="5.1419">
        <ele>254.89</ele>
        <time>2016-01-10T10:37:39Z</time>
      </trkpt>
      <trkpt lat="43.98641" lon="5.14189">
        <ele>259.21</ele>
        <time>2016-01-10T10:37:49Z</time>
      </trkpt>
      <trkpt lat="43.98641" lon="5.14189">
        <ele>255.37</ele>
        <time>2016-01-10T10:37:50Z</time>
      </trkpt>
      <trkpt lat="43.98641" lon="5.14189">
        <ele>249.6</ele>
        <time>2016-01-10T10:37:51Z</time>
      </trkpt>
      <trkpt lat="43.98641" lon="5.14189">
        <ele>258.25</ele>
        <time>2016-01-10T10:37:52Z</time>
      </trkpt>
      <trkpt lat="43.98641" lon="5.14189">
        <ele>254.89</ele>
        <time>2016-01-10T10:37:53Z</time>
      </trkpt>
      <trkpt lat="43.9864" lon="5.14189">
        <ele>254.89</ele>
        <time>2016-01-10T10:38:06Z</time>
      </trkpt>
      <trkpt lat="43.98641" lon="5.14189">
        <ele>256.33</ele>
        <time>2016-01-10T10:38:22Z</time>
      </trkpt>
      <trkpt lat="43.98641" lon="5.14189">
        <ele>251.52</ele>
        <time>2016-01-10T10:38:37Z</time>
      </trkpt>
      <trkpt lat="43.98641" lon="5.14189">
        <ele>258.25</ele>
        <time>2016-01-10T10:38:38Z</time>
      </trkpt>
      <trkpt lat="43.98641" lon="5.14189">
        <ele>254.41</ele>
        <time>2016-01-10T10:38:43Z</time>
      </trkpt>
      <trkpt lat="43.98641" lon="5.14189">
        <ele>255.37</ele>
        <time>2016-01-10T10:38:58Z</time>
      </trkpt>
      <trkpt lat="43.98639" lon="5.14188">
        <ele>257.77</ele>
        <time>2016-01-10T10:39:17Z</time>
      </trkpt>
      <trkpt lat="43.98639" lon="5.14188">
        <ele>255.37</ele>
        <time>2016-01-10T10:39:30Z</time>
      </trkpt>
      <trkpt lat="43.98639" lon="5.14188">
        <ele>252</ele>
        <time>2016-01-10T10:39:32Z</time>
      </trkpt>
      <trkpt lat="43.98639" lon="5.14188">
        <ele>257.77</ele>
        <time>2016-01-10T10:39:33Z</time>
      </trkpt>
      <trkpt lat="43.98639" lon="5.14188">
        <ele>255.37</ele>
        <time>2016-01-10T10:39:45Z</time>
      </trkpt>
      <trkpt lat="43.98639" lon="5.14188">
        <ele>255.37</ele>
        <time>2016-01-10T10:39:47Z</time>
      </trkpt>
      <trkpt lat="43.98636" lon="5.14187">
        <ele>255.37</ele>
        <time>2016-01-10T10:39:54Z</time>
      </trkpt>
      <trkpt lat="43.98636" lon="5.14187">
        <ele>258.73</ele>
        <time>2016-01-10T10:40:00Z</time>
      </trkpt>
      <trkpt lat="43.98636" lon="5.14187">
        <ele>255.37</ele>
        <time>2016-01-10T10:40:01Z</time>
      </trkpt>
      <trkpt lat="43.98636" lon="5.14187">
        <ele>255.37</ele>
        <time>2016-01-10T10:40:10Z</time>
      </trkpt>
      <trkpt lat="43.98635" lon="5.14186">
        <ele>255.37</ele>
        <time>2016-01-10T10:40:22Z</time>
      </trkpt>
      <trkpt lat="43.98635" lon="5.14186">
        <ele>254.89</ele>
        <time>2016-01-10T10:40:28Z</time>
      </trkpt>
      <trkpt lat="43.98635" lon="5.14186">
        <ele>254.41</ele>
        <time>2016-01-10T10:40:35Z</time>
      </trkpt>
      <trkpt lat="43.98635" lon="5.14186">
        <ele>255.37</ele>
        <time>2016-01-10T10:40:46Z</time>
      </trkpt>
      <trkpt lat="43.98635" lon="5.14186">
        <ele>255.37</ele>
        <time>2016-01-10T10:40:57Z</time>
      </trkpt>
      <trkpt lat="43.98635" lon="5.14186">
        <ele>252</ele>
        <time>2016-01-10T10:41:07Z</time>
      </trkpt>
      <trkpt lat="43.98635" lon="5.14186">
        <ele>259.69</ele>
        <time>2016-01-10T10:41:08Z</time>
      </trkpt>
      <trkpt lat="43.98635" lon="5.14186">
        <ele>255.85</ele>
        <time>2016-01-10T10:41:09Z</time>
      </trkpt>
      <trkpt lat="43.98635" lon="5.14186">
        <ele>255.37</ele>
        <time>2016-01-10T10:41:21Z</time>
      </trkpt>
      <trkpt lat="43.98635" lon="5.14186">
        <ele>255.37</ele>
        <time>2016-01-10T10:41:35Z</time>
      </trkpt>
      <trkpt lat="43.98635" lon="5.14186">
        <ele>255.37</ele>
        <time>2016-01-10T10:41:45Z</time>
      </trkpt>
      <trkpt lat="43.98635" lon="5.14187">
        <ele>255.37</ele>
        <time>2016-01-10T10:41:48Z</time>
      </trkpt>
      <trkpt lat="43.98634" lon="5.14187">
        <ele>255.37</ele>
        <time>2016-01-10T10:41:55Z</time>
      </trkpt>
      <trkpt lat="43.98634" lon="5.14188">
        <ele>255.85</ele>
        <time>2016-01-10T10:42:10Z</time>
      </trkpt>
      <trkpt lat="43.98634" lon="5.14188">
        <ele>255.85</ele>
        <time>2016-01-10T10:42:21Z</time>
      </trkpt>
      <trkpt lat="43.98634" lon="5.14188">
        <ele>255.85</ele>
        <time>2016-01-10T10:42:35Z</time>
      </trkpt>
      <trkpt lat="43.98634" lon="5.14188">
        <ele>255.85</ele>
        <time>2016-01-10T10:42:46Z</time>
      </trkpt>
      <trkpt lat="43.98634" lon="5.14188">
        <ele>255.85</ele>
        <time>2016-01-10T10:42:59Z</time>
      </trkpt>
      <trkpt lat="43.98634" lon="5.14187">
        <ele>255.85</ele>
        <time>2016-01-10T10:43:09Z</time>
      </trkpt>
      <trkpt lat="43.98635" lon="5.14187">
        <ele>255.85</ele>
        <time>2016-01-10T10:43:22Z</time>
      </trkpt>
      <trkpt lat="43.98635" lon="5.14186">
        <ele>255.85</ele>
        <time>2016-01-10T10:43:33Z</time>
      </trkpt>
      <trkpt lat="43.98635" lon="5.14185">
        <ele>256.81</ele>
        <time>2016-01-10T10:43:46Z</time>
      </trkpt>
      <trkpt lat="43.98637" lon="5.14185">
        <ele>256.81</ele>
        <time>2016-01-10T10:43:56Z</time>
      </trkpt>
      <trkpt lat="43.98636" lon="5.14186">
        <ele>256.33</ele>
        <time>2016-01-10T10:44:03Z</time>
      </trkpt>
      <trkpt lat="43.98636" lon="5.14186">
        <ele>255.85</ele>
        <time>2016-01-10T10:44:10Z</time>
      </trkpt>
      <trkpt lat="43.98635" lon="5.14186">
        <ele>256.33</ele>
        <time>2016-01-10T10:44:21Z</time>
      </trkpt>
      <trkpt lat="43.98635" lon="5.14184">
        <ele>255.85</ele>
        <time>2016-01-10T10:44:31Z</time>
      </trkpt>
      <trkpt lat="43.98635" lon="5.14184">
        <ele>255.85</ele>
        <time>2016-01-10T10:44:34Z</time>
      </trkpt>
      <trkpt lat="43.98633" lon="5.14184">
        <ele>256.81</ele>
        <time>2016-01-10T10:44:41Z</time>
      </trkpt>
      <trkpt lat="43.98634" lon="5.14184">
        <ele>256.81</ele>
        <time>2016-01-10T10:44:49Z</time>
      </trkpt>
      <trkpt lat="43.98642" lon="5.14195">
        <ele>255.85</ele>
        <time>2016-01-10T10:44:56Z</time>
      </trkpt>
      <trkpt lat="43.98647" lon="5.14196">
        <ele>255.37</ele>
        <time>2016-01-10T10:45:00Z</time>
      </trkpt>
      <trkpt lat="43.98647" lon="5.14196">
        <ele>255.85</ele>
        <time>2016-01-10T10:45:04Z</time>
      </trkpt>
      <trkpt lat="43.98638" lon="5.14191">
        <ele>252.96</ele>
        <time>2016-01-10T10:45:09Z</time>
      </trkpt>
      <trkpt lat="43.98635" lon="5.14189">
        <ele>252</ele>
        <time>2016-01-10T10:45:10Z</time>
      </trkpt>
      <trkpt lat="43.98631" lon="5.14188">
        <ele>252</ele>
        <time>2016-01-10T10:45:11Z</time>
      </trkpt>
      <trkpt lat="43.9863" lon="5.14189">
        <ele>252</ele>
        <time>2016-01-10T10:45:12Z</time>
      </trkpt>
      <trkpt lat="43.98629" lon="5.14191">
        <ele>252</ele>
        <time>2016-01-10T10:45:13Z</time>
      </trkpt>
      <trkpt lat="43.98628" lon="5.14192">
        <ele>251.52</ele>
        <time>2016-01-10T10:45:17Z</time>
      </trkpt>
      <trkpt lat="43.98628" lon="5.14194">
        <ele>251.04</ele>
        <time>2016-01-10T10:45:23Z</time>
      </trkpt>
      <trkpt lat="43.98627" lon="5.14196">
        <ele>249.6</ele>
        <time>2016-01-10T10:45:31Z</time>
      </trkpt>
      <trkpt lat="43.98626" lon="5.14198">
        <ele>248.64</ele>
        <time>2016-01-10T10:45:38Z</time>
      </trkpt>
      <trkpt lat="43.98627" lon="5.14198">
        <ele>248.16</ele>
        <time>2016-01-10T10:45:43Z</time>
      </trkpt>
      <trkpt lat="43.98628" lon="5.142">
        <ele>246.72</ele>
        <time>2016-01-10T10:45:50Z</time>
      </trkpt>
      <trkpt lat="43.98627" lon="5.14203">
        <ele>245.75</ele>
        <time>2016-01-10T10:45:55Z</time>
      </trkpt>
      <trkpt lat="43.98628" lon="5.14207">
        <ele>244.31</ele>
        <time>2016-01-10T10:46:01Z</time>
      </trkpt>
      <trkpt lat="43.9863" lon="5.14207">
        <ele>243.83</ele>
        <time>2016-01-10T10:46:03Z</time>
      </trkpt>
      <trkpt lat="43.98633" lon="5.14212">
        <ele>242.39</ele>
        <time>2016-01-10T10:46:08Z</time>
      </trkpt>
      <trkpt lat="43.9863" lon="5.14219">
        <ele>240.95</ele>
        <time>2016-01-10T10:46:13Z</time>
      </trkpt>
      <trkpt lat="43.98632" lon="5.14221">
        <ele>240.47</ele>
        <time>2016-01-10T10:46:19Z</time>
      </trkpt>
      <trkpt lat="43.98633" lon="5.14222">
        <ele>240.47</ele>
        <time>2016-01-10T10:46:21Z</time>
      </trkpt>
      <trkpt lat="43.98634" lon="5.14233">
        <ele>238.54</ele>
        <time>2016-01-10T10:46:25Z</time>
      </trkpt>
      <trkpt lat="43.98639" lon="5.14252">
        <ele>235.18</ele>
        <time>2016-01-10T10:46:29Z</time>
      </trkpt>
      <trkpt lat="43.98642" lon="5.14258">
        <ele>234.22</ele>
        <time>2016-01-10T10:46:30Z</time>
      </trkpt>
      <trkpt lat="43.98651" lon="5.14272">
        <ele>231.81</ele>
        <time>2016-01-10T10:46:33Z</time>
      </trkpt>
      <trkpt lat="43.98653" lon="5.14276">
        <ele>231.33</ele>
        <time>2016-01-10T10:46:34Z</time>
      </trkpt>
      <trkpt lat="43.98657" lon="5.14283">
        <ele>229.41</ele>
        <time>2016-01-10T10:46:38Z</time>
      </trkpt>
      <trkpt lat="43.98658" lon="5.14286">
        <ele>228.93</ele>
        <time>2016-01-10T10:46:39Z</time>
      </trkpt>
      <trkpt lat="43.9866" lon="5.14288">
        <ele>228.45</ele>
        <time>2016-01-10T10:46:40Z</time>
      </trkpt>
      <trkpt lat="43.98663" lon="5.14292">
        <ele>228.93</ele>
        <time>2016-01-10T10:46:42Z</time>
      </trkpt>
      <trkpt lat="43.98665" lon="5.14296">
        <ele>228.93</ele>
        <time>2016-01-10T10:46:43Z</time>
      </trkpt>
      <trkpt lat="43.98667" lon="5.14303">
        <ele>228.93</ele>
        <time>2016-01-10T10:46:45Z</time>
      </trkpt>
      <trkpt lat="43.98666" lon="5.14305">
        <ele>228.45</ele>
        <time>2016-01-10T10:46:46Z</time>
      </trkpt>
      <trkpt lat="43.98665" lon="5.14307">
        <ele>227.97</ele>
        <time>2016-01-10T10:46:47Z</time>
      </trkpt>
      <trkpt lat="43.98666" lon="5.14312">
        <ele>228.93</ele>
        <time>2016-01-10T10:46:52Z</time>
      </trkpt>
      <trkpt lat="43.98667" lon="5.14316">
        <ele>228.93</ele>
        <time>2016-01-10T10:47:00Z</time>
      </trkpt>
      <trkpt lat="43.98665" lon="5.14318">
        <ele>228.45</ele>
        <time>2016-01-10T10:47:10Z</time>
      </trkpt>
      <trkpt lat="43.98666" lon="5.14315">
        <ele>228.45</ele>
        <time>2016-01-10T10:47:15Z</time>
      </trkpt>
      <trkpt lat="43.98666" lon="5.14313">
        <ele>227.97</ele>
        <time>2016-01-10T10:47:16Z</time>
      </trkpt>
      <trkpt lat="43.98667" lon="5.1431">
        <ele>227.97</ele>
        <time>2016-01-10T10:47:17Z</time>
      </trkpt>
      <trkpt lat="43.98667" lon="5.14308">
        <ele>228.45</ele>
        <time>2016-01-10T10:47:18Z</time>
      </trkpt>
      <trkpt lat="43.98666" lon="5.14306">
        <ele>228.93</ele>
        <time>2016-01-10T10:47:19Z</time>
      </trkpt>
      <trkpt lat="43.98659" lon="5.1431">
        <ele>229.41</ele>
        <time>2016-01-10T10:47:23Z</time>
      </trkpt>
      <trkpt lat="43.98656" lon="5.14315">
        <ele>229.89</ele>
        <time>2016-01-10T10:47:25Z</time>
      </trkpt>
      <trkpt lat="43.98642" lon="5.14331">
        <ele>230.85</ele>
        <time>2016-01-10T10:47:33Z</time>
      </trkpt>
      <trkpt lat="43.98631" lon="5.1435">
        <ele>231.33</ele>
        <time>2016-01-10T10:47:40Z</time>
      </trkpt>
      <trkpt lat="43.98625" lon="5.14367">
        <ele>231.33</ele>
        <time>2016-01-10T10:47:46Z</time>
      </trkpt>
      <trkpt lat="43.98618" lon="5.14385">
        <ele>232.3</ele>
        <time>2016-01-10T10:47:52Z</time>
      </trkpt>
      <trkpt lat="43.98617" lon="5.14388">
        <ele>232.3</ele>
        <time>2016-01-10T10:47:53Z</time>
      </trkpt>
      <trkpt lat="43.98614" lon="5.14401">
        <ele>231.81</ele>
        <time>2016-01-10T10:47:58Z</time>
      </trkpt>
      <trkpt lat="43.98613" lon="5.14404">
        <ele>232.3</ele>
        <time>2016-01-10T10:48:00Z</time>
      </trkpt>
      <trkpt lat="43.98609" lon="5.14419">
        <ele>231.81</ele>
        <time>2016-01-10T10:48:06Z</time>
      </trkpt>
      <trkpt lat="43.98604" lon="5.14452">
        <ele>232.3</ele>
        <time>2016-01-10T10:48:14Z</time>
      </trkpt>
      <trkpt lat="43.98596" lon="5.14475">
        <ele>232.78</ele>
        <time>2016-01-10T10:48:21Z</time>
      </trkpt>
      <trkpt lat="43.98581" lon="5.14492">
        <ele>232.78</ele>
        <time>2016-01-10T10:48:27Z</time>
      </trkpt>
      <trkpt lat="43.98572" lon="5.145">
        <ele>233.74</ele>
        <time>2016-01-10T10:48:32Z</time>
      </trkpt>
      <trkpt lat="43.98561" lon="5.14508">
        <ele>234.22</ele>
        <time>2016-01-10T10:48:39Z</time>
      </trkpt>
      <trkpt lat="43.98558" lon="5.14511">
        <ele>234.7</ele>
        <time>2016-01-10T10:48:42Z</time>
      </trkpt>
      <trkpt lat="43.98555" lon="5.14515">
        <ele>235.66</ele>
        <time>2016-01-10T10:48:49Z</time>
      </trkpt>
      <trkpt lat="43.98556" lon="5.14514">
        <ele>235.18</ele>
        <time>2016-01-10T10:48:55Z</time>
      </trkpt>
      <trkpt lat="43.98562" lon="5.14509">
        <ele>234.22</ele>
        <time>2016-01-10T10:48:59Z</time>
      </trkpt>
      <trkpt lat="43.98563" lon="5.14506">
        <ele>234.22</ele>
        <time>2016-01-10T10:49:01Z</time>
      </trkpt>
      <trkpt lat="43.98562" lon="5.14508">
        <ele>234.22</ele>
        <time>2016-01-10T10:49:07Z</time>
      </trkpt>
      <trkpt lat="43.98562" lon="5.14509">
        <ele>233.74</ele>
        <time>2016-01-10T10:49:20Z</time>
      </trkpt>
      <trkpt lat="43.98561" lon="5.14509">
        <ele>233.74</ele>
        <time>2016-01-10T10:49:29Z</time>
      </trkpt>
      <trkpt lat="43.98561" lon="5.1451">
        <ele>233.74</ele>
        <time>2016-01-10T10:49:39Z</time>
      </trkpt>
      <trkpt lat="43.9856" lon="5.1451">
        <ele>233.26</ele>
        <time>2016-01-10T10:49:47Z</time>
      </trkpt>
      <trkpt lat="43.98559" lon="5.14508">
        <ele>233.26</ele>
        <time>2016-01-10T10:49:54Z</time>
      </trkpt>
      <trkpt lat="43.9856" lon="5.14508">
        <ele>233.26</ele>
        <time>2016-01-10T10:50:11Z</time>
      </trkpt>
      <trkpt lat="43.9856" lon="5.14507">
        <ele>233.74</ele>
        <time>2016-01-10T10:50:23Z</time>
      </trkpt>
      <trkpt lat="43.9856" lon="5.14507">
        <ele>233.26</ele>
        <time>2016-01-10T10:50:32Z</time>
      </trkpt>
      <trkpt lat="43.9856" lon="5.14508">
        <ele>233.74</ele>
        <time>2016-01-10T10:50:35Z</time>
      </trkpt>
      <trkpt lat="43.98559" lon="5.14508">
        <ele>234.22</ele>
        <time>2016-01-10T10:50:37Z</time>
      </trkpt>
      <trkpt lat="43.98549" lon="5.1452">
        <ele>234.22</ele>
        <time>2016-01-10T10:50:45Z</time>
      </trkpt>
      <trkpt lat="43.98531" lon="5.14539">
        <ele>233.74</ele>
        <time>2016-01-10T10:50:54Z</time>
      </trkpt>
      <trkpt lat="43.98518" lon="5.14556">
        <ele>234.22</ele>
        <time>2016-01-10T10:51:01Z</time>
      </trkpt>
      <trkpt lat="43.98504" lon="5.14573">
        <ele>234.22</ele>
        <time>2016-01-10T10:51:07Z</time>
      </trkpt>
      <trkpt lat="43.98491" lon="5.14586">
        <ele>234.22</ele>
        <time>2016-01-10T10:51:11Z</time>
      </trkpt>
      <trkpt lat="43.98477" lon="5.14606">
        <ele>233.26</ele>
        <time>2016-01-10T10:51:17Z</time>
      </trkpt>
      <trkpt lat="43.98476" lon="5.14608">
        <ele>233.74</ele>
        <time>2016-01-10T10:51:18Z</time>
      </trkpt>
      <trkpt lat="43.98463" lon="5.14622">
        <ele>234.22</ele>
        <time>2016-01-10T10:51:24Z</time>
      </trkpt>
      <trkpt lat="43.98461" lon="5.14624">
        <ele>234.7</ele>
        <time>2016-01-10T10:51:25Z</time>
      </trkpt>
      <trkpt lat="43.98457" lon="5.14628">
        <ele>235.66</ele>
        <time>2016-01-10T10:51:27Z</time>
      </trkpt>
      <trkpt lat="43.98444" lon="5.14639">
        <ele>237.1</ele>
        <time>2016-01-10T10:51:34Z</time>
      </trkpt>
      <trkpt lat="43.98426" lon="5.14653">
        <ele>238.54</ele>
        <time>2016-01-10T10:51:42Z</time>
      </trkpt>
      <trkpt lat="43.98411" lon="5.14668">
        <ele>239.99</ele>
        <time>2016-01-10T10:51:50Z</time>
      </trkpt>
      <trkpt lat="43.98397" lon="5.14681">
        <ele>241.43</ele>
        <time>2016-01-10T10:51:57Z</time>
      </trkpt>
      <trkpt lat="43.98384" lon="5.14693">
        <ele>242.39</ele>
        <time>2016-01-10T10:52:04Z</time>
      </trkpt>
      <trkpt lat="43.9837" lon="5.14703">
        <ele>243.35</ele>
        <time>2016-01-10T10:52:11Z</time>
      </trkpt>
      <trkpt lat="43.98349" lon="5.14713">
        <ele>245.27</ele>
        <time>2016-01-10T10:52:22Z</time>
      </trkpt>
      <trkpt lat="43.98343" lon="5.14716">
        <ele>245.75</ele>
        <time>2016-01-10T10:52:26Z</time>
      </trkpt>
      <trkpt lat="43.98341" lon="5.14717">
        <ele>245.75</ele>
        <time>2016-01-10T10:52:28Z</time>
      </trkpt>
      <trkpt lat="43.98336" lon="5.14722">
        <ele>245.75</ele>
        <time>2016-01-10T10:52:35Z</time>
      </trkpt>
      <trkpt lat="43.98331" lon="5.14727">
        <ele>245.75</ele>
        <time>2016-01-10T10:52:46Z</time>
      </trkpt>
      <trkpt lat="43.98326" lon="5.14731">
        <ele>245.75</ele>
        <time>2016-01-10T10:52:58Z</time>
      </trkpt>
      <trkpt lat="43.98325" lon="5.14731">
        <ele>245.75</ele>
        <time>2016-01-10T10:53:09Z</time>
      </trkpt>
      <trkpt lat="43.98327" lon="5.1473">
        <ele>245.27</ele>
        <time>2016-01-10T10:53:21Z</time>
      </trkpt>
      <trkpt lat="43.98326" lon="5.14729">
        <ele>245.27</ele>
        <time>2016-01-10T10:53:33Z</time>
      </trkpt>
      <trkpt lat="43.98326" lon="5.14728">
        <ele>245.27</ele>
        <time>2016-01-10T10:53:50Z</time>
      </trkpt>
      <trkpt lat="43.98326" lon="5.14726">
        <ele>245.27</ele>
        <time>2016-01-10T10:54:05Z</time>
      </trkpt>
      <trkpt lat="43.98325" lon="5.14726">
        <ele>245.27</ele>
        <time>2016-01-10T10:54:17Z</time>
      </trkpt>
      <trkpt lat="43.98327" lon="5.14727">
        <ele>245.27</ele>
        <time>2016-01-10T10:54:33Z</time>
      </trkpt>
      <trkpt lat="43.98328" lon="5.14727">
        <ele>245.75</ele>
        <time>2016-01-10T10:54:47Z</time>
      </trkpt>
      <trkpt lat="43.98328" lon="5.14728">
        <ele>245.75</ele>
        <time>2016-01-10T10:55:02Z</time>
      </trkpt>
      <trkpt lat="43.98327" lon="5.14727">
        <ele>245.75</ele>
        <time>2016-01-10T10:55:10Z</time>
      </trkpt>
      <trkpt lat="43.98325" lon="5.14717">
        <ele>249.12</ele>
        <time>2016-01-10T10:55:19Z</time>
      </trkpt>
      <trkpt lat="43.98325" lon="5.14709">
        <ele>251.52</ele>
        <time>2016-01-10T10:55:26Z</time>
      </trkpt>
      <trkpt lat="43.98325" lon="5.14703">
        <ele>253.44</ele>
        <time>2016-01-10T10:55:33Z</time>
      </trkpt>
      <trkpt lat="43.98324" lon="5.147">
        <ele>255.37</ele>
        <time>2016-01-10T10:55:39Z</time>
      </trkpt>
      <trkpt lat="43.98324" lon="5.14697">
        <ele>256.33</ele>
        <time>2016-01-10T10:55:45Z</time>
      </trkpt>
      <trkpt lat="43.98322" lon="5.14692">
        <ele>258.25</ele>
        <time>2016-01-10T10:55:52Z</time>
      </trkpt>
      <trkpt lat="43.98324" lon="5.14688">
        <ele>259.69</ele>
        <time>2016-01-10T10:55:58Z</time>
      </trkpt>
      <trkpt lat="43.98324" lon="5.14686">
        <ele>260.65</ele>
        <time>2016-01-10T10:56:04Z</time>
      </trkpt>
      <trkpt lat="43.98322" lon="5.14684">
        <ele>263.06</ele>
        <time>2016-01-10T10:56:11Z</time>
      </trkpt>
      <trkpt lat="43.98317" lon="5.14681">
        <ele>264.98</ele>
        <time>2016-01-10T10:56:19Z</time>
      </trkpt>
      <trkpt lat="43.98317" lon="5.1468">
        <ele>265.46</ele>
        <time>2016-01-10T10:56:27Z</time>
      </trkpt>
      <trkpt lat="43.98315" lon="5.14679">
        <ele>264.98</ele>
        <time>2016-01-10T10:56:35Z</time>
      </trkpt>
      <trkpt lat="43.98314" lon="5.14679">
        <ele>265.46</ele>
        <time>2016-01-10T10:56:43Z</time>
      </trkpt>
      <trkpt lat="43.98314" lon="5.14677">
        <ele>264.98</ele>
        <time>2016-01-10T10:56:49Z</time>
      </trkpt>
      <trkpt lat="43.98313" lon="5.14677">
        <ele>264.98</ele>
        <time>2016-01-10T10:57:06Z</time>
      </trkpt>
      <trkpt lat="43.98314" lon="5.14676">
        <ele>265.94</ele>
        <time>2016-01-10T10:57:23Z</time>
      </trkpt>
      <trkpt lat="43.98314" lon="5.14676">
        <ele>265.46</ele>
        <time>2016-01-10T10:57:42Z</time>
      </trkpt>
      <trkpt lat="43.98314" lon="5.14676">
        <ele>265.94</ele>
        <time>2016-01-10T10:57:58Z</time>
      </trkpt>
      <trkpt lat="43.98314" lon="5.14676">
        <ele>266.42</ele>
        <time>2016-01-10T10:58:16Z</time>
      </trkpt>
      <trkpt lat="43.98315" lon="5.14677">
        <ele>266.9</ele>
        <time>2016-01-10T10:58:28Z</time>
      </trkpt>
      <trkpt lat="43.98315" lon="5.14678">
        <ele>266.9</ele>
        <time>2016-01-10T10:58:34Z</time>
      </trkpt>
      <trkpt lat="43.98315" lon="5.14678">
        <ele>267.38</ele>
        <time>2016-01-10T10:58:45Z</time>
      </trkpt>
      <trkpt lat="43.98311" lon="5.14677">
        <ele>267.86</ele>
        <time>2016-01-10T10:58:52Z</time>
      </trkpt>
      <trkpt lat="43.9831" lon="5.14677">
        <ele>267.86</ele>
        <time>2016-01-10T10:58:53Z</time>
      </trkpt>
      <trkpt lat="43.98299" lon="5.14676">
        <ele>268.83</ele>
        <time>2016-01-10T10:59:00Z</time>
      </trkpt>
      <trkpt lat="43.98289" lon="5.14671">
        <ele>270.27</ele>
        <time>2016-01-10T10:59:07Z</time>
      </trkpt>
      <trkpt lat="43.98283" lon="5.1467">
        <ele>271.71</ele>
        <time>2016-01-10T10:59:10Z</time>
      </trkpt>
      <trkpt lat="43.9828" lon="5.14667">
        <ele>273.15</ele>
        <time>2016-01-10T10:59:12Z</time>
      </trkpt>
      <trkpt lat="43.98271" lon="5.14667">
        <ele>274.59</ele>
        <time>2016-01-10T10:59:16Z</time>
      </trkpt>
      <trkpt lat="43.98261" lon="5.14663">
        <ele>276.04</ele>
        <time>2016-01-10T10:59:22Z</time>
      </trkpt>
      <trkpt lat="43.98249" lon="5.14659">
        <ele>277.96</ele>
        <time>2016-01-10T10:59:28Z</time>
      </trkpt>
      <trkpt lat="43.98244" lon="5.14656">
        <ele>278.44</ele>
        <time>2016-01-10T10:59:31Z</time>
      </trkpt>
      <trkpt lat="43.98241" lon="5.14653">
        <ele>279.88</ele>
        <time>2016-01-10T10:59:39Z</time>
      </trkpt>
      <trkpt lat="43.98237" lon="5.14652">
        <ele>280.36</ele>
        <time>2016-01-10T10:59:47Z</time>
      </trkpt>
      <trkpt lat="43.98233" lon="5.14647">
        <ele>282.28</ele>
        <time>2016-01-10T10:59:54Z</time>
      </trkpt>
      <trkpt lat="43.98226" lon="5.14644">
        <ele>283.25</ele>
        <time>2016-01-10T11:00:00Z</time>
      </trkpt>
      <trkpt lat="43.98224" lon="5.14643">
        <ele>283.73</ele>
        <time>2016-01-10T11:00:05Z</time>
      </trkpt>
      <trkpt lat="43.98223" lon="5.14642">
        <ele>283.73</ele>
        <time>2016-01-10T11:00:11Z</time>
      </trkpt>
      <trkpt lat="43.98214" lon="5.14641">
        <ele>285.17</ele>
        <time>2016-01-10T11:00:19Z</time>
      </trkpt>
      <trkpt lat="43.98208" lon="5.1464">
        <ele>286.61</ele>
        <time>2016-01-10T11:00:26Z</time>
      </trkpt>
      <trkpt lat="43.98201" lon="5.14641">
        <ele>287.57</ele>
        <time>2016-01-10T11:00:33Z</time>
      </trkpt>
      <trkpt lat="43.98199" lon="5.14641">
        <ele>288.05</ele>
        <time>2016-01-10T11:00:40Z</time>
      </trkpt>
      <trkpt lat="43.98194" lon="5.14643">
        <ele>288.53</ele>
        <time>2016-01-10T11:00:47Z</time>
      </trkpt>
      <trkpt lat="43.98189" lon="5.14643">
        <ele>289.01</ele>
        <time>2016-01-10T11:00:53Z</time>
      </trkpt>
      <trkpt lat="43.98187" lon="5.14641">
        <ele>289.97</ele>
        <time>2016-01-10T11:01:00Z</time>
      </trkpt>
      <trkpt lat="43.9818" lon="5.14636">
        <ele>290.46</ele>
        <time>2016-01-10T11:01:08Z</time>
      </trkpt>
      <trkpt lat="43.98175" lon="5.14631">
        <ele>292.38</ele>
        <time>2016-01-10T11:01:15Z</time>
      </trkpt>
      <trkpt lat="43.98172" lon="5.14627">
        <ele>292.86</ele>
        <time>2016-01-10T11:01:22Z</time>
      </trkpt>
      <trkpt lat="43.98169" lon="5.14623">
        <ele>294.3</ele>
        <time>2016-01-10T11:01:29Z</time>
      </trkpt>
      <trkpt lat="43.98164" lon="5.14617">
        <ele>295.74</ele>
        <time>2016-01-10T11:01:37Z</time>
      </trkpt>
      <trkpt lat="43.98161" lon="5.14617">
        <ele>295.74</ele>
        <time>2016-01-10T11:01:44Z</time>
      </trkpt>
      <trkpt lat="43.98154" lon="5.14614">
        <ele>296.22</ele>
        <time>2016-01-10T11:01:50Z</time>
      </trkpt>
      <trkpt lat="43.98152" lon="5.14611">
        <ele>297.18</ele>
        <time>2016-01-10T11:01:56Z</time>
      </trkpt>
      <trkpt lat="43.98148" lon="5.14608">
        <ele>298.63</ele>
        <time>2016-01-10T11:02:03Z</time>
      </trkpt>
      <trkpt lat="43.98143" lon="5.14608">
        <ele>298.63</ele>
        <time>2016-01-10T11:02:11Z</time>
      </trkpt>
      <trkpt lat="43.98143" lon="5.14608">
        <ele>298.63</ele>
        <time>2016-01-10T11:02:17Z</time>
      </trkpt>
      <trkpt lat="43.98143" lon="5.14607">
        <ele>299.11</ele>
        <time>2016-01-10T11:02:25Z</time>
      </trkpt>
      <trkpt lat="43.9814" lon="5.14606">
        <ele>300.55</ele>
        <time>2016-01-10T11:02:34Z</time>
      </trkpt>
      <trkpt lat="43.98133" lon="5.14605">
        <ele>301.51</ele>
        <time>2016-01-10T11:02:43Z</time>
      </trkpt>
      <trkpt lat="43.98125" lon="5.14605">
        <ele>301.99</ele>
        <time>2016-01-10T11:02:52Z</time>
      </trkpt>
      <trkpt lat="43.9812" lon="5.14606">
        <ele>301.51</ele>
        <time>2016-01-10T11:02:57Z</time>
      </trkpt>
      <trkpt lat="43.98112" lon="5.14605">
        <ele>301.51</ele>
        <time>2016-01-10T11:03:04Z</time>
      </trkpt>
      <trkpt lat="43.98106" lon="5.146">
        <ele>301.99</ele>
        <time>2016-01-10T11:03:10Z</time>
      </trkpt>
      <trkpt lat="43.98104" lon="5.14598">
        <ele>302.47</ele>
        <time>2016-01-10T11:03:16Z</time>
      </trkpt>
      <trkpt lat="43.98102" lon="5.14596">
        <ele>302.95</ele>
        <time>2016-01-10T11:03:24Z</time>
      </trkpt>
      <trkpt lat="43.981" lon="5.14597">
        <ele>303.43</ele>
        <time>2016-01-10T11:03:27Z</time>
      </trkpt>
      <trkpt lat="43.98092" lon="5.14593">
        <ele>304.39</ele>
        <time>2016-01-10T11:03:33Z</time>
      </trkpt>
      <trkpt lat="43.98089" lon="5.14595">
        <ele>304.88</ele>
        <time>2016-01-10T11:03:36Z</time>
      </trkpt>
      <trkpt lat="43.98085" lon="5.14597">
        <ele>303.91</ele>
        <time>2016-01-10T11:03:42Z</time>
      </trkpt>
      <trkpt lat="43.98086" lon="5.14597">
        <ele>304.88</ele>
        <time>2016-01-10T11:03:50Z</time>
      </trkpt>
      <trkpt lat="43.98086" lon="5.14596">
        <ele>304.88</ele>
        <time>2016-01-10T11:04:04Z</time>
      </trkpt>
      <trkpt lat="43.98086" lon="5.14596">
        <ele>304.39</ele>
        <time>2016-01-10T11:04:17Z</time>
      </trkpt>
      <trkpt lat="43.98086" lon="5.14595">
        <ele>304.39</ele>
        <time>2016-01-10T11:04:30Z</time>
      </trkpt>
      <trkpt lat="43.98085" lon="5.14594">
        <ele>304.39</ele>
        <time>2016-01-10T11:04:46Z</time>
      </trkpt>
      <trkpt lat="43.98086" lon="5.14594">
        <ele>303.91</ele>
        <time>2016-01-10T11:05:00Z</time>
      </trkpt>
      <trkpt lat="43.98085" lon="5.14606">
        <ele>304.39</ele>
        <time>2016-01-10T11:05:05Z</time>
      </trkpt>
      <trkpt lat="43.98081" lon="5.14612">
        <ele>305.84</ele>
        <time>2016-01-10T11:05:09Z</time>
      </trkpt>
      <trkpt lat="43.98071" lon="5.14615">
        <ele>307.28</ele>
        <time>2016-01-10T11:05:16Z</time>
      </trkpt>
      <trkpt lat="43.98069" lon="5.14619">
        <ele>308.24</ele>
        <time>2016-01-10T11:05:23Z</time>
      </trkpt>
      <trkpt lat="43.98066" lon="5.1462">
        <ele>309.2</ele>
        <time>2016-01-10T11:05:28Z</time>
      </trkpt>
      <trkpt lat="43.98056" lon="5.14622">
        <ele>309.68</ele>
        <time>2016-01-10T11:05:36Z</time>
      </trkpt>
      <trkpt lat="43.98045" lon="5.14627">
        <ele>310.64</ele>
        <time>2016-01-10T11:05:45Z</time>
      </trkpt>
      <trkpt lat="43.98043" lon="5.14629">
        <ele>310.16</ele>
        <time>2016-01-10T11:05:47Z</time>
      </trkpt>
      <trkpt lat="43.98037" lon="5.14633">
        <ele>312.09</ele>
        <time>2016-01-10T11:05:54Z</time>
      </trkpt>
      <trkpt lat="43.9803" lon="5.14635">
        <ele>313.53</ele>
        <time>2016-01-10T11:06:02Z</time>
      </trkpt>
      <trkpt lat="43.98024" lon="5.14641">
        <ele>314.01</ele>
        <time>2016-01-10T11:06:10Z</time>
      </trkpt>
      <trkpt lat="43.98021" lon="5.14643">
        <ele>314.49</ele>
        <time>2016-01-10T11:06:13Z</time>
      </trkpt>
      <trkpt lat="43.98018" lon="5.14645">
        <ele>314.97</ele>
        <time>2016-01-10T11:06:17Z</time>
      </trkpt>
      <trkpt lat="43.98015" lon="5.14649">
        <ele>314.97</ele>
        <time>2016-01-10T11:06:21Z</time>
      </trkpt>
      <trkpt lat="43.98011" lon="5.14656">
        <ele>315.45</ele>
        <time>2016-01-10T11:06:28Z</time>
      </trkpt>
      <trkpt lat="43.98008" lon="5.14658">
        <ele>315.45</ele>
        <time>2016-01-10T11:06:31Z</time>
      </trkpt>
      <trkpt lat="43.98002" lon="5.14664">
        <ele>316.41</ele>
        <time>2016-01-10T11:06:39Z</time>
      </trkpt>
      <trkpt lat="43.97997" lon="5.14669">
        <ele>317.85</ele>
        <time>2016-01-10T11:06:46Z</time>
      </trkpt>
      <trkpt lat="43.97994" lon="5.14673">
        <ele>318.33</ele>
        <time>2016-01-10T11:06:54Z</time>
      </trkpt>
      <trkpt lat="43.97994" lon="5.14675">
        <ele>317.85</ele>
        <time>2016-01-10T11:07:03Z</time>
      </trkpt>
      <trkpt lat="43.97994" lon="5.14674">
        <ele>317.37</ele>
        <time>2016-01-10T11:07:07Z</time>
      </trkpt>
      <trkpt lat="43.97995" lon="5.14671">
        <ele>318.33</ele>
        <time>2016-01-10T11:07:13Z</time>
      </trkpt>
      <trkpt lat="43.97995" lon="5.1467">
        <ele>317.37</ele>
        <time>2016-01-10T11:07:17Z</time>
      </trkpt>
      <trkpt lat="43.97999" lon="5.14666">
        <ele>316.89</ele>
        <time>2016-01-10T11:07:23Z</time>
      </trkpt>
      <trkpt lat="43.98007" lon="5.14656">
        <ele>314.97</ele>
        <time>2016-01-10T11:07:31Z</time>
      </trkpt>
      <trkpt lat="43.98008" lon="5.14655">
        <ele>314.97</ele>
        <time>2016-01-10T11:07:32Z</time>
      </trkpt>
      <trkpt lat="43.98012" lon="5.1465">
        <ele>314.01</ele>
        <time>2016-01-10T11:07:37Z</time>
      </trkpt>
      <trkpt lat="43.98018" lon="5.14642">
        <ele>313.53</ele>
        <time>2016-01-10T11:07:44Z</time>
      </trkpt>
      <trkpt lat="43.98021" lon="5.14639">
        <ele>313.05</ele>
        <time>2016-01-10T11:07:49Z</time>
      </trkpt>
      <trkpt lat="43.98022" lon="5.14642">
        <ele>313.05</ele>
        <time>2016-01-10T11:07:51Z</time>
      </trkpt>
      <trkpt lat="43.98023" lon="5.14647">
        <ele>313.53</ele>
        <time>2016-01-10T11:07:57Z</time>
      </trkpt>
      <trkpt lat="43.98017" lon="5.14654">
        <ele>315.45</ele>
        <time>2016-01-10T11:08:06Z</time>
      </trkpt>
      <trkpt lat="43.98012" lon="5.14662">
        <ele>316.89</ele>
        <time>2016-01-10T11:08:14Z</time>
      </trkpt>
      <trkpt lat="43.98008" lon="5.14669">
        <ele>318.81</ele>
        <time>2016-01-10T11:08:23Z</time>
      </trkpt>
      <trkpt lat="43.98" lon="5.14678">
        <ele>320.74</ele>
        <time>2016-01-10T11:08:33Z</time>
      </trkpt>
      <trkpt lat="43.97996" lon="5.14685">
        <ele>321.7</ele>
        <time>2016-01-10T11:08:39Z</time>
      </trkpt>
      <trkpt lat="43.97993" lon="5.14692">
        <ele>322.66</ele>
        <time>2016-01-10T11:08:46Z</time>
      </trkpt>
      <trkpt lat="43.97991" lon="5.14701">
        <ele>323.14</ele>
        <time>2016-01-10T11:08:53Z</time>
      </trkpt>
      <trkpt lat="43.97991" lon="5.14702">
        <ele>323.62</ele>
        <time>2016-01-10T11:08:58Z</time>
      </trkpt>
      <trkpt lat="43.97989" lon="5.1471">
        <ele>325.54</ele>
        <time>2016-01-10T11:09:07Z</time>
      </trkpt>
      <trkpt lat="43.97986" lon="5.14715">
        <ele>326.5</ele>
        <time>2016-01-10T11:09:14Z</time>
      </trkpt>
      <trkpt lat="43.97985" lon="5.14718">
        <ele>326.5</ele>
        <time>2016-01-10T11:09:21Z</time>
      </trkpt>
      <trkpt lat="43.97985" lon="5.14719">
        <ele>326.02</ele>
        <time>2016-01-10T11:09:38Z</time>
      </trkpt>
      <trkpt lat="43.97984" lon="5.14718">
        <ele>326.5</ele>
        <time>2016-01-10T11:09:57Z</time>
      </trkpt>
      <trkpt lat="43.97984" lon="5.14718">
        <ele>326.5</ele>
        <time>2016-01-10T11:10:15Z</time>
      </trkpt>
      <trkpt lat="43.97984" lon="5.14717">
        <ele>326.99</ele>
        <time>2016-01-10T11:10:33Z</time>
      </trkpt>
      <trkpt lat="43.97985" lon="5.14717">
        <ele>327.47</ele>
        <time>2016-01-10T11:10:53Z</time>
      </trkpt>
      <trkpt lat="43.97985" lon="5.14718">
        <ele>327.47</ele>
        <time>2016-01-10T11:11:10Z</time>
      </trkpt>
      <trkpt lat="43.97985" lon="5.14718">
        <ele>327.95</ele>
        <time>2016-01-10T11:11:24Z</time>
      </trkpt>
      <trkpt lat="43.97985" lon="5.14718">
        <ele>327.95</ele>
        <time>2016-01-10T11:11:39Z</time>
      </trkpt>
      <trkpt lat="43.97985" lon="5.14719">
        <ele>328.43</ele>
        <time>2016-01-10T11:11:54Z</time>
      </trkpt>
      <trkpt lat="43.97985" lon="5.14718">
        <ele>328.43</ele>
        <time>2016-01-10T11:12:11Z</time>
      </trkpt>
      <trkpt lat="43.97985" lon="5.14718">
        <ele>328.43</ele>
        <time>2016-01-10T11:12:20Z</time>
      </trkpt>
      <trkpt lat="43.97986" lon="5.14717">
        <ele>328.43</ele>
        <time>2016-01-10T11:12:36Z</time>
      </trkpt>
      <trkpt lat="43.97986" lon="5.14717">
        <ele>327.95</ele>
        <time>2016-01-10T11:12:53Z</time>
      </trkpt>
      <trkpt lat="43.97986" lon="5.14717">
        <ele>327.47</ele>
        <time>2016-01-10T11:13:10Z</time>
      </trkpt>
      <trkpt lat="43.97986" lon="5.14718">
        <ele>326.99</ele>
        <time>2016-01-10T11:13:31Z</time>
      </trkpt>
      <trkpt lat="43.97985" lon="5.14718">
        <ele>327.47</ele>
        <time>2016-01-10T11:13:51Z</time>
      </trkpt>
      <trkpt lat="43.97985" lon="5.14718">
        <ele>326.5</ele>
        <time>2016-01-10T11:14:11Z</time>
      </trkpt>
      <trkpt lat="43.97986" lon="5.14718">
        <ele>326.99</ele>
        <time>2016-01-10T11:14:22Z</time>
      </trkpt>
      <trkpt lat="43.97986" lon="5.14717">
        <ele>326.02</ele>
        <time>2016-01-10T11:14:32Z</time>
      </trkpt>
      <trkpt lat="43.97987" lon="5.14717">
        <ele>326.02</ele>
        <time>2016-01-10T11:14:46Z</time>
      </trkpt>
      <trkpt lat="43.97987" lon="5.14717">
        <ele>326.02</ele>
        <time>2016-01-10T11:15:07Z</time>
      </trkpt>
      <trkpt lat="43.97988" lon="5.14717">
        <ele>325.54</ele>
        <time>2016-01-10T11:15:20Z</time>
      </trkpt>
      <trkpt lat="43.97989" lon="5.14716">
        <ele>325.54</ele>
        <time>2016-01-10T11:15:26Z</time>
      </trkpt>
      <trkpt lat="43.97994" lon="5.14722">
        <ele>326.99</ele>
        <time>2016-01-10T11:15:33Z</time>
      </trkpt>
      <trkpt lat="43.97994" lon="5.14728">
        <ele>327.47</ele>
        <time>2016-01-10T11:15:37Z</time>
      </trkpt>
      <trkpt lat="43.9799" lon="5.14738">
        <ele>327.95</ele>
        <time>2016-01-10T11:15:43Z</time>
      </trkpt>
      <trkpt lat="43.97984" lon="5.14753">
        <ele>329.39</ele>
        <time>2016-01-10T11:15:52Z</time>
      </trkpt>
      <trkpt lat="43.97974" lon="5.14769">
        <ele>330.83</ele>
        <time>2016-01-10T11:16:00Z</time>
      </trkpt>
      <trkpt lat="43.97963" lon="5.14787">
        <ele>332.27</ele>
        <time>2016-01-10T11:16:10Z</time>
      </trkpt>
      <trkpt lat="43.97956" lon="5.14788">
        <ele>332.27</ele>
        <time>2016-01-10T11:16:14Z</time>
      </trkpt>
      <trkpt lat="43.97943" lon="5.14781">
        <ele>332.27</ele>
        <time>2016-01-10T11:16:22Z</time>
      </trkpt>
      <trkpt lat="43.97934" lon="5.14776">
        <ele>332.75</ele>
        <time>2016-01-10T11:16:27Z</time>
      </trkpt>
      <trkpt lat="43.97929" lon="5.14781">
        <ele>333.23</ele>
        <time>2016-01-10T11:16:32Z</time>
      </trkpt>
      <trkpt lat="43.97925" lon="5.1479">
        <ele>334.2</ele>
        <time>2016-01-10T11:16:37Z</time>
      </trkpt>
      <trkpt lat="43.97924" lon="5.14795">
        <ele>334.2</ele>
        <time>2016-01-10T11:16:39Z</time>
      </trkpt>
      <trkpt lat="43.97919" lon="5.14804">
        <ele>335.64</ele>
        <time>2016-01-10T11:16:46Z</time>
      </trkpt>
      <trkpt lat="43.97918" lon="5.14804">
        <ele>335.64</ele>
        <time>2016-01-10T11:16:55Z</time>
      </trkpt>
      <trkpt lat="43.97918" lon="5.14804">
        <ele>335.64</ele>
        <time>2016-01-10T11:16:57Z</time>
      </trkpt>
      <trkpt lat="43.97917" lon="5.14801">
        <ele>336.12</ele>
        <time>2016-01-10T11:17:03Z</time>
      </trkpt>
      <trkpt lat="43.97917" lon="5.148">
        <ele>336.12</ele>
        <time>2016-01-10T11:17:06Z</time>
      </trkpt>
      <trkpt lat="43.97919" lon="5.14783">
        <ele>337.08</ele>
        <time>2016-01-10T11:17:16Z</time>
      </trkpt>
      <trkpt lat="43.9792" lon="5.14774">
        <ele>337.08</ele>
        <time>2016-01-10T11:17:21Z</time>
      </trkpt>
      <trkpt lat="43.9792" lon="5.14769">
        <ele>337.56</ele>
        <time>2016-01-10T11:17:24Z</time>
      </trkpt>
      <trkpt lat="43.97919" lon="5.14769">
        <ele>337.56</ele>
        <time>2016-01-10T11:17:26Z</time>
      </trkpt>
      <trkpt lat="43.97916" lon="5.14777">
        <ele>339</ele>
        <time>2016-01-10T11:17:33Z</time>
      </trkpt>
      <trkpt lat="43.9791" lon="5.14782">
        <ele>339.96</ele>
        <time>2016-01-10T11:17:41Z</time>
      </trkpt>
      <trkpt lat="43.97908" lon="5.14783">
        <ele>340.44</ele>
        <time>2016-01-10T11:17:43Z</time>
      </trkpt>
      <trkpt lat="43.97904" lon="5.14785">
        <ele>340.92</ele>
        <time>2016-01-10T11:17:47Z</time>
      </trkpt>
      <trkpt lat="43.97898" lon="5.14796">
        <ele>341.41</ele>
        <time>2016-01-10T11:17:56Z</time>
      </trkpt>
      <trkpt lat="43.97898" lon="5.14797">
        <ele>341.89</ele>
        <time>2016-01-10T11:17:57Z</time>
      </trkpt>
      <trkpt lat="43.97895" lon="5.14794">
        <ele>342.37</ele>
        <time>2016-01-10T11:18:01Z</time>
      </trkpt>
      <trkpt lat="43.97895" lon="5.14792">
        <ele>342.37</ele>
        <time>2016-01-10T11:18:07Z</time>
      </trkpt>
      <trkpt lat="43.97897" lon="5.14782">
        <ele>343.33</ele>
        <time>2016-01-10T11:18:12Z</time>
      </trkpt>
      <trkpt lat="43.97898" lon="5.14769">
        <ele>344.29</ele>
        <time>2016-01-10T11:18:17Z</time>
      </trkpt>
      <trkpt lat="43.97898" lon="5.14757">
        <ele>345.25</ele>
        <time>2016-01-10T11:18:22Z</time>
      </trkpt>
      <trkpt lat="43.97902" lon="5.14744">
        <ele>344.77</ele>
        <time>2016-01-10T11:18:27Z</time>
      </trkpt>
      <trkpt lat="43.97906" lon="5.14722">
        <ele>345.25</ele>
        <time>2016-01-10T11:18:34Z</time>
      </trkpt>
      <trkpt lat="43.9791" lon="5.14697">
        <ele>344.77</ele>
        <time>2016-01-10T11:18:41Z</time>
      </trkpt>
      <trkpt lat="43.97909" lon="5.14669">
        <ele>344.77</ele>
        <time>2016-01-10T11:18:49Z</time>
      </trkpt>
      <trkpt lat="43.97909" lon="5.14649">
        <ele>344.77</ele>
        <time>2016-01-10T11:18:55Z</time>
      </trkpt>
      <trkpt lat="43.97907" lon="5.1464">
        <ele>344.77</ele>
        <time>2016-01-10T11:19:00Z</time>
      </trkpt>
      <trkpt lat="43.97908" lon="5.1464">
        <ele>345.25</ele>
        <time>2016-01-10T11:19:07Z</time>
      </trkpt>
      <trkpt lat="43.97908" lon="5.1464">
        <ele>345.25</ele>
        <time>2016-01-10T11:19:18Z</time>
      </trkpt>
      <trkpt lat="43.97908" lon="5.14639">
        <ele>345.25</ele>
        <time>2016-01-10T11:19:31Z</time>
      </trkpt>
      <trkpt lat="43.97919" lon="5.1463">
        <ele>344.29</ele>
        <time>2016-01-10T11:19:36Z</time>
      </trkpt>
      <trkpt lat="43.9792" lon="5.14628">
        <ele>343.81</ele>
        <time>2016-01-10T11:19:37Z</time>
      </trkpt>
      <trkpt lat="43.97932" lon="5.14611">
        <ele>340.92</ele>
        <time>2016-01-10T11:19:44Z</time>
      </trkpt>
      <trkpt lat="43.97937" lon="5.14609">
        <ele>339.48</ele>
        <time>2016-01-10T11:19:50Z</time>
      </trkpt>
      <trkpt lat="43.97949" lon="5.146">
        <ele>338.04</ele>
        <time>2016-01-10T11:19:57Z</time>
      </trkpt>
      <trkpt lat="43.97955" lon="5.14596">
        <ele>336.12</ele>
        <time>2016-01-10T11:19:59Z</time>
      </trkpt>
      <trkpt lat="43.97965" lon="5.14577">
        <ele>333.71</ele>
        <time>2016-01-10T11:20:05Z</time>
      </trkpt>
      <trkpt lat="43.97968" lon="5.1457">
        <ele>332.75</ele>
        <time>2016-01-10T11:20:08Z</time>
      </trkpt>
      <trkpt lat="43.97984" lon="5.14569">
        <ele>330.35</ele>
        <time>2016-01-10T11:20:15Z</time>
      </trkpt>
      <trkpt lat="43.97986" lon="5.1457">
        <ele>330.35</ele>
        <time>2016-01-10T11:20:19Z</time>
      </trkpt>
      <trkpt lat="43.97987" lon="5.14571">
        <ele>329.87</ele>
        <time>2016-01-10T11:20:27Z</time>
      </trkpt>
      <trkpt lat="43.97988" lon="5.14573">
        <ele>329.87</ele>
        <time>2016-01-10T11:20:43Z</time>
      </trkpt>
      <trkpt lat="43.97988" lon="5.14573">
        <ele>330.35</ele>
        <time>2016-01-10T11:21:00Z</time>
      </trkpt>
      <trkpt lat="43.97989" lon="5.14574">
        <ele>330.35</ele>
        <time>2016-01-10T11:21:09Z</time>
      </trkpt>
      <trkpt lat="43.97989" lon="5.14575">
        <ele>329.87</ele>
        <time>2016-01-10T11:21:25Z</time>
      </trkpt>
      <trkpt lat="43.97989" lon="5.14575">
        <ele>329.87</ele>
        <time>2016-01-10T11:21:43Z</time>
      </trkpt>
      <trkpt lat="43.97989" lon="5.14575">
        <ele>329.87</ele>
        <time>2016-01-10T11:21:51Z</time>
      </trkpt>
      <trkpt lat="43.97989" lon="5.14575">
        <ele>329.87</ele>
        <time>2016-01-10T11:22:10Z</time>
      </trkpt>
      <trkpt lat="43.97989" lon="5.14575">
        <ele>329.87</ele>
        <time>2016-01-10T11:22:28Z</time>
      </trkpt>
      <trkpt lat="43.97988" lon="5.14575">
        <ele>329.87</ele>
        <time>2016-01-10T11:22:36Z</time>
      </trkpt>
      <trkpt lat="43.97989" lon="5.14575">
        <ele>329.39</ele>
        <time>2016-01-10T11:22:53Z</time>
      </trkpt>
      <trkpt lat="43.97989" lon="5.14576">
        <ele>329.39</ele>
        <time>2016-01-10T11:23:12Z</time>
      </trkpt>
      <trkpt lat="43.97989" lon="5.14576">
        <ele>328.91</ele>
        <time>2016-01-10T11:23:25Z</time>
      </trkpt>
      <trkpt lat="43.97989" lon="5.14575">
        <ele>328.91</ele>
        <time>2016-01-10T11:23:39Z</time>
      </trkpt>
      <trkpt lat="43.97989" lon="5.14574">
        <ele>328.91</ele>
        <time>2016-01-10T11:23:45Z</time>
      </trkpt>
      <trkpt lat="43.97989" lon="5.14574">
        <ele>329.39</ele>
        <time>2016-01-10T11:23:54Z</time>
      </trkpt>
      <trkpt lat="43.97998" lon="5.14564">
        <ele>328.43</ele>
        <time>2016-01-10T11:24:00Z</time>
      </trkpt>
      <trkpt lat="43.98004" lon="5.1456">
        <ele>327.95</ele>
        <time>2016-01-10T11:24:03Z</time>
      </trkpt>
      <trkpt lat="43.98023" lon="5.1455">
        <ele>326.02</ele>
        <time>2016-01-10T11:24:08Z</time>
      </trkpt>
      <trkpt lat="43.98028" lon="5.14547">
        <ele>325.54</ele>
        <time>2016-01-10T11:24:09Z</time>
      </trkpt>
      <trkpt lat="43.98045" lon="5.14538">
        <ele>324.1</ele>
        <time>2016-01-10T11:24:12Z</time>
      </trkpt>
      <trkpt lat="43.9805" lon="5.14535">
        <ele>323.62</ele>
        <time>2016-01-10T11:24:13Z</time>
      </trkpt>
      <trkpt lat="43.98053" lon="5.14531">
        <ele>323.14</ele>
        <time>2016-01-10T11:24:14Z</time>
      </trkpt>
      <trkpt lat="43.98055" lon="5.14529">
        <ele>323.14</ele>
        <time>2016-01-10T11:24:15Z</time>
      </trkpt>
      <trkpt lat="43.98058" lon="5.14528">
        <ele>323.14</ele>
        <time>2016-01-10T11:24:16Z</time>
      </trkpt>
      <trkpt lat="43.98061" lon="5.14528">
        <ele>322.66</ele>
        <time>2016-01-10T11:24:17Z</time>
      </trkpt>
      <trkpt lat="43.98064" lon="5.14528">
        <ele>322.66</ele>
        <time>2016-01-10T11:24:18Z</time>
      </trkpt>
      <trkpt lat="43.98066" lon="5.14527">
        <ele>322.66</ele>
        <time>2016-01-10T11:24:19Z</time>
      </trkpt>
      <trkpt lat="43.98072" lon="5.14525">
        <ele>322.18</ele>
        <time>2016-01-10T11:24:22Z</time>
      </trkpt>
      <trkpt lat="43.98075" lon="5.14521">
        <ele>322.18</ele>
        <time>2016-01-10T11:24:25Z</time>
      </trkpt>
      <trkpt lat="43.98075" lon="5.14519">
        <ele>322.18</ele>
        <time>2016-01-10T11:24:26Z</time>
      </trkpt>
      <trkpt lat="43.98075" lon="5.14518">
        <ele>321.7</ele>
        <time>2016-01-10T11:24:27Z</time>
      </trkpt>
      <trkpt lat="43.98074" lon="5.14516">
        <ele>322.18</ele>
        <time>2016-01-10T11:24:28Z</time>
      </trkpt>
      <trkpt lat="43.98073" lon="5.14515">
        <ele>322.18</ele>
        <time>2016-01-10T11:24:29Z</time>
      </trkpt>
      <trkpt lat="43.98072" lon="5.14515">
        <ele>322.18</ele>
        <time>2016-01-10T11:24:30Z</time>
      </trkpt>
      <trkpt lat="43.9807" lon="5.14516">
        <ele>322.18</ele>
        <time>2016-01-10T11:24:31Z</time>
      </trkpt>
      <trkpt lat="43.98067" lon="5.14518">
        <ele>322.66</ele>
        <time>2016-01-10T11:24:34Z</time>
      </trkpt>
      <trkpt lat="43.98065" lon="5.14518">
        <ele>322.66</ele>
        <time>2016-01-10T11:24:35Z</time>
      </trkpt>
      <trkpt lat="43.98064" lon="5.14519">
        <ele>322.66</ele>
        <time>2016-01-10T11:24:36Z</time>
      </trkpt>
      <trkpt lat="43.98061" lon="5.14521">
        <ele>323.14</ele>
        <time>2016-01-10T11:24:39Z</time>
      </trkpt>
      <trkpt lat="43.98061" lon="5.14523">
        <ele>323.14</ele>
        <time>2016-01-10T11:24:40Z</time>
      </trkpt>
      <trkpt lat="43.98062" lon="5.14523">
        <ele>323.14</ele>
        <time>2016-01-10T11:24:41Z</time>
      </trkpt>
      <trkpt lat="43.98063" lon="5.14521">
        <ele>322.66</ele>
        <time>2016-01-10T11:24:46Z</time>
      </trkpt>
      <trkpt lat="43.98063" lon="5.1452">
        <ele>323.14</ele>
        <time>2016-01-10T11:24:59Z</time>
      </trkpt>
      <trkpt lat="43.98064" lon="5.14521">
        <ele>322.66</ele>
        <time>2016-01-10T11:25:10Z</time>
      </trkpt>
      <trkpt lat="43.98066" lon="5.14519">
        <ele>322.66</ele>
        <time>2016-01-10T11:25:23Z</time>
      </trkpt>
      <trkpt lat="43.98076" lon="5.1451">
        <ele>321.7</ele>
        <time>2016-01-10T11:25:27Z</time>
      </trkpt>
      <trkpt lat="43.9808" lon="5.1451">
        <ele>321.7</ele>
        <time>2016-01-10T11:25:28Z</time>
      </trkpt>
      <trkpt lat="43.98085" lon="5.14512">
        <ele>321.7</ele>
        <time>2016-01-10T11:25:29Z</time>
      </trkpt>
      <trkpt lat="43.98089" lon="5.14514">
        <ele>321.22</ele>
        <time>2016-01-10T11:25:30Z</time>
      </trkpt>
      <trkpt lat="43.98093" lon="5.14516">
        <ele>321.22</ele>
        <time>2016-01-10T11:25:31Z</time>
      </trkpt>
      <trkpt lat="43.98098" lon="5.14518">
        <ele>320.74</ele>
        <time>2016-01-10T11:25:32Z</time>
      </trkpt>
      <trkpt lat="43.98102" lon="5.1452">
        <ele>320.74</ele>
        <time>2016-01-10T11:25:33Z</time>
      </trkpt>
      <trkpt lat="43.98107" lon="5.14521">
        <ele>320.26</ele>
        <time>2016-01-10T11:25:34Z</time>
      </trkpt>
      <trkpt lat="43.98111" lon="5.14522">
        <ele>320.26</ele>
        <time>2016-01-10T11:25:35Z</time>
      </trkpt>
      <trkpt lat="43.98115" lon="5.14523">
        <ele>320.26</ele>
        <time>2016-01-10T11:25:36Z</time>
      </trkpt>
      <trkpt lat="43.98119" lon="5.14525">
        <ele>320.26</ele>
        <time>2016-01-10T11:25:37Z</time>
      </trkpt>
      <trkpt lat="43.98124" lon="5.14527">
        <ele>320.26</ele>
        <time>2016-01-10T11:25:38Z</time>
      </trkpt>
      <trkpt lat="43.98128" lon="5.14527">
        <ele>320.26</ele>
        <time>2016-01-10T11:25:39Z</time>
      </trkpt>
      <trkpt lat="43.98136" lon="5.14529">
        <ele>319.78</ele>
        <time>2016-01-10T11:25:41Z</time>
      </trkpt>
      <trkpt lat="43.98139" lon="5.14531">
        <ele>319.78</ele>
        <time>2016-01-10T11:25:42Z</time>
      </trkpt>
      <trkpt lat="43.98158" lon="5.14537">
        <ele>319.78</ele>
        <time>2016-01-10T11:25:49Z</time>
      </trkpt>
      <trkpt lat="43.98159" lon="5.14536">
        <ele>319.78</ele>
        <time>2016-01-10T11:25:50Z</time>
      </trkpt>
      <trkpt lat="43.98159" lon="5.14534">
        <ele>319.78</ele>
        <time>2016-01-10T11:25:51Z</time>
      </trkpt>
      <trkpt lat="43.98158" lon="5.14532">
        <ele>319.78</ele>
        <time>2016-01-10T11:25:52Z</time>
      </trkpt>
      <trkpt lat="43.98157" lon="5.14532">
        <ele>319.78</ele>
        <time>2016-01-10T11:25:53Z</time>
      </trkpt>
      <trkpt lat="43.98156" lon="5.14532">
        <ele>319.3</ele>
        <time>2016-01-10T11:25:54Z</time>
      </trkpt>
      <trkpt lat="43.98153" lon="5.14533">
        <ele>319.3</ele>
        <time>2016-01-10T11:25:56Z</time>
      </trkpt>
      <trkpt lat="43.98152" lon="5.14532">
        <ele>319.3</ele>
        <time>2016-01-10T11:25:57Z</time>
      </trkpt>
      <trkpt lat="43.9815" lon="5.14533">
        <ele>319.78</ele>
        <time>2016-01-10T11:25:58Z</time>
      </trkpt>
      <trkpt lat="43.98148" lon="5.14533">
        <ele>319.78</ele>
        <time>2016-01-10T11:25:59Z</time>
      </trkpt>
      <trkpt lat="43.98147" lon="5.14533">
        <ele>319.78</ele>
        <time>2016-01-10T11:26:00Z</time>
      </trkpt>
      <trkpt lat="43.98145" lon="5.14533">
        <ele>319.3</ele>
        <time>2016-01-10T11:26:01Z</time>
      </trkpt>
      <trkpt lat="43.98143" lon="5.14532">
        <ele>319.78</ele>
        <time>2016-01-10T11:26:02Z</time>
      </trkpt>
      <trkpt lat="43.98141" lon="5.14532">
        <ele>319.3</ele>
        <time>2016-01-10T11:26:03Z</time>
      </trkpt>
      <trkpt lat="43.98128" lon="5.14528">
        <ele>319.78</ele>
        <time>2016-01-10T11:26:10Z</time>
      </trkpt>
      <trkpt lat="43.98114" lon="5.14523">
        <ele>320.26</ele>
        <time>2016-01-10T11:26:18Z</time>
      </trkpt>
      <trkpt lat="43.9811" lon="5.14521">
        <ele>320.26</ele>
        <time>2016-01-10T11:26:21Z</time>
      </trkpt>
      <trkpt lat="43.98108" lon="5.14521">
        <ele>320.26</ele>
        <time>2016-01-10T11:26:22Z</time>
      </trkpt>
      <trkpt lat="43.98106" lon="5.14522">
        <ele>320.74</ele>
        <time>2016-01-10T11:26:23Z</time>
      </trkpt>
      <trkpt lat="43.98105" lon="5.14525">
        <ele>320.74</ele>
        <time>2016-01-10T11:26:24Z</time>
      </trkpt>
      <trkpt lat="43.98103" lon="5.14527">
        <ele>320.74</ele>
        <time>2016-01-10T11:26:25Z</time>
      </trkpt>
      <trkpt lat="43.98102" lon="5.14528">
        <ele>320.74</ele>
        <time>2016-01-10T11:26:26Z</time>
      </trkpt>
      <trkpt lat="43.981" lon="5.14529">
        <ele>320.74</ele>
        <time>2016-01-10T11:26:27Z</time>
      </trkpt>
      <trkpt lat="43.98099" lon="5.14531">
        <ele>321.22</ele>
        <time>2016-01-10T11:26:28Z</time>
      </trkpt>
      <trkpt lat="43.98098" lon="5.14531">
        <ele>321.22</ele>
        <time>2016-01-10T11:26:34Z</time>
      </trkpt>
      <trkpt lat="43.98098" lon="5.14532">
        <ele>321.22</ele>
        <time>2016-01-10T11:26:46Z</time>
      </trkpt>
      <trkpt lat="43.98098" lon="5.14532">
        <ele>315.45</ele>
        <time>2016-01-10T11:26:57Z</time>
      </trkpt>
      <trkpt lat="43.98098" lon="5.14532">
        <ele>325.06</ele>
        <time>2016-01-10T11:26:58Z</time>
      </trkpt>
      <trkpt lat="43.98098" lon="5.14532">
        <ele>319.3</ele>
        <time>2016-01-10T11:26:59Z</time>
      </trkpt>
      <trkpt lat="43.98098" lon="5.14531">
        <ele>321.22</ele>
        <time>2016-01-10T11:27:13Z</time>
      </trkpt>
      <trkpt lat="43.98097" lon="5.14531">
        <ele>321.22</ele>
        <time>2016-01-10T11:27:19Z</time>
      </trkpt>
      <trkpt lat="43.98097" lon="5.14529">
        <ele>321.22</ele>
        <time>2016-01-10T11:27:25Z</time>
      </trkpt>
      <trkpt lat="43.98097" lon="5.14528">
        <ele>320.74</ele>
        <time>2016-01-10T11:27:26Z</time>
      </trkpt>
      <trkpt lat="43.98097" lon="5.14526">
        <ele>320.74</ele>
        <time>2016-01-10T11:27:27Z</time>
      </trkpt>
      <trkpt lat="43.98096" lon="5.14521">
        <ele>320.74</ele>
        <time>2016-01-10T11:27:31Z</time>
      </trkpt>
      <trkpt lat="43.98096" lon="5.14519">
        <ele>320.74</ele>
        <time>2016-01-10T11:27:32Z</time>
      </trkpt>
      <trkpt lat="43.98093" lon="5.14512">
        <ele>321.22</ele>
        <time>2016-01-10T11:27:36Z</time>
      </trkpt>
      <trkpt lat="43.98091" lon="5.14509">
        <ele>321.22</ele>
        <time>2016-01-10T11:27:42Z</time>
      </trkpt>
      <trkpt lat="43.98091" lon="5.1451">
        <ele>321.22</ele>
        <time>2016-01-10T11:28:02Z</time>
      </trkpt>
      <trkpt lat="43.98091" lon="5.1451">
        <ele>322.66</ele>
        <time>2016-01-10T11:28:13Z</time>
      </trkpt>
      <trkpt lat="43.98091" lon="5.1451">
        <ele>319.3</ele>
        <time>2016-01-10T11:28:20Z</time>
      </trkpt>
      <trkpt lat="43.98091" lon="5.1451">
        <ele>322.66</ele>
        <time>2016-01-10T11:28:21Z</time>
      </trkpt>
      <trkpt lat="43.98091" lon="5.14511">
        <ele>320.74</ele>
        <time>2016-01-10T11:28:30Z</time>
      </trkpt>
      <trkpt lat="43.98091" lon="5.1451">
        <ele>321.22</ele>
        <time>2016-01-10T11:28:37Z</time>
      </trkpt>
      <trkpt lat="43.98091" lon="5.1451">
        <ele>321.22</ele>
        <time>2016-01-10T11:28:50Z</time>
      </trkpt>
      <trkpt lat="43.98092" lon="5.1451">
        <ele>320.74</ele>
        <time>2016-01-10T11:29:03Z</time>
      </trkpt>
      <trkpt lat="43.98092" lon="5.14511">
        <ele>320.74</ele>
        <time>2016-01-10T11:29:16Z</time>
      </trkpt>
      <trkpt lat="43.98091" lon="5.14511">
        <ele>321.22</ele>
        <time>2016-01-10T11:29:29Z</time>
      </trkpt>
      <trkpt lat="43.98091" lon="5.14511">
        <ele>321.22</ele>
        <time>2016-01-10T11:29:47Z</time>
      </trkpt>
      <trkpt lat="43.98091" lon="5.14511">
        <ele>320.74</ele>
        <time>2016-01-10T11:30:01Z</time>
      </trkpt>
      <trkpt lat="43.98092" lon="5.14511">
        <ele>321.22</ele>
        <time>2016-01-10T11:30:18Z</time>
      </trkpt>
      <trkpt lat="43.98091" lon="5.14507">
        <ele>321.22</ele>
        <time>2016-01-10T11:30:26Z</time>
      </trkpt>
      <trkpt lat="43.9809" lon="5.14505">
        <ele>321.22</ele>
        <time>2016-01-10T11:30:27Z</time>
      </trkpt>
      <trkpt lat="43.9809" lon="5.14502">
        <ele>321.22</ele>
        <time>2016-01-10T11:30:28Z</time>
      </trkpt>
      <trkpt lat="43.98091" lon="5.14498">
        <ele>321.22</ele>
        <time>2016-01-10T11:30:29Z</time>
      </trkpt>
      <trkpt lat="43.98093" lon="5.14495">
        <ele>321.22</ele>
        <time>2016-01-10T11:30:30Z</time>
      </trkpt>
      <trkpt lat="43.98095" lon="5.14492">
        <ele>320.26</ele>
        <time>2016-01-10T11:30:31Z</time>
      </trkpt>
      <trkpt lat="43.98097" lon="5.1449">
        <ele>320.26</ele>
        <time>2016-01-10T11:30:32Z</time>
      </trkpt>
      <trkpt lat="43.981" lon="5.14486">
        <ele>319.78</ele>
        <time>2016-01-10T11:30:33Z</time>
      </trkpt>
      <trkpt lat="43.98103" lon="5.1448">
        <ele>319.3</ele>
        <time>2016-01-10T11:30:34Z</time>
      </trkpt>
      <trkpt lat="43.98115" lon="5.14462">
        <ele>317.85</ele>
        <time>2016-01-10T11:30:37Z</time>
      </trkpt>
      <trkpt lat="43.98119" lon="5.14453">
        <ele>316.89</ele>
        <time>2016-01-10T11:30:38Z</time>
      </trkpt>
      <trkpt lat="43.98122" lon="5.14443">
        <ele>315.93</ele>
        <time>2016-01-10T11:30:39Z</time>
      </trkpt>
      <trkpt lat="43.98127" lon="5.14421">
        <ele>314.49</ele>
        <time>2016-01-10T11:30:41Z</time>
      </trkpt>
      <trkpt lat="43.98133" lon="5.14411">
        <ele>313.53</ele>
        <time>2016-01-10T11:30:42Z</time>
      </trkpt>
      <trkpt lat="43.9814" lon="5.14402">
        <ele>313.05</ele>
        <time>2016-01-10T11:30:43Z</time>
      </trkpt>
      <trkpt lat="43.98177" lon="5.14356">
        <ele>309.68</ele>
        <time>2016-01-10T11:30:48Z</time>
      </trkpt>
      <trkpt lat="43.98225" lon="5.14296">
        <ele>306.8</ele>
        <time>2016-01-10T11:30:54Z</time>
      </trkpt>
      <trkpt lat="43.98241" lon="5.14277">
        <ele>305.84</ele>
        <time>2016-01-10T11:30:56Z</time>
      </trkpt>
      <trkpt lat="43.98246" lon="5.14267">
        <ele>305.84</ele>
        <time>2016-01-10T11:30:57Z</time>
      </trkpt>
      <trkpt lat="43.98249" lon="5.1426">
        <ele>305.36</ele>
        <time>2016-01-10T11:30:58Z</time>
      </trkpt>
      <trkpt lat="43.9825" lon="5.14255">
        <ele>305.84</ele>
        <time>2016-01-10T11:30:59Z</time>
      </trkpt>
      <trkpt lat="43.98251" lon="5.14254">
        <ele>305.36</ele>
        <time>2016-01-10T11:31:03Z</time>
      </trkpt>
      <trkpt lat="43.98251" lon="5.14254">
        <ele>305.36</ele>
        <time>2016-01-10T11:31:06Z</time>
      </trkpt>
      <trkpt lat="43.98251" lon="5.14252">
        <ele>305.84</ele>
        <time>2016-01-10T11:31:07Z</time>
      </trkpt>
      <trkpt lat="43.98252" lon="5.14249">
        <ele>305.36</ele>
        <time>2016-01-10T11:31:08Z</time>
      </trkpt>
      <trkpt lat="43.98254" lon="5.1423">
        <ele>304.88</ele>
        <time>2016-01-10T11:31:12Z</time>
      </trkpt>
      <trkpt lat="43.98255" lon="5.14224">
        <ele>304.88</ele>
        <time>2016-01-10T11:31:13Z</time>
      </trkpt>
      <trkpt lat="43.98255" lon="5.14219">
        <ele>305.36</ele>
        <time>2016-01-10T11:31:14Z</time>
      </trkpt>
      <trkpt lat="43.98262" lon="5.14193">
        <ele>306.8</ele>
        <time>2016-01-10T11:31:20Z</time>
      </trkpt>
      <trkpt lat="43.9828" lon="5.1417">
        <ele>307.76</ele>
        <time>2016-01-10T11:31:26Z</time>
      </trkpt>
      <trkpt lat="43.98283" lon="5.14166">
        <ele>307.76</ele>
        <time>2016-01-10T11:31:27Z</time>
      </trkpt>
      <trkpt lat="43.98308" lon="5.14134">
        <ele>309.2</ele>
        <time>2016-01-10T11:31:35Z</time>
      </trkpt>
      <trkpt lat="43.98311" lon="5.1413">
        <ele>309.2</ele>
        <time>2016-01-10T11:31:36Z</time>
      </trkpt>
      <trkpt lat="43.98333" lon="5.14103">
        <ele>310.64</ele>
        <time>2016-01-10T11:31:43Z</time>
      </trkpt>
      <trkpt lat="43.98355" lon="5.14074">
        <ele>312.09</ele>
        <time>2016-01-10T11:31:51Z</time>
      </trkpt>
      <trkpt lat="43.98376" lon="5.14049">
        <ele>313.05</ele>
        <time>2016-01-10T11:31:59Z</time>
      </trkpt>
      <trkpt lat="43.98407" lon="5.14021">
        <ele>314.97</ele>
        <time>2016-01-10T11:32:09Z</time>
      </trkpt>
      <trkpt lat="43.98436" lon="5.13997">
        <ele>315.93</ele>
        <time>2016-01-10T11:32:18Z</time>
      </trkpt>
      <trkpt lat="43.98461" lon="5.13974">
        <ele>316.89</ele>
        <time>2016-01-10T11:32:26Z</time>
      </trkpt>
      <trkpt lat="43.98475" lon="5.13954">
        <ele>318.81</ele>
        <time>2016-01-10T11:32:32Z</time>
      </trkpt>
      <trkpt lat="43.98476" lon="5.1393">
        <ele>319.3</ele>
        <time>2016-01-10T11:32:37Z</time>
      </trkpt>
      <trkpt lat="43.98473" lon="5.13924">
        <ele>319.3</ele>
        <time>2016-01-10T11:32:38Z</time>
      </trkpt>
      <trkpt lat="43.98471" lon="5.13918">
        <ele>319.78</ele>
        <time>2016-01-10T11:32:39Z</time>
      </trkpt>
      <trkpt lat="43.98468" lon="5.13913">
        <ele>319.78</ele>
        <time>2016-01-10T11:32:40Z</time>
      </trkpt>
      <trkpt lat="43.98465" lon="5.13908">
        <ele>319.78</ele>
        <time>2016-01-10T11:32:41Z</time>
      </trkpt>
      <trkpt lat="43.98463" lon="5.13903">
        <ele>319.78</ele>
        <time>2016-01-10T11:32:42Z</time>
      </trkpt>
      <trkpt lat="43.9846" lon="5.13898">
        <ele>320.26</ele>
        <time>2016-01-10T11:32:43Z</time>
      </trkpt>
      <trkpt lat="43.98458" lon="5.13893">
        <ele>320.26</ele>
        <time>2016-01-10T11:32:44Z</time>
      </trkpt>
      <trkpt lat="43.98456" lon="5.13887">
        <ele>320.26</ele>
        <time>2016-01-10T11:32:45Z</time>
      </trkpt>
      <trkpt lat="43.98438" lon="5.13844">
        <ele>321.7</ele>
        <time>2016-01-10T11:32:53Z</time>
      </trkpt>
      <trkpt lat="43.98431" lon="5.13827">
        <ele>321.7</ele>
        <time>2016-01-10T11:32:56Z</time>
      </trkpt>
      <trkpt lat="43.98413" lon="5.13781">
        <ele>321.22</ele>
        <time>2016-01-10T11:33:05Z</time>
      </trkpt>
      <trkpt lat="43.98402" lon="5.13757">
        <ele>321.22</ele>
        <time>2016-01-10T11:33:11Z</time>
      </trkpt>
      <trkpt lat="43.9839" lon="5.13737">
        <ele>320.26</ele>
        <time>2016-01-10T11:33:15Z</time>
      </trkpt>
      <trkpt lat="43.98354" lon="5.13699">
        <ele>316.89</ele>
        <time>2016-01-10T11:33:21Z</time>
      </trkpt>
      <trkpt lat="43.98349" lon="5.13691">
        <ele>316.41</ele>
        <time>2016-01-10T11:33:22Z</time>
      </trkpt>
      <trkpt lat="43.98344" lon="5.13682">
        <ele>315.93</ele>
        <time>2016-01-10T11:33:23Z</time>
      </trkpt>
      <trkpt lat="43.98318" lon="5.13626">
        <ele>316.41</ele>
        <time>2016-01-10T11:33:30Z</time>
      </trkpt>
      <trkpt lat="43.98299" lon="5.13567">
        <ele>316.41</ele>
        <time>2016-01-10T11:33:38Z</time>
      </trkpt>
      <trkpt lat="43.98298" lon="5.13498">
        <ele>317.85</ele>
        <time>2016-01-10T11:33:47Z</time>
      </trkpt>
      <trkpt lat="43.98297" lon="5.1346">
        <ele>318.81</ele>
        <time>2016-01-10T11:33:53Z</time>
      </trkpt>
      <trkpt lat="43.98297" lon="5.13453">
        <ele>318.33</ele>
        <time>2016-01-10T11:33:54Z</time>
      </trkpt>
      <trkpt lat="43.98298" lon="5.13434">
        <ele>318.33</ele>
        <time>2016-01-10T11:33:57Z</time>
      </trkpt>
      <trkpt lat="43.98301" lon="5.13412">
        <ele>317.37</ele>
        <time>2016-01-10T11:34:00Z</time>
      </trkpt>
      <trkpt lat="43.98303" lon="5.13404">
        <ele>317.37</ele>
        <time>2016-01-10T11:34:01Z</time>
      </trkpt>
      <trkpt lat="43.9832" lon="5.13343">
        <ele>314.01</ele>
        <time>2016-01-10T11:34:08Z</time>
      </trkpt>
      <trkpt lat="43.98336" lon="5.13289">
        <ele>312.09</ele>
        <time>2016-01-10T11:34:13Z</time>
      </trkpt>
      <trkpt lat="43.98351" lon="5.13244">
        <ele>308.72</ele>
        <time>2016-01-10T11:34:17Z</time>
      </trkpt>
      <trkpt lat="43.98366" lon="5.13196">
        <ele>306.32</ele>
        <time>2016-01-10T11:34:22Z</time>
      </trkpt>
      <trkpt lat="43.98373" lon="5.13171">
        <ele>305.84</ele>
        <time>2016-01-10T11:34:28Z</time>
      </trkpt>
      <trkpt lat="43.98385" lon="5.13134">
        <ele>304.39</ele>
        <time>2016-01-10T11:34:34Z</time>
      </trkpt>
      <trkpt lat="43.98407" lon="5.13082">
        <ele>303.91</ele>
        <time>2016-01-10T11:34:41Z</time>
      </trkpt>
      <trkpt lat="43.98443" lon="5.13028">
        <ele>302.95</ele>
        <time>2016-01-10T11:34:49Z</time>
      </trkpt>
      <trkpt lat="43.98482" lon="5.1297">
        <ele>301.99</ele>
        <time>2016-01-10T11:34:57Z</time>
      </trkpt>
      <trkpt lat="43.98533" lon="5.12895">
        <ele>300.55</ele>
        <time>2016-01-10T11:35:07Z</time>
      </trkpt>
      <trkpt lat="43.98553" lon="5.12865">
        <ele>300.07</ele>
        <time>2016-01-10T11:35:12Z</time>
      </trkpt>
      <trkpt lat="43.98582" lon="5.12823">
        <ele>299.59</ele>
        <time>2016-01-10T11:35:19Z</time>
      </trkpt>
      <trkpt lat="43.98587" lon="5.12815">
        <ele>299.59</ele>
        <time>2016-01-10T11:35:20Z</time>
      </trkpt>
      <trkpt lat="43.98626" lon="5.12758">
        <ele>299.59</ele>
        <time>2016-01-10T11:35:28Z</time>
      </trkpt>
      <trkpt lat="43.9863" lon="5.12752">
        <ele>300.07</ele>
        <time>2016-01-10T11:35:29Z</time>
      </trkpt>
      <trkpt lat="43.98668" lon="5.12693">
        <ele>300.07</ele>
        <time>2016-01-10T11:35:37Z</time>
      </trkpt>
      <trkpt lat="43.98702" lon="5.12634">
        <ele>301.99</ele>
        <time>2016-01-10T11:35:45Z</time>
      </trkpt>
      <trkpt lat="43.98722" lon="5.1259">
        <ele>303.91</ele>
        <time>2016-01-10T11:35:52Z</time>
      </trkpt>
      <trkpt lat="43.98725" lon="5.12585">
        <ele>303.43</ele>
        <time>2016-01-10T11:35:53Z</time>
      </trkpt>
      <trkpt lat="43.98735" lon="5.12561">
        <ele>304.88</ele>
        <time>2016-01-10T11:35:57Z</time>
      </trkpt>
      <trkpt lat="43.98739" lon="5.12554">
        <ele>304.88</ele>
        <time>2016-01-10T11:35:58Z</time>
      </trkpt>
      <trkpt lat="43.98742" lon="5.12547">
        <ele>305.36</ele>
        <time>2016-01-10T11:35:59Z</time>
      </trkpt>
      <trkpt lat="43.98745" lon="5.1254">
        <ele>305.36</ele>
        <time>2016-01-10T11:36:00Z</time>
      </trkpt>
      <trkpt lat="43.98747" lon="5.12533">
        <ele>305.36</ele>
        <time>2016-01-10T11:36:01Z</time>
      </trkpt>
      <trkpt lat="43.9875" lon="5.1252">
        <ele>306.32</ele>
        <time>2016-01-10T11:36:03Z</time>
      </trkpt>
      <trkpt lat="43.98751" lon="5.12514">
        <ele>306.32</ele>
        <time>2016-01-10T11:36:04Z</time>
      </trkpt>
      <trkpt lat="43.9875" lon="5.12489">
        <ele>306.32</ele>
        <time>2016-01-10T11:36:08Z</time>
      </trkpt>
      <trkpt lat="43.9875" lon="5.12483">
        <ele>306.32</ele>
        <time>2016-01-10T11:36:09Z</time>
      </trkpt>
      <trkpt lat="43.9875" lon="5.12476">
        <ele>306.8</ele>
        <time>2016-01-10T11:36:10Z</time>
      </trkpt>
      <trkpt lat="43.9875" lon="5.1247">
        <ele>306.32</ele>
        <time>2016-01-10T11:36:11Z</time>
      </trkpt>
      <trkpt lat="43.98751" lon="5.12464">
        <ele>306.32</ele>
        <time>2016-01-10T11:36:12Z</time>
      </trkpt>
      <trkpt lat="43.98752" lon="5.12457">
        <ele>306.32</ele>
        <time>2016-01-10T11:36:13Z</time>
      </trkpt>
      <trkpt lat="43.98754" lon="5.1245">
        <ele>305.84</ele>
        <time>2016-01-10T11:36:14Z</time>
      </trkpt>
      <trkpt lat="43.98757" lon="5.12443">
        <ele>305.36</ele>
        <time>2016-01-10T11:36:15Z</time>
      </trkpt>
      <trkpt lat="43.9876" lon="5.12436">
        <ele>304.88</ele>
        <time>2016-01-10T11:36:16Z</time>
      </trkpt>
      <trkpt lat="43.9879" lon="5.12389">
        <ele>301.99</ele>
        <time>2016-01-10T11:36:22Z</time>
      </trkpt>
      <trkpt lat="43.98804" lon="5.12367">
        <ele>300.55</ele>
        <time>2016-01-10T11:36:25Z</time>
      </trkpt>
      <trkpt lat="43.98811" lon="5.12358">
        <ele>300.07</ele>
        <time>2016-01-10T11:36:28Z</time>
      </trkpt>
      <trkpt lat="43.98813" lon="5.12357">
        <ele>300.07</ele>
        <time>2016-01-10T11:36:35Z</time>
      </trkpt>
      <trkpt lat="43.98813" lon="5.12356">
        <ele>299.59</ele>
        <time>2016-01-10T11:36:52Z</time>
      </trkpt>
      <trkpt lat="43.98812" lon="5.12356">
        <ele>299.59</ele>
        <time>2016-01-10T11:36:58Z</time>
      </trkpt>
      <trkpt lat="43.98813" lon="5.12357">
        <ele>299.59</ele>
        <time>2016-01-10T11:37:15Z</time>
      </trkpt>
      <trkpt lat="43.98813" lon="5.12356">
        <ele>299.59</ele>
        <time>2016-01-10T11:37:30Z</time>
      </trkpt>
      <trkpt lat="43.98812" lon="5.12355">
        <ele>299.59</ele>
        <time>2016-01-10T11:37:44Z</time>
      </trkpt>
      <trkpt lat="43.98812" lon="5.12355">
        <ele>299.59</ele>
        <time>2016-01-10T11:37:59Z</time>
      </trkpt>
      <trkpt lat="43.98809" lon="5.12354">
        <ele>299.11</ele>
        <time>2016-01-10T11:38:11Z</time>
      </trkpt>
      <trkpt lat="43.98809" lon="5.12353">
        <ele>299.11</ele>
        <time>2016-01-10T11:38:18Z</time>
      </trkpt>
      <trkpt lat="43.98809" lon="5.12353">
        <ele>299.11</ele>
        <time>2016-01-10T11:38:35Z</time>
      </trkpt>
      <trkpt lat="43.98809" lon="5.12353">
        <ele>299.59</ele>
        <time>2016-01-10T11:38:52Z</time>
      </trkpt>
      <trkpt lat="43.98809" lon="5.12354">
        <ele>299.11</ele>
        <time>2016-01-10T11:39:09Z</time>
      </trkpt>
      <trkpt lat="43.98809" lon="5.12352">
        <ele>299.11</ele>
        <time>2016-01-10T11:39:18Z</time>
      </trkpt>
      <trkpt lat="43.98807" lon="5.12345">
        <ele>298.63</ele>
        <time>2016-01-10T11:39:24Z</time>
      </trkpt>
      <trkpt lat="43.98802" lon="5.12332">
        <ele>298.63</ele>
        <time>2016-01-10T11:39:29Z</time>
      </trkpt>
      <trkpt lat="43.98801" lon="5.12329">
        <ele>298.15</ele>
        <time>2016-01-10T11:39:30Z</time>
      </trkpt>
      <trkpt lat="43.988" lon="5.12325">
        <ele>298.63</ele>
        <time>2016-01-10T11:39:31Z</time>
      </trkpt>
      <trkpt lat="43.98799" lon="5.12322">
        <ele>298.15</ele>
        <time>2016-01-10T11:39:32Z</time>
      </trkpt>
      <trkpt lat="43.98798" lon="5.12318">
        <ele>298.15</ele>
        <time>2016-01-10T11:39:33Z</time>
      </trkpt>
      <trkpt lat="43.98791" lon="5.12295">
        <ele>298.15</ele>
        <time>2016-01-10T11:39:39Z</time>
      </trkpt>
      <trkpt lat="43.98783" lon="5.12268">
        <ele>298.15</ele>
        <time>2016-01-10T11:39:45Z</time>
      </trkpt>
      <trkpt lat="43.98777" lon="5.12235">
        <ele>298.15</ele>
        <time>2016-01-10T11:39:52Z</time>
      </trkpt>
      <trkpt lat="43.98771" lon="5.12209">
        <ele>298.63</ele>
        <time>2016-01-10T11:39:58Z</time>
      </trkpt>
      <trkpt lat="43.98765" lon="5.12179">
        <ele>298.63</ele>
        <time>2016-01-10T11:40:05Z</time>
      </trkpt>
      <trkpt lat="43.98757" lon="5.12155">
        <ele>298.15</ele>
        <time>2016-01-10T11:40:11Z</time>
      </trkpt>
      <trkpt lat="43.98752" lon="5.12137">
        <ele>297.18</ele>
        <time>2016-01-10T11:40:17Z</time>
      </trkpt>
      <trkpt lat="43.98747" lon="5.12114">
        <ele>294.78</ele>
        <time>2016-01-10T11:40:22Z</time>
      </trkpt>
      <trkpt lat="43.98743" lon="5.12102">
        <ele>292.86</ele>
        <time>2016-01-10T11:40:25Z</time>
      </trkpt>
      <trkpt lat="43.98741" lon="5.121">
        <ele>292.38</ele>
        <time>2016-01-10T11:40:26Z</time>
      </trkpt>
      <trkpt lat="43.9874" lon="5.12098">
        <ele>291.42</ele>
        <time>2016-01-10T11:40:27Z</time>
      </trkpt>
      <trkpt lat="43.98738" lon="5.12095">
        <ele>290.94</ele>
        <time>2016-01-10T11:40:28Z</time>
      </trkpt>
      <trkpt lat="43.98736" lon="5.12091">
        <ele>290.46</ele>
        <time>2016-01-10T11:40:34Z</time>
      </trkpt>
      <trkpt lat="43.98735" lon="5.12091">
        <ele>290.46</ele>
        <time>2016-01-10T11:40:44Z</time>
      </trkpt>
      <trkpt lat="43.98732" lon="5.12092">
        <ele>289.97</ele>
        <time>2016-01-10T11:40:53Z</time>
      </trkpt>
      <trkpt lat="43.9873" lon="5.12093">
        <ele>289.97</ele>
        <time>2016-01-10T11:40:54Z</time>
      </trkpt>
      <trkpt lat="43.98726" lon="5.12095">
        <ele>289.49</ele>
        <time>2016-01-10T11:40:55Z</time>
      </trkpt>
      <trkpt lat="43.98704" lon="5.12104">
        <ele>289.01</ele>
        <time>2016-01-10T11:41:01Z</time>
      </trkpt>
      <trkpt lat="43.98684" lon="5.12108">
        <ele>289.49</ele>
        <time>2016-01-10T11:41:06Z</time>
      </trkpt>
      <trkpt lat="43.9868" lon="5.12108">
        <ele>289.49</ele>
        <time>2016-01-10T11:41:07Z</time>
      </trkpt>
      <trkpt lat="43.98652" lon="5.12101">
        <ele>289.97</ele>
        <time>2016-01-10T11:41:14Z</time>
      </trkpt>
      <trkpt lat="43.98643" lon="5.12102">
        <ele>290.94</ele>
        <time>2016-01-10T11:41:16Z</time>
      </trkpt>
      <trkpt lat="43.98639" lon="5.12103">
        <ele>290.94</ele>
        <time>2016-01-10T11:41:17Z</time>
      </trkpt>
      <trkpt lat="43.98635" lon="5.12105">
        <ele>290.94</ele>
        <time>2016-01-10T11:41:18Z</time>
      </trkpt>
      <trkpt lat="43.98631" lon="5.12107">
        <ele>291.42</ele>
        <time>2016-01-10T11:41:19Z</time>
      </trkpt>
      <trkpt lat="43.98628" lon="5.1211">
        <ele>290.94</ele>
        <time>2016-01-10T11:41:20Z</time>
      </trkpt>
      <trkpt lat="43.98625" lon="5.12113">
        <ele>290.94</ele>
        <time>2016-01-10T11:41:21Z</time>
      </trkpt>
      <trkpt lat="43.9861" lon="5.1214">
        <ele>290.94</ele>
        <time>2016-01-10T11:41:27Z</time>
      </trkpt>
      <trkpt lat="43.98608" lon="5.12146">
        <ele>291.42</ele>
        <time>2016-01-10T11:41:28Z</time>
      </trkpt>
      <trkpt lat="43.98605" lon="5.12159">
        <ele>291.42</ele>
        <time>2016-01-10T11:41:30Z</time>
      </trkpt>
      <trkpt lat="43.98603" lon="5.12166">
        <ele>291.9</ele>
        <time>2016-01-10T11:41:31Z</time>
      </trkpt>
      <trkpt lat="43.98601" lon="5.12172">
        <ele>291.42</ele>
        <time>2016-01-10T11:41:32Z</time>
      </trkpt>
      <trkpt lat="43.986" lon="5.12179">
        <ele>291.42</ele>
        <time>2016-01-10T11:41:33Z</time>
      </trkpt>
      <trkpt lat="43.98599" lon="5.12187">
        <ele>291.42</ele>
        <time>2016-01-10T11:41:34Z</time>
      </trkpt>
      <trkpt lat="43.98599" lon="5.12194">
        <ele>290.94</ele>
        <time>2016-01-10T11:41:35Z</time>
      </trkpt>
      <trkpt lat="43.98598" lon="5.12217">
        <ele>290.94</ele>
        <time>2016-01-10T11:41:38Z</time>
      </trkpt>
      <trkpt lat="43.98597" lon="5.12223">
        <ele>290.94</ele>
        <time>2016-01-10T11:41:39Z</time>
      </trkpt>
      <trkpt lat="43.98596" lon="5.1223">
        <ele>291.42</ele>
        <time>2016-01-10T11:41:40Z</time>
      </trkpt>
      <trkpt lat="43.98593" lon="5.12242">
        <ele>291.42</ele>
        <time>2016-01-10T11:41:42Z</time>
      </trkpt>
      <trkpt lat="43.98589" lon="5.12255">
        <ele>291.9</ele>
        <time>2016-01-10T11:41:44Z</time>
      </trkpt>
      <trkpt lat="43.98587" lon="5.12261">
        <ele>291.9</ele>
        <time>2016-01-10T11:41:45Z</time>
      </trkpt>
      <trkpt lat="43.98584" lon="5.12269">
        <ele>291.42</ele>
        <time>2016-01-10T11:41:46Z</time>
      </trkpt>
      <trkpt lat="43.98582" lon="5.12279">
        <ele>291.42</ele>
        <time>2016-01-10T11:41:47Z</time>
      </trkpt>
      <trkpt lat="43.98581" lon="5.12289">
        <ele>291.42</ele>
        <time>2016-01-10T11:41:48Z</time>
      </trkpt>
      <trkpt lat="43.98579" lon="5.12299">
        <ele>291.42</ele>
        <time>2016-01-10T11:41:49Z</time>
      </trkpt>
      <trkpt lat="43.98575" lon="5.12318">
        <ele>291.42</ele>
        <time>2016-01-10T11:41:51Z</time>
      </trkpt>
      <trkpt lat="43.98572" lon="5.12325">
        <ele>291.42</ele>
        <time>2016-01-10T11:41:52Z</time>
      </trkpt>
      <trkpt lat="43.98568" lon="5.12333">
        <ele>290.94</ele>
        <time>2016-01-10T11:41:53Z</time>
      </trkpt>
      <trkpt lat="43.98565" lon="5.12341">
        <ele>291.42</ele>
        <time>2016-01-10T11:41:54Z</time>
      </trkpt>
      <trkpt lat="43.9856" lon="5.12348">
        <ele>291.42</ele>
        <time>2016-01-10T11:41:55Z</time>
      </trkpt>
      <trkpt lat="43.98548" lon="5.12368">
        <ele>291.42</ele>
        <time>2016-01-10T11:41:58Z</time>
      </trkpt>
      <trkpt lat="43.98545" lon="5.12375">
        <ele>291.9</ele>
        <time>2016-01-10T11:41:59Z</time>
      </trkpt>
      <trkpt lat="43.98542" lon="5.1238">
        <ele>291.42</ele>
        <time>2016-01-10T11:42:00Z</time>
      </trkpt>
      <trkpt lat="43.98539" lon="5.12387">
        <ele>291.42</ele>
        <time>2016-01-10T11:42:01Z</time>
      </trkpt>
      <trkpt lat="43.98537" lon="5.12395">
        <ele>291.42</ele>
        <time>2016-01-10T11:42:02Z</time>
      </trkpt>
      <trkpt lat="43.98533" lon="5.12401">
        <ele>291.9</ele>
        <time>2016-01-10T11:42:03Z</time>
      </trkpt>
      <trkpt lat="43.98529" lon="5.12408">
        <ele>291.42</ele>
        <time>2016-01-10T11:42:04Z</time>
      </trkpt>
      <trkpt lat="43.98527" lon="5.12417">
        <ele>290.94</ele>
        <time>2016-01-10T11:42:05Z</time>
      </trkpt>
      <trkpt lat="43.98527" lon="5.12426">
        <ele>290.94</ele>
        <time>2016-01-10T11:42:06Z</time>
      </trkpt>
      <trkpt lat="43.98529" lon="5.12434">
        <ele>290.46</ele>
        <time>2016-01-10T11:42:07Z</time>
      </trkpt>
      <trkpt lat="43.98535" lon="5.12459">
        <ele>289.97</ele>
        <time>2016-01-10T11:42:10Z</time>
      </trkpt>
      <trkpt lat="43.98537" lon="5.12467">
        <ele>289.49</ele>
        <time>2016-01-10T11:42:11Z</time>
      </trkpt>
      <trkpt lat="43.98541" lon="5.12475">
        <ele>289.01</ele>
        <time>2016-01-10T11:42:12Z</time>
      </trkpt>
      <trkpt lat="43.98544" lon="5.12482">
        <ele>289.01</ele>
        <time>2016-01-10T11:42:13Z</time>
      </trkpt>
      <trkpt lat="43.98546" lon="5.1249">
        <ele>289.01</ele>
        <time>2016-01-10T11:42:14Z</time>
      </trkpt>
      <trkpt lat="43.98546" lon="5.12499">
        <ele>288.53</ele>
        <time>2016-01-10T11:42:15Z</time>
      </trkpt>
      <trkpt lat="43.98544" lon="5.12505">
        <ele>288.05</ele>
        <time>2016-01-10T11:42:16Z</time>
      </trkpt>
      <trkpt lat="43.98541" lon="5.1251">
        <ele>287.57</ele>
        <time>2016-01-10T11:42:17Z</time>
      </trkpt>
      <trkpt lat="43.98537" lon="5.12512">
        <ele>286.61</ele>
        <time>2016-01-10T11:42:18Z</time>
      </trkpt>
      <trkpt lat="43.98533" lon="5.12515">
        <ele>286.61</ele>
        <time>2016-01-10T11:42:19Z</time>
      </trkpt>
      <trkpt lat="43.98529" lon="5.12515">
        <ele>286.13</ele>
        <time>2016-01-10T11:42:20Z</time>
      </trkpt>
      <trkpt lat="43.98513" lon="5.12515">
        <ele>285.17</ele>
        <time>2016-01-10T11:42:23Z</time>
      </trkpt>
      <trkpt lat="43.98507" lon="5.12513">
        <ele>285.17</ele>
        <time>2016-01-10T11:42:24Z</time>
      </trkpt>
      <trkpt lat="43.98501" lon="5.12513">
        <ele>285.17</ele>
        <time>2016-01-10T11:42:25Z</time>
      </trkpt>
      <trkpt lat="43.98495" lon="5.12513">
        <ele>285.17</ele>
        <time>2016-01-10T11:42:26Z</time>
      </trkpt>
      <trkpt lat="43.9849" lon="5.12514">
        <ele>285.17</ele>
        <time>2016-01-10T11:42:27Z</time>
      </trkpt>
      <trkpt lat="43.98485" lon="5.12516">
        <ele>284.69</ele>
        <time>2016-01-10T11:42:28Z</time>
      </trkpt>
      <trkpt lat="43.98481" lon="5.12519">
        <ele>285.65</ele>
        <time>2016-01-10T11:42:29Z</time>
      </trkpt>
      <trkpt lat="43.98477" lon="5.12523">
        <ele>285.65</ele>
        <time>2016-01-10T11:42:30Z</time>
      </trkpt>
      <trkpt lat="43.98474" lon="5.12528">
        <ele>285.65</ele>
        <time>2016-01-10T11:42:31Z</time>
      </trkpt>
      <trkpt lat="43.98472" lon="5.12534">
        <ele>285.65</ele>
        <time>2016-01-10T11:42:32Z</time>
      </trkpt>
      <trkpt lat="43.98471" lon="5.12541">
        <ele>285.17</ele>
        <time>2016-01-10T11:42:33Z</time>
      </trkpt>
      <trkpt lat="43.9847" lon="5.12549">
        <ele>285.17</ele>
        <time>2016-01-10T11:42:34Z</time>
      </trkpt>
      <trkpt lat="43.98467" lon="5.12557">
        <ele>284.69</ele>
        <time>2016-01-10T11:42:35Z</time>
      </trkpt>
      <trkpt lat="43.98463" lon="5.12563">
        <ele>284.21</ele>
        <time>2016-01-10T11:42:36Z</time>
      </trkpt>
      <trkpt lat="43.9846" lon="5.1257">
        <ele>283.25</ele>
        <time>2016-01-10T11:42:37Z</time>
      </trkpt>
      <trkpt lat="43.98459" lon="5.12577">
        <ele>282.77</ele>
        <time>2016-01-10T11:42:38Z</time>
      </trkpt>
      <trkpt lat="43.98458" lon="5.12584">
        <ele>282.77</ele>
        <time>2016-01-10T11:42:39Z</time>
      </trkpt>
      <trkpt lat="43.98457" lon="5.1259">
        <ele>281.8</ele>
        <time>2016-01-10T11:42:40Z</time>
      </trkpt>
      <trkpt lat="43.98456" lon="5.12593">
        <ele>281.8</ele>
        <time>2016-01-10T11:42:43Z</time>
      </trkpt>
      <trkpt lat="43.98454" lon="5.12592">
        <ele>281.32</ele>
        <time>2016-01-10T11:42:56Z</time>
      </trkpt>
      <trkpt lat="43.98453" lon="5.12592">
        <ele>281.32</ele>
        <time>2016-01-10T11:43:10Z</time>
      </trkpt>
      <trkpt lat="43.98451" lon="5.12594">
        <ele>281.32</ele>
        <time>2016-01-10T11:43:25Z</time>
      </trkpt>
      <trkpt lat="43.9845" lon="5.12596">
        <ele>280.84</ele>
        <time>2016-01-10T11:43:26Z</time>
      </trkpt>
      <trkpt lat="43.98448" lon="5.12599">
        <ele>280.84</ele>
        <time>2016-01-10T11:43:27Z</time>
      </trkpt>
      <trkpt lat="43.98446" lon="5.12602">
        <ele>280.84</ele>
        <time>2016-01-10T11:43:28Z</time>
      </trkpt>
      <trkpt lat="43.98441" lon="5.12622">
        <ele>278.92</ele>
        <time>2016-01-10T11:43:33Z</time>
      </trkpt>
      <trkpt lat="43.9844" lon="5.12628">
        <ele>278.44</ele>
        <time>2016-01-10T11:43:34Z</time>
      </trkpt>
      <trkpt lat="43.98439" lon="5.12633">
        <ele>277.96</ele>
        <time>2016-01-10T11:43:35Z</time>
      </trkpt>
      <trkpt lat="43.98437" lon="5.12639">
        <ele>277.96</ele>
        <time>2016-01-10T11:43:36Z</time>
      </trkpt>
      <trkpt lat="43.98435" lon="5.12645">
        <ele>277.48</ele>
        <time>2016-01-10T11:43:37Z</time>
      </trkpt>
      <trkpt lat="43.98431" lon="5.12649">
        <ele>277.48</ele>
        <time>2016-01-10T11:43:38Z</time>
      </trkpt>
      <trkpt lat="43.98426" lon="5.12653">
        <ele>277.48</ele>
        <time>2016-01-10T11:43:39Z</time>
      </trkpt>
      <trkpt lat="43.98423" lon="5.12659">
        <ele>277.48</ele>
        <time>2016-01-10T11:43:40Z</time>
      </trkpt>
      <trkpt lat="43.9842" lon="5.12666">
        <ele>277.48</ele>
        <time>2016-01-10T11:43:41Z</time>
      </trkpt>
      <trkpt lat="43.98415" lon="5.1268">
        <ele>277</ele>
        <time>2016-01-10T11:43:43Z</time>
      </trkpt>
      <trkpt lat="43.98412" lon="5.12696">
        <ele>276.52</ele>
        <time>2016-01-10T11:43:45Z</time>
      </trkpt>
      <trkpt lat="43.9841" lon="5.12712">
        <ele>276.52</ele>
        <time>2016-01-10T11:43:47Z</time>
      </trkpt>
      <trkpt lat="43.9841" lon="5.1272">
        <ele>276.04</ele>
        <time>2016-01-10T11:43:48Z</time>
      </trkpt>
      <trkpt lat="43.98412" lon="5.12728">
        <ele>275.56</ele>
        <time>2016-01-10T11:43:49Z</time>
      </trkpt>
      <trkpt lat="43.98415" lon="5.12735">
        <ele>276.04</ele>
        <time>2016-01-10T11:43:50Z</time>
      </trkpt>
      <trkpt lat="43.98418" lon="5.12742">
        <ele>275.56</ele>
        <time>2016-01-10T11:43:51Z</time>
      </trkpt>
      <trkpt lat="43.9842" lon="5.12749">
        <ele>274.59</ele>
        <time>2016-01-10T11:43:52Z</time>
      </trkpt>
      <trkpt lat="43.98424" lon="5.12755">
        <ele>274.11</ele>
        <time>2016-01-10T11:43:53Z</time>
      </trkpt>
      <trkpt lat="43.98427" lon="5.12761">
        <ele>274.11</ele>
        <time>2016-01-10T11:43:54Z</time>
      </trkpt>
      <trkpt lat="43.9843" lon="5.12768">
        <ele>273.63</ele>
        <time>2016-01-10T11:43:55Z</time>
      </trkpt>
      <trkpt lat="43.98434" lon="5.12774">
        <ele>273.63</ele>
        <time>2016-01-10T11:43:56Z</time>
      </trkpt>
      <trkpt lat="43.98438" lon="5.1278">
        <ele>273.63</ele>
        <time>2016-01-10T11:43:57Z</time>
      </trkpt>
      <trkpt lat="43.98441" lon="5.12787">
        <ele>273.15</ele>
        <time>2016-01-10T11:43:58Z</time>
      </trkpt>
      <trkpt lat="43.98444" lon="5.12794">
        <ele>273.15</ele>
        <time>2016-01-10T11:43:59Z</time>
      </trkpt>
      <trkpt lat="43.98446" lon="5.128">
        <ele>273.63</ele>
        <time>2016-01-10T11:44:00Z</time>
      </trkpt>
      <trkpt lat="43.98448" lon="5.12807">
        <ele>273.63</ele>
        <time>2016-01-10T11:44:01Z</time>
      </trkpt>
      <trkpt lat="43.98447" lon="5.12813">
        <ele>274.11</ele>
        <time>2016-01-10T11:44:02Z</time>
      </trkpt>
      <trkpt lat="43.98445" lon="5.12818">
        <ele>274.11</ele>
        <time>2016-01-10T11:44:03Z</time>
      </trkpt>
      <trkpt lat="43.98442" lon="5.12822">
        <ele>274.11</ele>
        <time>2016-01-10T11:44:04Z</time>
      </trkpt>
      <trkpt lat="43.98438" lon="5.12825">
        <ele>274.11</ele>
        <time>2016-01-10T11:44:05Z</time>
      </trkpt>
      <trkpt lat="43.98433" lon="5.12827">
        <ele>275.07</ele>
        <time>2016-01-10T11:44:06Z</time>
      </trkpt>
      <trkpt lat="43.98429" lon="5.12829">
        <ele>274.11</ele>
        <time>2016-01-10T11:44:07Z</time>
      </trkpt>
      <trkpt lat="43.98424" lon="5.12832">
        <ele>274.11</ele>
        <time>2016-01-10T11:44:08Z</time>
      </trkpt>
      <trkpt lat="43.9842" lon="5.12834">
        <ele>274.59</ele>
        <time>2016-01-10T11:44:09Z</time>
      </trkpt>
      <trkpt lat="43.98416" lon="5.12837">
        <ele>274.59</ele>
        <time>2016-01-10T11:44:10Z</time>
      </trkpt>
      <trkpt lat="43.98412" lon="5.12841">
        <ele>274.59</ele>
        <time>2016-01-10T11:44:11Z</time>
      </trkpt>
      <trkpt lat="43.9841" lon="5.12846">
        <ele>274.11</ele>
        <time>2016-01-10T11:44:12Z</time>
      </trkpt>
      <trkpt lat="43.98408" lon="5.12851">
        <ele>274.59</ele>
        <time>2016-01-10T11:44:13Z</time>
      </trkpt>
      <trkpt lat="43.984" lon="5.12869">
        <ele>274.59</ele>
        <time>2016-01-10T11:44:17Z</time>
      </trkpt>
      <trkpt lat="43.98397" lon="5.12871">
        <ele>274.59</ele>
        <time>2016-01-10T11:44:18Z</time>
      </trkpt>
      <trkpt lat="43.98392" lon="5.12877">
        <ele>273.63</ele>
        <time>2016-01-10T11:44:20Z</time>
      </trkpt>
      <trkpt lat="43.9838" lon="5.12885">
        <ele>273.15</ele>
        <time>2016-01-10T11:44:24Z</time>
      </trkpt>
      <trkpt lat="43.98376" lon="5.12884">
        <ele>272.67</ele>
        <time>2016-01-10T11:44:25Z</time>
      </trkpt>
      <trkpt lat="43.98373" lon="5.12884">
        <ele>273.15</ele>
        <time>2016-01-10T11:44:26Z</time>
      </trkpt>
      <trkpt lat="43.98369" lon="5.12884">
        <ele>273.15</ele>
        <time>2016-01-10T11:44:27Z</time>
      </trkpt>
      <trkpt lat="43.98367" lon="5.12885">
        <ele>273.15</ele>
        <time>2016-01-10T11:44:28Z</time>
      </trkpt>
      <trkpt lat="43.98366" lon="5.12887">
        <ele>273.15</ele>
        <time>2016-01-10T11:44:29Z</time>
      </trkpt>
      <trkpt lat="43.98364" lon="5.12888">
        <ele>273.63</ele>
        <time>2016-01-10T11:44:30Z</time>
      </trkpt>
      <trkpt lat="43.98362" lon="5.12889">
        <ele>273.63</ele>
        <time>2016-01-10T11:44:31Z</time>
      </trkpt>
      <trkpt lat="43.9836" lon="5.12889">
        <ele>274.11</ele>
        <time>2016-01-10T11:44:36Z</time>
      </trkpt>
      <trkpt lat="43.98359" lon="5.12889">
        <ele>274.11</ele>
        <time>2016-01-10T11:44:48Z</time>
      </trkpt>
      <trkpt lat="43.98355" lon="5.12891">
        <ele>273.63</ele>
        <time>2016-01-10T11:44:52Z</time>
      </trkpt>
      <trkpt lat="43.98353" lon="5.12892">
        <ele>273.63</ele>
        <time>2016-01-10T11:44:53Z</time>
      </trkpt>
      <trkpt lat="43.98352" lon="5.12895">
        <ele>273.63</ele>
        <time>2016-01-10T11:44:54Z</time>
      </trkpt>
      <trkpt lat="43.9835" lon="5.12897">
        <ele>273.63</ele>
        <time>2016-01-10T11:44:55Z</time>
      </trkpt>
      <trkpt lat="43.98348" lon="5.12899">
        <ele>274.11</ele>
        <time>2016-01-10T11:44:56Z</time>
      </trkpt>
      <trkpt lat="43.98347" lon="5.12901">
        <ele>274.11</ele>
        <time>2016-01-10T11:44:57Z</time>
      </trkpt>
      <trkpt lat="43.98346" lon="5.12903">
        <ele>274.59</ele>
        <time>2016-01-10T11:44:58Z</time>
      </trkpt>
      <trkpt lat="43.98345" lon="5.12904">
        <ele>275.07</ele>
        <time>2016-01-10T11:44:59Z</time>
      </trkpt>
      <trkpt lat="43.98344" lon="5.12907">
        <ele>275.07</ele>
        <time>2016-01-10T11:45:00Z</time>
      </trkpt>
      <trkpt lat="43.98344" lon="5.12911">
        <ele>274.59</ele>
        <time>2016-01-10T11:45:01Z</time>
      </trkpt>
      <trkpt lat="43.98344" lon="5.12916">
        <ele>274.59</ele>
        <time>2016-01-10T11:45:02Z</time>
      </trkpt>
      <trkpt lat="43.98344" lon="5.1292">
        <ele>275.07</ele>
        <time>2016-01-10T11:45:03Z</time>
      </trkpt>
      <trkpt lat="43.98345" lon="5.12923">
        <ele>275.56</ele>
        <time>2016-01-10T11:45:04Z</time>
      </trkpt>
      <trkpt lat="43.98346" lon="5.12925">
        <ele>276.04</ele>
        <time>2016-01-10T11:45:05Z</time>
      </trkpt>
      <trkpt lat="43.98349" lon="5.12927">
        <ele>276.04</ele>
        <time>2016-01-10T11:45:06Z</time>
      </trkpt>
      <trkpt lat="43.98351" lon="5.12929">
        <ele>276.04</ele>
        <time>2016-01-10T11:45:07Z</time>
      </trkpt>
      <trkpt lat="43.98352" lon="5.12931">
        <ele>277</ele>
        <time>2016-01-10T11:45:08Z</time>
      </trkpt>
      <trkpt lat="43.98351" lon="5.12934">
        <ele>277.48</ele>
        <time>2016-01-10T11:45:09Z</time>
      </trkpt>
      <trkpt lat="43.98351" lon="5.12936">
        <ele>277.48</ele>
        <time>2016-01-10T11:45:10Z</time>
      </trkpt>
      <trkpt lat="43.9835" lon="5.12939">
        <ele>277.96</ele>
        <time>2016-01-10T11:45:11Z</time>
      </trkpt>
      <trkpt lat="43.98349" lon="5.12941">
        <ele>277.96</ele>
        <time>2016-01-10T11:45:12Z</time>
      </trkpt>
      <trkpt lat="43.98348" lon="5.12947">
        <ele>277.96</ele>
        <time>2016-01-10T11:45:14Z</time>
      </trkpt>
      <trkpt lat="43.98347" lon="5.12949">
        <ele>277.96</ele>
        <time>2016-01-10T11:45:15Z</time>
      </trkpt>
      <trkpt lat="43.98345" lon="5.12951">
        <ele>277.96</ele>
        <time>2016-01-10T11:45:16Z</time>
      </trkpt>
      <trkpt lat="43.98344" lon="5.12952">
        <ele>277.96</ele>
        <time>2016-01-10T11:45:17Z</time>
      </trkpt>
      <trkpt lat="43.98343" lon="5.12954">
        <ele>277.96</ele>
        <time>2016-01-10T11:45:18Z</time>
      </trkpt>
      <trkpt lat="43.98342" lon="5.12956">
        <ele>278.44</ele>
        <time>2016-01-10T11:45:19Z</time>
      </trkpt>
      <trkpt lat="43.98342" lon="5.12957">
        <ele>278.44</ele>
        <time>2016-01-10T11:45:20Z</time>
      </trkpt>
      <trkpt lat="43.98342" lon="5.12959">
        <ele>278.44</ele>
        <time>2016-01-10T11:45:21Z</time>
      </trkpt>
      <trkpt lat="43.98342" lon="5.12961">
        <ele>278.44</ele>
        <time>2016-01-10T11:45:22Z</time>
      </trkpt>
      <trkpt lat="43.98342" lon="5.12963">
        <ele>278.92</ele>
        <time>2016-01-10T11:45:23Z</time>
      </trkpt>
      <trkpt lat="43.98341" lon="5.12965">
        <ele>278.92</ele>
        <time>2016-01-10T11:45:24Z</time>
      </trkpt>
      <trkpt lat="43.98338" lon="5.1298">
        <ele>279.88</ele>
        <time>2016-01-10T11:45:31Z</time>
      </trkpt>
      <trkpt lat="43.98338" lon="5.12982">
        <ele>279.4</ele>
        <time>2016-01-10T11:45:32Z</time>
      </trkpt>
      <trkpt lat="43.98338" lon="5.12984">
        <ele>279.4</ele>
        <time>2016-01-10T11:45:33Z</time>
      </trkpt>
      <trkpt lat="43.98337" lon="5.12987">
        <ele>279.88</ele>
        <time>2016-01-10T11:45:34Z</time>
      </trkpt>
      <trkpt lat="43.98336" lon="5.12989">
        <ele>279.88</ele>
        <time>2016-01-10T11:45:35Z</time>
      </trkpt>
      <trkpt lat="43.98335" lon="5.1299">
        <ele>279.88</ele>
        <time>2016-01-10T11:45:36Z</time>
      </trkpt>
      <trkpt lat="43.98334" lon="5.12992">
        <ele>280.36</ele>
        <time>2016-01-10T11:45:37Z</time>
      </trkpt>
      <trkpt lat="43.98326" lon="5.12999">
        <ele>280.84</ele>
        <time>2016-01-10T11:45:42Z</time>
      </trkpt>
      <trkpt lat="43.98317" lon="5.1301">
        <ele>282.28</ele>
        <time>2016-01-10T11:45:48Z</time>
      </trkpt>
      <trkpt lat="43.9831" lon="5.13021">
        <ele>283.25</ele>
        <time>2016-01-10T11:45:53Z</time>
      </trkpt>
      <trkpt lat="43.98302" lon="5.13034">
        <ele>283.73</ele>
        <time>2016-01-10T11:45:58Z</time>
      </trkpt>
      <trkpt lat="43.983" lon="5.13037">
        <ele>284.21</ele>
        <time>2016-01-10T11:45:59Z</time>
      </trkpt>
      <trkpt lat="43.98299" lon="5.1304">
        <ele>284.21</ele>
        <time>2016-01-10T11:46:00Z</time>
      </trkpt>
      <trkpt lat="43.98297" lon="5.13042">
        <ele>284.21</ele>
        <time>2016-01-10T11:46:01Z</time>
      </trkpt>
      <trkpt lat="43.98296" lon="5.13044">
        <ele>284.21</ele>
        <time>2016-01-10T11:46:02Z</time>
      </trkpt>
      <trkpt lat="43.98294" lon="5.13046">
        <ele>284.21</ele>
        <time>2016-01-10T11:46:03Z</time>
      </trkpt>
      <trkpt lat="43.98293" lon="5.13048">
        <ele>284.21</ele>
        <time>2016-01-10T11:46:04Z</time>
      </trkpt>
      <trkpt lat="43.98291" lon="5.1305">
        <ele>284.21</ele>
        <time>2016-01-10T11:46:05Z</time>
      </trkpt>
      <trkpt lat="43.98282" lon="5.13068">
        <ele>284.21</ele>
        <time>2016-01-10T11:46:11Z</time>
      </trkpt>
      <trkpt lat="43.98281" lon="5.13071">
        <ele>284.21</ele>
        <time>2016-01-10T11:46:12Z</time>
      </trkpt>
      <trkpt lat="43.9828" lon="5.13075">
        <ele>284.21</ele>
        <time>2016-01-10T11:46:13Z</time>
      </trkpt>
      <trkpt lat="43.98279" lon="5.13078">
        <ele>284.21</ele>
        <time>2016-01-10T11:46:14Z</time>
      </trkpt>
      <trkpt lat="43.98277" lon="5.1308">
        <ele>284.21</ele>
        <time>2016-01-10T11:46:15Z</time>
      </trkpt>
      <trkpt lat="43.98275" lon="5.13081">
        <ele>284.21</ele>
        <time>2016-01-10T11:46:16Z</time>
      </trkpt>
      <trkpt lat="43.98273" lon="5.13084">
        <ele>284.21</ele>
        <time>2016-01-10T11:46:17Z</time>
      </trkpt>
      <trkpt lat="43.98271" lon="5.13085">
        <ele>284.21</ele>
        <time>2016-01-10T11:46:18Z</time>
      </trkpt>
      <trkpt lat="43.98269" lon="5.13087">
        <ele>284.21</ele>
        <time>2016-01-10T11:46:19Z</time>
      </trkpt>
      <trkpt lat="43.98267" lon="5.1309">
        <ele>284.69</ele>
        <time>2016-01-10T11:46:20Z</time>
      </trkpt>
      <trkpt lat="43.98265" lon="5.13092">
        <ele>284.21</ele>
        <time>2016-01-10T11:46:21Z</time>
      </trkpt>
      <trkpt lat="43.98263" lon="5.13094">
        <ele>284.21</ele>
        <time>2016-01-10T11:46:22Z</time>
      </trkpt>
      <trkpt lat="43.98262" lon="5.13096">
        <ele>284.21</ele>
        <time>2016-01-10T11:46:23Z</time>
      </trkpt>
      <trkpt lat="43.98259" lon="5.13099">
        <ele>284.21</ele>
        <time>2016-01-10T11:46:24Z</time>
      </trkpt>
      <trkpt lat="43.98257" lon="5.13102">
        <ele>284.21</ele>
        <time>2016-01-10T11:46:25Z</time>
      </trkpt>
      <trkpt lat="43.98247" lon="5.13114">
        <ele>284.69</ele>
        <time>2016-01-10T11:46:29Z</time>
      </trkpt>
      <trkpt lat="43.98245" lon="5.13117">
        <ele>284.69</ele>
        <time>2016-01-10T11:46:30Z</time>
      </trkpt>
      <trkpt lat="43.98243" lon="5.1312">
        <ele>285.17</ele>
        <time>2016-01-10T11:46:31Z</time>
      </trkpt>
      <trkpt lat="43.9823" lon="5.1314">
        <ele>285.17</ele>
        <time>2016-01-10T11:46:37Z</time>
      </trkpt>
      <trkpt lat="43.98226" lon="5.13162">
        <ele>287.09</ele>
        <time>2016-01-10T11:46:42Z</time>
      </trkpt>
      <trkpt lat="43.98223" lon="5.13168">
        <ele>288.05</ele>
        <time>2016-01-10T11:46:44Z</time>
      </trkpt>
      <trkpt lat="43.98216" lon="5.13172">
        <ele>287.57</ele>
        <time>2016-01-10T11:46:47Z</time>
      </trkpt>
      <trkpt lat="43.98204" lon="5.13192">
        <ele>287.57</ele>
        <time>2016-01-10T11:46:53Z</time>
      </trkpt>
      <trkpt lat="43.98192" lon="5.1321">
        <ele>287.57</ele>
        <time>2016-01-10T11:46:59Z</time>
      </trkpt>
      <trkpt lat="43.98187" lon="5.13224">
        <ele>287.57</ele>
        <time>2016-01-10T11:47:03Z</time>
      </trkpt>
      <trkpt lat="43.98186" lon="5.13228">
        <ele>288.05</ele>
        <time>2016-01-10T11:47:04Z</time>
      </trkpt>
      <trkpt lat="43.98185" lon="5.13231">
        <ele>287.57</ele>
        <time>2016-01-10T11:47:05Z</time>
      </trkpt>
      <trkpt lat="43.98184" lon="5.13235">
        <ele>288.05</ele>
        <time>2016-01-10T11:47:06Z</time>
      </trkpt>
      <trkpt lat="43.98184" lon="5.13238">
        <ele>288.05</ele>
        <time>2016-01-10T11:47:07Z</time>
      </trkpt>
      <trkpt lat="43.98182" lon="5.1324">
        <ele>287.57</ele>
        <time>2016-01-10T11:47:08Z</time>
      </trkpt>
      <trkpt lat="43.9818" lon="5.13243">
        <ele>287.57</ele>
        <time>2016-01-10T11:47:09Z</time>
      </trkpt>
      <trkpt lat="43.98178" lon="5.13246">
        <ele>287.57</ele>
        <time>2016-01-10T11:47:10Z</time>
      </trkpt>
      <trkpt lat="43.98175" lon="5.13253">
        <ele>287.57</ele>
        <time>2016-01-10T11:47:12Z</time>
      </trkpt>
      <trkpt lat="43.98174" lon="5.13257">
        <ele>288.05</ele>
        <time>2016-01-10T11:47:13Z</time>
      </trkpt>
      <trkpt lat="43.98172" lon="5.1326">
        <ele>288.53</ele>
        <time>2016-01-10T11:47:14Z</time>
      </trkpt>
      <trkpt lat="43.9817" lon="5.13261">
        <ele>288.05</ele>
        <time>2016-01-10T11:47:15Z</time>
      </trkpt>
      <trkpt lat="43.98156" lon="5.13266">
        <ele>286.61</ele>
        <time>2016-01-10T11:47:20Z</time>
      </trkpt>
      <trkpt lat="43.98136" lon="5.13272">
        <ele>284.69</ele>
        <time>2016-01-10T11:47:24Z</time>
      </trkpt>
      <trkpt lat="43.98125" lon="5.13276">
        <ele>283.73</ele>
        <time>2016-01-10T11:47:26Z</time>
      </trkpt>
      <trkpt lat="43.98121" lon="5.13276">
        <ele>283.25</ele>
        <time>2016-01-10T11:47:27Z</time>
      </trkpt>
      <trkpt lat="43.98119" lon="5.13273">
        <ele>282.77</ele>
        <time>2016-01-10T11:47:28Z</time>
      </trkpt>
      <trkpt lat="43.98116" lon="5.13271">
        <ele>281.8</ele>
        <time>2016-01-10T11:47:29Z</time>
      </trkpt>
      <trkpt lat="43.98114" lon="5.13269">
        <ele>281.32</ele>
        <time>2016-01-10T11:47:30Z</time>
      </trkpt>
      <trkpt lat="43.9811" lon="5.13268">
        <ele>280.84</ele>
        <time>2016-01-10T11:47:31Z</time>
      </trkpt>
      <trkpt lat="43.98107" lon="5.13269">
        <ele>280.36</ele>
        <time>2016-01-10T11:47:32Z</time>
      </trkpt>
      <trkpt lat="43.98105" lon="5.13271">
        <ele>279.88</ele>
        <time>2016-01-10T11:47:33Z</time>
      </trkpt>
      <trkpt lat="43.98102" lon="5.13273">
        <ele>279.4</ele>
        <time>2016-01-10T11:47:34Z</time>
      </trkpt>
      <trkpt lat="43.98101" lon="5.13276">
        <ele>278.92</ele>
        <time>2016-01-10T11:47:35Z</time>
      </trkpt>
      <trkpt lat="43.981" lon="5.13279">
        <ele>278.44</ele>
        <time>2016-01-10T11:47:36Z</time>
      </trkpt>
      <trkpt lat="43.98099" lon="5.13282">
        <ele>277.96</ele>
        <time>2016-01-10T11:47:37Z</time>
      </trkpt>
      <trkpt lat="43.98096" lon="5.13284">
        <ele>277.48</ele>
        <time>2016-01-10T11:47:38Z</time>
      </trkpt>
      <trkpt lat="43.98093" lon="5.13286">
        <ele>277</ele>
        <time>2016-01-10T11:47:39Z</time>
      </trkpt>
      <trkpt lat="43.98089" lon="5.13288">
        <ele>276.52</ele>
        <time>2016-01-10T11:47:40Z</time>
      </trkpt>
      <trkpt lat="43.98084" lon="5.1329">
        <ele>275.56</ele>
        <time>2016-01-10T11:47:41Z</time>
      </trkpt>
      <trkpt lat="43.98078" lon="5.13292">
        <ele>275.07</ele>
        <time>2016-01-10T11:47:42Z</time>
      </trkpt>
      <trkpt lat="43.98072" lon="5.13294">
        <ele>274.59</ele>
        <time>2016-01-10T11:47:43Z</time>
      </trkpt>
      <trkpt lat="43.98068" lon="5.13297">
        <ele>274.11</ele>
        <time>2016-01-10T11:47:44Z</time>
      </trkpt>
      <trkpt lat="43.98063" lon="5.13299">
        <ele>274.11</ele>
        <time>2016-01-10T11:47:45Z</time>
      </trkpt>
      <trkpt lat="43.98058" lon="5.133">
        <ele>274.11</ele>
        <time>2016-01-10T11:47:46Z</time>
      </trkpt>
      <trkpt lat="43.98054" lon="5.13299">
        <ele>274.11</ele>
        <time>2016-01-10T11:47:47Z</time>
      </trkpt>
      <trkpt lat="43.98051" lon="5.13295">
        <ele>274.11</ele>
        <time>2016-01-10T11:47:48Z</time>
      </trkpt>
      <trkpt lat="43.98048" lon="5.13293">
        <ele>275.07</ele>
        <time>2016-01-10T11:47:49Z</time>
      </trkpt>
      <trkpt lat="43.98047" lon="5.13293">
        <ele>275.56</ele>
        <time>2016-01-10T11:47:50Z</time>
      </trkpt>
      <trkpt lat="43.98044" lon="5.13295">
        <ele>276.04</ele>
        <time>2016-01-10T11:47:53Z</time>
      </trkpt>
      <trkpt lat="43.98042" lon="5.13296">
        <ele>275.56</ele>
        <time>2016-01-10T11:48:01Z</time>
      </trkpt>
      <trkpt lat="43.98041" lon="5.13296">
        <ele>275.56</ele>
        <time>2016-01-10T11:48:15Z</time>
      </trkpt>
      <trkpt lat="43.9804" lon="5.13296">
        <ele>275.07</ele>
        <time>2016-01-10T11:48:31Z</time>
      </trkpt>
      <trkpt lat="43.9804" lon="5.13295">
        <ele>275.07</ele>
        <time>2016-01-10T11:48:48Z</time>
      </trkpt>
      <trkpt lat="43.98039" lon="5.13295">
        <ele>275.07</ele>
        <time>2016-01-10T11:49:01Z</time>
      </trkpt>
      <trkpt lat="43.98038" lon="5.13296">
        <ele>275.07</ele>
        <time>2016-01-10T11:49:03Z</time>
      </trkpt>
      <trkpt lat="43.98037" lon="5.13297">
        <ele>275.56</ele>
        <time>2016-01-10T11:49:04Z</time>
      </trkpt>
      <trkpt lat="43.98034" lon="5.133">
        <ele>276.04</ele>
        <time>2016-01-10T11:49:09Z</time>
      </trkpt>
      <trkpt lat="43.98029" lon="5.13303">
        <ele>277.48</ele>
        <time>2016-01-10T11:49:17Z</time>
      </trkpt>
      <trkpt lat="43.98023" lon="5.13308">
        <ele>279.88</ele>
        <time>2016-01-10T11:49:26Z</time>
      </trkpt>
      <trkpt lat="43.98021" lon="5.13313">
        <ele>280.36</ele>
        <time>2016-01-10T11:49:33Z</time>
      </trkpt>
      <trkpt lat="43.98016" lon="5.13318">
        <ele>281.8</ele>
        <time>2016-01-10T11:49:39Z</time>
      </trkpt>
      <trkpt lat="43.98011" lon="5.13322">
        <ele>282.77</ele>
        <time>2016-01-10T11:49:46Z</time>
      </trkpt>
      <trkpt lat="43.98003" lon="5.13327">
        <ele>284.69</ele>
        <time>2016-01-10T11:49:54Z</time>
      </trkpt>
      <trkpt lat="43.97997" lon="5.13331">
        <ele>286.13</ele>
        <time>2016-01-10T11:50:04Z</time>
      </trkpt>
      <trkpt lat="43.9799" lon="5.13334">
        <ele>287.09</ele>
        <time>2016-01-10T11:50:11Z</time>
      </trkpt>
      <trkpt lat="43.97989" lon="5.13331">
        <ele>289.01</ele>
        <time>2016-01-10T11:50:16Z</time>
      </trkpt>
      <trkpt lat="43.97989" lon="5.1333">
        <ele>289.01</ele>
        <time>2016-01-10T11:50:23Z</time>
      </trkpt>
      <trkpt lat="43.97988" lon="5.13329">
        <ele>289.01</ele>
        <time>2016-01-10T11:50:35Z</time>
      </trkpt>
      <trkpt lat="43.97989" lon="5.13329">
        <ele>288.53</ele>
        <time>2016-01-10T11:50:42Z</time>
      </trkpt>
      <trkpt lat="43.97988" lon="5.13328">
        <ele>288.53</ele>
        <time>2016-01-10T11:51:01Z</time>
      </trkpt>
      <trkpt lat="43.97988" lon="5.13328">
        <ele>288.53</ele>
        <time>2016-01-10T11:51:16Z</time>
      </trkpt>
      <trkpt lat="43.97988" lon="5.13328">
        <ele>288.05</ele>
        <time>2016-01-10T11:51:32Z</time>
      </trkpt>
      <trkpt lat="43.97988" lon="5.13328">
        <ele>287.57</ele>
        <time>2016-01-10T11:51:50Z</time>
      </trkpt>
      <trkpt lat="43.9799" lon="5.13326">
        <ele>287.57</ele>
        <time>2016-01-10T11:52:03Z</time>
      </trkpt>
      <trkpt lat="43.97992" lon="5.13324">
        <ele>287.09</ele>
        <time>2016-01-10T11:52:04Z</time>
      </trkpt>
      <trkpt lat="43.97993" lon="5.13322">
        <ele>287.09</ele>
        <time>2016-01-10T11:52:05Z</time>
      </trkpt>
      <trkpt lat="43.97993" lon="5.13319">
        <ele>287.09</ele>
        <time>2016-01-10T11:52:06Z</time>
      </trkpt>
      <trkpt lat="43.97993" lon="5.13315">
        <ele>287.57</ele>
        <time>2016-01-10T11:52:07Z</time>
      </trkpt>
      <trkpt lat="43.97994" lon="5.13311">
        <ele>287.09</ele>
        <time>2016-01-10T11:52:08Z</time>
      </trkpt>
      <trkpt lat="43.97996" lon="5.13308">
        <ele>286.61</ele>
        <time>2016-01-10T11:52:09Z</time>
      </trkpt>
      <trkpt lat="43.97999" lon="5.13304">
        <ele>286.13</ele>
        <time>2016-01-10T11:52:10Z</time>
      </trkpt>
      <trkpt lat="43.98002" lon="5.133">
        <ele>285.65</ele>
        <time>2016-01-10T11:52:11Z</time>
      </trkpt>
      <trkpt lat="43.98005" lon="5.13295">
        <ele>285.17</ele>
        <time>2016-01-10T11:52:12Z</time>
      </trkpt>
      <trkpt lat="43.98006" lon="5.1329">
        <ele>284.69</ele>
        <time>2016-01-10T11:52:13Z</time>
      </trkpt>
      <trkpt lat="43.98011" lon="5.13282">
        <ele>284.69</ele>
        <time>2016-01-10T11:52:15Z</time>
      </trkpt>
      <trkpt lat="43.98015" lon="5.1328">
        <ele>284.21</ele>
        <time>2016-01-10T11:52:16Z</time>
      </trkpt>
      <trkpt lat="43.98018" lon="5.13278">
        <ele>283.73</ele>
        <time>2016-01-10T11:52:17Z</time>
      </trkpt>
      <trkpt lat="43.98021" lon="5.13274">
        <ele>283.25</ele>
        <time>2016-01-10T11:52:18Z</time>
      </trkpt>
      <trkpt lat="43.98024" lon="5.1327">
        <ele>282.77</ele>
        <time>2016-01-10T11:52:19Z</time>
      </trkpt>
      <trkpt lat="43.98027" lon="5.13265">
        <ele>282.28</ele>
        <time>2016-01-10T11:52:20Z</time>
      </trkpt>
      <trkpt lat="43.98031" lon="5.13261">
        <ele>281.8</ele>
        <time>2016-01-10T11:52:21Z</time>
      </trkpt>
      <trkpt lat="43.98035" lon="5.13259">
        <ele>281.32</ele>
        <time>2016-01-10T11:52:22Z</time>
      </trkpt>
      <trkpt lat="43.98038" lon="5.13255">
        <ele>281.32</ele>
        <time>2016-01-10T11:52:23Z</time>
      </trkpt>
      <trkpt lat="43.98041" lon="5.13251">
        <ele>281.32</ele>
        <time>2016-01-10T11:52:24Z</time>
      </trkpt>
      <trkpt lat="43.98043" lon="5.13246">
        <ele>281.32</ele>
        <time>2016-01-10T11:52:25Z</time>
      </trkpt>
      <trkpt lat="43.98044" lon="5.13244">
        <ele>281.32</ele>
        <time>2016-01-10T11:52:26Z</time>
      </trkpt>
      <trkpt lat="43.98059" lon="5.13225">
        <ele>281.32</ele>
        <time>2016-01-10T11:52:31Z</time>
      </trkpt>
      <trkpt lat="43.98063" lon="5.13222">
        <ele>281.32</ele>
        <time>2016-01-10T11:52:32Z</time>
      </trkpt>
      <trkpt lat="43.98066" lon="5.13218">
        <ele>281.32</ele>
        <time>2016-01-10T11:52:33Z</time>
      </trkpt>
      <trkpt lat="43.98069" lon="5.13213">
        <ele>281.32</ele>
        <time>2016-01-10T11:52:34Z</time>
      </trkpt>
      <trkpt lat="43.98072" lon="5.13208">
        <ele>280.84</ele>
        <time>2016-01-10T11:52:35Z</time>
      </trkpt>
      <trkpt lat="43.98081" lon="5.13193">
        <ele>280.36</ele>
        <time>2016-01-10T11:52:38Z</time>
      </trkpt>
      <trkpt lat="43.98083" lon="5.13187">
        <ele>279.88</ele>
        <time>2016-01-10T11:52:39Z</time>
      </trkpt>
      <trkpt lat="43.98084" lon="5.13181">
        <ele>280.36</ele>
        <time>2016-01-10T11:52:40Z</time>
      </trkpt>
      <trkpt lat="43.98088" lon="5.13147">
        <ele>281.32</ele>
        <time>2016-01-10T11:52:47Z</time>
      </trkpt>
      <trkpt lat="43.9809" lon="5.13136">
        <ele>281.8</ele>
        <time>2016-01-10T11:52:49Z</time>
      </trkpt>
      <trkpt lat="43.98091" lon="5.1313">
        <ele>281.8</ele>
        <time>2016-01-10T11:52:50Z</time>
      </trkpt>
      <trkpt lat="43.98093" lon="5.13124">
        <ele>281.8</ele>
        <time>2016-01-10T11:52:51Z</time>
      </trkpt>
      <trkpt lat="43.98094" lon="5.13119">
        <ele>281.8</ele>
        <time>2016-01-10T11:52:52Z</time>
      </trkpt>
      <trkpt lat="43.98096" lon="5.13113">
        <ele>282.28</ele>
        <time>2016-01-10T11:52:53Z</time>
      </trkpt>
      <trkpt lat="43.98099" lon="5.13108">
        <ele>281.8</ele>
        <time>2016-01-10T11:52:54Z</time>
      </trkpt>
      <trkpt lat="43.98102" lon="5.13102">
        <ele>281.8</ele>
        <time>2016-01-10T11:52:55Z</time>
      </trkpt>
      <trkpt lat="43.98105" lon="5.13097">
        <ele>282.28</ele>
        <time>2016-01-10T11:52:56Z</time>
      </trkpt>
      <trkpt lat="43.98111" lon="5.13085">
        <ele>281.8</ele>
        <time>2016-01-10T11:52:58Z</time>
      </trkpt>
      <trkpt lat="43.98118" lon="5.13075">
        <ele>281.32</ele>
        <time>2016-01-10T11:53:00Z</time>
      </trkpt>
      <trkpt lat="43.98121" lon="5.13069">
        <ele>281.32</ele>
        <time>2016-01-10T11:53:01Z</time>
      </trkpt>
      <trkpt lat="43.98124" lon="5.13064">
        <ele>281.8</ele>
        <time>2016-01-10T11:53:02Z</time>
      </trkpt>
      <trkpt lat="43.98144" lon="5.13029">
        <ele>281.32</ele>
        <time>2016-01-10T11:53:08Z</time>
      </trkpt>
      <trkpt lat="43.98146" lon="5.13023">
        <ele>281.32</ele>
        <time>2016-01-10T11:53:09Z</time>
      </trkpt>
      <trkpt lat="43.98152" lon="5.13013">
        <ele>281.8</ele>
        <time>2016-01-10T11:53:11Z</time>
      </trkpt>
      <trkpt lat="43.98155" lon="5.13008">
        <ele>281.8</ele>
        <time>2016-01-10T11:53:12Z</time>
      </trkpt>
      <trkpt lat="43.98157" lon="5.13003">
        <ele>282.28</ele>
        <time>2016-01-10T11:53:13Z</time>
      </trkpt>
      <trkpt lat="43.9816" lon="5.12998">
        <ele>282.28</ele>
        <time>2016-01-10T11:53:14Z</time>
      </trkpt>
      <trkpt lat="43.98163" lon="5.12993">
        <ele>282.28</ele>
        <time>2016-01-10T11:53:15Z</time>
      </trkpt>
      <trkpt lat="43.98166" lon="5.12988">
        <ele>282.28</ele>
        <time>2016-01-10T11:53:16Z</time>
      </trkpt>
      <trkpt lat="43.98169" lon="5.12983">
        <ele>282.28</ele>
        <time>2016-01-10T11:53:17Z</time>
      </trkpt>
      <trkpt lat="43.98176" lon="5.12972">
        <ele>281.8</ele>
        <time>2016-01-10T11:53:19Z</time>
      </trkpt>
      <trkpt lat="43.98179" lon="5.12968">
        <ele>281.8</ele>
        <time>2016-01-10T11:53:20Z</time>
      </trkpt>
      <trkpt lat="43.98208" lon="5.12925">
        <ele>281.8</ele>
        <time>2016-01-10T11:53:28Z</time>
      </trkpt>
      <trkpt lat="43.98212" lon="5.12919">
        <ele>281.32</ele>
        <time>2016-01-10T11:53:29Z</time>
      </trkpt>
      <trkpt lat="43.9822" lon="5.12907">
        <ele>281.32</ele>
        <time>2016-01-10T11:53:31Z</time>
      </trkpt>
      <trkpt lat="43.98231" lon="5.12886">
        <ele>280.36</ele>
        <time>2016-01-10T11:53:34Z</time>
      </trkpt>
      <trkpt lat="43.98235" lon="5.12879">
        <ele>280.36</ele>
        <time>2016-01-10T11:53:35Z</time>
      </trkpt>
      <trkpt lat="43.98246" lon="5.1286">
        <ele>279.4</ele>
        <time>2016-01-10T11:53:38Z</time>
      </trkpt>
      <trkpt lat="43.98269" lon="5.12808">
        <ele>277.48</ele>
        <time>2016-01-10T11:53:45Z</time>
      </trkpt>
      <trkpt lat="43.98273" lon="5.12802">
        <ele>277.48</ele>
        <time>2016-01-10T11:53:46Z</time>
      </trkpt>
      <trkpt lat="43.9828" lon="5.12789">
        <ele>277.96</ele>
        <time>2016-01-10T11:53:49Z</time>
      </trkpt>
      <trkpt lat="43.98286" lon="5.12769">
        <ele>277.48</ele>
        <time>2016-01-10T11:53:53Z</time>
      </trkpt>
      <trkpt lat="43.98289" lon="5.12758">
        <ele>277.48</ele>
        <time>2016-01-10T11:53:55Z</time>
      </trkpt>
      <trkpt lat="43.98296" lon="5.12724">
        <ele>277.96</ele>
        <time>2016-01-10T11:54:02Z</time>
      </trkpt>
      <trkpt lat="43.98296" lon="5.12695">
        <ele>277.96</ele>
        <time>2016-01-10T11:54:09Z</time>
      </trkpt>
      <trkpt lat="43.98295" lon="5.12689">
        <ele>278.44</ele>
        <time>2016-01-10T11:54:13Z</time>
      </trkpt>
      <trkpt lat="43.98295" lon="5.12685">
        <ele>278.44</ele>
        <time>2016-01-10T11:54:15Z</time>
      </trkpt>
      <trkpt lat="43.98294" lon="5.12683">
        <ele>278.92</ele>
        <time>2016-01-10T11:54:21Z</time>
      </trkpt>
      <trkpt lat="43.98293" lon="5.12681">
        <ele>278.92</ele>
        <time>2016-01-10T11:54:38Z</time>
      </trkpt>
      <trkpt lat="43.98293" lon="5.12681">
        <ele>278.44</ele>
        <time>2016-01-10T11:54:40Z</time>
      </trkpt>
      <trkpt lat="43.98293" lon="5.12679">
        <ele>278.44</ele>
        <time>2016-01-10T11:54:41Z</time>
      </trkpt>
      <trkpt lat="43.98293" lon="5.12677">
        <ele>278.44</ele>
        <time>2016-01-10T11:54:42Z</time>
      </trkpt>
      <trkpt lat="43.98293" lon="5.12674">
        <ele>278.44</ele>
        <time>2016-01-10T11:54:43Z</time>
      </trkpt>
      <trkpt lat="43.98292" lon="5.12671">
        <ele>278.92</ele>
        <time>2016-01-10T11:54:44Z</time>
      </trkpt>
      <trkpt lat="43.98291" lon="5.12669">
        <ele>278.92</ele>
        <time>2016-01-10T11:54:45Z</time>
      </trkpt>
      <trkpt lat="43.9829" lon="5.12667">
        <ele>278.92</ele>
        <time>2016-01-10T11:54:46Z</time>
      </trkpt>
      <trkpt lat="43.98288" lon="5.12665">
        <ele>278.92</ele>
        <time>2016-01-10T11:54:47Z</time>
      </trkpt>
      <trkpt lat="43.98287" lon="5.12663">
        <ele>279.4</ele>
        <time>2016-01-10T11:54:48Z</time>
      </trkpt>
      <trkpt lat="43.98286" lon="5.12661">
        <ele>279.4</ele>
        <time>2016-01-10T11:54:49Z</time>
      </trkpt>
      <trkpt lat="43.98284" lon="5.12659">
        <ele>279.4</ele>
        <time>2016-01-10T11:54:50Z</time>
      </trkpt>
      <trkpt lat="43.98282" lon="5.12657">
        <ele>279.4</ele>
        <time>2016-01-10T11:54:51Z</time>
      </trkpt>
      <trkpt lat="43.9828" lon="5.12656">
        <ele>279.4</ele>
        <time>2016-01-10T11:54:52Z</time>
      </trkpt>
      <trkpt lat="43.98277" lon="5.12657">
        <ele>279.4</ele>
        <time>2016-01-10T11:54:53Z</time>
      </trkpt>
      <trkpt lat="43.98275" lon="5.12659">
        <ele>279.4</ele>
        <time>2016-01-10T11:54:54Z</time>
      </trkpt>
      <trkpt lat="43.98272" lon="5.1266">
        <ele>279.88</ele>
        <time>2016-01-10T11:54:55Z</time>
      </trkpt>
      <trkpt lat="43.9827" lon="5.12661">
        <ele>279.88</ele>
        <time>2016-01-10T11:54:56Z</time>
      </trkpt>
      <trkpt lat="43.98267" lon="5.12662">
        <ele>279.88</ele>
        <time>2016-01-10T11:54:57Z</time>
      </trkpt>
      <trkpt lat="43.98265" lon="5.12664">
        <ele>279.88</ele>
        <time>2016-01-10T11:54:58Z</time>
      </trkpt>
      <trkpt lat="43.98262" lon="5.12665">
        <ele>279.4</ele>
        <time>2016-01-10T11:54:59Z</time>
      </trkpt>
      <trkpt lat="43.9826" lon="5.12667">
        <ele>279.88</ele>
        <time>2016-01-10T11:55:00Z</time>
      </trkpt>
      <trkpt lat="43.98257" lon="5.12669">
        <ele>279.88</ele>
        <time>2016-01-10T11:55:01Z</time>
      </trkpt>
      <trkpt lat="43.98249" lon="5.1267">
        <ele>281.32</ele>
        <time>2016-01-10T11:55:04Z</time>
      </trkpt>
      <trkpt lat="43.98246" lon="5.12672">
        <ele>281.32</ele>
        <time>2016-01-10T11:55:05Z</time>
      </trkpt>
      <trkpt lat="43.98228" lon="5.12684">
        <ele>281.8</ele>
        <time>2016-01-10T11:55:12Z</time>
      </trkpt>
      <trkpt lat="43.98213" lon="5.12688">
        <ele>281.8</ele>
        <time>2016-01-10T11:55:17Z</time>
      </trkpt>
      <trkpt lat="43.982" lon="5.12697">
        <ele>282.28</ele>
        <time>2016-01-10T11:55:22Z</time>
      </trkpt>
      <trkpt lat="43.98188" lon="5.12704">
        <ele>282.77</ele>
        <time>2016-01-10T11:55:26Z</time>
      </trkpt>
      <trkpt lat="43.98179" lon="5.12722">
        <ele>283.73</ele>
        <time>2016-01-10T11:55:31Z</time>
      </trkpt>
      <trkpt lat="43.98164" lon="5.1273">
        <ele>283.73</ele>
        <time>2016-01-10T11:55:36Z</time>
      </trkpt>
      <trkpt lat="43.98161" lon="5.1273">
        <ele>284.21</ele>
        <time>2016-01-10T11:55:37Z</time>
      </trkpt>
      <trkpt lat="43.98159" lon="5.12731">
        <ele>283.73</ele>
        <time>2016-01-10T11:55:38Z</time>
      </trkpt>
      <trkpt lat="43.98156" lon="5.12732">
        <ele>284.21</ele>
        <time>2016-01-10T11:55:39Z</time>
      </trkpt>
      <trkpt lat="43.98154" lon="5.12735">
        <ele>283.73</ele>
        <time>2016-01-10T11:55:40Z</time>
      </trkpt>
      <trkpt lat="43.98153" lon="5.12738">
        <ele>284.21</ele>
        <time>2016-01-10T11:55:41Z</time>
      </trkpt>
      <trkpt lat="43.98152" lon="5.12741">
        <ele>283.73</ele>
        <time>2016-01-10T11:55:42Z</time>
      </trkpt>
      <trkpt lat="43.98152" lon="5.12744">
        <ele>284.21</ele>
        <time>2016-01-10T11:55:43Z</time>
      </trkpt>
      <trkpt lat="43.98154" lon="5.12758">
        <ele>285.65</ele>
        <time>2016-01-10T11:55:50Z</time>
      </trkpt>
      <trkpt lat="43.98155" lon="5.12758">
        <ele>285.17</ele>
        <time>2016-01-10T11:55:59Z</time>
      </trkpt>
      <trkpt lat="43.98157" lon="5.12757">
        <ele>285.17</ele>
        <time>2016-01-10T11:56:00Z</time>
      </trkpt>
      <trkpt lat="43.98159" lon="5.12756">
        <ele>285.17</ele>
        <time>2016-01-10T11:56:01Z</time>
      </trkpt>
      <trkpt lat="43.9817" lon="5.12749">
        <ele>287.57</ele>
        <time>2016-01-10T11:56:07Z</time>
      </trkpt>
      <trkpt lat="43.98171" lon="5.12749">
        <ele>287.09</ele>
        <time>2016-01-10T11:56:08Z</time>
      </trkpt>
      <trkpt lat="43.98174" lon="5.12747">
        <ele>287.09</ele>
        <time>2016-01-10T11:56:14Z</time>
      </trkpt>
      <trkpt lat="43.98173" lon="5.12747">
        <ele>287.09</ele>
        <time>2016-01-10T11:56:23Z</time>
      </trkpt>
      <trkpt lat="43.98173" lon="5.12747">
        <ele>287.09</ele>
        <time>2016-01-10T11:56:38Z</time>
      </trkpt>
      <trkpt lat="43.98174" lon="5.12746">
        <ele>287.09</ele>
        <time>2016-01-10T11:56:50Z</time>
      </trkpt>
      <trkpt lat="43.98175" lon="5.12746">
        <ele>287.09</ele>
        <time>2016-01-10T11:56:59Z</time>
      </trkpt>
      <trkpt lat="43.98175" lon="5.12746">
        <ele>286.61</ele>
        <time>2016-01-10T11:57:12Z</time>
      </trkpt>
      <trkpt lat="43.9818" lon="5.12743">
        <ele>287.09</ele>
        <time>2016-01-10T11:57:23Z</time>
      </trkpt>
      <trkpt lat="43.98196" lon="5.12732">
        <ele>287.09</ele>
        <time>2016-01-10T11:57:30Z</time>
      </trkpt>
      <trkpt lat="43.98211" lon="5.12724">
        <ele>288.05</ele>
        <time>2016-01-10T11:57:36Z</time>
      </trkpt>
      <trkpt lat="43.98227" lon="5.12719">
        <ele>290.46</ele>
        <time>2016-01-10T11:57:43Z</time>
      </trkpt>
      <trkpt lat="43.98232" lon="5.12719">
        <ele>291.42</ele>
        <time>2016-01-10T11:57:46Z</time>
      </trkpt>
      <trkpt lat="43.98234" lon="5.12721">
        <ele>291.42</ele>
        <time>2016-01-10T11:57:47Z</time>
      </trkpt>
      <trkpt lat="43.98234" lon="5.12724">
        <ele>291.42</ele>
        <time>2016-01-10T11:57:48Z</time>
      </trkpt>
      <trkpt lat="43.98234" lon="5.12727">
        <ele>291.9</ele>
        <time>2016-01-10T11:57:49Z</time>
      </trkpt>
      <trkpt lat="43.98232" lon="5.12728">
        <ele>291.9</ele>
        <time>2016-01-10T11:57:50Z</time>
      </trkpt>
      <trkpt lat="43.9823" lon="5.12729">
        <ele>291.9</ele>
        <time>2016-01-10T11:57:51Z</time>
      </trkpt>
      <trkpt lat="43.98227" lon="5.1273">
        <ele>291.9</ele>
        <time>2016-01-10T11:57:52Z</time>
      </trkpt>
      <trkpt lat="43.98225" lon="5.12731">
        <ele>291.9</ele>
        <time>2016-01-10T11:57:53Z</time>
      </trkpt>
      <trkpt lat="43.98213" lon="5.12743">
        <ele>292.86</ele>
        <time>2016-01-10T11:57:59Z</time>
      </trkpt>
      <trkpt lat="43.982" lon="5.1276">
        <ele>293.34</ele>
        <time>2016-01-10T11:58:05Z</time>
      </trkpt>
      <trkpt lat="43.98186" lon="5.12776">
        <ele>294.3</ele>
        <time>2016-01-10T11:58:11Z</time>
      </trkpt>
      <trkpt lat="43.9817" lon="5.12796">
        <ele>295.26</ele>
        <time>2016-01-10T11:58:19Z</time>
      </trkpt>
      <trkpt lat="43.98158" lon="5.12815">
        <ele>295.74</ele>
        <time>2016-01-10T11:58:26Z</time>
      </trkpt>
      <trkpt lat="43.98146" lon="5.12829">
        <ele>295.74</ele>
        <time>2016-01-10T11:58:32Z</time>
      </trkpt>
      <trkpt lat="43.98132" lon="5.12844">
        <ele>295.74</ele>
        <time>2016-01-10T11:58:38Z</time>
      </trkpt>
      <trkpt lat="43.98122" lon="5.12863">
        <ele>295.74</ele>
        <time>2016-01-10T11:58:44Z</time>
      </trkpt>
      <trkpt lat="43.98113" lon="5.1288">
        <ele>296.7</ele>
        <time>2016-01-10T11:58:50Z</time>
      </trkpt>
      <trkpt lat="43.98101" lon="5.12903">
        <ele>296.7</ele>
        <time>2016-01-10T11:58:57Z</time>
      </trkpt>
      <trkpt lat="43.9809" lon="5.12929">
        <ele>296.22</ele>
        <time>2016-01-10T11:59:04Z</time>
      </trkpt>
      <trkpt lat="43.98081" lon="5.1296">
        <ele>295.74</ele>
        <time>2016-01-10T11:59:11Z</time>
      </trkpt>
      <trkpt lat="43.98077" lon="5.12981">
        <ele>294.78</ele>
        <time>2016-01-10T11:59:15Z</time>
      </trkpt>
      <trkpt lat="43.98069" lon="5.13018">
        <ele>294.3</ele>
        <time>2016-01-10T11:59:22Z</time>
      </trkpt>
      <trkpt lat="43.98061" lon="5.13048">
        <ele>294.3</ele>
        <time>2016-01-10T11:59:28Z</time>
      </trkpt>
      <trkpt lat="43.98057" lon="5.13082">
        <ele>293.82</ele>
        <time>2016-01-10T11:59:35Z</time>
      </trkpt>
      <trkpt lat="43.98052" lon="5.13105">
        <ele>294.78</ele>
        <time>2016-01-10T11:59:40Z</time>
      </trkpt>
      <trkpt lat="43.98047" lon="5.13121">
        <ele>294.3</ele>
        <time>2016-01-10T11:59:44Z</time>
      </trkpt>
      <trkpt lat="43.98044" lon="5.13124">
        <ele>294.3</ele>
        <time>2016-01-10T11:59:45Z</time>
      </trkpt>
      <trkpt lat="43.98041" lon="5.13127">
        <ele>294.3</ele>
        <time>2016-01-10T11:59:46Z</time>
      </trkpt>
      <trkpt lat="43.98029" lon="5.13148">
        <ele>294.78</ele>
        <time>2016-01-10T11:59:52Z</time>
      </trkpt>
      <trkpt lat="43.98014" lon="5.1317">
        <ele>295.26</ele>
        <time>2016-01-10T11:59:59Z</time>
      </trkpt>
      <trkpt lat="43.97999" lon="5.13196">
        <ele>296.22</ele>
        <time>2016-01-10T12:00:06Z</time>
      </trkpt>
      <trkpt lat="43.97985" lon="5.1321">
        <ele>296.7</ele>
        <time>2016-01-10T12:00:11Z</time>
      </trkpt>
      <trkpt lat="43.97966" lon="5.13224">
        <ele>297.18</ele>
        <time>2016-01-10T12:00:17Z</time>
      </trkpt>
      <trkpt lat="43.97947" lon="5.13252">
        <ele>299.11</ele>
        <time>2016-01-10T12:00:26Z</time>
      </trkpt>
      <trkpt lat="43.97934" lon="5.13273">
        <ele>299.59</ele>
        <time>2016-01-10T12:00:33Z</time>
      </trkpt>
      <trkpt lat="43.97921" lon="5.13292">
        <ele>300.07</ele>
        <time>2016-01-10T12:00:40Z</time>
      </trkpt>
      <trkpt lat="43.97919" lon="5.13296">
        <ele>300.55</ele>
        <time>2016-01-10T12:00:41Z</time>
      </trkpt>
      <trkpt lat="43.97919" lon="5.133">
        <ele>300.55</ele>
        <time>2016-01-10T12:00:42Z</time>
      </trkpt>
      <trkpt lat="43.97919" lon="5.13303">
        <ele>301.51</ele>
        <time>2016-01-10T12:00:43Z</time>
      </trkpt>
      <trkpt lat="43.97919" lon="5.13306">
        <ele>301.51</ele>
        <time>2016-01-10T12:00:44Z</time>
      </trkpt>
      <trkpt lat="43.97919" lon="5.13308">
        <ele>301.51</ele>
        <time>2016-01-10T12:00:45Z</time>
      </trkpt>
      <trkpt lat="43.97918" lon="5.13314">
        <ele>301.51</ele>
        <time>2016-01-10T12:00:51Z</time>
      </trkpt>
      <trkpt lat="43.97917" lon="5.13315">
        <ele>301.99</ele>
        <time>2016-01-10T12:01:02Z</time>
      </trkpt>
      <trkpt lat="43.97917" lon="5.13316">
        <ele>301.99</ele>
        <time>2016-01-10T12:01:16Z</time>
      </trkpt>
      <trkpt lat="43.97917" lon="5.13317">
        <ele>301.99</ele>
        <time>2016-01-10T12:01:28Z</time>
      </trkpt>
      <trkpt lat="43.97917" lon="5.13317">
        <ele>301.99</ele>
        <time>2016-01-10T12:01:42Z</time>
      </trkpt>
      <trkpt lat="43.97917" lon="5.13317">
        <ele>301.99</ele>
        <time>2016-01-10T12:01:52Z</time>
      </trkpt>
      <trkpt lat="43.97917" lon="5.13316">
        <ele>301.99</ele>
        <time>2016-01-10T12:02:10Z</time>
      </trkpt>
      <trkpt lat="43.97917" lon="5.13317">
        <ele>302.47</ele>
        <time>2016-01-10T12:02:27Z</time>
      </trkpt>
      <trkpt lat="43.97917" lon="5.13316">
        <ele>302.47</ele>
        <time>2016-01-10T12:02:42Z</time>
      </trkpt>
      <trkpt lat="43.97917" lon="5.13316">
        <ele>302.47</ele>
        <time>2016-01-10T12:03:03Z</time>
      </trkpt>
      <trkpt lat="43.97917" lon="5.13316">
        <ele>302.47</ele>
        <time>2016-01-10T12:03:18Z</time>
      </trkpt>
      <trkpt lat="43.97917" lon="5.13315">
        <ele>302.47</ele>
        <time>2016-01-10T12:03:27Z</time>
      </trkpt>
      <trkpt lat="43.97918" lon="5.13316">
        <ele>302.95</ele>
        <time>2016-01-10T12:03:44Z</time>
      </trkpt>
      <trkpt lat="43.97918" lon="5.13317">
        <ele>302.95</ele>
        <time>2016-01-10T12:04:03Z</time>
      </trkpt>
      <trkpt lat="43.97918" lon="5.13317">
        <ele>302.95</ele>
        <time>2016-01-10T12:04:19Z</time>
      </trkpt>
      <trkpt lat="43.97918" lon="5.13318">
        <ele>302.95</ele>
        <time>2016-01-10T12:04:35Z</time>
      </trkpt>
      <trkpt lat="43.97918" lon="5.13318">
        <ele>302.95</ele>
        <time>2016-01-10T12:04:43Z</time>
      </trkpt>
      <trkpt lat="43.97918" lon="5.13318">
        <ele>302.95</ele>
        <time>2016-01-10T12:04:59Z</time>
      </trkpt>
      <trkpt lat="43.97917" lon="5.13318">
        <ele>302.95</ele>
        <time>2016-01-10T12:05:14Z</time>
      </trkpt>
      <trkpt lat="43.97917" lon="5.13318">
        <ele>303.43</ele>
        <time>2016-01-10T12:05:34Z</time>
      </trkpt>
      <trkpt lat="43.97917" lon="5.13318">
        <ele>303.91</ele>
        <time>2016-01-10T12:05:51Z</time>
      </trkpt>
      <trkpt lat="43.97918" lon="5.13318">
        <ele>303.91</ele>
        <time>2016-01-10T12:05:59Z</time>
      </trkpt>
      <trkpt lat="43.97918" lon="5.13319">
        <ele>303.91</ele>
        <time>2016-01-10T12:06:00Z</time>
      </trkpt>
      <trkpt lat="43.97919" lon="5.1332">
        <ele>303.91</ele>
        <time>2016-01-10T12:06:01Z</time>
      </trkpt>
      <trkpt lat="43.9792" lon="5.13319">
        <ele>303.91</ele>
        <time>2016-01-10T12:06:02Z</time>
      </trkpt>
      <trkpt lat="43.9792" lon="5.13317">
        <ele>303.91</ele>
        <time>2016-01-10T12:06:03Z</time>
      </trkpt>
      <trkpt lat="43.9792" lon="5.13315">
        <ele>303.91</ele>
        <time>2016-01-10T12:06:04Z</time>
      </trkpt>
      <trkpt lat="43.97919" lon="5.13315">
        <ele>303.91</ele>
        <time>2016-01-10T12:06:05Z</time>
      </trkpt>
      <trkpt lat="43.97912" lon="5.13317">
        <ele>304.39</ele>
        <time>2016-01-10T12:06:11Z</time>
      </trkpt>
      <trkpt lat="43.97898" lon="5.13319">
        <ele>303.43</ele>
        <time>2016-01-10T12:06:17Z</time>
      </trkpt>
      <trkpt lat="43.97871" lon="5.13325">
        <ele>302.95</ele>
        <time>2016-01-10T12:06:25Z</time>
      </trkpt>
      <trkpt lat="43.97859" lon="5.13327">
        <ele>302.95</ele>
        <time>2016-01-10T12:06:28Z</time>
      </trkpt>
      <trkpt lat="43.97855" lon="5.13328">
        <ele>302.47</ele>
        <time>2016-01-10T12:06:29Z</time>
      </trkpt>
      <trkpt lat="43.97851" lon="5.13328">
        <ele>302.47</ele>
        <time>2016-01-10T12:06:30Z</time>
      </trkpt>
      <trkpt lat="43.97847" lon="5.13329">
        <ele>302.47</ele>
        <time>2016-01-10T12:06:31Z</time>
      </trkpt>
      <trkpt lat="43.97843" lon="5.1333">
        <ele>301.99</ele>
        <time>2016-01-10T12:06:32Z</time>
      </trkpt>
      <trkpt lat="43.97825" lon="5.13335">
        <ele>301.99</ele>
        <time>2016-01-10T12:06:36Z</time>
      </trkpt>
      <trkpt lat="43.97802" lon="5.13345">
        <ele>301.03</ele>
        <time>2016-01-10T12:06:41Z</time>
      </trkpt>
      <trkpt lat="43.97797" lon="5.13347">
        <ele>301.03</ele>
        <time>2016-01-10T12:06:42Z</time>
      </trkpt>
      <trkpt lat="43.97761" lon="5.13359">
        <ele>299.59</ele>
        <time>2016-01-10T12:06:49Z</time>
      </trkpt>
      <trkpt lat="43.97751" lon="5.13364">
        <ele>299.11</ele>
        <time>2016-01-10T12:06:51Z</time>
      </trkpt>
      <trkpt lat="43.97737" lon="5.13373">
        <ele>298.63</ele>
        <time>2016-01-10T12:06:54Z</time>
      </trkpt>
      <trkpt lat="43.97733" lon="5.13377">
        <ele>298.63</ele>
        <time>2016-01-10T12:06:55Z</time>
      </trkpt>
      <trkpt lat="43.97729" lon="5.13382">
        <ele>299.11</ele>
        <time>2016-01-10T12:06:56Z</time>
      </trkpt>
      <trkpt lat="43.97709" lon="5.1341">
        <ele>299.11</ele>
        <time>2016-01-10T12:07:03Z</time>
      </trkpt>
      <trkpt lat="43.97696" lon="5.1343">
        <ele>299.59</ele>
        <time>2016-01-10T12:07:10Z</time>
      </trkpt>
      <trkpt lat="43.97688" lon="5.13449">
        <ele>299.59</ele>
        <time>2016-01-10T12:07:16Z</time>
      </trkpt>
      <trkpt lat="43.9768" lon="5.13461">
        <ele>300.07</ele>
        <time>2016-01-10T12:07:20Z</time>
      </trkpt>
      <trkpt lat="43.97676" lon="5.13462">
        <ele>300.07</ele>
        <time>2016-01-10T12:07:21Z</time>
      </trkpt>
      <trkpt lat="43.97672" lon="5.13462">
        <ele>300.07</ele>
        <time>2016-01-10T12:07:22Z</time>
      </trkpt>
      <trkpt lat="43.97667" lon="5.13462">
        <ele>299.59</ele>
        <time>2016-01-10T12:07:23Z</time>
      </trkpt>
      <trkpt lat="43.97664" lon="5.13461">
        <ele>299.59</ele>
        <time>2016-01-10T12:07:24Z</time>
      </trkpt>
      <trkpt lat="43.97661" lon="5.13459">
        <ele>299.59</ele>
        <time>2016-01-10T12:07:25Z</time>
      </trkpt>
      <trkpt lat="43.97658" lon="5.13458">
        <ele>299.11</ele>
        <time>2016-01-10T12:07:26Z</time>
      </trkpt>
      <trkpt lat="43.97655" lon="5.13456">
        <ele>299.11</ele>
        <time>2016-01-10T12:07:27Z</time>
      </trkpt>
      <trkpt lat="43.97652" lon="5.13453">
        <ele>299.11</ele>
        <time>2016-01-10T12:07:28Z</time>
      </trkpt>
      <trkpt lat="43.97652" lon="5.13449">
        <ele>298.63</ele>
        <time>2016-01-10T12:07:29Z</time>
      </trkpt>
      <trkpt lat="43.97652" lon="5.13444">
        <ele>298.63</ele>
        <time>2016-01-10T12:07:30Z</time>
      </trkpt>
      <trkpt lat="43.97652" lon="5.13438">
        <ele>298.15</ele>
        <time>2016-01-10T12:07:31Z</time>
      </trkpt>
      <trkpt lat="43.97652" lon="5.13426">
        <ele>297.67</ele>
        <time>2016-01-10T12:07:33Z</time>
      </trkpt>
      <trkpt lat="43.97652" lon="5.13421">
        <ele>298.15</ele>
        <time>2016-01-10T12:07:34Z</time>
      </trkpt>
      <trkpt lat="43.97651" lon="5.13419">
        <ele>298.63</ele>
        <time>2016-01-10T12:07:37Z</time>
      </trkpt>
      <trkpt lat="43.97651" lon="5.13419">
        <ele>298.63</ele>
        <time>2016-01-10T12:07:48Z</time>
      </trkpt>
      <trkpt lat="43.97651" lon="5.13418">
        <ele>298.63</ele>
        <time>2016-01-10T12:08:03Z</time>
      </trkpt>
      <trkpt lat="43.9765" lon="5.13418">
        <ele>298.63</ele>
        <time>2016-01-10T12:08:16Z</time>
      </trkpt>
      <trkpt lat="43.97651" lon="5.13418">
        <ele>298.63</ele>
        <time>2016-01-10T12:08:33Z</time>
      </trkpt>
      <trkpt lat="43.97649" lon="5.13417">
        <ele>299.11</ele>
        <time>2016-01-10T12:08:42Z</time>
      </trkpt>
      <trkpt lat="43.97647" lon="5.13419">
        <ele>299.11</ele>
        <time>2016-01-10T12:08:44Z</time>
      </trkpt>
      <trkpt lat="43.97646" lon="5.1342">
        <ele>299.11</ele>
        <time>2016-01-10T12:08:45Z</time>
      </trkpt>
      <trkpt lat="43.97645" lon="5.13421">
        <ele>299.11</ele>
        <time>2016-01-10T12:08:46Z</time>
      </trkpt>
      <trkpt lat="43.97643" lon="5.13423">
        <ele>299.59</ele>
        <time>2016-01-10T12:08:47Z</time>
      </trkpt>
      <trkpt lat="43.97642" lon="5.13424">
        <ele>299.59</ele>
        <time>2016-01-10T12:08:48Z</time>
      </trkpt>
      <trkpt lat="43.9764" lon="5.13425">
        <ele>299.59</ele>
        <time>2016-01-10T12:08:49Z</time>
      </trkpt>
      <trkpt lat="43.97639" lon="5.13426">
        <ele>300.07</ele>
        <time>2016-01-10T12:08:50Z</time>
      </trkpt>
      <trkpt lat="43.97638" lon="5.13427">
        <ele>300.55</ele>
        <time>2016-01-10T12:08:51Z</time>
      </trkpt>
      <trkpt lat="43.97637" lon="5.13429">
        <ele>300.55</ele>
        <time>2016-01-10T12:08:52Z</time>
      </trkpt>
      <trkpt lat="43.97636" lon="5.1343">
        <ele>300.55</ele>
        <time>2016-01-10T12:08:53Z</time>
      </trkpt>
      <trkpt lat="43.97636" lon="5.13431">
        <ele>301.03</ele>
        <time>2016-01-10T12:08:54Z</time>
      </trkpt>
      <trkpt lat="43.97627" lon="5.1344">
        <ele>301.99</ele>
        <time>2016-01-10T12:08:59Z</time>
      </trkpt>
      <trkpt lat="43.9762" lon="5.13449">
        <ele>302.95</ele>
        <time>2016-01-10T12:09:03Z</time>
      </trkpt>
      <trkpt lat="43.97619" lon="5.13452">
        <ele>302.95</ele>
        <time>2016-01-10T12:09:04Z</time>
      </trkpt>
      <trkpt lat="43.97618" lon="5.13454">
        <ele>302.95</ele>
        <time>2016-01-10T12:09:05Z</time>
      </trkpt>
      <trkpt lat="43.97617" lon="5.13456">
        <ele>303.43</ele>
        <time>2016-01-10T12:09:06Z</time>
      </trkpt>
      <trkpt lat="43.97616" lon="5.13458">
        <ele>303.43</ele>
        <time>2016-01-10T12:09:07Z</time>
      </trkpt>
      <trkpt lat="43.97615" lon="5.1346">
        <ele>303.91</ele>
        <time>2016-01-10T12:09:08Z</time>
      </trkpt>
      <trkpt lat="43.97607" lon="5.13479">
        <ele>305.84</ele>
        <time>2016-01-10T12:09:16Z</time>
      </trkpt>
      <trkpt lat="43.97598" lon="5.13495">
        <ele>307.76</ele>
        <time>2016-01-10T12:09:23Z</time>
      </trkpt>
      <trkpt lat="43.97589" lon="5.13514">
        <ele>310.16</ele>
        <time>2016-01-10T12:09:30Z</time>
      </trkpt>
      <trkpt lat="43.97585" lon="5.13523">
        <ele>311.6</ele>
        <time>2016-01-10T12:09:34Z</time>
      </trkpt>
      <trkpt lat="43.97584" lon="5.13525">
        <ele>311.6</ele>
        <time>2016-01-10T12:09:35Z</time>
      </trkpt>
      <trkpt lat="43.97583" lon="5.13528">
        <ele>312.09</ele>
        <time>2016-01-10T12:09:36Z</time>
      </trkpt>
      <trkpt lat="43.97577" lon="5.13545">
        <ele>314.49</ele>
        <time>2016-01-10T12:09:43Z</time>
      </trkpt>
      <trkpt lat="43.97569" lon="5.13562">
        <ele>315.93</ele>
        <time>2016-01-10T12:09:51Z</time>
      </trkpt>
      <trkpt lat="43.97562" lon="5.13577">
        <ele>317.37</ele>
        <time>2016-01-10T12:09:58Z</time>
      </trkpt>
      <trkpt lat="43.9756" lon="5.13579">
        <ele>317.37</ele>
        <time>2016-01-10T12:09:59Z</time>
      </trkpt>
      <trkpt lat="43.97558" lon="5.13581">
        <ele>317.85</ele>
        <time>2016-01-10T12:10:00Z</time>
      </trkpt>
      <trkpt lat="43.97557" lon="5.13583">
        <ele>318.33</ele>
        <time>2016-01-10T12:10:01Z</time>
      </trkpt>
      <trkpt lat="43.97555" lon="5.13585">
        <ele>318.33</ele>
        <time>2016-01-10T12:10:02Z</time>
      </trkpt>
      <trkpt lat="43.97554" lon="5.13588">
        <ele>318.33</ele>
        <time>2016-01-10T12:10:03Z</time>
      </trkpt>
      <trkpt lat="43.97552" lon="5.13589">
        <ele>318.81</ele>
        <time>2016-01-10T12:10:04Z</time>
      </trkpt>
      <trkpt lat="43.9755" lon="5.13591">
        <ele>318.81</ele>
        <time>2016-01-10T12:10:05Z</time>
      </trkpt>
      <trkpt lat="43.97543" lon="5.13603">
        <ele>320.26</ele>
        <time>2016-01-10T12:10:12Z</time>
      </trkpt>
      <trkpt lat="43.9754" lon="5.13607">
        <ele>321.22</ele>
        <time>2016-01-10T12:10:14Z</time>
      </trkpt>
      <trkpt lat="43.97539" lon="5.13608">
        <ele>321.22</ele>
        <time>2016-01-10T12:10:15Z</time>
      </trkpt>
      <trkpt lat="43.97539" lon="5.1361">
        <ele>321.22</ele>
        <time>2016-01-10T12:10:16Z</time>
      </trkpt>
      <trkpt lat="43.97538" lon="5.13612">
        <ele>321.7</ele>
        <time>2016-01-10T12:10:17Z</time>
      </trkpt>
      <trkpt lat="43.97536" lon="5.13614">
        <ele>321.7</ele>
        <time>2016-01-10T12:10:18Z</time>
      </trkpt>
      <trkpt lat="43.97535" lon="5.13615">
        <ele>322.18</ele>
        <time>2016-01-10T12:10:23Z</time>
      </trkpt>
      <trkpt lat="43.97529" lon="5.13622">
        <ele>323.62</ele>
        <time>2016-01-10T12:10:29Z</time>
      </trkpt>
      <trkpt lat="43.9752" lon="5.13633">
        <ele>326.02</ele>
        <time>2016-01-10T12:10:37Z</time>
      </trkpt>
      <trkpt lat="43.97519" lon="5.13635">
        <ele>326.02</ele>
        <time>2016-01-10T12:10:38Z</time>
      </trkpt>
      <trkpt lat="43.97518" lon="5.13637">
        <ele>326.5</ele>
        <time>2016-01-10T12:10:39Z</time>
      </trkpt>
      <trkpt lat="43.9751" lon="5.13647">
        <ele>328.43</ele>
        <time>2016-01-10T12:10:47Z</time>
      </trkpt>
      <trkpt lat="43.97509" lon="5.13648">
        <ele>328.91</ele>
        <time>2016-01-10T12:10:48Z</time>
      </trkpt>
      <trkpt lat="43.97507" lon="5.13649">
        <ele>328.91</ele>
        <time>2016-01-10T12:10:49Z</time>
      </trkpt>
      <trkpt lat="43.97506" lon="5.1365">
        <ele>329.39</ele>
        <time>2016-01-10T12:10:50Z</time>
      </trkpt>
      <trkpt lat="43.97505" lon="5.13651">
        <ele>329.39</ele>
        <time>2016-01-10T12:10:51Z</time>
      </trkpt>
      <trkpt lat="43.97504" lon="5.13652">
        <ele>329.87</ele>
        <time>2016-01-10T12:10:52Z</time>
      </trkpt>
      <trkpt lat="43.97503" lon="5.13654">
        <ele>330.35</ele>
        <time>2016-01-10T12:10:53Z</time>
      </trkpt>
      <trkpt lat="43.97502" lon="5.13656">
        <ele>330.83</ele>
        <time>2016-01-10T12:10:54Z</time>
      </trkpt>
      <trkpt lat="43.97501" lon="5.13656">
        <ele>330.83</ele>
        <time>2016-01-10T12:10:55Z</time>
      </trkpt>
      <trkpt lat="43.97499" lon="5.13657">
        <ele>331.31</ele>
        <time>2016-01-10T12:10:56Z</time>
      </trkpt>
      <trkpt lat="43.97498" lon="5.13657">
        <ele>331.79</ele>
        <time>2016-01-10T12:10:57Z</time>
      </trkpt>
      <trkpt lat="43.97495" lon="5.13658">
        <ele>332.27</ele>
        <time>2016-01-10T12:10:59Z</time>
      </trkpt>
      <trkpt lat="43.97485" lon="5.13662">
        <ele>334.2</ele>
        <time>2016-01-10T12:11:06Z</time>
      </trkpt>
      <trkpt lat="43.97484" lon="5.13663">
        <ele>334.68</ele>
        <time>2016-01-10T12:11:07Z</time>
      </trkpt>
      <trkpt lat="43.97482" lon="5.13664">
        <ele>335.16</ele>
        <time>2016-01-10T12:11:08Z</time>
      </trkpt>
      <trkpt lat="43.97481" lon="5.13665">
        <ele>335.16</ele>
        <time>2016-01-10T12:11:09Z</time>
      </trkpt>
      <trkpt lat="43.9748" lon="5.13666">
        <ele>335.64</ele>
        <time>2016-01-10T12:11:10Z</time>
      </trkpt>
      <trkpt lat="43.97476" lon="5.1367">
        <ele>336.12</ele>
        <time>2016-01-10T12:11:13Z</time>
      </trkpt>
      <trkpt lat="43.97475" lon="5.1367">
        <ele>337.08</ele>
        <time>2016-01-10T12:11:14Z</time>
      </trkpt>
      <trkpt lat="43.97473" lon="5.13671">
        <ele>337.08</ele>
        <time>2016-01-10T12:11:15Z</time>
      </trkpt>
      <trkpt lat="43.97472" lon="5.13672">
        <ele>337.56</ele>
        <time>2016-01-10T12:11:16Z</time>
      </trkpt>
      <trkpt lat="43.97471" lon="5.13673">
        <ele>337.56</ele>
        <time>2016-01-10T12:11:17Z</time>
      </trkpt>
      <trkpt lat="43.97466" lon="5.13678">
        <ele>339</ele>
        <time>2016-01-10T12:11:23Z</time>
      </trkpt>
      <trkpt lat="43.9746" lon="5.13682">
        <ele>339.96</ele>
        <time>2016-01-10T12:11:28Z</time>
      </trkpt>
      <trkpt lat="43.97459" lon="5.13682">
        <ele>340.44</ele>
        <time>2016-01-10T12:11:29Z</time>
      </trkpt>
      <trkpt lat="43.97457" lon="5.13683">
        <ele>341.41</ele>
        <time>2016-01-10T12:11:35Z</time>
      </trkpt>
      <trkpt lat="43.97458" lon="5.13682">
        <ele>340.92</ele>
        <time>2016-01-10T12:11:46Z</time>
      </trkpt>
      <trkpt lat="43.97455" lon="5.13683">
        <ele>341.89</ele>
        <time>2016-01-10T12:11:53Z</time>
      </trkpt>
      <trkpt lat="43.97451" lon="5.13683">
        <ele>342.85</ele>
        <time>2016-01-10T12:12:01Z</time>
      </trkpt>
      <trkpt lat="43.97448" lon="5.13685">
        <ele>343.33</ele>
        <time>2016-01-10T12:12:06Z</time>
      </trkpt>
      <trkpt lat="43.97443" lon="5.13684">
        <ele>344.77</ele>
        <time>2016-01-10T12:12:11Z</time>
      </trkpt>
      <trkpt lat="43.97442" lon="5.13684">
        <ele>345.25</ele>
        <time>2016-01-10T12:12:12Z</time>
      </trkpt>
      <trkpt lat="43.9744" lon="5.13683">
        <ele>345.25</ele>
        <time>2016-01-10T12:12:13Z</time>
      </trkpt>
      <trkpt lat="43.97426" lon="5.13683">
        <ele>347.65</ele>
        <time>2016-01-10T12:12:22Z</time>
      </trkpt>
      <trkpt lat="43.97416" lon="5.13684">
        <ele>349.58</ele>
        <time>2016-01-10T12:12:29Z</time>
      </trkpt>
      <trkpt lat="43.97411" lon="5.13686">
        <ele>350.54</ele>
        <time>2016-01-10T12:12:33Z</time>
      </trkpt>
      <trkpt lat="43.9741" lon="5.13686">
        <ele>350.54</ele>
        <time>2016-01-10T12:12:34Z</time>
      </trkpt>
      <trkpt lat="43.97408" lon="5.13687">
        <ele>351.02</ele>
        <time>2016-01-10T12:12:36Z</time>
      </trkpt>
      <trkpt lat="43.97407" lon="5.13688">
        <ele>351.02</ele>
        <time>2016-01-10T12:12:37Z</time>
      </trkpt>
      <trkpt lat="43.97405" lon="5.13688">
        <ele>351.5</ele>
        <time>2016-01-10T12:12:38Z</time>
      </trkpt>
      <trkpt lat="43.97402" lon="5.13688">
        <ele>351.98</ele>
        <time>2016-01-10T12:12:40Z</time>
      </trkpt>
      <trkpt lat="43.97401" lon="5.13689">
        <ele>352.46</ele>
        <time>2016-01-10T12:12:41Z</time>
      </trkpt>
      <trkpt lat="43.974" lon="5.1369">
        <ele>352.46</ele>
        <time>2016-01-10T12:12:42Z</time>
      </trkpt>
      <trkpt lat="43.97398" lon="5.13691">
        <ele>352.94</ele>
        <time>2016-01-10T12:12:43Z</time>
      </trkpt>
      <trkpt lat="43.97397" lon="5.13691">
        <ele>352.94</ele>
        <time>2016-01-10T12:12:44Z</time>
      </trkpt>
      <trkpt lat="43.97396" lon="5.13692">
        <ele>353.42</ele>
        <time>2016-01-10T12:12:45Z</time>
      </trkpt>
      <trkpt lat="43.97394" lon="5.13692">
        <ele>353.42</ele>
        <time>2016-01-10T12:12:46Z</time>
      </trkpt>
      <trkpt lat="43.97393" lon="5.13693">
        <ele>353.42</ele>
        <time>2016-01-10T12:12:47Z</time>
      </trkpt>
      <trkpt lat="43.97392" lon="5.13693">
        <ele>353.9</ele>
        <time>2016-01-10T12:12:48Z</time>
      </trkpt>
      <trkpt lat="43.9739" lon="5.13694">
        <ele>354.38</ele>
        <time>2016-01-10T12:12:49Z</time>
      </trkpt>
      <trkpt lat="43.97389" lon="5.13694">
        <ele>354.38</ele>
        <time>2016-01-10T12:12:50Z</time>
      </trkpt>
      <trkpt lat="43.97387" lon="5.13694">
        <ele>354.38</ele>
        <time>2016-01-10T12:12:51Z</time>
      </trkpt>
      <trkpt lat="43.97386" lon="5.13695">
        <ele>354.86</ele>
        <time>2016-01-10T12:12:52Z</time>
      </trkpt>
      <trkpt lat="43.97385" lon="5.13696">
        <ele>354.86</ele>
        <time>2016-01-10T12:12:53Z</time>
      </trkpt>
      <trkpt lat="43.97384" lon="5.13696">
        <ele>355.34</ele>
        <time>2016-01-10T12:12:54Z</time>
      </trkpt>
      <trkpt lat="43.9738" lon="5.13697">
        <ele>356.31</ele>
        <time>2016-01-10T12:12:58Z</time>
      </trkpt>
      <trkpt lat="43.97378" lon="5.13698">
        <ele>356.79</ele>
        <time>2016-01-10T12:12:59Z</time>
      </trkpt>
      <trkpt lat="43.97377" lon="5.13698">
        <ele>356.79</ele>
        <time>2016-01-10T12:13:00Z</time>
      </trkpt>
      <trkpt lat="43.97376" lon="5.13699">
        <ele>357.27</ele>
        <time>2016-01-10T12:13:01Z</time>
      </trkpt>
      <trkpt lat="43.97374" lon="5.13699">
        <ele>357.27</ele>
        <time>2016-01-10T12:13:02Z</time>
      </trkpt>
      <trkpt lat="43.97373" lon="5.13699">
        <ele>357.75</ele>
        <time>2016-01-10T12:13:03Z</time>
      </trkpt>
      <trkpt lat="43.97371" lon="5.13699">
        <ele>357.75</ele>
        <time>2016-01-10T12:13:04Z</time>
      </trkpt>
      <trkpt lat="43.9737" lon="5.137">
        <ele>357.75</ele>
        <time>2016-01-10T12:13:05Z</time>
      </trkpt>
      <trkpt lat="43.97368" lon="5.137">
        <ele>358.23</ele>
        <time>2016-01-10T12:13:06Z</time>
      </trkpt>
      <trkpt lat="43.97367" lon="5.137">
        <ele>358.23</ele>
        <time>2016-01-10T12:13:07Z</time>
      </trkpt>
      <trkpt lat="43.97365" lon="5.13701">
        <ele>358.71</ele>
        <time>2016-01-10T12:13:08Z</time>
      </trkpt>
      <trkpt lat="43.97364" lon="5.13701">
        <ele>358.71</ele>
        <time>2016-01-10T12:13:09Z</time>
      </trkpt>
      <trkpt lat="43.97363" lon="5.13702">
        <ele>358.71</ele>
        <time>2016-01-10T12:13:10Z</time>
      </trkpt>
      <trkpt lat="43.97361" lon="5.13702">
        <ele>358.71</ele>
        <time>2016-01-10T12:13:11Z</time>
      </trkpt>
      <trkpt lat="43.9736" lon="5.13703">
        <ele>359.19</ele>
        <time>2016-01-10T12:13:12Z</time>
      </trkpt>
      <trkpt lat="43.97358" lon="5.13703">
        <ele>359.19</ele>
        <time>2016-01-10T12:13:13Z</time>
      </trkpt>
      <trkpt lat="43.97344" lon="5.13705">
        <ele>361.11</ele>
        <time>2016-01-10T12:13:21Z</time>
      </trkpt>
      <trkpt lat="43.97339" lon="5.13707">
        <ele>362.07</ele>
        <time>2016-01-10T12:13:24Z</time>
      </trkpt>
      <trkpt lat="43.97338" lon="5.13707">
        <ele>362.07</ele>
        <time>2016-01-10T12:13:25Z</time>
      </trkpt>
      <trkpt lat="43.97336" lon="5.13708">
        <ele>362.55</ele>
        <time>2016-01-10T12:13:26Z</time>
      </trkpt>
      <trkpt lat="43.97335" lon="5.13708">
        <ele>362.55</ele>
        <time>2016-01-10T12:13:27Z</time>
      </trkpt>
      <trkpt lat="43.97334" lon="5.13708">
        <ele>363.04</ele>
        <time>2016-01-10T12:13:28Z</time>
      </trkpt>
      <trkpt lat="43.97333" lon="5.13708">
        <ele>363.04</ele>
        <time>2016-01-10T12:13:29Z</time>
      </trkpt>
      <trkpt lat="43.97331" lon="5.13708">
        <ele>363.52</ele>
        <time>2016-01-10T12:13:30Z</time>
      </trkpt>
      <trkpt lat="43.97329" lon="5.13707">
        <ele>363.52</ele>
        <time>2016-01-10T12:13:31Z</time>
      </trkpt>
      <trkpt lat="43.97328" lon="5.13707">
        <ele>363.52</ele>
        <time>2016-01-10T12:13:32Z</time>
      </trkpt>
      <trkpt lat="43.97326" lon="5.13707">
        <ele>364</ele>
        <time>2016-01-10T12:13:33Z</time>
      </trkpt>
      <trkpt lat="43.97323" lon="5.13707">
        <ele>364.48</ele>
        <time>2016-01-10T12:13:35Z</time>
      </trkpt>
      <trkpt lat="43.9732" lon="5.13709">
        <ele>364.96</ele>
        <time>2016-01-10T12:13:37Z</time>
      </trkpt>
      <trkpt lat="43.97317" lon="5.13709">
        <ele>364.96</ele>
        <time>2016-01-10T12:13:39Z</time>
      </trkpt>
      <trkpt lat="43.97306" lon="5.13713">
        <ele>366.4</ele>
        <time>2016-01-10T12:13:47Z</time>
      </trkpt>
      <trkpt lat="43.97296" lon="5.13717">
        <ele>367.36</ele>
        <time>2016-01-10T12:13:54Z</time>
      </trkpt>
      <trkpt lat="43.9729" lon="5.1372">
        <ele>367.84</ele>
        <time>2016-01-10T12:13:59Z</time>
      </trkpt>
      <trkpt lat="43.97284" lon="5.13727">
        <ele>368.8</ele>
        <time>2016-01-10T12:14:06Z</time>
      </trkpt>
      <trkpt lat="43.97282" lon="5.13732">
        <ele>368.8</ele>
        <time>2016-01-10T12:14:11Z</time>
      </trkpt>
      <trkpt lat="43.97281" lon="5.13732">
        <ele>368.8</ele>
        <time>2016-01-10T12:14:23Z</time>
      </trkpt>
      <trkpt lat="43.9728" lon="5.13733">
        <ele>368.8</ele>
        <time>2016-01-10T12:14:38Z</time>
      </trkpt>
      <trkpt lat="43.9728" lon="5.13733">
        <ele>368.8</ele>
        <time>2016-01-10T12:14:55Z</time>
      </trkpt>
      <trkpt lat="43.9728" lon="5.13733">
        <ele>368.8</ele>
        <time>2016-01-10T12:15:14Z</time>
      </trkpt>
      <trkpt lat="43.9728" lon="5.13733">
        <ele>368.8</ele>
        <time>2016-01-10T12:15:35Z</time>
      </trkpt>
      <trkpt lat="43.9728" lon="5.13733">
        <ele>368.8</ele>
        <time>2016-01-10T12:15:56Z</time>
      </trkpt>
      <trkpt lat="43.97279" lon="5.13733">
        <ele>368.8</ele>
        <time>2016-01-10T12:16:15Z</time>
      </trkpt>
      <trkpt lat="43.97279" lon="5.13733">
        <ele>368.8</ele>
        <time>2016-01-10T12:16:22Z</time>
      </trkpt>
      <trkpt lat="43.9728" lon="5.13732">
        <ele>368.8</ele>
        <time>2016-01-10T12:16:32Z</time>
      </trkpt>
      <trkpt lat="43.97278" lon="5.13731">
        <ele>368.8</ele>
        <time>2016-01-10T12:16:35Z</time>
      </trkpt>
      <trkpt lat="43.97277" lon="5.13729">
        <ele>369.28</ele>
        <time>2016-01-10T12:16:36Z</time>
      </trkpt>
      <trkpt lat="43.97277" lon="5.13728">
        <ele>369.28</ele>
        <time>2016-01-10T12:16:37Z</time>
      </trkpt>
      <trkpt lat="43.97275" lon="5.13728">
        <ele>369.28</ele>
        <time>2016-01-10T12:16:38Z</time>
      </trkpt>
      <trkpt lat="43.97274" lon="5.13727">
        <ele>369.76</ele>
        <time>2016-01-10T12:16:39Z</time>
      </trkpt>
      <trkpt lat="43.97272" lon="5.13728">
        <ele>370.24</ele>
        <time>2016-01-10T12:16:41Z</time>
      </trkpt>
      <trkpt lat="43.97271" lon="5.13728">
        <ele>370.24</ele>
        <time>2016-01-10T12:16:42Z</time>
      </trkpt>
      <trkpt lat="43.97269" lon="5.13729">
        <ele>370.73</ele>
        <time>2016-01-10T12:16:43Z</time>
      </trkpt>
      <trkpt lat="43.97258" lon="5.1373">
        <ele>372.17</ele>
        <time>2016-01-10T12:16:51Z</time>
      </trkpt>
      <trkpt lat="43.97255" lon="5.1373">
        <ele>372.65</ele>
        <time>2016-01-10T12:16:53Z</time>
      </trkpt>
      <trkpt lat="43.97252" lon="5.13731">
        <ele>373.13</ele>
        <time>2016-01-10T12:16:55Z</time>
      </trkpt>
      <trkpt lat="43.9725" lon="5.1373">
        <ele>373.13</ele>
        <time>2016-01-10T12:16:56Z</time>
      </trkpt>
      <trkpt lat="43.97248" lon="5.13731">
        <ele>373.61</ele>
        <time>2016-01-10T12:16:57Z</time>
      </trkpt>
      <trkpt lat="43.97247" lon="5.13731">
        <ele>374.09</ele>
        <time>2016-01-10T12:16:58Z</time>
      </trkpt>
      <trkpt lat="43.97245" lon="5.13731">
        <ele>374.09</ele>
        <time>2016-01-10T12:16:59Z</time>
      </trkpt>
      <trkpt lat="43.97237" lon="5.13735">
        <ele>375.53</ele>
        <time>2016-01-10T12:17:04Z</time>
      </trkpt>
      <trkpt lat="43.97236" lon="5.13735">
        <ele>375.53</ele>
        <time>2016-01-10T12:17:05Z</time>
      </trkpt>
      <trkpt lat="43.97234" lon="5.13735">
        <ele>376.01</ele>
        <time>2016-01-10T12:17:06Z</time>
      </trkpt>
      <trkpt lat="43.97233" lon="5.13736">
        <ele>376.49</ele>
        <time>2016-01-10T12:17:07Z</time>
      </trkpt>
      <trkpt lat="43.97231" lon="5.13737">
        <ele>376.97</ele>
        <time>2016-01-10T12:17:08Z</time>
      </trkpt>
      <trkpt lat="43.97226" lon="5.13738">
        <ele>378.42</ele>
        <time>2016-01-10T12:17:13Z</time>
      </trkpt>
      <trkpt lat="43.97223" lon="5.13739">
        <ele>378.9</ele>
        <time>2016-01-10T12:17:15Z</time>
      </trkpt>
      <trkpt lat="43.97222" lon="5.13739">
        <ele>378.9</ele>
        <time>2016-01-10T12:17:16Z</time>
      </trkpt>
      <trkpt lat="43.97221" lon="5.13739">
        <ele>379.38</ele>
        <time>2016-01-10T12:17:17Z</time>
      </trkpt>
      <trkpt lat="43.9722" lon="5.13739">
        <ele>379.86</ele>
        <time>2016-01-10T12:17:18Z</time>
      </trkpt>
      <trkpt lat="43.97219" lon="5.13738">
        <ele>379.86</ele>
        <time>2016-01-10T12:17:19Z</time>
      </trkpt>
      <trkpt lat="43.97217" lon="5.13738">
        <ele>380.34</ele>
        <time>2016-01-10T12:17:20Z</time>
      </trkpt>
      <trkpt lat="43.97206" lon="5.13738">
        <ele>381.78</ele>
        <time>2016-01-10T12:17:28Z</time>
      </trkpt>
      <trkpt lat="43.97206" lon="5.13741">
        <ele>382.26</ele>
        <time>2016-01-10T12:17:32Z</time>
      </trkpt>
      <trkpt lat="43.97204" lon="5.13741">
        <ele>383.22</ele>
        <time>2016-01-10T12:17:38Z</time>
      </trkpt>
      <trkpt lat="43.97201" lon="5.13739">
        <ele>383.7</ele>
        <time>2016-01-10T12:17:43Z</time>
      </trkpt>
      <trkpt lat="43.97194" lon="5.13741">
        <ele>385.15</ele>
        <time>2016-01-10T12:17:50Z</time>
      </trkpt>
      <trkpt lat="43.97187" lon="5.1374">
        <ele>386.11</ele>
        <time>2016-01-10T12:17:56Z</time>
      </trkpt>
      <trkpt lat="43.97185" lon="5.1374">
        <ele>386.59</ele>
        <time>2016-01-10T12:17:58Z</time>
      </trkpt>
      <trkpt lat="43.97184" lon="5.13741">
        <ele>386.59</ele>
        <time>2016-01-10T12:18:03Z</time>
      </trkpt>
      <trkpt lat="43.97183" lon="5.1374">
        <ele>387.07</ele>
        <time>2016-01-10T12:18:11Z</time>
      </trkpt>
      <trkpt lat="43.97182" lon="5.13739">
        <ele>387.07</ele>
        <time>2016-01-10T12:18:21Z</time>
      </trkpt>
      <trkpt lat="43.97177" lon="5.13738">
        <ele>388.99</ele>
        <time>2016-01-10T12:18:28Z</time>
      </trkpt>
      <trkpt lat="43.9717" lon="5.13737">
        <ele>389.95</ele>
        <time>2016-01-10T12:18:36Z</time>
      </trkpt>
      <trkpt lat="43.97163" lon="5.13739">
        <ele>390.91</ele>
        <time>2016-01-10T12:18:44Z</time>
      </trkpt>
      <trkpt lat="43.97159" lon="5.13745">
        <ele>392.84</ele>
        <time>2016-01-10T12:18:52Z</time>
      </trkpt>
      <trkpt lat="43.97157" lon="5.1375">
        <ele>393.8</ele>
        <time>2016-01-10T12:18:58Z</time>
      </trkpt>
      <trkpt lat="43.97155" lon="5.13753">
        <ele>394.76</ele>
        <time>2016-01-10T12:19:04Z</time>
      </trkpt>
      <trkpt lat="43.97155" lon="5.13754">
        <ele>395.24</ele>
        <time>2016-01-10T12:19:06Z</time>
      </trkpt>
      <trkpt lat="43.97151" lon="5.13754">
        <ele>395.72</ele>
        <time>2016-01-10T12:19:11Z</time>
      </trkpt>
      <trkpt lat="43.97147" lon="5.13755">
        <ele>396.68</ele>
        <time>2016-01-10T12:19:17Z</time>
      </trkpt>
      <trkpt lat="43.97147" lon="5.13756">
        <ele>397.16</ele>
        <time>2016-01-10T12:19:25Z</time>
      </trkpt>
      <trkpt lat="43.97147" lon="5.13756">
        <ele>397.16</ele>
        <time>2016-01-10T12:19:35Z</time>
      </trkpt>
      <trkpt lat="43.97147" lon="5.13757">
        <ele>397.16</ele>
        <time>2016-01-10T12:19:46Z</time>
      </trkpt>
      <trkpt lat="43.97147" lon="5.13757">
        <ele>396.68</ele>
        <time>2016-01-10T12:20:06Z</time>
      </trkpt>
      <trkpt lat="43.97147" lon="5.13757">
        <ele>396.68</ele>
        <time>2016-01-10T12:20:17Z</time>
      </trkpt>
      <trkpt lat="43.97144" lon="5.13754">
        <ele>397.64</ele>
        <time>2016-01-10T12:20:23Z</time>
      </trkpt>
      <trkpt lat="43.97139" lon="5.13751">
        <ele>399.08</ele>
        <time>2016-01-10T12:20:30Z</time>
      </trkpt>
      <trkpt lat="43.97136" lon="5.13752">
        <ele>399.08</ele>
        <time>2016-01-10T12:20:35Z</time>
      </trkpt>
      <trkpt lat="43.97134" lon="5.13753">
        <ele>399.08</ele>
        <time>2016-01-10T12:20:36Z</time>
      </trkpt>
      <trkpt lat="43.97133" lon="5.13754">
        <ele>399.08</ele>
        <time>2016-01-10T12:20:37Z</time>
      </trkpt>
      <trkpt lat="43.97131" lon="5.13756">
        <ele>399.57</ele>
        <time>2016-01-10T12:20:38Z</time>
      </trkpt>
      <trkpt lat="43.9713" lon="5.13758">
        <ele>400.05</ele>
        <time>2016-01-10T12:20:39Z</time>
      </trkpt>
      <trkpt lat="43.97128" lon="5.13759">
        <ele>399.57</ele>
        <time>2016-01-10T12:20:40Z</time>
      </trkpt>
      <trkpt lat="43.97127" lon="5.1376">
        <ele>400.05</ele>
        <time>2016-01-10T12:20:41Z</time>
      </trkpt>
      <trkpt lat="43.97126" lon="5.13762">
        <ele>400.05</ele>
        <time>2016-01-10T12:20:42Z</time>
      </trkpt>
      <trkpt lat="43.97125" lon="5.13764">
        <ele>401.01</ele>
        <time>2016-01-10T12:20:43Z</time>
      </trkpt>
      <trkpt lat="43.97122" lon="5.13767">
        <ele>401.49</ele>
        <time>2016-01-10T12:20:45Z</time>
      </trkpt>
      <trkpt lat="43.97119" lon="5.13777">
        <ele>402.93</ele>
        <time>2016-01-10T12:20:50Z</time>
      </trkpt>
      <trkpt lat="43.97122" lon="5.13782">
        <ele>403.89</ele>
        <time>2016-01-10T12:20:52Z</time>
      </trkpt>
      <trkpt lat="43.97127" lon="5.13793">
        <ele>405.33</ele>
        <time>2016-01-10T12:20:59Z</time>
      </trkpt>
      <trkpt lat="43.97128" lon="5.13793">
        <ele>404.85</ele>
        <time>2016-01-10T12:21:06Z</time>
      </trkpt>
      <trkpt lat="43.97126" lon="5.13793">
        <ele>404.85</ele>
        <time>2016-01-10T12:21:22Z</time>
      </trkpt>
      <trkpt lat="43.97127" lon="5.13795">
        <ele>404.85</ele>
        <time>2016-01-10T12:21:29Z</time>
      </trkpt>
      <trkpt lat="43.97127" lon="5.13795">
        <ele>404.37</ele>
        <time>2016-01-10T12:21:43Z</time>
      </trkpt>
      <trkpt lat="43.97127" lon="5.13796">
        <ele>404.37</ele>
        <time>2016-01-10T12:21:57Z</time>
      </trkpt>
      <trkpt lat="43.97127" lon="5.13796">
        <ele>404.37</ele>
        <time>2016-01-10T12:22:10Z</time>
      </trkpt>
      <trkpt lat="43.97128" lon="5.13797">
        <ele>404.37</ele>
        <time>2016-01-10T12:22:26Z</time>
      </trkpt>
      <trkpt lat="43.97128" lon="5.13797">
        <ele>404.37</ele>
        <time>2016-01-10T12:22:40Z</time>
      </trkpt>
      <trkpt lat="43.97128" lon="5.13798">
        <ele>403.89</ele>
        <time>2016-01-10T12:22:52Z</time>
      </trkpt>
      <trkpt lat="43.97129" lon="5.13801">
        <ele>404.37</ele>
        <time>2016-01-10T12:23:01Z</time>
      </trkpt>
      <trkpt lat="43.9713" lon="5.13802">
        <ele>404.37</ele>
        <time>2016-01-10T12:23:02Z</time>
      </trkpt>
      <trkpt lat="43.97131" lon="5.13805">
        <ele>403.89</ele>
        <time>2016-01-10T12:23:03Z</time>
      </trkpt>
      <trkpt lat="43.97141" lon="5.13822">
        <ele>404.37</ele>
        <time>2016-01-10T12:23:10Z</time>
      </trkpt>
      <trkpt lat="43.97155" lon="5.13843">
        <ele>404.85</ele>
        <time>2016-01-10T12:23:18Z</time>
      </trkpt>
      <trkpt lat="43.97165" lon="5.13858">
        <ele>405.33</ele>
        <time>2016-01-10T12:23:23Z</time>
      </trkpt>
      <trkpt lat="43.97167" lon="5.13862">
        <ele>405.81</ele>
        <time>2016-01-10T12:23:24Z</time>
      </trkpt>
      <trkpt lat="43.97168" lon="5.13866">
        <ele>405.81</ele>
        <time>2016-01-10T12:23:25Z</time>
      </trkpt>
      <trkpt lat="43.97169" lon="5.13871">
        <ele>405.81</ele>
        <time>2016-01-10T12:23:26Z</time>
      </trkpt>
      <trkpt lat="43.97168" lon="5.13876">
        <ele>406.29</ele>
        <time>2016-01-10T12:23:27Z</time>
      </trkpt>
      <trkpt lat="43.97166" lon="5.1388">
        <ele>406.77</ele>
        <time>2016-01-10T12:23:28Z</time>
      </trkpt>
      <trkpt lat="43.97164" lon="5.13884">
        <ele>407.26</ele>
        <time>2016-01-10T12:23:29Z</time>
      </trkpt>
      <trkpt lat="43.97162" lon="5.13886">
        <ele>407.74</ele>
        <time>2016-01-10T12:23:30Z</time>
      </trkpt>
      <trkpt lat="43.97149" lon="5.139">
        <ele>408.7</ele>
        <time>2016-01-10T12:23:36Z</time>
      </trkpt>
      <trkpt lat="43.97147" lon="5.13901">
        <ele>408.7</ele>
        <time>2016-01-10T12:23:37Z</time>
      </trkpt>
      <trkpt lat="43.97146" lon="5.13902">
        <ele>409.66</ele>
        <time>2016-01-10T12:23:40Z</time>
      </trkpt>
      <trkpt lat="43.97146" lon="5.13903">
        <ele>410.14</ele>
        <time>2016-01-10T12:23:46Z</time>
      </trkpt>
      <trkpt lat="43.97146" lon="5.13904">
        <ele>409.66</ele>
        <time>2016-01-10T12:23:53Z</time>
      </trkpt>
      <trkpt lat="43.97146" lon="5.13903">
        <ele>409.66</ele>
        <time>2016-01-10T12:24:02Z</time>
      </trkpt>
      <trkpt lat="43.97147" lon="5.13906">
        <ele>410.62</ele>
        <time>2016-01-10T12:24:10Z</time>
      </trkpt>
      <trkpt lat="43.97147" lon="5.13906">
        <ele>410.14</ele>
        <time>2016-01-10T12:24:18Z</time>
      </trkpt>
      <trkpt lat="43.97146" lon="5.13908">
        <ele>410.62</ele>
        <time>2016-01-10T12:24:20Z</time>
      </trkpt>
      <trkpt lat="43.97144" lon="5.13908">
        <ele>411.1</ele>
        <time>2016-01-10T12:24:21Z</time>
      </trkpt>
      <trkpt lat="43.97143" lon="5.13908">
        <ele>411.1</ele>
        <time>2016-01-10T12:24:22Z</time>
      </trkpt>
      <trkpt lat="43.97141" lon="5.13907">
        <ele>411.58</ele>
        <time>2016-01-10T12:24:23Z</time>
      </trkpt>
      <trkpt lat="43.9714" lon="5.13906">
        <ele>411.58</ele>
        <time>2016-01-10T12:24:24Z</time>
      </trkpt>
      <trkpt lat="43.97139" lon="5.13904">
        <ele>412.06</ele>
        <time>2016-01-10T12:24:25Z</time>
      </trkpt>
      <trkpt lat="43.97138" lon="5.13902">
        <ele>412.54</ele>
        <time>2016-01-10T12:24:26Z</time>
      </trkpt>
      <trkpt lat="43.97136" lon="5.139">
        <ele>412.54</ele>
        <time>2016-01-10T12:24:27Z</time>
      </trkpt>
      <trkpt lat="43.97135" lon="5.13898">
        <ele>413.02</ele>
        <time>2016-01-10T12:24:28Z</time>
      </trkpt>
      <trkpt lat="43.97134" lon="5.13896">
        <ele>413.5</ele>
        <time>2016-01-10T12:24:29Z</time>
      </trkpt>
      <trkpt lat="43.97132" lon="5.13894">
        <ele>413.98</ele>
        <time>2016-01-10T12:24:30Z</time>
      </trkpt>
      <trkpt lat="43.97131" lon="5.13893">
        <ele>413.98</ele>
        <time>2016-01-10T12:24:31Z</time>
      </trkpt>
      <trkpt lat="43.97129" lon="5.13892">
        <ele>414.47</ele>
        <time>2016-01-10T12:24:32Z</time>
      </trkpt>
      <trkpt lat="43.97128" lon="5.1389">
        <ele>414.95</ele>
        <time>2016-01-10T12:24:33Z</time>
      </trkpt>
      <trkpt lat="43.97127" lon="5.13888">
        <ele>414.95</ele>
        <time>2016-01-10T12:24:34Z</time>
      </trkpt>
      <trkpt lat="43.97126" lon="5.13887">
        <ele>415.43</ele>
        <time>2016-01-10T12:24:35Z</time>
      </trkpt>
      <trkpt lat="43.97125" lon="5.13886">
        <ele>415.91</ele>
        <time>2016-01-10T12:24:36Z</time>
      </trkpt>
      <trkpt lat="43.97124" lon="5.13884">
        <ele>415.91</ele>
        <time>2016-01-10T12:24:37Z</time>
      </trkpt>
      <trkpt lat="43.97124" lon="5.13883">
        <ele>416.39</ele>
        <time>2016-01-10T12:24:38Z</time>
      </trkpt>
      <trkpt lat="43.97118" lon="5.13875">
        <ele>417.35</ele>
        <time>2016-01-10T12:24:43Z</time>
      </trkpt>
      <trkpt lat="43.97106" lon="5.13868">
        <ele>418.79</ele>
        <time>2016-01-10T12:24:51Z</time>
      </trkpt>
      <trkpt lat="43.97098" lon="5.1387">
        <ele>420.71</ele>
        <time>2016-01-10T12:24:58Z</time>
      </trkpt>
      <trkpt lat="43.97096" lon="5.13871">
        <ele>420.71</ele>
        <time>2016-01-10T12:24:59Z</time>
      </trkpt>
      <trkpt lat="43.97082" lon="5.13869">
        <ele>422.16</ele>
        <time>2016-01-10T12:25:08Z</time>
      </trkpt>
      <trkpt lat="43.97069" lon="5.13862">
        <ele>423.12</ele>
        <time>2016-01-10T12:25:16Z</time>
      </trkpt>
      <trkpt lat="43.97065" lon="5.13861">
        <ele>423.6</ele>
        <time>2016-01-10T12:25:18Z</time>
      </trkpt>
      <trkpt lat="43.97064" lon="5.13862">
        <ele>423.6</ele>
        <time>2016-01-10T12:25:19Z</time>
      </trkpt>
      <trkpt lat="43.97063" lon="5.13861">
        <ele>423.6</ele>
        <time>2016-01-10T12:25:20Z</time>
      </trkpt>
      <trkpt lat="43.97061" lon="5.13861">
        <ele>424.08</ele>
        <time>2016-01-10T12:25:21Z</time>
      </trkpt>
      <trkpt lat="43.9706" lon="5.1386">
        <ele>424.08</ele>
        <time>2016-01-10T12:25:22Z</time>
      </trkpt>
      <trkpt lat="43.97058" lon="5.1386">
        <ele>424.56</ele>
        <time>2016-01-10T12:25:23Z</time>
      </trkpt>
      <trkpt lat="43.97057" lon="5.13859">
        <ele>425.04</ele>
        <time>2016-01-10T12:25:24Z</time>
      </trkpt>
      <trkpt lat="43.97055" lon="5.1386">
        <ele>425.04</ele>
        <time>2016-01-10T12:25:25Z</time>
      </trkpt>
      <trkpt lat="43.97054" lon="5.1386">
        <ele>424.56</ele>
        <time>2016-01-10T12:25:26Z</time>
      </trkpt>
      <trkpt lat="43.97053" lon="5.1386">
        <ele>425.04</ele>
        <time>2016-01-10T12:25:27Z</time>
      </trkpt>
      <trkpt lat="43.97052" lon="5.13859">
        <ele>424.56</ele>
        <time>2016-01-10T12:25:28Z</time>
      </trkpt>
      <trkpt lat="43.9705" lon="5.1386">
        <ele>424.56</ele>
        <time>2016-01-10T12:25:30Z</time>
      </trkpt>
      <trkpt lat="43.97037" lon="5.13865">
        <ele>425.04</ele>
        <time>2016-01-10T12:25:38Z</time>
      </trkpt>
      <trkpt lat="43.97022" lon="5.13869">
        <ele>426.48</ele>
        <time>2016-01-10T12:25:47Z</time>
      </trkpt>
      <trkpt lat="43.97007" lon="5.13875">
        <ele>426.96</ele>
        <time>2016-01-10T12:25:54Z</time>
      </trkpt>
      <trkpt lat="43.97003" lon="5.13877">
        <ele>426.96</ele>
        <time>2016-01-10T12:25:56Z</time>
      </trkpt>
      <trkpt lat="43.97001" lon="5.13878">
        <ele>426.96</ele>
        <time>2016-01-10T12:25:57Z</time>
      </trkpt>
      <trkpt lat="43.96999" lon="5.13879">
        <ele>426.96</ele>
        <time>2016-01-10T12:25:58Z</time>
      </trkpt>
      <trkpt lat="43.96997" lon="5.13879">
        <ele>427.44</ele>
        <time>2016-01-10T12:25:59Z</time>
      </trkpt>
      <trkpt lat="43.96995" lon="5.13879">
        <ele>427.44</ele>
        <time>2016-01-10T12:26:00Z</time>
      </trkpt>
      <trkpt lat="43.96993" lon="5.1388">
        <ele>427.44</ele>
        <time>2016-01-10T12:26:01Z</time>
      </trkpt>
      <trkpt lat="43.96991" lon="5.1388">
        <ele>427.44</ele>
        <time>2016-01-10T12:26:02Z</time>
      </trkpt>
      <trkpt lat="43.96989" lon="5.13881">
        <ele>427.44</ele>
        <time>2016-01-10T12:26:03Z</time>
      </trkpt>
      <trkpt lat="43.96979" lon="5.13886">
        <ele>427.92</ele>
        <time>2016-01-10T12:26:09Z</time>
      </trkpt>
      <trkpt lat="43.96968" lon="5.13891">
        <ele>428.89</ele>
        <time>2016-01-10T12:26:15Z</time>
      </trkpt>
      <trkpt lat="43.96964" lon="5.13894">
        <ele>428.89</ele>
        <time>2016-01-10T12:26:17Z</time>
      </trkpt>
      <trkpt lat="43.96942" lon="5.13903">
        <ele>429.85</ele>
        <time>2016-01-10T12:26:26Z</time>
      </trkpt>
      <trkpt lat="43.96936" lon="5.13906">
        <ele>429.85</ele>
        <time>2016-01-10T12:26:30Z</time>
      </trkpt>
      <trkpt lat="43.96935" lon="5.13908">
        <ele>429.85</ele>
        <time>2016-01-10T12:26:31Z</time>
      </trkpt>
      <trkpt lat="43.96934" lon="5.1391">
        <ele>429.85</ele>
        <time>2016-01-10T12:26:32Z</time>
      </trkpt>
      <trkpt lat="43.96934" lon="5.13912">
        <ele>430.33</ele>
        <time>2016-01-10T12:26:33Z</time>
      </trkpt>
      <trkpt lat="43.96933" lon="5.13913">
        <ele>430.33</ele>
        <time>2016-01-10T12:26:34Z</time>
      </trkpt>
      <trkpt lat="43.96932" lon="5.13914">
        <ele>429.37</ele>
        <time>2016-01-10T12:26:41Z</time>
      </trkpt>
      <trkpt lat="43.96931" lon="5.13912">
        <ele>428.89</ele>
        <time>2016-01-10T12:26:57Z</time>
      </trkpt>
      <trkpt lat="43.96931" lon="5.1391">
        <ele>428.4</ele>
        <time>2016-01-10T12:27:03Z</time>
      </trkpt>
      <trkpt lat="43.96931" lon="5.1391">
        <ele>428.4</ele>
        <time>2016-01-10T12:27:16Z</time>
      </trkpt>
      <trkpt lat="43.96931" lon="5.1391">
        <ele>427.44</ele>
        <time>2016-01-10T12:27:31Z</time>
      </trkpt>
      <trkpt lat="43.9693" lon="5.1391">
        <ele>428.89</ele>
        <time>2016-01-10T12:27:42Z</time>
      </trkpt>
      <trkpt lat="43.9693" lon="5.13912">
        <ele>428.4</ele>
        <time>2016-01-10T12:27:47Z</time>
      </trkpt>
      <trkpt lat="43.96931" lon="5.13912">
        <ele>428.4</ele>
        <time>2016-01-10T12:27:59Z</time>
      </trkpt>
      <trkpt lat="43.96931" lon="5.13912">
        <ele>427.92</ele>
        <time>2016-01-10T12:28:12Z</time>
      </trkpt>
      <trkpt lat="43.96931" lon="5.13913">
        <ele>427.92</ele>
        <time>2016-01-10T12:28:18Z</time>
      </trkpt>
      <trkpt lat="43.96931" lon="5.13913">
        <ele>428.89</ele>
        <time>2016-01-10T12:28:29Z</time>
      </trkpt>
      <trkpt lat="43.9693" lon="5.13913">
        <ele>428.4</ele>
        <time>2016-01-10T12:28:41Z</time>
      </trkpt>
      <trkpt lat="43.9693" lon="5.13912">
        <ele>428.4</ele>
        <time>2016-01-10T12:28:51Z</time>
      </trkpt>
      <trkpt lat="43.96929" lon="5.13913">
        <ele>428.89</ele>
        <time>2016-01-10T12:28:53Z</time>
      </trkpt>
      <trkpt lat="43.96928" lon="5.13915">
        <ele>429.37</ele>
        <time>2016-01-10T12:28:54Z</time>
      </trkpt>
      <trkpt lat="43.96926" lon="5.13916">
        <ele>428.89</ele>
        <time>2016-01-10T12:28:55Z</time>
      </trkpt>
      <trkpt lat="43.96924" lon="5.13919">
        <ele>428.89</ele>
        <time>2016-01-10T12:28:56Z</time>
      </trkpt>
      <trkpt lat="43.96923" lon="5.13921">
        <ele>429.37</ele>
        <time>2016-01-10T12:28:57Z</time>
      </trkpt>
      <trkpt lat="43.9692" lon="5.13923">
        <ele>429.37</ele>
        <time>2016-01-10T12:28:58Z</time>
      </trkpt>
      <trkpt lat="43.96918" lon="5.13924">
        <ele>429.37</ele>
        <time>2016-01-10T12:28:59Z</time>
      </trkpt>
      <trkpt lat="43.96916" lon="5.13925">
        <ele>430.33</ele>
        <time>2016-01-10T12:29:00Z</time>
      </trkpt>
      <trkpt lat="43.96914" lon="5.13927">
        <ele>430.81</ele>
        <time>2016-01-10T12:29:01Z</time>
      </trkpt>
      <trkpt lat="43.96911" lon="5.13929">
        <ele>429.85</ele>
        <time>2016-01-10T12:29:02Z</time>
      </trkpt>
      <trkpt lat="43.96909" lon="5.13931">
        <ele>429.85</ele>
        <time>2016-01-10T12:29:03Z</time>
      </trkpt>
      <trkpt lat="43.96891" lon="5.13938">
        <ele>430.81</ele>
        <time>2016-01-10T12:29:10Z</time>
      </trkpt>
      <trkpt lat="43.96871" lon="5.1395">
        <ele>432.73</ele>
        <time>2016-01-10T12:29:17Z</time>
      </trkpt>
      <trkpt lat="43.96851" lon="5.13959">
        <ele>432.25</ele>
        <time>2016-01-10T12:29:23Z</time>
      </trkpt>
      <trkpt lat="43.96838" lon="5.13972">
        <ele>432.73</ele>
        <time>2016-01-10T12:29:29Z</time>
      </trkpt>
      <trkpt lat="43.96824" lon="5.13995">
        <ele>432.73</ele>
        <time>2016-01-10T12:29:36Z</time>
      </trkpt>
      <trkpt lat="43.9682" lon="5.13999">
        <ele>432.25</ele>
        <time>2016-01-10T12:29:39Z</time>
      </trkpt>
      <trkpt lat="43.96818" lon="5.13997">
        <ele>432.25</ele>
        <time>2016-01-10T12:29:41Z</time>
      </trkpt>
      <trkpt lat="43.96818" lon="5.13995">
        <ele>433.69</ele>
        <time>2016-01-10T12:29:42Z</time>
      </trkpt>
      <trkpt lat="43.96818" lon="5.13992">
        <ele>433.69</ele>
        <time>2016-01-10T12:29:43Z</time>
      </trkpt>
      <trkpt lat="43.96819" lon="5.13988">
        <ele>434.17</ele>
        <time>2016-01-10T12:29:44Z</time>
      </trkpt>
      <trkpt lat="43.9682" lon="5.13975">
        <ele>434.65</ele>
        <time>2016-01-10T12:29:48Z</time>
      </trkpt>
      <trkpt lat="43.96819" lon="5.13973">
        <ele>434.65</ele>
        <time>2016-01-10T12:29:49Z</time>
      </trkpt>
      <trkpt lat="43.96818" lon="5.13971">
        <ele>434.65</ele>
        <time>2016-01-10T12:29:50Z</time>
      </trkpt>
      <trkpt lat="43.96816" lon="5.13971">
        <ele>434.65</ele>
        <time>2016-01-10T12:29:51Z</time>
      </trkpt>
      <trkpt lat="43.96814" lon="5.13971">
        <ele>434.65</ele>
        <time>2016-01-10T12:29:52Z</time>
      </trkpt>
      <trkpt lat="43.96813" lon="5.13971">
        <ele>434.65</ele>
        <time>2016-01-10T12:29:53Z</time>
      </trkpt>
      <trkpt lat="43.96811" lon="5.13972">
        <ele>434.65</ele>
        <time>2016-01-10T12:29:54Z</time>
      </trkpt>
      <trkpt lat="43.96808" lon="5.13975">
        <ele>434.65</ele>
        <time>2016-01-10T12:30:00Z</time>
      </trkpt>
      <trkpt lat="43.96807" lon="5.13975">
        <ele>434.65</ele>
        <time>2016-01-10T12:30:10Z</time>
      </trkpt>
      <trkpt lat="43.96807" lon="5.13974">
        <ele>434.17</ele>
        <time>2016-01-10T12:30:20Z</time>
      </trkpt>
      <trkpt lat="43.96804" lon="5.13969">
        <ele>435.13</ele>
        <time>2016-01-10T12:30:27Z</time>
      </trkpt>
      <trkpt lat="43.96799" lon="5.13967">
        <ele>435.61</ele>
        <time>2016-01-10T12:30:34Z</time>
      </trkpt>
      <trkpt lat="43.96792" lon="5.13966">
        <ele>436.1</ele>
        <time>2016-01-10T12:30:41Z</time>
      </trkpt>
      <trkpt lat="43.96786" lon="5.13965">
        <ele>436.58</ele>
        <time>2016-01-10T12:30:48Z</time>
      </trkpt>
      <trkpt lat="43.96784" lon="5.13964">
        <ele>436.58</ele>
        <time>2016-01-10T12:30:49Z</time>
      </trkpt>
      <trkpt lat="43.96779" lon="5.1396">
        <ele>438.02</ele>
        <time>2016-01-10T12:30:55Z</time>
      </trkpt>
      <trkpt lat="43.96778" lon="5.1396">
        <ele>437.06</ele>
        <time>2016-01-10T12:31:04Z</time>
      </trkpt>
      <trkpt lat="43.96776" lon="5.13958">
        <ele>437.54</ele>
        <time>2016-01-10T12:31:06Z</time>
      </trkpt>
      <trkpt lat="43.96774" lon="5.13957">
        <ele>437.54</ele>
        <time>2016-01-10T12:31:11Z</time>
      </trkpt>
      <trkpt lat="43.96773" lon="5.13956">
        <ele>437.06</ele>
        <time>2016-01-10T12:31:20Z</time>
      </trkpt>
      <trkpt lat="43.96773" lon="5.13956">
        <ele>437.06</ele>
        <time>2016-01-10T12:31:36Z</time>
      </trkpt>
      <trkpt lat="43.96774" lon="5.13954">
        <ele>437.06</ele>
        <time>2016-01-10T12:31:43Z</time>
      </trkpt>
      <trkpt lat="43.96774" lon="5.13954">
        <ele>436.58</ele>
        <time>2016-01-10T12:31:59Z</time>
      </trkpt>
      <trkpt lat="43.96774" lon="5.13954">
        <ele>437.06</ele>
        <time>2016-01-10T12:32:08Z</time>
      </trkpt>
      <trkpt lat="43.96773" lon="5.13955">
        <ele>437.06</ele>
        <time>2016-01-10T12:32:20Z</time>
      </trkpt>
      <trkpt lat="43.96773" lon="5.13954">
        <ele>437.54</ele>
        <time>2016-01-10T12:32:30Z</time>
      </trkpt>
      <trkpt lat="43.96775" lon="5.13952">
        <ele>437.06</ele>
        <time>2016-01-10T12:32:40Z</time>
      </trkpt>
      <trkpt lat="43.96776" lon="5.13951">
        <ele>437.06</ele>
        <time>2016-01-10T12:32:49Z</time>
      </trkpt>
      <trkpt lat="43.96775" lon="5.13951">
        <ele>437.06</ele>
        <time>2016-01-10T12:32:58Z</time>
      </trkpt>
      <trkpt lat="43.96776" lon="5.13952">
        <ele>437.06</ele>
        <time>2016-01-10T12:33:15Z</time>
      </trkpt>
      <trkpt lat="43.96776" lon="5.13953">
        <ele>437.06</ele>
        <time>2016-01-10T12:33:35Z</time>
      </trkpt>
      <trkpt lat="43.96776" lon="5.13953">
        <ele>437.06</ele>
        <time>2016-01-10T12:33:47Z</time>
      </trkpt>
      <trkpt lat="43.96776" lon="5.13953">
        <ele>436.58</ele>
        <time>2016-01-10T12:33:54Z</time>
      </trkpt>
      <trkpt lat="43.96776" lon="5.13953">
        <ele>437.06</ele>
        <time>2016-01-10T12:34:10Z</time>
      </trkpt>
      <trkpt lat="43.96774" lon="5.13953">
        <ele>437.54</ele>
        <time>2016-01-10T12:34:20Z</time>
      </trkpt>
      <trkpt lat="43.96774" lon="5.13953">
        <ele>437.54</ele>
        <time>2016-01-10T12:34:31Z</time>
      </trkpt>
      <trkpt lat="43.96774" lon="5.13953">
        <ele>437.54</ele>
        <time>2016-01-10T12:34:43Z</time>
      </trkpt>
      <trkpt lat="43.96773" lon="5.13952">
        <ele>437.06</ele>
        <time>2016-01-10T12:34:54Z</time>
      </trkpt>
      <trkpt lat="43.96774" lon="5.13954">
        <ele>437.54</ele>
        <time>2016-01-10T12:35:00Z</time>
      </trkpt>
      <trkpt lat="43.96776" lon="5.13954">
        <ele>437.54</ele>
        <time>2016-01-10T12:35:05Z</time>
      </trkpt>
      <trkpt lat="43.96775" lon="5.13954">
        <ele>437.54</ele>
        <time>2016-01-10T12:35:11Z</time>
      </trkpt>
      <trkpt lat="43.96775" lon="5.13953">
        <ele>437.06</ele>
        <time>2016-01-10T12:35:24Z</time>
      </trkpt>
      <trkpt lat="43.96776" lon="5.13952">
        <ele>436.1</ele>
        <time>2016-01-10T12:35:32Z</time>
      </trkpt>
      <trkpt lat="43.96777" lon="5.13952">
        <ele>437.06</ele>
        <time>2016-01-10T12:35:39Z</time>
      </trkpt>
      <trkpt lat="43.96777" lon="5.13952">
        <ele>437.06</ele>
        <time>2016-01-10T12:35:50Z</time>
      </trkpt>
      <trkpt lat="43.9678" lon="5.13954">
        <ele>437.06</ele>
        <time>2016-01-10T12:35:56Z</time>
      </trkpt>
      <trkpt lat="43.96783" lon="5.13958">
        <ele>437.06</ele>
        <time>2016-01-10T12:36:03Z</time>
      </trkpt>
      <trkpt lat="43.96785" lon="5.13959">
        <ele>436.1</ele>
        <time>2016-01-10T12:36:10Z</time>
      </trkpt>
      <trkpt lat="43.96786" lon="5.13959">
        <ele>436.1</ele>
        <time>2016-01-10T12:36:11Z</time>
      </trkpt>
      <trkpt lat="43.96787" lon="5.13959">
        <ele>436.1</ele>
        <time>2016-01-10T12:36:12Z</time>
      </trkpt>
      <trkpt lat="43.96789" lon="5.13958">
        <ele>435.61</ele>
        <time>2016-01-10T12:36:13Z</time>
      </trkpt>
      <trkpt lat="43.96796" lon="5.13956">
        <ele>435.13</ele>
        <time>2016-01-10T12:36:20Z</time>
      </trkpt>
      <trkpt lat="43.96801" lon="5.13956">
        <ele>434.65</ele>
        <time>2016-01-10T12:36:27Z</time>
      </trkpt>
      <trkpt lat="43.96804" lon="5.13959">
        <ele>433.21</ele>
        <time>2016-01-10T12:36:35Z</time>
      </trkpt>
      <trkpt lat="43.96804" lon="5.13959">
        <ele>437.54</ele>
        <time>2016-01-10T12:36:36Z</time>
      </trkpt>
      <trkpt lat="43.96804" lon="5.1396">
        <ele>434.65</ele>
        <time>2016-01-10T12:36:39Z</time>
      </trkpt>
      <trkpt lat="43.96805" lon="5.13961">
        <ele>436.58</ele>
        <time>2016-01-10T12:36:50Z</time>
      </trkpt>
      <trkpt lat="43.96805" lon="5.13961">
        <ele>432.25</ele>
        <time>2016-01-10T12:36:51Z</time>
      </trkpt>
      <trkpt lat="43.96805" lon="5.13961">
        <ele>438.5</ele>
        <time>2016-01-10T12:36:52Z</time>
      </trkpt>
      <trkpt lat="43.96805" lon="5.13961">
        <ele>434.65</ele>
        <time>2016-01-10T12:36:53Z</time>
      </trkpt>
      <trkpt lat="43.96805" lon="5.13961">
        <ele>434.65</ele>
        <time>2016-01-10T12:37:05Z</time>
      </trkpt>
      <trkpt lat="43.96807" lon="5.13964">
        <ele>434.17</ele>
        <time>2016-01-10T12:37:16Z</time>
      </trkpt>
      <trkpt lat="43.96808" lon="5.13968">
        <ele>433.69</ele>
        <time>2016-01-10T12:37:23Z</time>
      </trkpt>
      <trkpt lat="43.96808" lon="5.13967">
        <ele>433.69</ele>
        <time>2016-01-10T12:37:39Z</time>
      </trkpt>
      <trkpt lat="43.96808" lon="5.13968">
        <ele>433.69</ele>
        <time>2016-01-10T12:37:56Z</time>
      </trkpt>
      <trkpt lat="43.96809" lon="5.1397">
        <ele>434.17</ele>
        <time>2016-01-10T12:38:17Z</time>
      </trkpt>
      <trkpt lat="43.96809" lon="5.1397">
        <ele>435.13</ele>
        <time>2016-01-10T12:38:24Z</time>
      </trkpt>
      <trkpt lat="43.96809" lon="5.13971">
        <ele>434.65</ele>
        <time>2016-01-10T12:38:39Z</time>
      </trkpt>
      <trkpt lat="43.96809" lon="5.13971">
        <ele>434.65</ele>
        <time>2016-01-10T12:38:57Z</time>
      </trkpt>
      <trkpt lat="43.96809" lon="5.1397">
        <ele>434.17</ele>
        <time>2016-01-10T12:39:13Z</time>
      </trkpt>
      <trkpt lat="43.96809" lon="5.13969">
        <ele>434.17</ele>
        <time>2016-01-10T12:39:21Z</time>
      </trkpt>
      <trkpt lat="43.9681" lon="5.13968">
        <ele>434.17</ele>
        <time>2016-01-10T12:39:22Z</time>
      </trkpt>
      <trkpt lat="43.96811" lon="5.13967">
        <ele>434.17</ele>
        <time>2016-01-10T12:39:23Z</time>
      </trkpt>
      <trkpt lat="43.96812" lon="5.13965">
        <ele>434.65</ele>
        <time>2016-01-10T12:39:24Z</time>
      </trkpt>
      <trkpt lat="43.96814" lon="5.13964">
        <ele>434.65</ele>
        <time>2016-01-10T12:39:25Z</time>
      </trkpt>
      <trkpt lat="43.96816" lon="5.13964">
        <ele>434.65</ele>
        <time>2016-01-10T12:39:26Z</time>
      </trkpt>
      <trkpt lat="43.96818" lon="5.13965">
        <ele>434.65</ele>
        <time>2016-01-10T12:39:27Z</time>
      </trkpt>
      <trkpt lat="43.96819" lon="5.13967">
        <ele>434.65</ele>
        <time>2016-01-10T12:39:28Z</time>
      </trkpt>
      <trkpt lat="43.96821" lon="5.13969">
        <ele>434.17</ele>
        <time>2016-01-10T12:39:29Z</time>
      </trkpt>
      <trkpt lat="43.96821" lon="5.13972">
        <ele>434.17</ele>
        <time>2016-01-10T12:39:30Z</time>
      </trkpt>
      <trkpt lat="43.96821" lon="5.13975">
        <ele>434.17</ele>
        <time>2016-01-10T12:39:31Z</time>
      </trkpt>
      <trkpt lat="43.9682" lon="5.13978">
        <ele>434.17</ele>
        <time>2016-01-10T12:39:32Z</time>
      </trkpt>
      <trkpt lat="43.96819" lon="5.1398">
        <ele>434.17</ele>
        <time>2016-01-10T12:39:33Z</time>
      </trkpt>
      <trkpt lat="43.96818" lon="5.13982">
        <ele>434.17</ele>
        <time>2016-01-10T12:39:34Z</time>
      </trkpt>
      <trkpt lat="43.96817" lon="5.13984">
        <ele>434.17</ele>
        <time>2016-01-10T12:39:35Z</time>
      </trkpt>
      <trkpt lat="43.96817" lon="5.13986">
        <ele>434.17</ele>
        <time>2016-01-10T12:39:36Z</time>
      </trkpt>
      <trkpt lat="43.96817" lon="5.13989">
        <ele>434.17</ele>
        <time>2016-01-10T12:39:37Z</time>
      </trkpt>
      <trkpt lat="43.96817" lon="5.14003">
        <ele>433.21</ele>
        <time>2016-01-10T12:39:40Z</time>
      </trkpt>
      <trkpt lat="43.96816" lon="5.14008">
        <ele>433.21</ele>
        <time>2016-01-10T12:39:41Z</time>
      </trkpt>
      <trkpt lat="43.96814" lon="5.1401">
        <ele>432.73</ele>
        <time>2016-01-10T12:39:42Z</time>
      </trkpt>
      <trkpt lat="43.96813" lon="5.14012">
        <ele>432.25</ele>
        <time>2016-01-10T12:39:43Z</time>
      </trkpt>
      <trkpt lat="43.96811" lon="5.14016">
        <ele>432.25</ele>
        <time>2016-01-10T12:39:44Z</time>
      </trkpt>
      <trkpt lat="43.96809" lon="5.14019">
        <ele>432.25</ele>
        <time>2016-01-10T12:39:45Z</time>
      </trkpt>
      <trkpt lat="43.96798" lon="5.14056">
        <ele>431.29</ele>
        <time>2016-01-10T12:39:55Z</time>
      </trkpt>
      <trkpt lat="43.96799" lon="5.14086">
        <ele>430.33</ele>
        <time>2016-01-10T12:40:02Z</time>
      </trkpt>
      <trkpt lat="43.96806" lon="5.14107">
        <ele>430.33</ele>
        <time>2016-01-10T12:40:07Z</time>
      </trkpt>
      <trkpt lat="43.96813" lon="5.14126">
        <ele>430.33</ele>
        <time>2016-01-10T12:40:11Z</time>
      </trkpt>
      <trkpt lat="43.96822" lon="5.14144">
        <ele>429.85</ele>
        <time>2016-01-10T12:40:15Z</time>
      </trkpt>
      <trkpt lat="43.96825" lon="5.14149">
        <ele>429.37</ele>
        <time>2016-01-10T12:40:16Z</time>
      </trkpt>
      <trkpt lat="43.96827" lon="5.14154">
        <ele>429.37</ele>
        <time>2016-01-10T12:40:17Z</time>
      </trkpt>
      <trkpt lat="43.96829" lon="5.1416">
        <ele>429.37</ele>
        <time>2016-01-10T12:40:18Z</time>
      </trkpt>
      <trkpt lat="43.9683" lon="5.14165">
        <ele>429.37</ele>
        <time>2016-01-10T12:40:19Z</time>
      </trkpt>
      <trkpt lat="43.96832" lon="5.1417">
        <ele>429.37</ele>
        <time>2016-01-10T12:40:20Z</time>
      </trkpt>
      <trkpt lat="43.96834" lon="5.14175">
        <ele>429.37</ele>
        <time>2016-01-10T12:40:21Z</time>
      </trkpt>
      <trkpt lat="43.96846" lon="5.14205">
        <ele>428.89</ele>
        <time>2016-01-10T12:40:27Z</time>
      </trkpt>
      <trkpt lat="43.96857" lon="5.14233">
        <ele>428.89</ele>
        <time>2016-01-10T12:40:33Z</time>
      </trkpt>
      <trkpt lat="43.96867" lon="5.14261">
        <ele>427.44</ele>
        <time>2016-01-10T12:40:39Z</time>
      </trkpt>
      <trkpt lat="43.96873" lon="5.14275">
        <ele>426.96</ele>
        <time>2016-01-10T12:40:42Z</time>
      </trkpt>
      <trkpt lat="43.96876" lon="5.1428">
        <ele>426.48</ele>
        <time>2016-01-10T12:40:43Z</time>
      </trkpt>
      <trkpt lat="43.96881" lon="5.14289">
        <ele>426.96</ele>
        <time>2016-01-10T12:40:45Z</time>
      </trkpt>
      <trkpt lat="43.96884" lon="5.14294">
        <ele>426.96</ele>
        <time>2016-01-10T12:40:46Z</time>
      </trkpt>
      <trkpt lat="43.96886" lon="5.14297">
        <ele>426.96</ele>
        <time>2016-01-10T12:40:47Z</time>
      </trkpt>
      <trkpt lat="43.96901" lon="5.14311">
        <ele>427.44</ele>
        <time>2016-01-10T12:40:53Z</time>
      </trkpt>
      <trkpt lat="43.96903" lon="5.14315">
        <ele>427.44</ele>
        <time>2016-01-10T12:40:54Z</time>
      </trkpt>
      <trkpt lat="43.96904" lon="5.14318">
        <ele>427.92</ele>
        <time>2016-01-10T12:40:55Z</time>
      </trkpt>
      <trkpt lat="43.96906" lon="5.14321">
        <ele>427.44</ele>
        <time>2016-01-10T12:40:56Z</time>
      </trkpt>
      <trkpt lat="43.96909" lon="5.14324">
        <ele>427.44</ele>
        <time>2016-01-10T12:40:57Z</time>
      </trkpt>
      <trkpt lat="43.96911" lon="5.14327">
        <ele>427.44</ele>
        <time>2016-01-10T12:40:58Z</time>
      </trkpt>
      <trkpt lat="43.96928" lon="5.14348">
        <ele>427.44</ele>
        <time>2016-01-10T12:41:04Z</time>
      </trkpt>
      <trkpt lat="43.96942" lon="5.14369">
        <ele>426.96</ele>
        <time>2016-01-10T12:41:10Z</time>
      </trkpt>
      <trkpt lat="43.96948" lon="5.14378">
        <ele>426.96</ele>
        <time>2016-01-10T12:41:14Z</time>
      </trkpt>
      <trkpt lat="43.96951" lon="5.14381">
        <ele>426.48</ele>
        <time>2016-01-10T12:41:19Z</time>
      </trkpt>
      <trkpt lat="43.96952" lon="5.14381">
        <ele>426.48</ele>
        <time>2016-01-10T12:41:33Z</time>
      </trkpt>
      <trkpt lat="43.96953" lon="5.14383">
        <ele>426.48</ele>
        <time>2016-01-10T12:41:38Z</time>
      </trkpt>
      <trkpt lat="43.96954" lon="5.14385">
        <ele>426.48</ele>
        <time>2016-01-10T12:41:39Z</time>
      </trkpt>
      <trkpt lat="43.96955" lon="5.14388">
        <ele>426</ele>
        <time>2016-01-10T12:41:40Z</time>
      </trkpt>
      <trkpt lat="43.9696" lon="5.14396">
        <ele>426.48</ele>
        <time>2016-01-10T12:41:43Z</time>
      </trkpt>
      <trkpt lat="43.96967" lon="5.14423">
        <ele>426.96</ele>
        <time>2016-01-10T12:41:50Z</time>
      </trkpt>
      <trkpt lat="43.9697" lon="5.14444">
        <ele>427.44</ele>
        <time>2016-01-10T12:41:56Z</time>
      </trkpt>
      <trkpt lat="43.96972" lon="5.14461">
        <ele>428.89</ele>
        <time>2016-01-10T12:42:01Z</time>
      </trkpt>
      <trkpt lat="43.96977" lon="5.1448">
        <ele>429.85</ele>
        <time>2016-01-10T12:42:07Z</time>
      </trkpt>
      <trkpt lat="43.96986" lon="5.14502">
        <ele>429.37</ele>
        <time>2016-01-10T12:42:13Z</time>
      </trkpt>
      <trkpt lat="43.96995" lon="5.14524">
        <ele>428.89</ele>
        <time>2016-01-10T12:42:19Z</time>
      </trkpt>
      <trkpt lat="43.97005" lon="5.14541">
        <ele>428.89</ele>
        <time>2016-01-10T12:42:24Z</time>
      </trkpt>
      <trkpt lat="43.97012" lon="5.14551">
        <ele>428.4</ele>
        <time>2016-01-10T12:42:27Z</time>
      </trkpt>
      <trkpt lat="43.97013" lon="5.14556">
        <ele>428.4</ele>
        <time>2016-01-10T12:42:28Z</time>
      </trkpt>
      <trkpt lat="43.97015" lon="5.1456">
        <ele>428.4</ele>
        <time>2016-01-10T12:42:29Z</time>
      </trkpt>
      <trkpt lat="43.97017" lon="5.14563">
        <ele>427.92</ele>
        <time>2016-01-10T12:42:30Z</time>
      </trkpt>
      <trkpt lat="43.97018" lon="5.14564">
        <ele>427.92</ele>
        <time>2016-01-10T12:42:31Z</time>
      </trkpt>
      <trkpt lat="43.97022" lon="5.1457">
        <ele>427.92</ele>
        <time>2016-01-10T12:42:33Z</time>
      </trkpt>
      <trkpt lat="43.97026" lon="5.14587">
        <ele>427.92</ele>
        <time>2016-01-10T12:42:38Z</time>
      </trkpt>
      <trkpt lat="43.97026" lon="5.14592">
        <ele>427.44</ele>
        <time>2016-01-10T12:42:43Z</time>
      </trkpt>
      <trkpt lat="43.97024" lon="5.14592">
        <ele>426.48</ele>
        <time>2016-01-10T12:42:57Z</time>
      </trkpt>
      <trkpt lat="43.97024" lon="5.14592">
        <ele>426.96</ele>
        <time>2016-01-10T12:43:12Z</time>
      </trkpt>
      <trkpt lat="43.97024" lon="5.14592">
        <ele>426.48</ele>
        <time>2016-01-10T12:43:23Z</time>
      </trkpt>
      <trkpt lat="43.97023" lon="5.14592">
        <ele>426.96</ele>
        <time>2016-01-10T12:43:38Z</time>
      </trkpt>
      <trkpt lat="43.97023" lon="5.14592">
        <ele>426.48</ele>
        <time>2016-01-10T12:43:52Z</time>
      </trkpt>
      <trkpt lat="43.97022" lon="5.14592">
        <ele>426.48</ele>
        <time>2016-01-10T12:44:07Z</time>
      </trkpt>
      <trkpt lat="43.97022" lon="5.14592">
        <ele>426.48</ele>
        <time>2016-01-10T12:44:25Z</time>
      </trkpt>
      <trkpt lat="43.97022" lon="5.14593">
        <ele>427.44</ele>
        <time>2016-01-10T12:44:32Z</time>
      </trkpt>
      <trkpt lat="43.97022" lon="5.14593">
        <ele>427.44</ele>
        <time>2016-01-10T12:44:33Z</time>
      </trkpt>
      <trkpt lat="43.97022" lon="5.14594">
        <ele>426.96</ele>
        <time>2016-01-10T12:44:48Z</time>
      </trkpt>
      <trkpt lat="43.97022" lon="5.14594">
        <ele>426.96</ele>
        <time>2016-01-10T12:44:49Z</time>
      </trkpt>
      <trkpt lat="43.97022" lon="5.14593">
        <ele>426</ele>
        <time>2016-01-10T12:45:01Z</time>
      </trkpt>
      <trkpt lat="43.97023" lon="5.14592">
        <ele>426.48</ele>
        <time>2016-01-10T12:45:09Z</time>
      </trkpt>
      <trkpt lat="43.97023" lon="5.1459">
        <ele>427.44</ele>
        <time>2016-01-10T12:45:10Z</time>
      </trkpt>
      <trkpt lat="43.97022" lon="5.14587">
        <ele>427.92</ele>
        <time>2016-01-10T12:45:11Z</time>
      </trkpt>
      <trkpt lat="43.97021" lon="5.14584">
        <ele>427.92</ele>
        <time>2016-01-10T12:45:12Z</time>
      </trkpt>
      <trkpt lat="43.9702" lon="5.14581">
        <ele>427.92</ele>
        <time>2016-01-10T12:45:13Z</time>
      </trkpt>
      <trkpt lat="43.9702" lon="5.14578">
        <ele>427.92</ele>
        <time>2016-01-10T12:45:14Z</time>
      </trkpt>
      <trkpt lat="43.9702" lon="5.14573">
        <ele>427.92</ele>
        <time>2016-01-10T12:45:15Z</time>
      </trkpt>
      <trkpt lat="43.9702" lon="5.14569">
        <ele>427.92</ele>
        <time>2016-01-10T12:45:16Z</time>
      </trkpt>
      <trkpt lat="43.97021" lon="5.14565">
        <ele>427.44</ele>
        <time>2016-01-10T12:45:17Z</time>
      </trkpt>
      <trkpt lat="43.97021" lon="5.1456">
        <ele>427.44</ele>
        <time>2016-01-10T12:45:18Z</time>
      </trkpt>
      <trkpt lat="43.97024" lon="5.14546">
        <ele>427.44</ele>
        <time>2016-01-10T12:45:21Z</time>
      </trkpt>
      <trkpt lat="43.97027" lon="5.14541">
        <ele>427.44</ele>
        <time>2016-01-10T12:45:22Z</time>
      </trkpt>
      <trkpt lat="43.9703" lon="5.14536">
        <ele>426.96</ele>
        <time>2016-01-10T12:45:23Z</time>
      </trkpt>
      <trkpt lat="43.97033" lon="5.14531">
        <ele>426.96</ele>
        <time>2016-01-10T12:45:24Z</time>
      </trkpt>
      <trkpt lat="43.97036" lon="5.14525">
        <ele>426.96</ele>
        <time>2016-01-10T12:45:25Z</time>
      </trkpt>
      <trkpt lat="43.97046" lon="5.14501">
        <ele>426</ele>
        <time>2016-01-10T12:45:29Z</time>
      </trkpt>
      <trkpt lat="43.97048" lon="5.14495">
        <ele>426</ele>
        <time>2016-01-10T12:45:30Z</time>
      </trkpt>
      <trkpt lat="43.97053" lon="5.14481">
        <ele>425.04</ele>
        <time>2016-01-10T12:45:33Z</time>
      </trkpt>
      <trkpt lat="43.97056" lon="5.14479">
        <ele>424.56</ele>
        <time>2016-01-10T12:45:34Z</time>
      </trkpt>
      <trkpt lat="43.9706" lon="5.1448">
        <ele>424.56</ele>
        <time>2016-01-10T12:45:35Z</time>
      </trkpt>
      <trkpt lat="43.97063" lon="5.14481">
        <ele>424.56</ele>
        <time>2016-01-10T12:45:36Z</time>
      </trkpt>
      <trkpt lat="43.97066" lon="5.14483">
        <ele>424.56</ele>
        <time>2016-01-10T12:45:37Z</time>
      </trkpt>
      <trkpt lat="43.97076" lon="5.14486">
        <ele>423.6</ele>
        <time>2016-01-10T12:45:41Z</time>
      </trkpt>
      <trkpt lat="43.97078" lon="5.14484">
        <ele>423.12</ele>
        <time>2016-01-10T12:45:42Z</time>
      </trkpt>
      <trkpt lat="43.97079" lon="5.14481">
        <ele>423.12</ele>
        <time>2016-01-10T12:45:43Z</time>
      </trkpt>
      <trkpt lat="43.9708" lon="5.14477">
        <ele>423.12</ele>
        <time>2016-01-10T12:45:44Z</time>
      </trkpt>
      <trkpt lat="43.97081" lon="5.14472">
        <ele>423.12</ele>
        <time>2016-01-10T12:45:45Z</time>
      </trkpt>
      <trkpt lat="43.97082" lon="5.14467">
        <ele>422.64</ele>
        <time>2016-01-10T12:45:46Z</time>
      </trkpt>
      <trkpt lat="43.97083" lon="5.14462">
        <ele>422.64</ele>
        <time>2016-01-10T12:45:47Z</time>
      </trkpt>
      <trkpt lat="43.97084" lon="5.14457">
        <ele>422.64</ele>
        <time>2016-01-10T12:45:48Z</time>
      </trkpt>
      <trkpt lat="43.97088" lon="5.14438">
        <ele>422.16</ele>
        <time>2016-01-10T12:45:51Z</time>
      </trkpt>
      <trkpt lat="43.9709" lon="5.14432">
        <ele>421.68</ele>
        <time>2016-01-10T12:45:52Z</time>
      </trkpt>
      <trkpt lat="43.97092" lon="5.14427">
        <ele>421.68</ele>
        <time>2016-01-10T12:45:53Z</time>
      </trkpt>
      <trkpt lat="43.97095" lon="5.14423">
        <ele>421.19</ele>
        <time>2016-01-10T12:45:54Z</time>
      </trkpt>
      <trkpt lat="43.97096" lon="5.14421">
        <ele>420.71</ele>
        <time>2016-01-10T12:45:55Z</time>
      </trkpt>
      <trkpt lat="43.97097" lon="5.1442">
        <ele>420.71</ele>
        <time>2016-01-10T12:45:56Z</time>
      </trkpt>
      <trkpt lat="43.97103" lon="5.14403">
        <ele>419.75</ele>
        <time>2016-01-10T12:46:01Z</time>
      </trkpt>
      <trkpt lat="43.97108" lon="5.14395">
        <ele>419.75</ele>
        <time>2016-01-10T12:46:03Z</time>
      </trkpt>
      <trkpt lat="43.97112" lon="5.14393">
        <ele>419.75</ele>
        <time>2016-01-10T12:46:04Z</time>
      </trkpt>
      <trkpt lat="43.97136" lon="5.14381">
        <ele>419.75</ele>
        <time>2016-01-10T12:46:11Z</time>
      </trkpt>
      <trkpt lat="43.97155" lon="5.14375">
        <ele>418.79</ele>
        <time>2016-01-10T12:46:16Z</time>
      </trkpt>
      <trkpt lat="43.97176" lon="5.14366">
        <ele>418.79</ele>
        <time>2016-01-10T12:46:22Z</time>
      </trkpt>
      <trkpt lat="43.972" lon="5.14358">
        <ele>417.83</ele>
        <time>2016-01-10T12:46:29Z</time>
      </trkpt>
      <trkpt lat="43.97218" lon="5.14361">
        <ele>416.87</ele>
        <time>2016-01-10T12:46:35Z</time>
      </trkpt>
      <trkpt lat="43.9722" lon="5.14361">
        <ele>416.39</ele>
        <time>2016-01-10T12:46:36Z</time>
      </trkpt>
      <trkpt lat="43.97222" lon="5.14361">
        <ele>416.39</ele>
        <time>2016-01-10T12:46:37Z</time>
      </trkpt>
      <trkpt lat="43.97224" lon="5.14361">
        <ele>416.39</ele>
        <time>2016-01-10T12:46:38Z</time>
      </trkpt>
      <trkpt lat="43.97226" lon="5.14362">
        <ele>416.87</ele>
        <time>2016-01-10T12:46:39Z</time>
      </trkpt>
      <trkpt lat="43.97228" lon="5.14364">
        <ele>416.87</ele>
        <time>2016-01-10T12:46:40Z</time>
      </trkpt>
      <trkpt lat="43.9723" lon="5.14366">
        <ele>416.87</ele>
        <time>2016-01-10T12:46:41Z</time>
      </trkpt>
      <trkpt lat="43.97232" lon="5.14366">
        <ele>416.39</ele>
        <time>2016-01-10T12:46:42Z</time>
      </trkpt>
      <trkpt lat="43.97234" lon="5.14366">
        <ele>416.39</ele>
        <time>2016-01-10T12:46:43Z</time>
      </trkpt>
      <trkpt lat="43.97235" lon="5.14365">
        <ele>415.91</ele>
        <time>2016-01-10T12:46:44Z</time>
      </trkpt>
      <trkpt lat="43.97236" lon="5.14363">
        <ele>415.91</ele>
        <time>2016-01-10T12:46:45Z</time>
      </trkpt>
      <trkpt lat="43.97238" lon="5.14362">
        <ele>414.95</ele>
        <time>2016-01-10T12:46:51Z</time>
      </trkpt>
      <trkpt lat="43.97238" lon="5.14365">
        <ele>415.91</ele>
        <time>2016-01-10T12:46:59Z</time>
      </trkpt>
      <trkpt lat="43.97237" lon="5.14366">
        <ele>415.91</ele>
        <time>2016-01-10T12:47:00Z</time>
      </trkpt>
      <trkpt lat="43.97236" lon="5.14367">
        <ele>416.39</ele>
        <time>2016-01-10T12:47:01Z</time>
      </trkpt>
      <trkpt lat="43.97235" lon="5.14368">
        <ele>416.39</ele>
        <time>2016-01-10T12:47:02Z</time>
      </trkpt>
      <trkpt lat="43.97232" lon="5.14368">
        <ele>415.91</ele>
        <time>2016-01-10T12:47:03Z</time>
      </trkpt>
      <trkpt lat="43.97229" lon="5.14368">
        <ele>416.87</ele>
        <time>2016-01-10T12:47:04Z</time>
      </trkpt>
      <trkpt lat="43.97226" lon="5.14367">
        <ele>416.87</ele>
        <time>2016-01-10T12:47:05Z</time>
      </trkpt>
      <trkpt lat="43.97222" lon="5.14367">
        <ele>416.87</ele>
        <time>2016-01-10T12:47:06Z</time>
      </trkpt>
      <trkpt lat="43.97219" lon="5.14367">
        <ele>417.35</ele>
        <time>2016-01-10T12:47:07Z</time>
      </trkpt>
      <trkpt lat="43.97216" lon="5.14365">
        <ele>417.35</ele>
        <time>2016-01-10T12:47:08Z</time>
      </trkpt>
      <trkpt lat="43.97214" lon="5.14364">
        <ele>417.35</ele>
        <time>2016-01-10T12:47:09Z</time>
      </trkpt>
      <trkpt lat="43.97212" lon="5.14363">
        <ele>417.35</ele>
        <time>2016-01-10T12:47:10Z</time>
      </trkpt>
      <trkpt lat="43.9721" lon="5.14363">
        <ele>417.35</ele>
        <time>2016-01-10T12:47:11Z</time>
      </trkpt>
      <trkpt lat="43.97191" lon="5.14365">
        <ele>417.83</ele>
        <time>2016-01-10T12:47:18Z</time>
      </trkpt>
      <trkpt lat="43.97175" lon="5.14373">
        <ele>418.31</ele>
        <time>2016-01-10T12:47:24Z</time>
      </trkpt>
      <trkpt lat="43.9716" lon="5.1438">
        <ele>418.79</ele>
        <time>2016-01-10T12:47:29Z</time>
      </trkpt>
      <trkpt lat="43.97138" lon="5.14385">
        <ele>418.79</ele>
        <time>2016-01-10T12:47:36Z</time>
      </trkpt>
      <trkpt lat="43.97133" lon="5.14387">
        <ele>419.27</ele>
        <time>2016-01-10T12:47:38Z</time>
      </trkpt>
      <trkpt lat="43.97116" lon="5.14396">
        <ele>420.71</ele>
        <time>2016-01-10T12:47:45Z</time>
      </trkpt>
      <trkpt lat="43.97109" lon="5.14399">
        <ele>420.71</ele>
        <time>2016-01-10T12:47:48Z</time>
      </trkpt>
      <trkpt lat="43.97108" lon="5.14401">
        <ele>420.71</ele>
        <time>2016-01-10T12:47:49Z</time>
      </trkpt>
      <trkpt lat="43.97106" lon="5.14409">
        <ele>420.71</ele>
        <time>2016-01-10T12:47:53Z</time>
      </trkpt>
      <trkpt lat="43.97102" lon="5.14423">
        <ele>422.64</ele>
        <time>2016-01-10T12:48:00Z</time>
      </trkpt>
      <trkpt lat="43.97102" lon="5.14424">
        <ele>421.68</ele>
        <time>2016-01-10T12:48:06Z</time>
      </trkpt>
      <trkpt lat="43.97101" lon="5.14425">
        <ele>421.68</ele>
        <time>2016-01-10T12:48:15Z</time>
      </trkpt>
      <trkpt lat="43.971" lon="5.14425">
        <ele>421.68</ele>
        <time>2016-01-10T12:48:24Z</time>
      </trkpt>
      <trkpt lat="43.97099" lon="5.14425">
        <ele>421.68</ele>
        <time>2016-01-10T12:48:34Z</time>
      </trkpt>
      <trkpt lat="43.97101" lon="5.14422">
        <ele>421.19</ele>
        <time>2016-01-10T12:48:38Z</time>
      </trkpt>
      <trkpt lat="43.97102" lon="5.14419">
        <ele>421.19</ele>
        <time>2016-01-10T12:48:39Z</time>
      </trkpt>
      <trkpt lat="43.97103" lon="5.14417">
        <ele>421.19</ele>
        <time>2016-01-10T12:48:40Z</time>
      </trkpt>
      <trkpt lat="43.97104" lon="5.14414">
        <ele>420.71</ele>
        <time>2016-01-10T12:48:41Z</time>
      </trkpt>
      <trkpt lat="43.97105" lon="5.14409">
        <ele>420.23</ele>
        <time>2016-01-10T12:48:42Z</time>
      </trkpt>
      <trkpt lat="43.97106" lon="5.14404">
        <ele>420.23</ele>
        <time>2016-01-10T12:48:43Z</time>
      </trkpt>
      <trkpt lat="43.97107" lon="5.14399">
        <ele>419.75</ele>
        <time>2016-01-10T12:48:44Z</time>
      </trkpt>
      <trkpt lat="43.97111" lon="5.14395">
        <ele>419.75</ele>
        <time>2016-01-10T12:48:45Z</time>
      </trkpt>
      <trkpt lat="43.97115" lon="5.14393">
        <ele>420.23</ele>
        <time>2016-01-10T12:48:46Z</time>
      </trkpt>
      <trkpt lat="43.97119" lon="5.14392">
        <ele>420.23</ele>
        <time>2016-01-10T12:48:47Z</time>
      </trkpt>
      <trkpt lat="43.97123" lon="5.14391">
        <ele>420.23</ele>
        <time>2016-01-10T12:48:48Z</time>
      </trkpt>
      <trkpt lat="43.97131" lon="5.14386">
        <ele>419.27</ele>
        <time>2016-01-10T12:48:50Z</time>
      </trkpt>
      <trkpt lat="43.9714" lon="5.14381">
        <ele>419.27</ele>
        <time>2016-01-10T12:48:52Z</time>
      </trkpt>
      <trkpt lat="43.97163" lon="5.14374">
        <ele>418.31</ele>
        <time>2016-01-10T12:48:58Z</time>
      </trkpt>
      <trkpt lat="43.97184" lon="5.14362">
        <ele>417.35</ele>
        <time>2016-01-10T12:49:04Z</time>
      </trkpt>
      <trkpt lat="43.97199" lon="5.14358">
        <ele>416.39</ele>
        <time>2016-01-10T12:49:08Z</time>
      </trkpt>
      <trkpt lat="43.97204" lon="5.14357">
        <ele>416.39</ele>
        <time>2016-01-10T12:49:09Z</time>
      </trkpt>
      <trkpt lat="43.97208" lon="5.14358">
        <ele>416.39</ele>
        <time>2016-01-10T12:49:10Z</time>
      </trkpt>
      <trkpt lat="43.97217" lon="5.14361">
        <ele>416.39</ele>
        <time>2016-01-10T12:49:12Z</time>
      </trkpt>
      <trkpt lat="43.97234" lon="5.14367">
        <ele>415.91</ele>
        <time>2016-01-10T12:49:17Z</time>
      </trkpt>
      <trkpt lat="43.97237" lon="5.14365">
        <ele>415.43</ele>
        <time>2016-01-10T12:49:18Z</time>
      </trkpt>
      <trkpt lat="43.9724" lon="5.14362">
        <ele>415.43</ele>
        <time>2016-01-10T12:49:19Z</time>
      </trkpt>
      <trkpt lat="43.97243" lon="5.14359">
        <ele>414.95</ele>
        <time>2016-01-10T12:49:20Z</time>
      </trkpt>
      <trkpt lat="43.97245" lon="5.14357">
        <ele>414.95</ele>
        <time>2016-01-10T12:49:21Z</time>
      </trkpt>
      <trkpt lat="43.97248" lon="5.14356">
        <ele>414.47</ele>
        <time>2016-01-10T12:49:22Z</time>
      </trkpt>
      <trkpt lat="43.97252" lon="5.14356">
        <ele>413.98</ele>
        <time>2016-01-10T12:49:23Z</time>
      </trkpt>
      <trkpt lat="43.97267" lon="5.14362">
        <ele>412.54</ele>
        <time>2016-01-10T12:49:28Z</time>
      </trkpt>
      <trkpt lat="43.97271" lon="5.14364">
        <ele>412.06</ele>
        <time>2016-01-10T12:49:29Z</time>
      </trkpt>
      <trkpt lat="43.97275" lon="5.14369">
        <ele>412.06</ele>
        <time>2016-01-10T12:49:30Z</time>
      </trkpt>
      <trkpt lat="43.97279" lon="5.14373">
        <ele>411.58</ele>
        <time>2016-01-10T12:49:31Z</time>
      </trkpt>
      <trkpt lat="43.97282" lon="5.14376">
        <ele>411.1</ele>
        <time>2016-01-10T12:49:32Z</time>
      </trkpt>
      <trkpt lat="43.97285" lon="5.14378">
        <ele>410.62</ele>
        <time>2016-01-10T12:49:33Z</time>
      </trkpt>
      <trkpt lat="43.97287" lon="5.1438">
        <ele>410.14</ele>
        <time>2016-01-10T12:49:38Z</time>
      </trkpt>
      <trkpt lat="43.97287" lon="5.1438">
        <ele>410.14</ele>
        <time>2016-01-10T12:49:51Z</time>
      </trkpt>
      <trkpt lat="43.97287" lon="5.14381">
        <ele>410.62</ele>
        <time>2016-01-10T12:50:05Z</time>
      </trkpt>
      <trkpt lat="43.97288" lon="5.14381">
        <ele>410.14</ele>
        <time>2016-01-10T12:50:16Z</time>
      </trkpt>
      <trkpt lat="43.97288" lon="5.14381">
        <ele>410.62</ele>
        <time>2016-01-10T12:50:29Z</time>
      </trkpt>
      <trkpt lat="43.97288" lon="5.14381">
        <ele>411.1</ele>
        <time>2016-01-10T12:50:43Z</time>
      </trkpt>
      <trkpt lat="43.97288" lon="5.14381">
        <ele>410.62</ele>
        <time>2016-01-10T12:51:01Z</time>
      </trkpt>
      <trkpt lat="43.97287" lon="5.14381">
        <ele>410.14</ele>
        <time>2016-01-10T12:51:13Z</time>
      </trkpt>
      <trkpt lat="43.97287" lon="5.1438">
        <ele>410.62</ele>
        <time>2016-01-10T12:51:29Z</time>
      </trkpt>
      <trkpt lat="43.97286" lon="5.1438">
        <ele>411.1</ele>
        <time>2016-01-10T12:51:45Z</time>
      </trkpt>
      <trkpt lat="43.97286" lon="5.1438">
        <ele>410.14</ele>
        <time>2016-01-10T12:51:53Z</time>
      </trkpt>
      <trkpt lat="43.97286" lon="5.1438">
        <ele>410.62</ele>
        <time>2016-01-10T12:51:54Z</time>
      </trkpt>
      <trkpt lat="43.97286" lon="5.14382">
        <ele>411.1</ele>
        <time>2016-01-10T12:51:55Z</time>
      </trkpt>
      <trkpt lat="43.97288" lon="5.14393">
        <ele>409.66</ele>
        <time>2016-01-10T12:52:01Z</time>
      </trkpt>
      <trkpt lat="43.97296" lon="5.14404">
        <ele>408.7</ele>
        <time>2016-01-10T12:52:05Z</time>
      </trkpt>
      <trkpt lat="43.97296" lon="5.14419">
        <ele>407.26</ele>
        <time>2016-01-10T12:52:08Z</time>
      </trkpt>
      <trkpt lat="43.97295" lon="5.14424">
        <ele>407.26</ele>
        <time>2016-01-10T12:52:09Z</time>
      </trkpt>
      <trkpt lat="43.97294" lon="5.14428">
        <ele>406.77</ele>
        <time>2016-01-10T12:52:10Z</time>
      </trkpt>
      <trkpt lat="43.97291" lon="5.14432">
        <ele>405.81</ele>
        <time>2016-01-10T12:52:11Z</time>
      </trkpt>
      <trkpt lat="43.97281" lon="5.14451">
        <ele>403.89</ele>
        <time>2016-01-10T12:52:17Z</time>
      </trkpt>
      <trkpt lat="43.97261" lon="5.14462">
        <ele>403.41</ele>
        <time>2016-01-10T12:52:23Z</time>
      </trkpt>
      <trkpt lat="43.97258" lon="5.14464">
        <ele>402.45</ele>
        <time>2016-01-10T12:52:27Z</time>
      </trkpt>
      <trkpt lat="43.97256" lon="5.14465">
        <ele>402.93</ele>
        <time>2016-01-10T12:52:33Z</time>
      </trkpt>
      <trkpt lat="43.97253" lon="5.14468">
        <ele>402.93</ele>
        <time>2016-01-10T12:52:35Z</time>
      </trkpt>
      <trkpt lat="43.97238" lon="5.14479">
        <ele>403.41</ele>
        <time>2016-01-10T12:52:41Z</time>
      </trkpt>
      <trkpt lat="43.97218" lon="5.14497">
        <ele>402.45</ele>
        <time>2016-01-10T12:52:47Z</time>
      </trkpt>
      <trkpt lat="43.97215" lon="5.145">
        <ele>402.45</ele>
        <time>2016-01-10T12:52:48Z</time>
      </trkpt>
      <trkpt lat="43.97212" lon="5.14503">
        <ele>402.45</ele>
        <time>2016-01-10T12:52:49Z</time>
      </trkpt>
      <trkpt lat="43.972" lon="5.14521">
        <ele>402.93</ele>
        <time>2016-01-10T12:52:54Z</time>
      </trkpt>
      <trkpt lat="43.9719" lon="5.14536">
        <ele>402.45</ele>
        <time>2016-01-10T12:52:59Z</time>
      </trkpt>
      <trkpt lat="43.97173" lon="5.14552">
        <ele>402.93</ele>
        <time>2016-01-10T12:53:06Z</time>
      </trkpt>
      <trkpt lat="43.97164" lon="5.14566">
        <ele>403.89</ele>
        <time>2016-01-10T12:53:11Z</time>
      </trkpt>
      <trkpt lat="43.97165" lon="5.14569">
        <ele>403.89</ele>
        <time>2016-01-10T12:53:12Z</time>
      </trkpt>
      <trkpt lat="43.97166" lon="5.14572">
        <ele>403.89</ele>
        <time>2016-01-10T12:53:13Z</time>
      </trkpt>
      <trkpt lat="43.97179" lon="5.14583">
        <ele>405.81</ele>
        <time>2016-01-10T12:53:18Z</time>
      </trkpt>
      <trkpt lat="43.97187" lon="5.14588">
        <ele>406.77</ele>
        <time>2016-01-10T12:53:22Z</time>
      </trkpt>
      <trkpt lat="43.97189" lon="5.1459">
        <ele>406.77</ele>
        <time>2016-01-10T12:53:23Z</time>
      </trkpt>
      <trkpt lat="43.97193" lon="5.14594">
        <ele>407.26</ele>
        <time>2016-01-10T12:53:26Z</time>
      </trkpt>
      <trkpt lat="43.97193" lon="5.14593">
        <ele>406.77</ele>
        <time>2016-01-10T12:53:31Z</time>
      </trkpt>
      <trkpt lat="43.97193" lon="5.14594">
        <ele>406.77</ele>
        <time>2016-01-10T12:53:43Z</time>
      </trkpt>
      <trkpt lat="43.97194" lon="5.14595">
        <ele>406.77</ele>
        <time>2016-01-10T12:53:53Z</time>
      </trkpt>
      <trkpt lat="43.97194" lon="5.14595">
        <ele>407.26</ele>
        <time>2016-01-10T12:54:02Z</time>
      </trkpt>
      <trkpt lat="43.97194" lon="5.14596">
        <ele>406.77</ele>
        <time>2016-01-10T12:54:18Z</time>
      </trkpt>
      <trkpt lat="43.97194" lon="5.14596">
        <ele>406.29</ele>
        <time>2016-01-10T12:54:23Z</time>
      </trkpt>
      <trkpt lat="43.97195" lon="5.14596">
        <ele>405.81</ele>
        <time>2016-01-10T12:54:28Z</time>
      </trkpt>
      <trkpt lat="43.97197" lon="5.14596">
        <ele>406.29</ele>
        <time>2016-01-10T12:54:29Z</time>
      </trkpt>
      <trkpt lat="43.97199" lon="5.14597">
        <ele>405.81</ele>
        <time>2016-01-10T12:54:30Z</time>
      </trkpt>
      <trkpt lat="43.97202" lon="5.14597">
        <ele>406.29</ele>
        <time>2016-01-10T12:54:31Z</time>
      </trkpt>
      <trkpt lat="43.97204" lon="5.14597">
        <ele>406.29</ele>
        <time>2016-01-10T12:54:32Z</time>
      </trkpt>
      <trkpt lat="43.97207" lon="5.14597">
        <ele>406.29</ele>
        <time>2016-01-10T12:54:33Z</time>
      </trkpt>
      <trkpt lat="43.9721" lon="5.14598">
        <ele>405.81</ele>
        <time>2016-01-10T12:54:34Z</time>
      </trkpt>
      <trkpt lat="43.97213" lon="5.146">
        <ele>405.33</ele>
        <time>2016-01-10T12:54:35Z</time>
      </trkpt>
      <trkpt lat="43.97215" lon="5.14601">
        <ele>404.85</ele>
        <time>2016-01-10T12:54:36Z</time>
      </trkpt>
      <trkpt lat="43.97217" lon="5.14601">
        <ele>404.85</ele>
        <time>2016-01-10T12:54:37Z</time>
      </trkpt>
      <trkpt lat="43.97219" lon="5.14601">
        <ele>404.37</ele>
        <time>2016-01-10T12:54:38Z</time>
      </trkpt>
      <trkpt lat="43.97222" lon="5.14602">
        <ele>403.89</ele>
        <time>2016-01-10T12:54:39Z</time>
      </trkpt>
      <trkpt lat="43.97224" lon="5.14604">
        <ele>403.89</ele>
        <time>2016-01-10T12:54:40Z</time>
      </trkpt>
      <trkpt lat="43.97233" lon="5.14613">
        <ele>402.93</ele>
        <time>2016-01-10T12:54:46Z</time>
      </trkpt>
      <trkpt lat="43.97234" lon="5.14615">
        <ele>402.45</ele>
        <time>2016-01-10T12:54:52Z</time>
      </trkpt>
      <trkpt lat="43.97233" lon="5.14615">
        <ele>402.93</ele>
        <time>2016-01-10T12:54:59Z</time>
      </trkpt>
      <trkpt lat="43.97235" lon="5.14617">
        <ele>402.45</ele>
        <time>2016-01-10T12:55:01Z</time>
      </trkpt>
      <trkpt lat="43.97237" lon="5.14622">
        <ele>401.97</ele>
        <time>2016-01-10T12:55:07Z</time>
      </trkpt>
      <trkpt lat="43.97241" lon="5.14635">
        <ele>400.05</ele>
        <time>2016-01-10T12:55:13Z</time>
      </trkpt>
      <trkpt lat="43.97242" lon="5.14643">
        <ele>399.08</ele>
        <time>2016-01-10T12:55:19Z</time>
      </trkpt>
      <trkpt lat="43.97243" lon="5.14647">
        <ele>399.08</ele>
        <time>2016-01-10T12:55:31Z</time>
      </trkpt>
      <trkpt lat="43.97243" lon="5.14649">
        <ele>399.57</ele>
        <time>2016-01-10T12:55:32Z</time>
      </trkpt>
      <trkpt lat="43.97244" lon="5.14652">
        <ele>398.6</ele>
        <time>2016-01-10T12:55:34Z</time>
      </trkpt>
      <trkpt lat="43.97244" lon="5.14653">
        <ele>398.6</ele>
        <time>2016-01-10T12:55:35Z</time>
      </trkpt>
      <trkpt lat="43.97246" lon="5.14661">
        <ele>396.2</ele>
        <time>2016-01-10T12:55:39Z</time>
      </trkpt>
      <trkpt lat="43.97249" lon="5.14671">
        <ele>393.32</ele>
        <time>2016-01-10T12:55:46Z</time>
      </trkpt>
      <trkpt lat="43.97248" lon="5.14671">
        <ele>393.32</ele>
        <time>2016-01-10T12:55:50Z</time>
      </trkpt>
      <trkpt lat="43.97253" lon="5.14664">
        <ele>390.91</ele>
        <time>2016-01-10T12:55:56Z</time>
      </trkpt>
      <trkpt lat="43.97253" lon="5.14664">
        <ele>389.95</ele>
        <time>2016-01-10T12:56:03Z</time>
      </trkpt>
      <trkpt lat="43.97254" lon="5.14664">
        <ele>389.47</ele>
        <time>2016-01-10T12:56:13Z</time>
      </trkpt>
      <trkpt lat="43.97254" lon="5.14664">
        <ele>389.47</ele>
        <time>2016-01-10T12:56:14Z</time>
      </trkpt>
      <trkpt lat="43.97258" lon="5.14659">
        <ele>388.51</ele>
        <time>2016-01-10T12:56:18Z</time>
      </trkpt>
      <trkpt lat="43.97263" lon="5.14657">
        <ele>386.59</ele>
        <time>2016-01-10T12:56:25Z</time>
      </trkpt>
      <trkpt lat="43.97264" lon="5.14656">
        <ele>386.11</ele>
        <time>2016-01-10T12:56:41Z</time>
      </trkpt>
      <trkpt lat="43.97264" lon="5.14654">
        <ele>386.11</ele>
        <time>2016-01-10T12:57:01Z</time>
      </trkpt>
      <trkpt lat="43.97264" lon="5.14653">
        <ele>386.11</ele>
        <time>2016-01-10T12:57:18Z</time>
      </trkpt>
      <trkpt lat="43.97264" lon="5.14653">
        <ele>385.63</ele>
        <time>2016-01-10T12:57:30Z</time>
      </trkpt>
      <trkpt lat="43.9727" lon="5.14646">
        <ele>385.15</ele>
        <time>2016-01-10T12:57:35Z</time>
      </trkpt>
      <trkpt lat="43.9728" lon="5.1462">
        <ele>383.7</ele>
        <time>2016-01-10T12:57:41Z</time>
      </trkpt>
      <trkpt lat="43.97283" lon="5.1461">
        <ele>382.26</ele>
        <time>2016-01-10T12:57:44Z</time>
      </trkpt>
      <trkpt lat="43.97289" lon="5.14596">
        <ele>378.9</ele>
        <time>2016-01-10T12:57:49Z</time>
      </trkpt>
      <trkpt lat="43.97285" lon="5.14575">
        <ele>376.01</ele>
        <time>2016-01-10T12:57:55Z</time>
      </trkpt>
      <trkpt lat="43.97274" lon="5.14557">
        <ele>375.05</ele>
        <time>2016-01-10T12:58:00Z</time>
      </trkpt>
      <trkpt lat="43.97281" lon="5.14541">
        <ele>375.05</ele>
        <time>2016-01-10T12:58:04Z</time>
      </trkpt>
      <trkpt lat="43.97285" lon="5.1454">
        <ele>375.05</ele>
        <time>2016-01-10T12:58:05Z</time>
      </trkpt>
      <trkpt lat="43.97314" lon="5.14527">
        <ele>374.09</ele>
        <time>2016-01-10T12:58:11Z</time>
      </trkpt>
      <trkpt lat="43.97319" lon="5.14525">
        <ele>373.13</ele>
        <time>2016-01-10T12:58:12Z</time>
      </trkpt>
      <trkpt lat="43.97323" lon="5.14522">
        <ele>373.13</ele>
        <time>2016-01-10T12:58:13Z</time>
      </trkpt>
      <trkpt lat="43.97345" lon="5.14513">
        <ele>372.17</ele>
        <time>2016-01-10T12:58:19Z</time>
      </trkpt>
      <trkpt lat="43.97359" lon="5.14501">
        <ele>370.73</ele>
        <time>2016-01-10T12:58:23Z</time>
      </trkpt>
      <trkpt lat="43.97375" lon="5.14485">
        <ele>368.8</ele>
        <time>2016-01-10T12:58:29Z</time>
      </trkpt>
      <trkpt lat="43.97378" lon="5.14484">
        <ele>368.8</ele>
        <time>2016-01-10T12:58:30Z</time>
      </trkpt>
      <trkpt lat="43.97379" lon="5.14484">
        <ele>368.32</ele>
        <time>2016-01-10T12:58:37Z</time>
      </trkpt>
      <trkpt lat="43.97379" lon="5.14484">
        <ele>368.8</ele>
        <time>2016-01-10T12:58:56Z</time>
      </trkpt>
      <trkpt lat="43.97379" lon="5.14485">
        <ele>368.8</ele>
        <time>2016-01-10T12:59:10Z</time>
      </trkpt>
      <trkpt lat="43.97379" lon="5.14486">
        <ele>368.32</ele>
        <time>2016-01-10T12:59:23Z</time>
      </trkpt>
      <trkpt lat="43.97382" lon="5.14486">
        <ele>367.84</ele>
        <time>2016-01-10T12:59:26Z</time>
      </trkpt>
      <trkpt lat="43.97384" lon="5.14486">
        <ele>367.36</ele>
        <time>2016-01-10T12:59:27Z</time>
      </trkpt>
      <trkpt lat="43.97388" lon="5.14486">
        <ele>366.4</ele>
        <time>2016-01-10T12:59:28Z</time>
      </trkpt>
      <trkpt lat="43.97392" lon="5.14485">
        <ele>366.4</ele>
        <time>2016-01-10T12:59:29Z</time>
      </trkpt>
      <trkpt lat="43.97395" lon="5.14484">
        <ele>366.4</ele>
        <time>2016-01-10T12:59:30Z</time>
      </trkpt>
      <trkpt lat="43.97397" lon="5.14482">
        <ele>365.92</ele>
        <time>2016-01-10T12:59:31Z</time>
      </trkpt>
      <trkpt lat="43.974" lon="5.14481">
        <ele>365.44</ele>
        <time>2016-01-10T12:59:32Z</time>
      </trkpt>
      <trkpt lat="43.97417" lon="5.14479">
        <ele>363.52</ele>
        <time>2016-01-10T12:59:37Z</time>
      </trkpt>
      <trkpt lat="43.97429" lon="5.14474">
        <ele>363.04</ele>
        <time>2016-01-10T12:59:42Z</time>
      </trkpt>
      <trkpt lat="43.97431" lon="5.14474">
        <ele>363.04</ele>
        <time>2016-01-10T12:59:43Z</time>
      </trkpt>
      <trkpt lat="43.97434" lon="5.14472">
        <ele>362.55</ele>
        <time>2016-01-10T12:59:44Z</time>
      </trkpt>
      <trkpt lat="43.97437" lon="5.1447">
        <ele>362.55</ele>
        <time>2016-01-10T12:59:45Z</time>
      </trkpt>
      <trkpt lat="43.9744" lon="5.14469">
        <ele>362.55</ele>
        <time>2016-01-10T12:59:46Z</time>
      </trkpt>
      <trkpt lat="43.97444" lon="5.14468">
        <ele>362.07</ele>
        <time>2016-01-10T12:59:47Z</time>
      </trkpt>
      <trkpt lat="43.97457" lon="5.14464">
        <ele>360.15</ele>
        <time>2016-01-10T12:59:52Z</time>
      </trkpt>
      <trkpt lat="43.97474" lon="5.14459">
        <ele>358.23</ele>
        <time>2016-01-10T12:59:57Z</time>
      </trkpt>
      <trkpt lat="43.97495" lon="5.14451">
        <ele>356.79</ele>
        <time>2016-01-10T13:00:03Z</time>
      </trkpt>
      <trkpt lat="43.97509" lon="5.14442">
        <ele>353.9</ele>
        <time>2016-01-10T13:00:08Z</time>
      </trkpt>
      <trkpt lat="43.97533" lon="5.14427">
        <ele>351.02</ele>
        <time>2016-01-10T13:00:14Z</time>
      </trkpt>
      <trkpt lat="43.97537" lon="5.14424">
        <ele>350.06</ele>
        <time>2016-01-10T13:00:15Z</time>
      </trkpt>
      <trkpt lat="43.9755" lon="5.14411">
        <ele>347.65</ele>
        <time>2016-01-10T13:00:18Z</time>
      </trkpt>
      <trkpt lat="43.97554" lon="5.14405">
        <ele>347.17</ele>
        <time>2016-01-10T13:00:19Z</time>
      </trkpt>
      <trkpt lat="43.97559" lon="5.14399">
        <ele>346.69</ele>
        <time>2016-01-10T13:00:20Z</time>
      </trkpt>
      <trkpt lat="43.97588" lon="5.14353">
        <ele>345.73</ele>
        <time>2016-01-10T13:00:27Z</time>
      </trkpt>
      <trkpt lat="43.97595" lon="5.14341">
        <ele>346.69</ele>
        <time>2016-01-10T13:00:29Z</time>
      </trkpt>
      <trkpt lat="43.97608" lon="5.14323">
        <ele>346.69</ele>
        <time>2016-01-10T13:00:33Z</time>
      </trkpt>
      <trkpt lat="43.9763" lon="5.14299">
        <ele>344.29</ele>
        <time>2016-01-10T13:00:38Z</time>
      </trkpt>
      <trkpt lat="43.97633" lon="5.14293">
        <ele>343.81</ele>
        <time>2016-01-10T13:00:39Z</time>
      </trkpt>
      <trkpt lat="43.97636" lon="5.14286">
        <ele>343.81</ele>
        <time>2016-01-10T13:00:40Z</time>
      </trkpt>
      <trkpt lat="43.97647" lon="5.14268">
        <ele>342.37</ele>
        <time>2016-01-10T13:00:43Z</time>
      </trkpt>
      <trkpt lat="43.9765" lon="5.14262">
        <ele>341.89</ele>
        <time>2016-01-10T13:00:44Z</time>
      </trkpt>
      <trkpt lat="43.97654" lon="5.14252">
        <ele>342.37</ele>
        <time>2016-01-10T13:00:46Z</time>
      </trkpt>
      <trkpt lat="43.97657" lon="5.14248">
        <ele>342.37</ele>
        <time>2016-01-10T13:00:47Z</time>
      </trkpt>
      <trkpt lat="43.9766" lon="5.14244">
        <ele>342.37</ele>
        <time>2016-01-10T13:00:48Z</time>
      </trkpt>
      <trkpt lat="43.97663" lon="5.14239">
        <ele>342.37</ele>
        <time>2016-01-10T13:00:49Z</time>
      </trkpt>
      <trkpt lat="43.97667" lon="5.14235">
        <ele>341.41</ele>
        <time>2016-01-10T13:00:50Z</time>
      </trkpt>
      <trkpt lat="43.97673" lon="5.14226">
        <ele>340.92</ele>
        <time>2016-01-10T13:00:52Z</time>
      </trkpt>
      <trkpt lat="43.97685" lon="5.142">
        <ele>340.44</ele>
        <time>2016-01-10T13:00:58Z</time>
      </trkpt>
      <trkpt lat="43.97705" lon="5.14167">
        <ele>339.96</ele>
        <time>2016-01-10T13:01:04Z</time>
      </trkpt>
      <trkpt lat="43.97707" lon="5.14161">
        <ele>339.48</ele>
        <time>2016-01-10T13:01:05Z</time>
      </trkpt>
      <trkpt lat="43.9771" lon="5.14156">
        <ele>339.48</ele>
        <time>2016-01-10T13:01:06Z</time>
      </trkpt>
      <trkpt lat="43.97712" lon="5.14152">
        <ele>339.48</ele>
        <time>2016-01-10T13:01:07Z</time>
      </trkpt>
      <trkpt lat="43.97714" lon="5.14149">
        <ele>338.52</ele>
        <time>2016-01-10T13:01:08Z</time>
      </trkpt>
      <trkpt lat="43.97715" lon="5.14145">
        <ele>339</ele>
        <time>2016-01-10T13:01:09Z</time>
      </trkpt>
      <trkpt lat="43.97727" lon="5.14125">
        <ele>337.08</ele>
        <time>2016-01-10T13:01:14Z</time>
      </trkpt>
      <trkpt lat="43.97731" lon="5.14122">
        <ele>336.12</ele>
        <time>2016-01-10T13:01:15Z</time>
      </trkpt>
      <trkpt lat="43.97736" lon="5.14119">
        <ele>336.12</ele>
        <time>2016-01-10T13:01:16Z</time>
      </trkpt>
      <trkpt lat="43.97739" lon="5.14117">
        <ele>335.16</ele>
        <time>2016-01-10T13:01:17Z</time>
      </trkpt>
      <trkpt lat="43.97742" lon="5.14116">
        <ele>334.68</ele>
        <time>2016-01-10T13:01:18Z</time>
      </trkpt>
      <trkpt lat="43.97749" lon="5.14111">
        <ele>332.75</ele>
        <time>2016-01-10T13:01:20Z</time>
      </trkpt>
      <trkpt lat="43.97753" lon="5.14106">
        <ele>332.27</ele>
        <time>2016-01-10T13:01:21Z</time>
      </trkpt>
      <trkpt lat="43.97756" lon="5.14101">
        <ele>331.31</ele>
        <time>2016-01-10T13:01:22Z</time>
      </trkpt>
      <trkpt lat="43.97759" lon="5.14096">
        <ele>330.83</ele>
        <time>2016-01-10T13:01:23Z</time>
      </trkpt>
      <trkpt lat="43.97763" lon="5.1409">
        <ele>330.35</ele>
        <time>2016-01-10T13:01:24Z</time>
      </trkpt>
      <trkpt lat="43.97766" lon="5.14084">
        <ele>329.87</ele>
        <time>2016-01-10T13:01:25Z</time>
      </trkpt>
      <trkpt lat="43.97773" lon="5.14068">
        <ele>328.91</ele>
        <time>2016-01-10T13:01:27Z</time>
      </trkpt>
      <trkpt lat="43.97785" lon="5.14048">
        <ele>326.02</ele>
        <time>2016-01-10T13:01:30Z</time>
      </trkpt>
      <trkpt lat="43.97786" lon="5.14045">
        <ele>325.06</ele>
        <time>2016-01-10T13:01:31Z</time>
      </trkpt>
      <trkpt lat="43.97787" lon="5.14046">
        <ele>325.54</ele>
        <time>2016-01-10T13:01:36Z</time>
      </trkpt>
      <trkpt lat="43.97787" lon="5.14046">
        <ele>326.02</ele>
        <time>2016-01-10T13:01:46Z</time>
      </trkpt>
      <trkpt lat="43.97787" lon="5.14046">
        <ele>326.5</ele>
        <time>2016-01-10T13:01:54Z</time>
      </trkpt>
      <trkpt lat="43.97788" lon="5.14045">
        <ele>326.02</ele>
        <time>2016-01-10T13:02:01Z</time>
      </trkpt>
      <trkpt lat="43.97788" lon="5.14048">
        <ele>326.02</ele>
        <time>2016-01-10T13:02:13Z</time>
      </trkpt>
      <trkpt lat="43.97789" lon="5.14051">
        <ele>326.5</ele>
        <time>2016-01-10T13:02:21Z</time>
      </trkpt>
      <trkpt lat="43.97789" lon="5.14051">
        <ele>326.5</ele>
        <time>2016-01-10T13:02:29Z</time>
      </trkpt>
      <trkpt lat="43.97789" lon="5.14052">
        <ele>326.5</ele>
        <time>2016-01-10T13:02:37Z</time>
      </trkpt>
      <trkpt lat="43.97789" lon="5.14053">
        <ele>326.5</ele>
        <time>2016-01-10T13:02:47Z</time>
      </trkpt>
      <trkpt lat="43.97788" lon="5.14052">
        <ele>326.5</ele>
        <time>2016-01-10T13:02:55Z</time>
      </trkpt>
      <trkpt lat="43.97788" lon="5.14052">
        <ele>326.5</ele>
        <time>2016-01-10T13:02:59Z</time>
      </trkpt>
      <trkpt lat="43.97787" lon="5.14047">
        <ele>326.02</ele>
        <time>2016-01-10T13:03:06Z</time>
      </trkpt>
      <trkpt lat="43.97787" lon="5.14046">
        <ele>326.02</ele>
        <time>2016-01-10T13:03:17Z</time>
      </trkpt>
      <trkpt lat="43.97788" lon="5.14046">
        <ele>326.02</ele>
        <time>2016-01-10T13:03:25Z</time>
      </trkpt>
      <trkpt lat="43.97788" lon="5.14046">
        <ele>326.5</ele>
        <time>2016-01-10T13:03:41Z</time>
      </trkpt>
      <trkpt lat="43.97788" lon="5.14045">
        <ele>326.5</ele>
        <time>2016-01-10T13:03:58Z</time>
      </trkpt>
      <trkpt lat="43.97789" lon="5.14045">
        <ele>326.02</ele>
        <time>2016-01-10T13:04:10Z</time>
      </trkpt>
      <trkpt lat="43.97789" lon="5.14045">
        <ele>326.5</ele>
        <time>2016-01-10T13:04:25Z</time>
      </trkpt>
      <trkpt lat="43.97789" lon="5.14045">
        <ele>326.5</ele>
        <time>2016-01-10T13:04:26Z</time>
      </trkpt>
      <trkpt lat="43.97789" lon="5.14043">
        <ele>326.02</ele>
        <time>2016-01-10T13:04:34Z</time>
      </trkpt>
      <trkpt lat="43.97789" lon="5.14042">
        <ele>326.02</ele>
        <time>2016-01-10T13:04:45Z</time>
      </trkpt>
      <trkpt lat="43.97789" lon="5.14042">
        <ele>326.02</ele>
        <time>2016-01-10T13:04:54Z</time>
      </trkpt>
      <trkpt lat="43.97788" lon="5.14042">
        <ele>326.02</ele>
        <time>2016-01-10T13:05:07Z</time>
      </trkpt>
      <trkpt lat="43.97788" lon="5.14042">
        <ele>326.02</ele>
        <time>2016-01-10T13:05:23Z</time>
      </trkpt>
      <trkpt lat="43.97788" lon="5.14043">
        <ele>326.02</ele>
        <time>2016-01-10T13:05:32Z</time>
      </trkpt>
      <trkpt lat="43.97791" lon="5.14031">
        <ele>325.54</ele>
        <time>2016-01-10T13:05:37Z</time>
      </trkpt>
      <trkpt lat="43.97795" lon="5.14017">
        <ele>324.1</ele>
        <time>2016-01-10T13:05:40Z</time>
      </trkpt>
      <trkpt lat="43.97796" lon="5.14011">
        <ele>323.14</ele>
        <time>2016-01-10T13:05:41Z</time>
      </trkpt>
      <trkpt lat="43.97799" lon="5.14004">
        <ele>322.18</ele>
        <time>2016-01-10T13:05:42Z</time>
      </trkpt>
      <trkpt lat="43.97803" lon="5.13998">
        <ele>321.7</ele>
        <time>2016-01-10T13:05:43Z</time>
      </trkpt>
      <trkpt lat="43.97805" lon="5.13995">
        <ele>320.26</ele>
        <time>2016-01-10T13:05:44Z</time>
      </trkpt>
      <trkpt lat="43.97807" lon="5.13994">
        <ele>319.78</ele>
        <time>2016-01-10T13:05:45Z</time>
      </trkpt>
      <trkpt lat="43.97807" lon="5.13994">
        <ele>319.78</ele>
        <time>2016-01-10T13:05:46Z</time>
      </trkpt>
      <trkpt lat="43.97808" lon="5.13995">
        <ele>319.3</ele>
        <time>2016-01-10T13:05:51Z</time>
      </trkpt>
      <trkpt lat="43.97806" lon="5.13996">
        <ele>319.78</ele>
        <time>2016-01-10T13:05:54Z</time>
      </trkpt>
      <trkpt lat="43.97802" lon="5.14002">
        <ele>320.26</ele>
        <time>2016-01-10T13:05:58Z</time>
      </trkpt>
      <trkpt lat="43.97801" lon="5.14004">
        <ele>320.26</ele>
        <time>2016-01-10T13:05:59Z</time>
      </trkpt>
      <trkpt lat="43.97801" lon="5.14004">
        <ele>320.26</ele>
        <time>2016-01-10T13:06:00Z</time>
      </trkpt>
      <trkpt lat="43.97801" lon="5.14003">
        <ele>320.74</ele>
        <time>2016-01-10T13:06:06Z</time>
      </trkpt>
      <trkpt lat="43.97801" lon="5.14002">
        <ele>320.26</ele>
        <time>2016-01-10T13:06:07Z</time>
      </trkpt>
      <trkpt lat="43.97803" lon="5.13999">
        <ele>320.26</ele>
        <time>2016-01-10T13:06:08Z</time>
      </trkpt>
      <trkpt lat="43.97805" lon="5.13997">
        <ele>319.78</ele>
        <time>2016-01-10T13:06:09Z</time>
      </trkpt>
      <trkpt lat="43.97813" lon="5.13988">
        <ele>317.85</ele>
        <time>2016-01-10T13:06:13Z</time>
      </trkpt>
      <trkpt lat="43.97815" lon="5.13987">
        <ele>317.37</ele>
        <time>2016-01-10T13:06:14Z</time>
      </trkpt>
      <trkpt lat="43.97817" lon="5.13987">
        <ele>316.89</ele>
        <time>2016-01-10T13:06:15Z</time>
      </trkpt>
      <trkpt lat="43.97819" lon="5.13987">
        <ele>316.89</ele>
        <time>2016-01-10T13:06:16Z</time>
      </trkpt>
      <trkpt lat="43.97821" lon="5.13987">
        <ele>316.41</ele>
        <time>2016-01-10T13:06:17Z</time>
      </trkpt>
      <trkpt lat="43.97822" lon="5.13986">
        <ele>314.97</ele>
        <time>2016-01-10T13:06:22Z</time>
      </trkpt>
      <trkpt lat="43.97822" lon="5.13986">
        <ele>315.45</ele>
        <time>2016-01-10T13:06:29Z</time>
      </trkpt>
      <trkpt lat="43.97823" lon="5.13985">
        <ele>315.45</ele>
        <time>2016-01-10T13:06:30Z</time>
      </trkpt>
      <trkpt lat="43.97825" lon="5.13984">
        <ele>314.97</ele>
        <time>2016-01-10T13:06:31Z</time>
      </trkpt>
      <trkpt lat="43.97826" lon="5.13983">
        <ele>314.97</ele>
        <time>2016-01-10T13:06:32Z</time>
      </trkpt>
      <trkpt lat="43.97829" lon="5.13982">
        <ele>314.49</ele>
        <time>2016-01-10T13:06:33Z</time>
      </trkpt>
      <trkpt lat="43.97831" lon="5.13982">
        <ele>314.49</ele>
        <time>2016-01-10T13:06:34Z</time>
      </trkpt>
      <trkpt lat="43.97833" lon="5.13983">
        <ele>314.01</ele>
        <time>2016-01-10T13:06:35Z</time>
      </trkpt>
      <trkpt lat="43.97834" lon="5.13985">
        <ele>313.53</ele>
        <time>2016-01-10T13:06:40Z</time>
      </trkpt>
      <trkpt lat="43.97835" lon="5.13987">
        <ele>313.05</ele>
        <time>2016-01-10T13:06:47Z</time>
      </trkpt>
      <trkpt lat="43.97836" lon="5.13987">
        <ele>313.05</ele>
        <time>2016-01-10T13:06:48Z</time>
      </trkpt>
      <trkpt lat="43.97837" lon="5.13986">
        <ele>312.57</ele>
        <time>2016-01-10T13:06:49Z</time>
      </trkpt>
      <trkpt lat="43.97839" lon="5.13984">
        <ele>311.6</ele>
        <time>2016-01-10T13:06:50Z</time>
      </trkpt>
      <trkpt lat="43.97841" lon="5.13983">
        <ele>310.64</ele>
        <time>2016-01-10T13:06:51Z</time>
      </trkpt>
      <trkpt lat="43.97843" lon="5.13982">
        <ele>310.16</ele>
        <time>2016-01-10T13:06:52Z</time>
      </trkpt>
      <trkpt lat="43.97845" lon="5.13983">
        <ele>309.68</ele>
        <time>2016-01-10T13:06:53Z</time>
      </trkpt>
      <trkpt lat="43.97847" lon="5.13984">
        <ele>309.2</ele>
        <time>2016-01-10T13:06:54Z</time>
      </trkpt>
      <trkpt lat="43.97849" lon="5.13984">
        <ele>308.72</ele>
        <time>2016-01-10T13:06:55Z</time>
      </trkpt>
      <trkpt lat="43.97851" lon="5.13983">
        <ele>308.24</ele>
        <time>2016-01-10T13:06:56Z</time>
      </trkpt>
      <trkpt lat="43.97853" lon="5.13981">
        <ele>307.76</ele>
        <time>2016-01-10T13:06:57Z</time>
      </trkpt>
      <trkpt lat="43.97853" lon="5.13979">
        <ele>307.76</ele>
        <time>2016-01-10T13:06:58Z</time>
      </trkpt>
      <trkpt lat="43.97853" lon="5.13978">
        <ele>307.76</ele>
        <time>2016-01-10T13:06:59Z</time>
      </trkpt>
      <trkpt lat="43.97855" lon="5.13976">
        <ele>307.76</ele>
        <time>2016-01-10T13:07:01Z</time>
      </trkpt>
      <trkpt lat="43.97857" lon="5.13978">
        <ele>307.28</ele>
        <time>2016-01-10T13:07:06Z</time>
      </trkpt>
      <trkpt lat="43.97861" lon="5.14001">
        <ele>306.8</ele>
        <time>2016-01-10T13:07:11Z</time>
      </trkpt>
      <trkpt lat="43.97864" lon="5.14015">
        <ele>307.28</ele>
        <time>2016-01-10T13:07:14Z</time>
      </trkpt>
      <trkpt lat="43.97875" lon="5.14023">
        <ele>307.76</ele>
        <time>2016-01-10T13:07:17Z</time>
      </trkpt>
      <trkpt lat="43.97883" lon="5.14023">
        <ele>308.72</ele>
        <time>2016-01-10T13:07:23Z</time>
      </trkpt>
      <trkpt lat="43.97887" lon="5.14023">
        <ele>309.2</ele>
        <time>2016-01-10T13:07:28Z</time>
      </trkpt>
      <trkpt lat="43.97891" lon="5.14032">
        <ele>310.16</ele>
        <time>2016-01-10T13:07:35Z</time>
      </trkpt>
      <trkpt lat="43.97892" lon="5.14041">
        <ele>312.09</ele>
        <time>2016-01-10T13:07:42Z</time>
      </trkpt>
      <trkpt lat="43.97893" lon="5.14044">
        <ele>313.53</ele>
        <time>2016-01-10T13:07:50Z</time>
      </trkpt>
      <trkpt lat="43.97893" lon="5.14045">
        <ele>314.01</ele>
        <time>2016-01-10T13:07:52Z</time>
      </trkpt>
      <trkpt lat="43.979" lon="5.14047">
        <ele>314.49</ele>
        <time>2016-01-10T13:07:58Z</time>
      </trkpt>
      <trkpt lat="43.97905" lon="5.1405">
        <ele>314.49</ele>
        <time>2016-01-10T13:08:03Z</time>
      </trkpt>
      <trkpt lat="43.97908" lon="5.14049">
        <ele>315.45</ele>
        <time>2016-01-10T13:08:09Z</time>
      </trkpt>
      <trkpt lat="43.9791" lon="5.1405">
        <ele>315.45</ele>
        <time>2016-01-10T13:08:14Z</time>
      </trkpt>
      <trkpt lat="43.97914" lon="5.14048">
        <ele>315.93</ele>
        <time>2016-01-10T13:08:18Z</time>
      </trkpt>
      <trkpt lat="43.97921" lon="5.14047">
        <ele>316.89</ele>
        <time>2016-01-10T13:08:25Z</time>
      </trkpt>
      <trkpt lat="43.97921" lon="5.14047">
        <ele>317.37</ele>
        <time>2016-01-10T13:08:28Z</time>
      </trkpt>
      <trkpt lat="43.97923" lon="5.14059">
        <ele>318.33</ele>
        <time>2016-01-10T13:08:35Z</time>
      </trkpt>
      <trkpt lat="43.97923" lon="5.14062">
        <ele>318.33</ele>
        <time>2016-01-10T13:08:37Z</time>
      </trkpt>
      <trkpt lat="43.97921" lon="5.14068">
        <ele>319.3</ele>
        <time>2016-01-10T13:08:41Z</time>
      </trkpt>
      <trkpt lat="43.97921" lon="5.14074">
        <ele>319.78</ele>
        <time>2016-01-10T13:08:45Z</time>
      </trkpt>
      <trkpt lat="43.97921" lon="5.14081">
        <ele>320.26</ele>
        <time>2016-01-10T13:08:53Z</time>
      </trkpt>
      <trkpt lat="43.9792" lon="5.14084">
        <ele>320.74</ele>
        <time>2016-01-10T13:08:55Z</time>
      </trkpt>
      <trkpt lat="43.97915" lon="5.14102">
        <ele>321.7</ele>
        <time>2016-01-10T13:09:02Z</time>
      </trkpt>
      <trkpt lat="43.97913" lon="5.14104">
        <ele>322.18</ele>
        <time>2016-01-10T13:09:04Z</time>
      </trkpt>
      <trkpt lat="43.97906" lon="5.14121">
        <ele>324.1</ele>
        <time>2016-01-10T13:09:13Z</time>
      </trkpt>
      <trkpt lat="43.97905" lon="5.14122">
        <ele>324.58</ele>
        <time>2016-01-10T13:09:14Z</time>
      </trkpt>
      <trkpt lat="43.97903" lon="5.14127">
        <ele>324.58</ele>
        <time>2016-01-10T13:09:17Z</time>
      </trkpt>
      <trkpt lat="43.97896" lon="5.14143">
        <ele>326.5</ele>
        <time>2016-01-10T13:09:26Z</time>
      </trkpt>
      <trkpt lat="43.9789" lon="5.1416">
        <ele>327.95</ele>
        <time>2016-01-10T13:09:33Z</time>
      </trkpt>
      <trkpt lat="43.97882" lon="5.14174">
        <ele>329.39</ele>
        <time>2016-01-10T13:09:40Z</time>
      </trkpt>
      <trkpt lat="43.97875" lon="5.14191">
        <ele>330.35</ele>
        <time>2016-01-10T13:09:48Z</time>
      </trkpt>
      <trkpt lat="43.97868" lon="5.14205">
        <ele>332.27</ele>
        <time>2016-01-10T13:09:56Z</time>
      </trkpt>
      <trkpt lat="43.97862" lon="5.14217">
        <ele>333.23</ele>
        <time>2016-01-10T13:10:04Z</time>
      </trkpt>
      <trkpt lat="43.97861" lon="5.14219">
        <ele>333.23</ele>
        <time>2016-01-10T13:10:05Z</time>
      </trkpt>
      <trkpt lat="43.97861" lon="5.14228">
        <ele>335.16</ele>
        <time>2016-01-10T13:10:10Z</time>
      </trkpt>
      <trkpt lat="43.97861" lon="5.14228">
        <ele>334.68</ele>
        <time>2016-01-10T13:10:17Z</time>
      </trkpt>
      <trkpt lat="43.9786" lon="5.14227">
        <ele>334.68</ele>
        <time>2016-01-10T13:10:28Z</time>
      </trkpt>
      <trkpt lat="43.9786" lon="5.14227">
        <ele>334.2</ele>
        <time>2016-01-10T13:10:40Z</time>
      </trkpt>
      <trkpt lat="43.97859" lon="5.14226">
        <ele>334.68</ele>
        <time>2016-01-10T13:10:52Z</time>
      </trkpt>
      <trkpt lat="43.97859" lon="5.14227">
        <ele>334.68</ele>
        <time>2016-01-10T13:11:05Z</time>
      </trkpt>
      <trkpt lat="43.97858" lon="5.14226">
        <ele>334.68</ele>
        <time>2016-01-10T13:11:18Z</time>
      </trkpt>
      <trkpt lat="43.97858" lon="5.14225">
        <ele>334.2</ele>
        <time>2016-01-10T13:11:33Z</time>
      </trkpt>
      <trkpt lat="43.97858" lon="5.14224">
        <ele>334.2</ele>
        <time>2016-01-10T13:11:48Z</time>
      </trkpt>
      <trkpt lat="43.97858" lon="5.14224">
        <ele>334.68</ele>
        <time>2016-01-10T13:12:03Z</time>
      </trkpt>
      <trkpt lat="43.97859" lon="5.14223">
        <ele>335.16</ele>
        <time>2016-01-10T13:12:14Z</time>
      </trkpt>
      <trkpt lat="43.97869" lon="5.14216">
        <ele>335.64</ele>
        <time>2016-01-10T13:12:21Z</time>
      </trkpt>
      <trkpt lat="43.9788" lon="5.14206">
        <ele>336.12</ele>
        <time>2016-01-10T13:12:26Z</time>
      </trkpt>
      <trkpt lat="43.9789" lon="5.14191">
        <ele>336.12</ele>
        <time>2016-01-10T13:12:31Z</time>
      </trkpt>
      <trkpt lat="43.97899" lon="5.14182">
        <ele>336.12</ele>
        <time>2016-01-10T13:12:34Z</time>
      </trkpt>
      <trkpt lat="43.97914" lon="5.14169">
        <ele>336.12</ele>
        <time>2016-01-10T13:12:40Z</time>
      </trkpt>
      <trkpt lat="43.97924" lon="5.14163">
        <ele>336.6</ele>
        <time>2016-01-10T13:12:45Z</time>
      </trkpt>
      <trkpt lat="43.97933" lon="5.14155">
        <ele>337.56</ele>
        <time>2016-01-10T13:12:50Z</time>
      </trkpt>
      <trkpt lat="43.97939" lon="5.14149">
        <ele>338.52</ele>
        <time>2016-01-10T13:12:53Z</time>
      </trkpt>
      <trkpt lat="43.97942" lon="5.14148">
        <ele>339</ele>
        <time>2016-01-10T13:12:55Z</time>
      </trkpt>
      <trkpt lat="43.97947" lon="5.14157">
        <ele>340.44</ele>
        <time>2016-01-10T13:13:01Z</time>
      </trkpt>
      <trkpt lat="43.97949" lon="5.14162">
        <ele>340.92</ele>
        <time>2016-01-10T13:13:07Z</time>
      </trkpt>
      <trkpt lat="43.9795" lon="5.14167">
        <ele>341.41</ele>
        <time>2016-01-10T13:13:14Z</time>
      </trkpt>
      <trkpt lat="43.9795" lon="5.1417">
        <ele>341.41</ele>
        <time>2016-01-10T13:13:16Z</time>
      </trkpt>
      <trkpt lat="43.97948" lon="5.14174">
        <ele>341.89</ele>
        <time>2016-01-10T13:13:19Z</time>
      </trkpt>
      <trkpt lat="43.97945" lon="5.14187">
        <ele>343.33</ele>
        <time>2016-01-10T13:13:27Z</time>
      </trkpt>
      <trkpt lat="43.97944" lon="5.14188">
        <ele>343.33</ele>
        <time>2016-01-10T13:13:28Z</time>
      </trkpt>
      <trkpt lat="43.97942" lon="5.14197">
        <ele>343.81</ele>
        <time>2016-01-10T13:13:32Z</time>
      </trkpt>
      <trkpt lat="43.97943" lon="5.14201">
        <ele>344.29</ele>
        <time>2016-01-10T13:13:35Z</time>
      </trkpt>
      <trkpt lat="43.97954" lon="5.142">
        <ele>345.73</ele>
        <time>2016-01-10T13:13:42Z</time>
      </trkpt>
      <trkpt lat="43.97957" lon="5.142">
        <ele>346.21</ele>
        <time>2016-01-10T13:13:44Z</time>
      </trkpt>
      <trkpt lat="43.97969" lon="5.14209">
        <ele>346.69</ele>
        <time>2016-01-10T13:13:52Z</time>
      </trkpt>
      <trkpt lat="43.97976" lon="5.14219">
        <ele>346.69</ele>
        <time>2016-01-10T13:13:58Z</time>
      </trkpt>
      <trkpt lat="43.97978" lon="5.14223">
        <ele>346.21</ele>
        <time>2016-01-10T13:14:05Z</time>
      </trkpt>
      <trkpt lat="43.97977" lon="5.14224">
        <ele>346.69</ele>
        <time>2016-01-10T13:14:22Z</time>
      </trkpt>
      <trkpt lat="43.97977" lon="5.14223">
        <ele>346.69</ele>
        <time>2016-01-10T13:14:30Z</time>
      </trkpt>
      <trkpt lat="43.97982" lon="5.14237">
        <ele>346.69</ele>
        <time>2016-01-10T13:14:35Z</time>
      </trkpt>
      <trkpt lat="43.97994" lon="5.14266">
        <ele>345.25</ele>
        <time>2016-01-10T13:14:41Z</time>
      </trkpt>
      <trkpt lat="43.98006" lon="5.14304">
        <ele>343.81</ele>
        <time>2016-01-10T13:14:47Z</time>
      </trkpt>
      <trkpt lat="43.98007" lon="5.14311">
        <ele>342.85</ele>
        <time>2016-01-10T13:14:48Z</time>
      </trkpt>
      <trkpt lat="43.9801" lon="5.14322">
        <ele>341.41</ele>
        <time>2016-01-10T13:14:51Z</time>
      </trkpt>
      <trkpt lat="43.98011" lon="5.14323">
        <ele>341.89</ele>
        <time>2016-01-10T13:14:52Z</time>
      </trkpt>
      <trkpt lat="43.98012" lon="5.14322">
        <ele>341.41</ele>
        <time>2016-01-10T13:14:58Z</time>
      </trkpt>
      <trkpt lat="43.98011" lon="5.14322">
        <ele>341.41</ele>
        <time>2016-01-10T13:15:02Z</time>
      </trkpt>
      <trkpt lat="43.98011" lon="5.14328">
        <ele>341.89</ele>
        <time>2016-01-10T13:15:04Z</time>
      </trkpt>
      <trkpt lat="43.97999" lon="5.14356">
        <ele>340.44</ele>
        <time>2016-01-10T13:15:12Z</time>
      </trkpt>
      <trkpt lat="43.97981" lon="5.14393">
        <ele>339.48</ele>
        <time>2016-01-10T13:15:20Z</time>
      </trkpt>
      <trkpt lat="43.97979" lon="5.14399">
        <ele>339.96</ele>
        <time>2016-01-10T13:15:21Z</time>
      </trkpt>
      <trkpt lat="43.97976" lon="5.14404">
        <ele>339</ele>
        <time>2016-01-10T13:15:22Z</time>
      </trkpt>
      <trkpt lat="43.97968" lon="5.14424">
        <ele>338.52</ele>
        <time>2016-01-10T13:15:26Z</time>
      </trkpt>
      <trkpt lat="43.97967" lon="5.1443">
        <ele>338.52</ele>
        <time>2016-01-10T13:15:27Z</time>
      </trkpt>
      <trkpt lat="43.9796" lon="5.14463">
        <ele>337.56</ele>
        <time>2016-01-10T13:15:32Z</time>
      </trkpt>
      <trkpt lat="43.97956" lon="5.14489">
        <ele>337.08</ele>
        <time>2016-01-10T13:15:36Z</time>
      </trkpt>
      <trkpt lat="43.97952" lon="5.14508">
        <ele>336.6</ele>
        <time>2016-01-10T13:15:39Z</time>
      </trkpt>
      <trkpt lat="43.9795" lon="5.14514">
        <ele>336.12</ele>
        <time>2016-01-10T13:15:40Z</time>
      </trkpt>
      <trkpt lat="43.97948" lon="5.14521">
        <ele>336.12</ele>
        <time>2016-01-10T13:15:41Z</time>
      </trkpt>
      <trkpt lat="43.97947" lon="5.14527">
        <ele>335.64</ele>
        <time>2016-01-10T13:15:42Z</time>
      </trkpt>
      <trkpt lat="43.97944" lon="5.14534">
        <ele>335.64</ele>
        <time>2016-01-10T13:15:43Z</time>
      </trkpt>
      <trkpt lat="43.97943" lon="5.14542">
        <ele>335.16</ele>
        <time>2016-01-10T13:15:44Z</time>
      </trkpt>
      <trkpt lat="43.97944" lon="5.14549">
        <ele>333.71</ele>
        <time>2016-01-10T13:15:45Z</time>
      </trkpt>
      <trkpt lat="43.97947" lon="5.14555">
        <ele>333.23</ele>
        <time>2016-01-10T13:15:46Z</time>
      </trkpt>
      <trkpt lat="43.97952" lon="5.1456">
        <ele>333.71</ele>
        <time>2016-01-10T13:15:47Z</time>
      </trkpt>
      <trkpt lat="43.97957" lon="5.14564">
        <ele>333.23</ele>
        <time>2016-01-10T13:15:48Z</time>
      </trkpt>
      <trkpt lat="43.97962" lon="5.14567">
        <ele>332.27</ele>
        <time>2016-01-10T13:15:49Z</time>
      </trkpt>
      <trkpt lat="43.97967" lon="5.14568">
        <ele>332.27</ele>
        <time>2016-01-10T13:15:50Z</time>
      </trkpt>
      <trkpt lat="43.97971" lon="5.14569">
        <ele>331.79</ele>
        <time>2016-01-10T13:15:51Z</time>
      </trkpt>
      <trkpt lat="43.97984" lon="5.14566">
        <ele>329.39</ele>
        <time>2016-01-10T13:15:55Z</time>
      </trkpt>
      <trkpt lat="43.97988" lon="5.14565">
        <ele>328.43</ele>
        <time>2016-01-10T13:15:56Z</time>
      </trkpt>
      <trkpt lat="43.97992" lon="5.14563">
        <ele>328.43</ele>
        <time>2016-01-10T13:15:57Z</time>
      </trkpt>
      <trkpt lat="43.98" lon="5.14561">
        <ele>327.47</ele>
        <time>2016-01-10T13:15:59Z</time>
      </trkpt>
      <trkpt lat="43.98023" lon="5.14549">
        <ele>325.06</ele>
        <time>2016-01-10T13:16:05Z</time>
      </trkpt>
      <trkpt lat="43.98055" lon="5.14531">
        <ele>322.66</ele>
        <time>2016-01-10T13:16:11Z</time>
      </trkpt>
      <trkpt lat="43.98061" lon="5.14524">
        <ele>322.18</ele>
        <time>2016-01-10T13:16:14Z</time>
      </trkpt>
      <trkpt lat="43.98076" lon="5.14514">
        <ele>321.7</ele>
        <time>2016-01-10T13:16:19Z</time>
      </trkpt>
      <trkpt lat="43.98084" lon="5.14505">
        <ele>320.26</ele>
        <time>2016-01-10T13:16:24Z</time>
      </trkpt>
      <trkpt lat="43.98083" lon="5.14502">
        <ele>320.26</ele>
        <time>2016-01-10T13:16:39Z</time>
      </trkpt>
      <trkpt lat="43.98084" lon="5.14502">
        <ele>319.78</ele>
        <time>2016-01-10T13:16:50Z</time>
      </trkpt>
      <trkpt lat="43.98086" lon="5.145">
        <ele>320.26</ele>
        <time>2016-01-10T13:16:51Z</time>
      </trkpt>
      <trkpt lat="43.98087" lon="5.14497">
        <ele>319.78</ele>
        <time>2016-01-10T13:16:52Z</time>
      </trkpt>
      <trkpt lat="43.98089" lon="5.14494">
        <ele>319.78</ele>
        <time>2016-01-10T13:16:53Z</time>
      </trkpt>
      <trkpt lat="43.98091" lon="5.14491">
        <ele>319.3</ele>
        <time>2016-01-10T13:16:54Z</time>
      </trkpt>
      <trkpt lat="43.98107" lon="5.14471">
        <ele>317.85</ele>
        <time>2016-01-10T13:17:00Z</time>
      </trkpt>
      <trkpt lat="43.9812" lon="5.14449">
        <ele>315.93</ele>
        <time>2016-01-10T13:17:04Z</time>
      </trkpt>
      <trkpt lat="43.98121" lon="5.14443">
        <ele>315.45</ele>
        <time>2016-01-10T13:17:05Z</time>
      </trkpt>
      <trkpt lat="43.98126" lon="5.14419">
        <ele>313.53</ele>
        <time>2016-01-10T13:17:08Z</time>
      </trkpt>
      <trkpt lat="43.9813" lon="5.1441">
        <ele>313.05</ele>
        <time>2016-01-10T13:17:09Z</time>
      </trkpt>
      <trkpt lat="43.98135" lon="5.14403">
        <ele>312.57</ele>
        <time>2016-01-10T13:17:10Z</time>
      </trkpt>
      <trkpt lat="43.98141" lon="5.14396">
        <ele>312.09</ele>
        <time>2016-01-10T13:17:11Z</time>
      </trkpt>
      <trkpt lat="43.98181" lon="5.14351">
        <ele>309.68</ele>
        <time>2016-01-10T13:17:17Z</time>
      </trkpt>
      <trkpt lat="43.98215" lon="5.14305">
        <ele>306.8</ele>
        <time>2016-01-10T13:17:22Z</time>
      </trkpt>
      <trkpt lat="43.98242" lon="5.14272">
        <ele>307.76</ele>
        <time>2016-01-10T13:17:26Z</time>
      </trkpt>
      <trkpt lat="43.98247" lon="5.14264">
        <ele>306.8</ele>
        <time>2016-01-10T13:17:27Z</time>
      </trkpt>
      <trkpt lat="43.9825" lon="5.14257">
        <ele>305.84</ele>
        <time>2016-01-10T13:17:28Z</time>
      </trkpt>
      <trkpt lat="43.98251" lon="5.14251">
        <ele>304.88</ele>
        <time>2016-01-10T13:17:29Z</time>
      </trkpt>
      <trkpt lat="43.98251" lon="5.14247">
        <ele>304.88</ele>
        <time>2016-01-10T13:17:30Z</time>
      </trkpt>
      <trkpt lat="43.98254" lon="5.14234">
        <ele>304.39</ele>
        <time>2016-01-10T13:17:33Z</time>
      </trkpt>
      <trkpt lat="43.98255" lon="5.14227">
        <ele>304.39</ele>
        <time>2016-01-10T13:17:34Z</time>
      </trkpt>
      <trkpt lat="43.98257" lon="5.14207">
        <ele>304.88</ele>
        <time>2016-01-10T13:17:37Z</time>
      </trkpt>
      <trkpt lat="43.98259" lon="5.142">
        <ele>304.88</ele>
        <time>2016-01-10T13:17:38Z</time>
      </trkpt>
      <trkpt lat="43.98262" lon="5.14194">
        <ele>305.84</ele>
        <time>2016-01-10T13:17:39Z</time>
      </trkpt>
      <trkpt lat="43.98276" lon="5.14173">
        <ele>306.8</ele>
        <time>2016-01-10T13:17:43Z</time>
      </trkpt>
      <trkpt lat="43.98279" lon="5.14168">
        <ele>306.8</ele>
        <time>2016-01-10T13:17:44Z</time>
      </trkpt>
      <trkpt lat="43.983" lon="5.14143">
        <ele>307.76</ele>
        <time>2016-01-10T13:17:50Z</time>
      </trkpt>
      <trkpt lat="43.98303" lon="5.14139">
        <ele>307.76</ele>
        <time>2016-01-10T13:17:51Z</time>
      </trkpt>
      <trkpt lat="43.98306" lon="5.14135">
        <ele>308.24</ele>
        <time>2016-01-10T13:17:52Z</time>
      </trkpt>
      <trkpt lat="43.9831" lon="5.14131">
        <ele>308.24</ele>
        <time>2016-01-10T13:17:53Z</time>
      </trkpt>
      <trkpt lat="43.98313" lon="5.14126">
        <ele>308.24</ele>
        <time>2016-01-10T13:17:54Z</time>
      </trkpt>
      <trkpt lat="43.9832" lon="5.14117">
        <ele>308.72</ele>
        <time>2016-01-10T13:17:56Z</time>
      </trkpt>
      <trkpt lat="43.98324" lon="5.14113">
        <ele>309.2</ele>
        <time>2016-01-10T13:17:57Z</time>
      </trkpt>
      <trkpt lat="43.9833" lon="5.14105">
        <ele>309.68</ele>
        <time>2016-01-10T13:17:59Z</time>
      </trkpt>
      <trkpt lat="43.98333" lon="5.141">
        <ele>309.68</ele>
        <time>2016-01-10T13:18:00Z</time>
      </trkpt>
      <trkpt lat="43.98337" lon="5.14096">
        <ele>309.68</ele>
        <time>2016-01-10T13:18:01Z</time>
      </trkpt>
      <trkpt lat="43.9834" lon="5.14091">
        <ele>309.68</ele>
        <time>2016-01-10T13:18:02Z</time>
      </trkpt>
      <trkpt lat="43.98343" lon="5.14088">
        <ele>310.16</ele>
        <time>2016-01-10T13:18:03Z</time>
      </trkpt>
      <trkpt lat="43.98347" lon="5.14084">
        <ele>310.16</ele>
        <time>2016-01-10T13:18:04Z</time>
      </trkpt>
      <trkpt lat="43.9835" lon="5.1408">
        <ele>310.64</ele>
        <time>2016-01-10T13:18:05Z</time>
      </trkpt>
      <trkpt lat="43.98353" lon="5.14075">
        <ele>310.64</ele>
        <time>2016-01-10T13:18:06Z</time>
      </trkpt>
      <trkpt lat="43.98356" lon="5.14071">
        <ele>311.12</ele>
        <time>2016-01-10T13:18:07Z</time>
      </trkpt>
      <trkpt lat="43.9836" lon="5.14066">
        <ele>311.12</ele>
        <time>2016-01-10T13:18:08Z</time>
      </trkpt>
      <trkpt lat="43.98363" lon="5.14062">
        <ele>311.6</ele>
        <time>2016-01-10T13:18:09Z</time>
      </trkpt>
      <trkpt lat="43.98366" lon="5.14057">
        <ele>311.6</ele>
        <time>2016-01-10T13:18:10Z</time>
      </trkpt>
      <trkpt lat="43.98369" lon="5.14053">
        <ele>311.6</ele>
        <time>2016-01-10T13:18:11Z</time>
      </trkpt>
      <trkpt lat="43.98372" lon="5.14048">
        <ele>311.6</ele>
        <time>2016-01-10T13:18:12Z</time>
      </trkpt>
      <trkpt lat="43.98376" lon="5.14044">
        <ele>312.09</ele>
        <time>2016-01-10T13:18:13Z</time>
      </trkpt>
      <trkpt lat="43.98379" lon="5.14041">
        <ele>312.09</ele>
        <time>2016-01-10T13:18:14Z</time>
      </trkpt>
      <trkpt lat="43.98386" lon="5.14034">
        <ele>312.09</ele>
        <time>2016-01-10T13:18:16Z</time>
      </trkpt>
      <trkpt lat="43.98405" lon="5.14016">
        <ele>313.05</ele>
        <time>2016-01-10T13:18:21Z</time>
      </trkpt>
      <trkpt lat="43.98409" lon="5.14013">
        <ele>313.05</ele>
        <time>2016-01-10T13:18:22Z</time>
      </trkpt>
      <trkpt lat="43.98413" lon="5.1401">
        <ele>313.53</ele>
        <time>2016-01-10T13:18:23Z</time>
      </trkpt>
      <trkpt lat="43.98417" lon="5.14006">
        <ele>313.53</ele>
        <time>2016-01-10T13:18:24Z</time>
      </trkpt>
      <trkpt lat="43.9842" lon="5.14004">
        <ele>313.53</ele>
        <time>2016-01-10T13:18:25Z</time>
      </trkpt>
      <trkpt lat="43.9843" lon="5.13995">
        <ele>314.01</ele>
        <time>2016-01-10T13:18:28Z</time>
      </trkpt>
      <trkpt lat="43.98434" lon="5.13992">
        <ele>314.49</ele>
        <time>2016-01-10T13:18:29Z</time>
      </trkpt>
      <trkpt lat="43.98437" lon="5.13991">
        <ele>314.49</ele>
        <time>2016-01-10T13:18:30Z</time>
      </trkpt>
      <trkpt lat="43.98444" lon="5.13986">
        <ele>314.97</ele>
        <time>2016-01-10T13:18:32Z</time>
      </trkpt>
      <trkpt lat="43.98466" lon="5.13967">
        <ele>315.93</ele>
        <time>2016-01-10T13:18:38Z</time>
      </trkpt>
      <trkpt lat="43.98472" lon="5.1396">
        <ele>316.41</ele>
        <time>2016-01-10T13:18:40Z</time>
      </trkpt>
      <trkpt lat="43.98475" lon="5.13957">
        <ele>316.89</ele>
        <time>2016-01-10T13:18:41Z</time>
      </trkpt>
      <trkpt lat="43.98477" lon="5.13953">
        <ele>316.89</ele>
        <time>2016-01-10T13:18:42Z</time>
      </trkpt>
      <trkpt lat="43.98478" lon="5.13949">
        <ele>317.37</ele>
        <time>2016-01-10T13:18:43Z</time>
      </trkpt>
      <trkpt lat="43.9848" lon="5.13945">
        <ele>317.37</ele>
        <time>2016-01-10T13:18:44Z</time>
      </trkpt>
      <trkpt lat="43.98483" lon="5.13942">
        <ele>317.37</ele>
        <time>2016-01-10T13:18:45Z</time>
      </trkpt>
      <trkpt lat="43.98486" lon="5.13939">
        <ele>317.37</ele>
        <time>2016-01-10T13:18:46Z</time>
      </trkpt>
      <trkpt lat="43.9849" lon="5.13936">
        <ele>317.37</ele>
        <time>2016-01-10T13:18:47Z</time>
      </trkpt>
      <trkpt lat="43.98493" lon="5.13934">
        <ele>317.37</ele>
        <time>2016-01-10T13:18:48Z</time>
      </trkpt>
      <trkpt lat="43.98498" lon="5.13931">
        <ele>316.89</ele>
        <time>2016-01-10T13:18:49Z</time>
      </trkpt>
      <trkpt lat="43.98503" lon="5.13928">
        <ele>316.89</ele>
        <time>2016-01-10T13:18:50Z</time>
      </trkpt>
      <trkpt lat="43.9854" lon="5.13914">
        <ele>314.97</ele>
        <time>2016-01-10T13:18:57Z</time>
      </trkpt>
      <trkpt lat="43.98557" lon="5.13908">
        <ele>314.01</ele>
        <time>2016-01-10T13:19:00Z</time>
      </trkpt>
      <trkpt lat="43.98569" lon="5.13904">
        <ele>314.01</ele>
        <time>2016-01-10T13:19:02Z</time>
      </trkpt>
      <trkpt lat="43.98597" lon="5.139">
        <ele>313.05</ele>
        <time>2016-01-10T13:19:07Z</time>
      </trkpt>
      <trkpt lat="43.98602" lon="5.139">
        <ele>312.57</ele>
        <time>2016-01-10T13:19:08Z</time>
      </trkpt>
      <trkpt lat="43.98608" lon="5.139">
        <ele>312.57</ele>
        <time>2016-01-10T13:19:09Z</time>
      </trkpt>
      <trkpt lat="43.98634" lon="5.13903">
        <ele>312.09</ele>
        <time>2016-01-10T13:19:13Z</time>
      </trkpt>
      <trkpt lat="43.98646" lon="5.13903">
        <ele>311.6</ele>
        <time>2016-01-10T13:19:15Z</time>
      </trkpt>
      <trkpt lat="43.98652" lon="5.13902">
        <ele>311.6</ele>
        <time>2016-01-10T13:19:16Z</time>
      </trkpt>
      <trkpt lat="43.98675" lon="5.13893">
        <ele>310.64</ele>
        <time>2016-01-10T13:19:20Z</time>
      </trkpt>
      <trkpt lat="43.98681" lon="5.1389">
        <ele>310.64</ele>
        <time>2016-01-10T13:19:21Z</time>
      </trkpt>
      <trkpt lat="43.98692" lon="5.13884">
        <ele>310.64</ele>
        <time>2016-01-10T13:19:23Z</time>
      </trkpt>
      <trkpt lat="43.98697" lon="5.13882">
        <ele>310.16</ele>
        <time>2016-01-10T13:19:24Z</time>
      </trkpt>
      <trkpt lat="43.98703" lon="5.13879">
        <ele>310.64</ele>
        <time>2016-01-10T13:19:25Z</time>
      </trkpt>
      <trkpt lat="43.98709" lon="5.13878">
        <ele>310.16</ele>
        <time>2016-01-10T13:19:26Z</time>
      </trkpt>
      <trkpt lat="43.98714" lon="5.13876">
        <ele>309.68</ele>
        <time>2016-01-10T13:19:27Z</time>
      </trkpt>
      <trkpt lat="43.98721" lon="5.13875">
        <ele>309.68</ele>
        <time>2016-01-10T13:19:28Z</time>
      </trkpt>
      <trkpt lat="43.98727" lon="5.13873">
        <ele>309.68</ele>
        <time>2016-01-10T13:19:29Z</time>
      </trkpt>
      <trkpt lat="43.98733" lon="5.13872">
        <ele>309.2</ele>
        <time>2016-01-10T13:19:30Z</time>
      </trkpt>
      <trkpt lat="43.98745" lon="5.13865">
        <ele>309.2</ele>
        <time>2016-01-10T13:19:32Z</time>
      </trkpt>
      <trkpt lat="43.98782" lon="5.1384">
        <ele>307.28</ele>
        <time>2016-01-10T13:19:38Z</time>
      </trkpt>
      <trkpt lat="43.98788" lon="5.13836">
        <ele>307.28</ele>
        <time>2016-01-10T13:19:39Z</time>
      </trkpt>
      <trkpt lat="43.98795" lon="5.13831">
        <ele>307.28</ele>
        <time>2016-01-10T13:19:40Z</time>
      </trkpt>
      <trkpt lat="43.9883" lon="5.13805">
        <ele>305.84</ele>
        <time>2016-01-10T13:19:46Z</time>
      </trkpt>
      <trkpt lat="43.98861" lon="5.13788">
        <ele>305.84</ele>
        <time>2016-01-10T13:19:51Z</time>
      </trkpt>
      <trkpt lat="43.98867" lon="5.13786">
        <ele>305.84</ele>
        <time>2016-01-10T13:19:52Z</time>
      </trkpt>
      <trkpt lat="43.98873" lon="5.13785">
        <ele>305.84</ele>
        <time>2016-01-10T13:19:53Z</time>
      </trkpt>
      <trkpt lat="43.9888" lon="5.13784">
        <ele>305.36</ele>
        <time>2016-01-10T13:19:54Z</time>
      </trkpt>
      <trkpt lat="43.98886" lon="5.13783">
        <ele>305.36</ele>
        <time>2016-01-10T13:19:55Z</time>
      </trkpt>
      <trkpt lat="43.9893" lon="5.13779">
        <ele>304.39</ele>
        <time>2016-01-10T13:20:02Z</time>
      </trkpt>
      <trkpt lat="43.98936" lon="5.1378">
        <ele>303.91</ele>
        <time>2016-01-10T13:20:03Z</time>
      </trkpt>
      <trkpt lat="43.98942" lon="5.13781">
        <ele>303.91</ele>
        <time>2016-01-10T13:20:04Z</time>
      </trkpt>
      <trkpt lat="43.98949" lon="5.13782">
        <ele>303.43</ele>
        <time>2016-01-10T13:20:05Z</time>
      </trkpt>
      <trkpt lat="43.98955" lon="5.13782">
        <ele>303.43</ele>
        <time>2016-01-10T13:20:06Z</time>
      </trkpt>
      <trkpt lat="43.98962" lon="5.13781">
        <ele>302.95</ele>
        <time>2016-01-10T13:20:07Z</time>
      </trkpt>
      <trkpt lat="43.98968" lon="5.13779">
        <ele>302.47</ele>
        <time>2016-01-10T13:20:08Z</time>
      </trkpt>
      <trkpt lat="43.98975" lon="5.13775">
        <ele>301.51</ele>
        <time>2016-01-10T13:20:09Z</time>
      </trkpt>
      <trkpt lat="43.98981" lon="5.1377">
        <ele>301.03</ele>
        <time>2016-01-10T13:20:10Z</time>
      </trkpt>
      <trkpt lat="43.98987" lon="5.13762">
        <ele>300.55</ele>
        <time>2016-01-10T13:20:11Z</time>
      </trkpt>
      <trkpt lat="43.98992" lon="5.13754">
        <ele>300.07</ele>
        <time>2016-01-10T13:20:12Z</time>
      </trkpt>
      <trkpt lat="43.98998" lon="5.13746">
        <ele>299.59</ele>
        <time>2016-01-10T13:20:13Z</time>
      </trkpt>
      <trkpt lat="43.99003" lon="5.13738">
        <ele>299.11</ele>
        <time>2016-01-10T13:20:14Z</time>
      </trkpt>
      <trkpt lat="43.99028" lon="5.13707">
        <ele>297.67</ele>
        <time>2016-01-10T13:20:18Z</time>
      </trkpt>
      <trkpt lat="43.99041" lon="5.13695">
        <ele>297.18</ele>
        <time>2016-01-10T13:20:20Z</time>
      </trkpt>
      <trkpt lat="43.99086" lon="5.13662">
        <ele>294.78</ele>
        <time>2016-01-10T13:20:26Z</time>
      </trkpt>
      <trkpt lat="43.99108" lon="5.13645">
        <ele>292.86</ele>
        <time>2016-01-10T13:20:29Z</time>
      </trkpt>
      <trkpt lat="43.99122" lon="5.13632">
        <ele>292.38</ele>
        <time>2016-01-10T13:20:31Z</time>
      </trkpt>
      <trkpt lat="43.9913" lon="5.13629">
        <ele>291.9</ele>
        <time>2016-01-10T13:20:32Z</time>
      </trkpt>
      <trkpt lat="43.99137" lon="5.13629">
        <ele>291.42</ele>
        <time>2016-01-10T13:20:33Z</time>
      </trkpt>
      <trkpt lat="43.99143" lon="5.13631">
        <ele>290.46</ele>
        <time>2016-01-10T13:20:34Z</time>
      </trkpt>
      <trkpt lat="43.99148" lon="5.13634">
        <ele>289.49</ele>
        <time>2016-01-10T13:20:35Z</time>
      </trkpt>
      <trkpt lat="43.99151" lon="5.13635">
        <ele>289.49</ele>
        <time>2016-01-10T13:20:36Z</time>
      </trkpt>
      <trkpt lat="43.9916" lon="5.13639">
        <ele>289.01</ele>
        <time>2016-01-10T13:20:41Z</time>
      </trkpt>
      <trkpt lat="43.99159" lon="5.1364">
        <ele>289.01</ele>
        <time>2016-01-10T13:20:57Z</time>
      </trkpt>
      <trkpt lat="43.9916" lon="5.13641">
        <ele>288.53</ele>
        <time>2016-01-10T13:21:10Z</time>
      </trkpt>
      <trkpt lat="43.9916" lon="5.13641">
        <ele>288.53</ele>
        <time>2016-01-10T13:21:34Z</time>
      </trkpt>
      <trkpt lat="43.9916" lon="5.13642">
        <ele>288.53</ele>
        <time>2016-01-10T13:21:51Z</time>
      </trkpt>
      <trkpt lat="43.9916" lon="5.13642">
        <ele>288.53</ele>
        <time>2016-01-10T13:22:07Z</time>
      </trkpt>
      <trkpt lat="43.99162" lon="5.13641">
        <ele>289.01</ele>
        <time>2016-01-10T13:22:08Z</time>
      </trkpt>
      <trkpt lat="43.99164" lon="5.13641">
        <ele>288.53</ele>
        <time>2016-01-10T13:22:09Z</time>
      </trkpt>
      <trkpt lat="43.99167" lon="5.1364">
        <ele>288.53</ele>
        <time>2016-01-10T13:22:10Z</time>
      </trkpt>
      <trkpt lat="43.9917" lon="5.13639">
        <ele>288.05</ele>
        <time>2016-01-10T13:22:11Z</time>
      </trkpt>
      <trkpt lat="43.99184" lon="5.13636">
        <ele>287.09</ele>
        <time>2016-01-10T13:22:14Z</time>
      </trkpt>
      <trkpt lat="43.99209" lon="5.13635">
        <ele>286.61</ele>
        <time>2016-01-10T13:22:20Z</time>
      </trkpt>
      <trkpt lat="43.99244" lon="5.13633">
        <ele>286.61</ele>
        <time>2016-01-10T13:22:28Z</time>
      </trkpt>
      <trkpt lat="43.99265" lon="5.13641">
        <ele>285.65</ele>
        <time>2016-01-10T13:22:33Z</time>
      </trkpt>
      <trkpt lat="43.99284" lon="5.13646">
        <ele>285.17</ele>
        <time>2016-01-10T13:22:37Z</time>
      </trkpt>
      <trkpt lat="43.99293" lon="5.13647">
        <ele>284.21</ele>
        <time>2016-01-10T13:22:39Z</time>
      </trkpt>
      <trkpt lat="43.99322" lon="5.13653">
        <ele>282.77</ele>
        <time>2016-01-10T13:22:46Z</time>
      </trkpt>
      <trkpt lat="43.9936" lon="5.1366">
        <ele>280.84</ele>
        <time>2016-01-10T13:22:55Z</time>
      </trkpt>
      <trkpt lat="43.99364" lon="5.13659">
        <ele>280.84</ele>
        <time>2016-01-10T13:22:58Z</time>
      </trkpt>
      <trkpt lat="43.99364" lon="5.1366">
        <ele>280.84</ele>
        <time>2016-01-10T13:23:04Z</time>
      </trkpt>
      <trkpt lat="43.99362" lon="5.13657">
        <ele>280.84</ele>
        <time>2016-01-10T13:23:12Z</time>
      </trkpt>
      <trkpt lat="43.99363" lon="5.13657">
        <ele>280.84</ele>
        <time>2016-01-10T13:23:18Z</time>
      </trkpt>
      <trkpt lat="43.99363" lon="5.13658">
        <ele>280.84</ele>
        <time>2016-01-10T13:23:24Z</time>
      </trkpt>
      <trkpt lat="43.99364" lon="5.1366">
        <ele>280.84</ele>
        <time>2016-01-10T13:23:34Z</time>
      </trkpt>
      <trkpt lat="43.99364" lon="5.1366">
        <ele>280.84</ele>
        <time>2016-01-10T13:23:41Z</time>
      </trkpt>
      <trkpt lat="43.99366" lon="5.1366">
        <ele>280.84</ele>
        <time>2016-01-10T13:23:51Z</time>
      </trkpt>
      <trkpt lat="43.99368" lon="5.13662">
        <ele>281.32</ele>
        <time>2016-01-10T13:23:58Z</time>
      </trkpt>
      <trkpt lat="43.99369" lon="5.13662">
        <ele>277.48</ele>
        <time>2016-01-10T13:24:05Z</time>
      </trkpt>
      <trkpt lat="43.99369" lon="5.13662">
        <ele>283.73</ele>
        <time>2016-01-10T13:24:06Z</time>
      </trkpt>
      <trkpt lat="43.99369" lon="5.13662">
        <ele>280.36</ele>
        <time>2016-01-10T13:24:11Z</time>
      </trkpt>
      <trkpt lat="43.99369" lon="5.13662">
        <ele>284.21</ele>
        <time>2016-01-10T13:24:12Z</time>
      </trkpt>
      <trkpt lat="43.99369" lon="5.13662">
        <ele>279.88</ele>
        <time>2016-01-10T13:24:13Z</time>
      </trkpt>
      <trkpt lat="43.99369" lon="5.13662">
        <ele>281.32</ele>
        <time>2016-01-10T13:24:25Z</time>
      </trkpt>
      <trkpt lat="43.99369" lon="5.13662">
        <ele>280.84</ele>
        <time>2016-01-10T13:24:40Z</time>
      </trkpt>
      <trkpt lat="43.99369" lon="5.13661">
        <ele>282.28</ele>
        <time>2016-01-10T13:24:53Z</time>
      </trkpt>
    </trkseg>
  </trk>
</gpx>